# Wetter Temperatur Luftdruck Luftfeuchtigkeit Sichtweite Windgeschwindigkeit Windrichtung Zeit
1 Snow -1 1021 80 14484 2.17 20 09:58 29.01.2020
2 Snow -1 1021 80 14484 2.17 20 09:39 29.01.2020
3 Snow -1 1021 80 14484 2.17 20 09:18 29.01.2020
4 Clouds -1 1021 70 16093 2.17 20 08:44 29.01.2020
5 Snow -1 1021 80 16093 1.5 50 08:24 29.01.2020
6 Clouds -1 1021 86 16093 1.51 42 07:45 29.01.2020
7 Clouds -1 1020 73 16093 1.5 350 07:26 29.01.2020
8 Clouds -1 1020 86 16093 1.51 42 06:56 29.01.2020
9 Clouds -1 1020 86 16093 1.51 42 06:56 29.01.2020
10 Clouds -1 1020 86 16093 1.51 42 06:37 29.01.2020
11 Clouds -1 1020 74 16093 2.6 20 06:19 29.01.2020
12 Clouds -1 1020 73 16093 1.51 42 05:50 29.01.2020
13 Clouds -1 1020 73 16093 3.1 10 05:31 29.01.2020
14 Clouds -1 1020 74 16093 3.49 353 04:38 29.01.2020
15 Clouds -1 1020 80 16093 3.49 353 03:59 29.01.2020
16 Clouds -1 1020 74 16093 1.5 20 02:34 29.01.2020
17 Clouds -1 1019 87 16093 2.6 300 01:18 29.01.2020
18 Clouds -1 1019 87 16093 1.5 290 00:38 29.01.2020
19 Clouds -1 1019 87 16093 1.5 290 00:20 29.01.2020
20 Clouds -1 1019 87 16093 1.76 343 23:39 28.01.2020
21 Clouds -1 1019 81 16093 2.1 270 23:19 28.01.2020
22 Clouds -1 1019 81 16093 1.06 337 22:49 28.01.2020
23 Clouds -1 1019 81 16093 1.5 300 22:27 28.01.2020
24 Clouds 0 1019 81 16093 1.06 337 21:57 28.01.2020
25 Clouds 0 1019 81 16093 1.06 337 21:38 28.01.2020
26 Clouds 0 1018 81 16093 1.06 337 21:19 28.01.2020
27 Clouds 0 1018 81 16093 1.06 337 21:19 28.01.2020
28 Clouds 0 1018 81 16093 1.06 337 20:45 28.01.2020
29 Clouds 0 1018 81 16093 2.1 250 20:26 28.01.2020
30 Clouds 0 1019 84 16093 2.18 319 19:55 28.01.2020
31 Clouds 0 1019 84 16093 2.1 270 19:37 28.01.2020
32 Clouds 0 1019 84 16093 2.1 270 19:19 28.01.2020
33 Clouds 0 1019 84 16093 2.18 319 18:42 28.01.2020
34 Clouds 0 1020 84 16093 3.1 270 18:23 28.01.2020
35 -273 0 0 0 0 0 17:59 28.01.2020
36 Clouds -1 1020 84 16093 2.18 319 17:40 28.01.2020
37 Clouds -1 1020 84 16093 3.1 260 17:21 28.01.2020
38 Clouds -1 1020 84 11265 3.69 312 16:59 28.01.2020
39 Clouds -1 1020 84 11265 3.69 312 16:40 28.01.2020
40 Clouds -1 1019 84 16093 3.1 310 16:22 28.01.2020
41 Mist -1 1019 84 6437 3.69 312 15:55 28.01.2020
42 Clouds -1 1019 84 16093 2.6 310 15:37 28.01.2020
43 Clouds -1 1019 84 16093 2.6 310 15:18 28.01.2020
44 Mist -1 1019 84 8047 3.69 312 14:43 28.01.2020
45 Clouds -1 1019 84 16093 3.6 310 14:19 28.01.2020
46 Mist -1 1019 84 6437 3.84 292 13:42 28.01.2020
47 Clouds -1 1018 84 16093 2.6 290 13:24 28.01.2020
48 Mist -1 1018 84 6437 3.32 298 12:45 28.01.2020
49 Clouds -1 1018 84 12874 3.1 300 12:25 28.01.2020
50 Mist -1 1018 84 6437 3.32 298 11:59 28.01.2020
51 Clouds -1 1018 84 16093 2.6 320 11:41 28.01.2020
52 Clouds -1 1018 84 16093 2.6 320 11:21 28.01.2020
53 Mist -1 1018 84 6437 4.38 311 10:44 28.01.2020
54 Clouds -1 1018 84 14484 3.1 280 10:26 28.01.2020
55 Mist 0 1018 84 6437 4.38 311 09:59 28.01.2020
56 Mist 0 1018 84 6437 4.38 311 09:41 28.01.2020
57 Clouds 0 1018 80 12874 2.6 330 09:20 28.01.2020
58 Clouds 0 1018 80 12874 2.6 330 09:20 28.01.2020
59 Mist 0 1018 84 8047 4.38 311 08:45 28.01.2020
60 Snow 0 1018 80 14484 2.1 290 08:25 28.01.2020
61 Clouds 0 1018 92 11265 1.5 310 07:53 28.01.2020
62 Clouds 0 1018 80 14484 3.1 320 07:31 28.01.2020
63 Mist 0 1018 92 6437 4.46 297 06:47 28.01.2020
64 Clouds 0 1018 80 16093 1.5 300 06:24 28.01.2020
65 Mist 0 1018 92 6437 4.46 297 05:38 28.01.2020
66 Clouds 0 1018 80 14484 2.6 310 05:20 28.01.2020
67 Mist 0 1018 93 4828 3.83 312 03:47 28.01.2020
68 Mist 0 1018 93 6437 3.83 312 02:46 28.01.2020
69 Clouds 0 1017 80 16093 2.6 310 02:25 28.01.2020
70 Mist 0 1017 93 6437 3.89 317 01:53 28.01.2020
71 Clouds 0 1016 80 16093 2.6 320 01:20 28.01.2020
72 Drizzle 1 1017 84 6437 4.17 331 00:43 28.01.2020
73 Clouds 1 1016 74 14484 2.1 320 00:19 28.01.2020
74 Clouds 1 1016 74 14484 2.1 330 23:43 27.01.2020
75 Clouds 1 1016 74 14484 2.1 330 23:19 27.01.2020
76 Rain 1 1016 74 14484 2.1 310 22:45 27.01.2020
77 Rain 1 1016 74 14484 3.1 320 22:20 27.01.2020
78 Rain 1 1016 74 14484 3.1 320 22:20 27.01.2020
79 Rain 1 1016 74 14484 3.1 320 22:20 27.01.2020
80 Clouds 1 1015 80 16093 2.1 340 21:57 27.01.2020
81 Clouds 1 1015 80 16093 2.1 340 21:57 27.01.2020
82 Clouds 1 1016 86 11265 4.32 343 21:39 27.01.2020
83 Clouds 1 1015 74 12874 3.1 320 21:19 27.01.2020
84 Clouds 1 1015 74 16093 2.1 330 20:56 27.01.2020
85 Snow 1 1015 86 11265 4.32 343 20:37 27.01.2020
86 Clouds 1 1015 80 11265 3.1 310 20:19 27.01.2020
87 Snow 1 1016 86 3219 4.6 280 19:55 27.01.2020
88 Snow 1 1016 86 3219 4.6 280 19:37 27.01.2020
89 Snow 1 1016 86 3219 4.6 280 19:19 27.01.2020
90 Clouds 0 1016 74 11265 3.1 300 18:39 27.01.2020
91 Clouds 0 1016 74 11265 3.1 300 18:21 27.01.2020
92 Clouds 0 1016 89 11265 4.2 324 17:57 27.01.2020
93 Clouds 0 1016 89 11265 4.2 324 17:57 27.01.2020
94 Clouds 0 1016 89 11265 4.2 324 17:37 27.01.2020
95 Clouds 0 1015 92 11265 1.5 320 17:18 27.01.2020
96 Mist -1 1015 92 4828 4.24 295 16:42 27.01.2020
97 Clouds -1 1015 86 11265 3.1 290 16:24 27.01.2020
98 Clouds -1 1015 86 11265 3.1 290 16:24 27.01.2020
99 Mist -1 1015 92 4828 4.24 295 15:59 27.01.2020
100 Mist -1 1015 92 4828 4.24 295 15:40 27.01.2020
101 Clouds -1 1014 86 11265 2.6 310 15:19 27.01.2020
102 Clouds -2 1014 92 11265 2.6 320 14:56 27.01.2020
103 Clouds -2 1014 92 12874 2.6 330 14:37 27.01.2020
104 Clouds -2 1014 92 12874 2.6 330 14:37 27.01.2020
105 Clouds -2 1014 92 12874 2.6 330 14:19 27.01.2020
106 Mist -2 1014 86 8047 3.98 319 13:42 27.01.2020
107 Clouds -2 1013 92 12874 3.1 340 13:22 27.01.2020
108 Clouds -2 1013 86 11265 3.6 320 12:57 27.01.2020
109 Clouds -2 1013 86 11265 2.1 320 12:38 27.01.2020
110 Clouds -2 1013 86 11265 2.1 320 12:20 27.01.2020
111 Clouds -2 1013 92 11265 3.1 290 11:42 27.01.2020
112 Clouds -2 1013 92 11265 3.1 290 11:21 27.01.2020
113 Mist -2 1012 92 4828 3.1 290 10:55 27.01.2020
114 Clouds -2 1013 86 11265 2.6 290 10:36 27.01.2020
115 Clouds -2 1013 86 11265 3.1 300 10:18 27.01.2020
116 Clouds -2 1013 86 12874 3.1 290 09:39 27.01.2020
117 Clouds -2 1013 86 11265 2.6 270 09:39 27.01.2020
118 Clouds -2 1013 86 12874 3.1 290 09:19 27.01.2020
119 Clouds -2 1013 86 12874 3.1 290 08:48 27.01.2020
120 Clouds -2 1013 86 12874 2.6 300 08:23 27.01.2020
121 Clouds -2 1013 92 16093 2.6 300 07:55 27.01.2020
122 Clouds -2 1013 92 16093 2.6 300 07:37 27.01.2020
123 Clouds -2 1013 86 12874 4.6 290 07:19 27.01.2020
124 Clouds -2 1013 92 11265 3.6 290 06:33 27.01.2020
125 Clouds -2 1013 86 16093 2.1 300 05:38 27.01.2020
126 Rain -2 1013 86 12874 3.6 290 04:21 27.01.2020
127 Clouds -2 1013 86 16093 4.78 266 03:35 27.01.2020
128 Clouds -2 1013 92 11265 4.1 250 01:47 27.01.2020
129 Clouds -2 1013 92 12874 4.6 240 01:22 27.01.2020
130 Clouds -2 1013 92 11265 4.1 260 00:40 27.01.2020
131 Clouds -2 1013 86 12874 5.1 240 00:21 27.01.2020
132 Mist -2 1013 92 8047 4.6 230 23:43 26.01.2020
133 Clouds -1 1012 86 14484 5.1 240 23:21 26.01.2020
134 Rain -1 1012 100 11265 5.57 263 22:57 26.01.2020
135 Rain -1 1012 100 11265 5.57 263 22:38 26.01.2020
136 Rain -1 1012 89 16093 4.6 270 22:20 26.01.2020
137 Clouds -1 1012 86 16093 4.6 250 21:57 26.01.2020
138 Clouds -1 1013 89 16093 2.6 250 21:38 26.01.2020
139 Clouds 0 1012 80 16093 5.1 270 21:20 26.01.2020
140 Snow 0 1013 86 11265 2.1 260 20:57 26.01.2020
141 Snow 0 1013 86 11265 2.1 260 20:38 26.01.2020
142 Clouds 0 1013 80 16093 5.7 240 20:18 26.01.2020
143 Clouds 0 1013 86 16093 5.7 250 19:57 26.01.2020
144 Clouds 0 1013 86 16093 5.7 250 19:37 26.01.2020
145 Clouds 0 1013 80 16093 5.7 240 19:18 26.01.2020
146 Clouds 0 1014 86 16093 5.1 250 18:54 26.01.2020
147 Clouds 0 1014 86 16093 5.1 250 18:36 26.01.2020
148 Clouds 0 1014 90 16093 5.1 250 18:18 26.01.2020
149 Clouds 0 1013 86 16093 5.7 260 17:40 26.01.2020
150 Clouds 0 1014 92 16093 6.2 250 17:20 26.01.2020
151 Clouds 0 1014 92 16093 6.2 250 17:20 26.01.2020
152 Clouds -1 1014 92 16093 6.2 260 16:59 26.01.2020
153 Rain -1 1014 92 16093 6.2 260 16:40 26.01.2020
154 Rain -1 1014 92 12874 5.1 250 16:22 26.01.2020
155 -273 0 0 0 0 0 16:22 26.01.2020
156 Rain -1 1013 92 16093 3.6 260 15:58 26.01.2020
157 Rain -1 1013 92 16093 3.6 260 15:58 26.01.2020
158 Rain -1 1013 92 16093 3.6 260 15:58 26.01.2020
159 Rain -1 1013 92 16093 3.6 260 15:40 26.01.2020
160 Clouds -1 1014 92 16093 3.6 260 15:19 26.01.2020
161 Clouds -1 1013 92 16093 2.1 260 14:41 26.01.2020
162 Clouds -1 1013 92 16093 2.1 260 14:23 26.01.2020
163 Clouds -1 1013 93 16093 2.1 260 14:23 26.01.2020
164 Clouds -1 1013 93 16093 3.1 260 13:57 26.01.2020
165 Snow -1 1013 74 0 0.45 165 13:38 26.01.2020
166 Snow -1 1013 74 0 5.92 269 13:18 26.01.2020
167 Rain -1 1014 86 16093 6.2 260 12:42 26.01.2020
168 Rain 0 1014 93 16093 5.1 260 12:24 26.01.2020
169 Rain 0 1014 93 16093 5.1 260 11:58 26.01.2020
170 Snow 0 1013 74 0 6.09 272 11:40 26.01.2020
171 Clouds 0 1013 86 12874 5.7 260 11:19 26.01.2020
172 Clouds 0 1013 86 12874 5.7 260 10:59 26.01.2020
173 Clouds 0 1013 86 12874 5.7 260 10:39 26.01.2020
174 Clouds 0 1013 86 12874 5.7 260 10:21 26.01.2020
175 Clouds 0 1013 91 16093 3.6 250 09:58 26.01.2020
176 Clouds 0 1013 91 16093 3.6 250 09:40 26.01.2020
177 Clouds 0 1013 91 16093 3.6 250 09:40 26.01.2020
178 Clouds 0 1013 86 14484 4.6 270 09:21 26.01.2020
179 Clouds 0 1013 91 11265 3.6 260 08:45 26.01.2020
180 Mist 0 1013 86 9656 5.7 270 08:23 26.01.2020
181 Rain 0 1013 97 11265 4.6 250 07:58 26.01.2020
182 Rain 0 1013 97 11265 4.6 250 07:40 26.01.2020
183 Rain 0 1013 86 9656 6.2 270 07:21 26.01.2020
184 Mist 0 1013 86 8047 6.2 260 06:31 26.01.2020
185 Rain 0 1013 86 9656 5.1 270 05:32 26.01.2020
186 Rain 0 1012 86 9656 3.6 270 04:45 26.01.2020
187 Snow 0 1012 86 11265 3.6 270 02:59 26.01.2020
188 Snow 0 1012 91 4828 6.11 267 01:57 26.01.2020
189 Rain 0 1012 91 4828 6.11 267 01:37 26.01.2020
190 Rain 0 1011 86 12874 4.6 260 01:18 26.01.2020
191 Rain 0 1012 91 8047 4.6 260 00:38 26.01.2020
192 Snow 0 1011 86 4828 3.6 250 00:20 26.01.2020
193 Rain 0 1011 77 0 6.36 264 23:37 25.01.2020
194 Rain 0 1011 77 0 6.75 271 23:18 25.01.2020
195 Rain 0 1011 77 0 6.75 271 23:18 25.01.2020
196 Rain 0 1014 93 0 6.75 271 22:41 25.01.2020
197 Rain 1 1010 77 0 6.75 271 22:20 25.01.2020
198 Rain 1 1009 92 0 0.89 273 21:57 25.01.2020
199 Snow 1 1010 78 0 6.75 271 21:39 25.01.2020
200 Snow 0 1010 98 0 6.75 271 21:20 25.01.2020
201 Snow 1 1014 92 0 6.75 271 20:45 25.01.2020
202 Snow 1 1014 93 0 6.75 271 20:26 25.01.2020
203 Rain 1 1014 93 0 5.61 258 19:56 25.01.2020
204 Snow 0 1011 98 0 5.78 260 19:56 25.01.2020
205 Rain 1 1010 78 0 5.78 260 19:37 25.01.2020
206 Rain 1 1014 93 0 5.61 258 19:19 25.01.2020
207 Rain 1 1014 93 0 5.78 260 18:55 25.01.2020
208 Rain 1 1010 79 0 5.78 260 18:37 25.01.2020
209 Rain 1 1010 79 0 5.78 260 18:18 25.01.2020
210 Rain 1 1014 94 0 5.78 260 17:39 25.01.2020
211 Rain 1 1009 97 4828 2.1 270 17:19 25.01.2020
212 Rain 1 1014 94 0 5.21 265 16:56 25.01.2020
213 Rain 1 1009 97 4828 2.1 270 16:37 25.01.2020
214 Rain 1 1009 97 4828 2.1 270 16:18 25.01.2020
215 Snow 0 1008 86 1609 1.5 0 15:42 25.01.2020
216 Snow 0 1010 79 0 5.03 268 15:23 25.01.2020
217 Rain 0 1009 100 11265 2.1 240 14:46 25.01.2020
218 Rain 0 1009 100 11265 2.1 240 14:19 25.01.2020
219 Snow 0 1008 93 0 0.89 196 13:57 25.01.2020
220 Snow 0 1009 79 0 4.89 269 13:39 25.01.2020
221 Rain 0 1009 79 0 4.89 269 13:18 25.01.2020
222 Rain 0 1009 79 0 4.89 269 13:18 25.01.2020
223 Rain 0 1008 98 6437 4.41 257 12:42 25.01.2020
224 Rain 0 1008 98 6437 4.41 257 12:21 25.01.2020
225 Rain 0 1008 98 6437 4.41 257 11:43 25.01.2020
226 Snow 0 1008 98 6437 3.6 240 11:21 25.01.2020
227 Snow 0 1008 98 6437 3.6 240 11:21 25.01.2020
228 Rain 0 1009 100 6437 2.1 200 10:56 25.01.2020
229 Rain 0 1009 100 6437 2.1 200 10:38 25.01.2020
230 Rain 0 1008 98 4023 3.1 240 10:19 25.01.2020
231 Rain 0 1009 98 4828 4.63 248 09:40 25.01.2020
232 Rain 0 1008 98 4023 3.6 220 09:20 25.01.2020
233 Rain 0 1008 86 4023 4.63 248 08:43 25.01.2020
234 Rain 0 1008 98 4023 4.01 220 08:20 25.01.2020
235 Rain 0 1008 100 4023 2.6 220 07:41 25.01.2020
236 Rain 1 1009 100 4023 3.1 220 06:44 25.01.2020
237 Rain 1 1009 100 2816 4.1 230 06:24 25.01.2020
238 Rain 1 1009 100 2012 4.01 220 05:44 25.01.2020
239 Rain 1 1008 100 16093 2.6 230 04:25 25.01.2020
240 Rain 1 1009 100 11265 3.15 238 03:50 25.01.2020
241 Rain 2 1009 100 8047 3.15 238 02:40 25.01.2020
242 Rain 2 1009 93 4828 2.6 230 01:58 25.01.2020
243 Rain 2 1009 100 805 2.63 269 01:34 25.01.2020
244 Rain 2 1008 100 4828 1.86 318 00:41 25.01.2020
245 Rain 2 1008 100 1609 1.86 318 00:23 25.01.2020
246 Rain 3 1009 100 402 1.86 318 23:42 24.01.2020
247 Rain 3 1008 100 402 1.72 55 23:24 24.01.2020
248 Rain 3 1009 100 1207 1.72 55 22:56 24.01.2020
249 Rain 3 1009 100 1207 1.72 55 22:37 24.01.2020
250 Rain 3 1008 93 402 1.72 55 22:19 24.01.2020
251 Rain 3 1009 100 201 1.72 55 21:41 24.01.2020
252 Fog 3 1009 93 402 1.72 55 21:19 24.01.2020
253 Drizzle 3 1009 100 805 1.72 55 20:44 24.01.2020
254 Fog 3 1009 100 805 1.5 150 20:23 24.01.2020
255 Fog 3 1010 100 805 4.1 104 19:59 24.01.2020
256 Fog 3 1010 100 805 4.1 104 19:41 24.01.2020
257 Fog 3 1010 100 805 1.5 90 19:22 24.01.2020
258 Mist 3 1011 93 1207 2.1 120 18:58 24.01.2020
259 Drizzle 3 1010 100 402 2.1 110 18:40 24.01.2020
260 Rain 3 1011 100 805 2.1 90 18:21 24.01.2020
261 Rain 3 1011 100 1207 4.1 104 17:44 24.01.2020
262 Rain 2 1011 100 402 1.5 90 17:21 24.01.2020
263 Fog 2 1011 100 402 1.5 100 16:57 24.01.2020
264 Fog 2 1011 100 402 1.5 100 16:57 24.01.2020
265 Rain 2 1012 93 2012 2.1 100 16:38 24.01.2020
266 Drizzle 2 1011 100 1207 2.1 80 16:18 24.01.2020
267 Rain 2 1011 100 1207 2.6 100 15:41 24.01.2020
268 Rain 2 1011 100 2414 3.1 100 15:21 24.01.2020
269 Drizzle 2 1011 93 2012 3.6 80 14:42 24.01.2020
270 Drizzle 2 1011 93 2414 3.1 70 14:24 24.01.2020
271 Rain 2 1012 100 6437 6.72 119 13:58 24.01.2020
272 Rain 1 1012 100 6437 6.72 119 13:40 24.01.2020
273 Rain 1 1012 93 3219 2.6 90 13:21 24.01.2020
274 Rain 1 1012 93 4023 2.1 80 12:42 24.01.2020
275 Drizzle 1 1012 93 2414 4.1 90 12:20 24.01.2020
276 Rain 1 1012 100 3219 6.63 119 11:44 24.01.2020
277 Drizzle 1 1012 93 2816 4.1 70 11:19 24.01.2020
278 Drizzle 1 1012 93 3219 4.6 80 10:43 24.01.2020
279 Drizzle 1 1013 93 4828 5.1 70 10:23 24.01.2020
280 Rain 1 1013 100 4023 7.59 114 09:57 24.01.2020
281 Rain 1 1013 100 4023 7.59 114 09:39 24.01.2020
282 Rain 1 1013 100 4023 3.1 40 09:21 24.01.2020
283 Rain 1 1014 100 6437 3.1 60 08:41 24.01.2020
284 Rain 1 1015 80 4023 2.1 70 08:20 24.01.2020
285 Rain 1 1014 100 8047 7.4 131 07:52 24.01.2020
286 Rain 1 1015 93 6437 2.6 80 07:34 24.01.2020
287 Rain 1 1015 93 8047 2.6 90 06:48 24.01.2020
288 Rain 1 1016 80 8047 2.6 100 06:29 24.01.2020
289 Rain 1 1016 80 6437 3.6 100 05:58 24.01.2020
290 Clouds 1 1016 87 11265 2.1 60 04:57 24.01.2020
291 Rain 1 1016 87 8047 1.5 90 02:53 24.01.2020
292 Drizzle 1 1017 87 4828 2.1 0 02:25 24.01.2020
293 Rain 1 1017 94 3219 2.6 120 01:45 24.01.2020
294 Rain 1 1017 86 3219 2.1 110 01:26 24.01.2020
295 Rain 1 1017 98 4828 3.6 140 00:23 24.01.2020
296 Rain 1 1017 98 4828 2.6 140 23:49 23.01.2020
297 Rain 1 1017 86 4828 3.1 160 23:31 23.01.2020
298 Rain 1 1017 100 8047 5.99 160 22:59 23.01.2020
299 Rain 1 1017 100 8047 5.99 160 22:38 23.01.2020
300 Rain 1 1017 100 8047 5.99 160 22:38 23.01.2020
301 Rain 1 1017 80 8047 4.1 180 22:19 23.01.2020
302 Rain 1 1017 86 1609 3.1 160 21:57 23.01.2020
303 Rain 1 1017 86 3219 3.6 170 21:39 23.01.2020
304 Rain 1 1017 86 3219 3.6 170 21:20 23.01.2020
305 Rain 1 1017 86 4023 3.1 160 20:58 23.01.2020
306 Rain 1 1017 86 4023 3.6 160 20:38 23.01.2020
307 Rain 1 1017 86 4023 3.6 160 20:19 23.01.2020
308 Rain 1 1018 97 8047 4.1 160 19:54 23.01.2020
309 Rain 1 1018 97 8047 4.1 160 19:36 23.01.2020
310 Rain 1 1017 97 2414 3.6 160 19:18 23.01.2020
311 Rain 1 1018 97 2414 4.1 160 18:42 23.01.2020
312 Rain 0 1018 80 4023 3.6 170 18:20 23.01.2020
313 Rain 0 1018 80 4023 3.6 170 18:20 23.01.2020
314 Rain 0 1019 86 2012 4.1 170 17:58 23.01.2020
315 Rain 0 1019 97 16093 6.3 183 17:40 23.01.2020
316 Rain 0 1019 97 2414 5.1 180 17:19 23.01.2020
317 Rain 0 1019 97 6437 2.1 170 16:55 23.01.2020
318 Rain 0 1019 97 6437 2.1 170 16:36 23.01.2020
319 Rain 0 1018 92 2414 3.6 160 16:18 23.01.2020
320 Rain -1 1019 97 1609 4.1 160 15:54 23.01.2020
321 Rain -1 1018 92 2414 3.6 160 15:36 23.01.2020
322 Rain -1 1018 92 2414 3.6 160 15:18 23.01.2020
323 Snow -1 1019 92 2816 4.1 170 14:54 23.01.2020
324 Rain -1 1019 100 11265 5.85 183 14:36 23.01.2020
325 Rain -1 1018 92 9656 3.1 170 14:18 23.01.2020
326 Rain -1 1019 92 8047 6.29 187 13:38 23.01.2020
327 Rain -1 1018 92 4023 3.1 170 13:19 23.01.2020
328 Rain -1 1018 92 4023 4.1 180 12:47 23.01.2020
329 Rain -1 1018 92 4828 3.1 160 12:25 23.01.2020
330 Rain -1 1018 92 4828 3.1 160 12:25 23.01.2020
331 Rain -1 1019 86 3219 4.6 180 11:58 23.01.2020
332 Rain -1 1019 92 8047 4.6 180 11:38 23.01.2020
333 Rain -1 1019 86 2816 5.1 180 11:19 23.01.2020
334 Clouds -1 1020 86 11265 3.6 190 10:44 23.01.2020
335 Snow -1 1019 86 4023 4.1 180 10:22 23.01.2020
336 Snow -1 1020 93 4828 2.6 170 09:59 23.01.2020
337 Snow -1 1020 93 4828 2.6 170 09:37 23.01.2020
338 Snow -1 1019 80 4828 4.6 190 09:19 23.01.2020
339 Snow -1 1020 93 4828 3.6 180 08:41 23.01.2020
340 Clouds 0 1019 68 16093 4.1 180 08:22 23.01.2020
341 Clouds 0 1020 68 16093 4.6 180 07:45 23.01.2020
342 Clouds 0 1020 68 16093 4.6 180 07:26 23.01.2020
343 Clouds 0 1020 55 16093 4.1 190 06:53 23.01.2020
344 Clouds 0 1019 68 16093 4.1 190 06:23 23.01.2020
345 Clouds 0 1021 68 16093 5.1 180 05:57 23.01.2020
346 Clouds 0 1020 65 16093 5.1 180 04:24 23.01.2020
347 Clouds 0 1020 65 16093 5.1 170 02:34 23.01.2020
348 Clear 0 1022 63 16093 4.6 170 01:41 23.01.2020
349 Clouds 0 1021 59 16093 5.7 180 00:28 23.01.2020
350 Clear 1 1022 64 16093 4.6 180 23:48 22.01.2020
351 Clouds 1 1020 59 16093 5.1 180 23:30 22.01.2020
352 Clear 1 1022 64 16093 5.1 170 22:59 22.01.2020
353 Clear 1 1022 64 16093 5.1 170 22:41 22.01.2020
354 Clouds 1 1021 55 16093 4.6 190 22:23 22.01.2020
355 Clear 1 1022 64 16093 6.2 200 21:41 22.01.2020
356 Clouds 1 1021 59 16093 6.2 180 21:22 22.01.2020
357 Clear 1 1022 64 16093 5.7 180 20:58 22.01.2020
358 Clouds 1 1022 59 16093 6.2 190 20:39 22.01.2020
359 Clouds 0 1022 59 16093 6.2 190 20:21 22.01.2020
360 Clear 0 1023 64 16093 5.7 190 19:57 22.01.2020
361 Clear 0 1023 64 16093 5.7 190 19:39 22.01.2020
362 Clouds -1 1023 63 16093 5.7 210 19:19 22.01.2020
363 Clear -1 1024 68 16093 6.2 190 18:57 22.01.2020
364 Clear -1 1024 68 16093 6.2 190 18:38 22.01.2020
365 Clear -1 1024 68 16093 6.2 190 18:38 22.01.2020
366 Clouds -2 1024 68 16093 6.2 190 18:19 22.01.2020
367 Clear -2 1025 74 16093 7.2 200 17:55 22.01.2020
368 Clouds -2 1024 73 16093 5.7 200 17:37 22.01.2020
369 Clouds -3 1024 73 16093 5.7 200 17:18 22.01.2020
370 Clear -3 1025 79 16093 6.7 200 16:43 22.01.2020
371 Clouds -4 1024 68 16093 6.2 200 16:23 22.01.2020
372 Clear -4 1025 79 16093 7.2 200 15:59 22.01.2020
373 Clear -4 1025 79 16093 7.2 200 15:40 22.01.2020
374 Clear -4 1025 79 16093 7.2 200 15:40 22.01.2020
375 Clouds -4 1025 73 16093 4.1 210 15:22 22.01.2020
376 Clear -5 1025 79 16093 6.2 200 14:56 22.01.2020
377 Clouds -5 1025 73 16093 4.1 210 14:36 22.01.2020
378 Clouds -5 1025 73 16093 4.1 210 14:18 22.01.2020
379 Clear -5 1025 79 16093 5.7 210 13:54 22.01.2020
380 Clouds -5 1025 73 16093 5.1 210 13:36 22.01.2020
381 Clouds -5 1025 73 16093 5.1 210 13:18 22.01.2020
382 Clear -5 1025 79 16093 5.7 190 12:54 22.01.2020
383 Clouds -5 1025 73 16093 6.2 200 12:36 22.01.2020
384 Clouds -4 1025 73 16093 6.2 200 12:18 22.01.2020
385 Clear -4 1026 85 16093 2.1 190 11:55 22.01.2020
386 Clouds -4 1026 73 16093 5.1 200 11:36 22.01.2020
387 Clouds -4 1026 73 16093 5.1 200 11:18 22.01.2020
388 Clear -5 1027 85 16093 3.1 200 10:42 22.01.2020
389 Clouds -5 1027 73 14484 4.1 210 10:19 22.01.2020
390 Clear -5 1027 85 16093 8.95 209 09:43 22.01.2020
391 Clouds -5 1027 79 14484 4.6 210 09:24 22.01.2020
392 Clear -5 1027 85 16093 3.6 200 08:57 22.01.2020
393 Clear -5 1027 85 16093 3.6 200 08:57 22.01.2020
394 Clear -5 1027 85 16093 3.6 200 08:39 22.01.2020
395 Clouds -5 1027 79 14484 5.7 210 08:20 22.01.2020
396 Clear -5 1028 85 16093 5.1 190 07:47 22.01.2020
397 Clouds -5 1028 79 16093 5.7 210 07:29 22.01.2020
398 Clear -4 1029 85 16093 4.6 200 06:46 22.01.2020
399 Clouds -4 1028 73 16093 4.6 200 06:26 22.01.2020
400 Clouds -4 1029 73 16093 5.7 210 05:26 22.01.2020
401 Clear -4 1030 79 16093 3.6 200 04:18 22.01.2020
402 Clouds -4 1030 73 16093 4.6 210 03:21 22.01.2020
403 Clear -3 1029 73 16093 3.1 190 01:43 22.01.2020
404 Clear -3 1032 79 16093 8.15 207 00:44 22.01.2020
405 Clouds -2 1032 63 16093 6.2 230 00:26 22.01.2020
406 Clouds -2 1033 74 16093 8.15 207 23:38 21.01.2020
407 Clouds -2 1033 58 16093 5.1 240 23:20 21.01.2020
408 Clouds -2 1033 63 16093 6.86 238 22:56 21.01.2020
409 Clouds -2 1033 63 16093 6.86 238 22:56 21.01.2020
410 Clouds -2 1033 58 16093 5.1 230 22:37 21.01.2020
411 Clouds -2 1033 58 16093 5.1 230 22:37 21.01.2020
412 Clouds -2 1033 58 16093 5.1 230 22:19 21.01.2020
413 Clouds -1 1034 63 16093 6.86 238 21:55 21.01.2020
414 Clouds -1 1034 63 16093 6.86 238 21:37 21.01.2020
415 Clouds -1 1034 58 16093 6.2 250 21:18 21.01.2020
416 Clear -1 1034 69 16093 4.1 220 20:55 21.01.2020
417 Clouds -2 1034 63 16093 5.1 230 20:36 21.01.2020
418 Clear -2 1034 72 16093 3.6 220 20:18 21.01.2020
419 Clear -2 1035 63 16093 5.28 236 19:55 21.01.2020
420 Clouds -2 1035 63 16093 4.6 210 19:36 21.01.2020
421 Clear -3 1036 63 16093 5.28 236 19:18 21.01.2020
422 Clear -3 1036 63 16093 5.28 236 18:54 21.01.2020
423 Clouds -3 1037 63 16093 4.6 260 18:36 21.01.2020
424 Clouds -3 1037 63 16093 4.6 260 18:18 21.01.2020
425 Clouds -4 1037 68 16093 4.1 260 17:42 21.01.2020
426 Clouds -5 1037 68 16093 4.1 260 17:19 21.01.2020
427 Clear -6 1037 85 16093 5.58 248 16:55 21.01.2020
428 Clear -6 1037 79 16093 2.1 270 16:36 21.01.2020
429 Clear -7 1037 79 16093 2.1 270 16:18 21.01.2020
430 Clear -9 1037 92 16093 5.58 248 15:39 21.01.2020
431 Clear -10 1037 92 16093 2.1 210 15:20 21.01.2020
432 Clear -11 1037 85 16093 5.58 248 14:40 21.01.2020
433 Clouds -11 1037 78 16093 2.1 220 14:22 21.01.2020
434 Clear -11 1038 92 11265 4.96 292 13:58 21.01.2020
435 Clear -11 1038 92 11265 4.96 292 13:38 21.01.2020
436 Clear -11 1037 78 16093 1.5 290 13:18 21.01.2020
437 Clear -11 1037 78 16093 1.5 270 12:42 21.01.2020
438 Clear -11 1037 78 16093 1.5 270 12:24 21.01.2020
439 Clear -10 1037 92 16093 4.63 283 11:56 21.01.2020
440 Clear -10 1037 85 16093 3.1 260 11:38 21.01.2020
441 Clear -10 1037 92 16093 4.63 283 11:38 21.01.2020
442 Clear -10 1037 78 16093 2.1 290 11:19 21.01.2020
443 Clear -10 1037 85 16093 2.6 260 10:43 21.01.2020
444 Clear -10 1037 73 16093 2.1 310 10:23 21.01.2020
445 Clear -10 1037 79 16093 2.1 260 09:56 21.01.2020
446 Clear -10 1037 79 16093 2.1 260 09:56 21.01.2020
447 Clear -10 1037 79 16093 1.5 300 09:38 21.01.2020
448 Clear -10 1037 79 16093 1.5 300 09:20 21.01.2020
449 Clear -10 1037 79 16093 2.6 260 08:44 21.01.2020
450 Clear -10 1037 79 16093 2.1 290 08:26 21.01.2020
451 Clear -9 1037 79 16093 3.1 280 07:44 21.01.2020
452 Clear -9 1037 73 16093 2.6 320 07:25 21.01.2020
453 Clear -9 1037 79 16093 2.6 280 06:58 21.01.2020
454 Clear -9 1037 79 16093 2.6 280 06:38 21.01.2020
455 Clear -9 1036 73 16093 2.1 320 06:20 21.01.2020
456 Clouds -8 1037 79 16093 3.1 270 05:40 21.01.2020
457 Clear -7 1037 85 16093 6.27 326 04:38 21.01.2020
458 Clouds -5 1037 68 16093 2.6 360 02:29 21.01.2020
459 Clear -5 1036 68 16093 2.6 330 01:36 21.01.2020
460 Clouds -3 1036 74 16093 5.74 326 00:52 21.01.2020
461 Clouds -3 1036 63 16093 4.1 50 00:29 21.01.2020
462 Snow -3 1036 86 11265 5.74 326 23:56 20.01.2020
463 Clouds -2 1035 58 16093 2.6 60 23:36 20.01.2020
464 Clouds -2 1035 58 16093 2.6 60 23:18 20.01.2020
465 Clouds -2 1036 74 16093 6.02 346 22:54 20.01.2020
466 Clouds -2 1035 54 16093 2.6 10 22:36 20.01.2020
467 Clouds -2 1035 54 16093 2.6 10 22:18 20.01.2020
468 Clouds -2 1035 79 16093 6.02 346 21:54 20.01.2020
469 Clouds -2 1035 63 16093 3.1 10 21:36 20.01.2020
470 Clouds -2 1035 63 16093 3.1 10 21:18 20.01.2020
471 Clouds -2 1036 58 16093 3.1 340 20:42 20.01.2020
472 Clouds -2 1036 58 16093 3.1 340 20:20 20.01.2020
473 Snow -2 1036 85 4023 5.7 351 19:58 20.01.2020
474 Snow -2 1036 63 14484 2.6 350 19:40 20.01.2020
475 Snow -3 1036 63 14484 2.6 350 19:19 20.01.2020
476 Snow -3 1037 85 4023 5.7 351 18:55 20.01.2020
477 Snow -3 1036 68 14484 5.7 351 18:37 20.01.2020
478 Snow -3 1036 68 14484 5.7 351 18:19 20.01.2020
479 Snow -5 1037 85 6437 5.7 351 17:38 20.01.2020
480 Snow -6 1036 68 16093 2.1 0 17:19 20.01.2020
481 Snow -6 1036 92 4023 6.73 344 16:46 20.01.2020
482 Clouds -7 1036 73 16093 2.1 260 16:26 20.01.2020
483 Snow -7 1036 85 3219 6.73 344 15:59 20.01.2020
484 Snow -8 1035 73 14484 3.6 290 15:40 20.01.2020
485 Snow -8 1035 73 14484 3.6 290 15:22 20.01.2020
486 Snow -8 1035 85 11265 6.73 344 14:58 20.01.2020
487 Snow -8 1035 85 11265 6.73 344 14:39 20.01.2020
488 Snow -8 1035 73 12874 2.1 280 14:20 20.01.2020
489 Snow -9 1035 79 11265 7.72 348 13:44 20.01.2020
490 Snow -8 1034 73 16093 3.1 310 13:24 20.01.2020
491 Snow -9 1034 79 11265 6.98 341 12:58 20.01.2020
492 Snow -9 1034 79 11265 6.98 341 12:40 20.01.2020
493 Snow -9 1033 73 16093 2.6 280 12:21 20.01.2020
494 Snow -9 1033 73 16093 2.6 270 11:55 20.01.2020
495 Snow -9 1033 79 11265 6.98 341 11:36 20.01.2020
496 Snow -9 1033 67 16093 2.1 280 11:18 20.01.2020
497 Snow -9 1033 73 11265 8.31 340 10:41 20.01.2020
498 Snow -9 1033 73 14484 2.6 310 10:20 20.01.2020
499 Snow -9 1033 79 8047 3.1 240 09:41 20.01.2020
500 Snow -9 1032 73 14484 3.1 290 09:23 20.01.2020
501 Snow -9 1033 79 6437 8.31 340 08:55 20.01.2020
502 Snow -9 1032 72 14484 2.6 300 08:31 20.01.2020
503 Snow -9 1032 73 4828 1.5 190 07:55 20.01.2020
504 Snow -9 1032 73 4828 1.5 190 07:37 20.01.2020
505 Clouds -9 1032 67 16093 3.6 300 07:19 20.01.2020
506 Snow -10 1032 78 16093 8.46 327 06:40 20.01.2020
507 Snow -10 1032 72 16093 4.6 300 06:20 20.01.2020
508 Snow -10 1031 73 16093 5.1 280 05:38 20.01.2020
509 Clouds -9 1031 72 16093 4.1 290 05:19 20.01.2020
510 Clear -9 1031 78 16093 9.82 331 03:55 20.01.2020
511 Clear -9 1030 72 16093 4.1 290 01:58 20.01.2020
512 Clear -9 1030 72 16093 4.1 290 01:39 20.01.2020
513 Clouds -9 1030 72 16093 3.1 280 00:56 20.01.2020
514 Clouds -9 1030 72 16093 3.1 280 00:37 20.01.2020
515 Snow -9 1029 67 16093 6.7 300 00:19 20.01.2020
516 Clouds -8 1029 72 16093 6.2 270 23:37 19.01.2020
517 Clouds -8 1028 62 16093 5.7 290 23:18 19.01.2020
518 Clouds -8 1028 62 16093 2.1 280 22:55 19.01.2020
519 Clouds -8 1028 62 16093 5.1 290 22:37 19.01.2020
520 Clouds -8 1028 62 16093 5.1 290 22:18 19.01.2020
521 Clear -8 1027 67 16093 5.7 270 21:55 19.01.2020
522 Clear -8 1027 67 16093 5.7 270 21:37 19.01.2020
523 Clouds -8 1027 67 16093 6.2 290 21:19 19.01.2020
524 Clouds -9 1027 66 16093 5.1 280 20:56 19.01.2020
525 Clouds -9 1027 66 16093 5.1 280 20:37 19.01.2020
526 Clouds -9 1026 61 16093 5.1 300 20:19 19.01.2020
527 Clouds -10 1026 66 16093 2.6 290 19:55 19.01.2020
528 Clouds -10 1026 72 16093 4.1 290 19:37 19.01.2020
529 Clouds -10 1026 72 16093 4.1 290 19:19 19.01.2020
530 Clouds -11 1026 66 16093 3.1 300 18:55 19.01.2020
531 Clouds -11 1026 66 16093 3.1 300 18:37 19.01.2020
532 Clouds -12 1026 66 16093 6.7 290 18:18 19.01.2020
533 Clouds -12 1026 66 16093 6.7 290 18:18 19.01.2020
534 Clouds -13 1025 71 16093 6.2 280 17:57 19.01.2020
535 Clouds -13 1026 71 16093 8.2 270 17:38 19.01.2020
536 Clouds -13 1026 71 16093 8.2 270 17:19 19.01.2020
537 Clouds -14 1026 77 16093 7.2 260 16:57 19.01.2020
538 Clouds -14 1026 77 16093 7.2 260 16:37 19.01.2020
539 Clouds -14 1025 65 16093 5.1 280 16:37 19.01.2020
540 Clouds -15 1025 65 16093 5.1 280 16:19 19.01.2020
541 Clouds -15 1025 71 16093 5.1 280 15:55 19.01.2020
542 Clouds -16 1025 71 16093 5.1 280 15:36 19.01.2020
543 Clouds -16 1024 71 16093 5.1 280 15:18 19.01.2020
544 Clouds -16 1024 71 16093 5.1 280 15:18 19.01.2020
545 Clouds -16 1024 71 16093 5.1 280 15:18 19.01.2020
546 Clouds -16 1024 77 16093 6.2 280 14:40 19.01.2020
547 Clouds -16 1023 71 16093 6.7 290 14:21 19.01.2020
548 Clouds -16 1023 71 16093 4.1 280 13:59 19.01.2020
549 Clouds -16 1023 71 16093 4.1 280 13:40 19.01.2020
550 Clouds -16 1022 65 16093 6.2 270 13:22 19.01.2020
551 Clouds -17 1021 70 16093 7.2 270 12:59 19.01.2020
552 Clouds -17 1022 71 16093 4.6 280 12:41 19.01.2020
553 Clouds -17 1021 65 16093 7.7 280 12:21 19.01.2020
554 Clouds -17 1021 71 16093 8.7 280 11:57 19.01.2020
555 Clouds -17 1020 70 16093 6.2 270 11:38 19.01.2020
556 Clouds -17 1020 70 16093 6.2 270 11:18 19.01.2020
557 Clouds -16 1021 60 16093 8.7 270 10:41 19.01.2020
558 Clouds -16 1019 60 16093 8.7 280 10:21 19.01.2020
559 Clouds -16 1020 71 16093 8.7 270 09:57 19.01.2020
560 Clouds -16 1020 71 16093 8.7 270 09:38 19.01.2020
561 Clouds -16 1019 65 16093 9.8 270 09:20 19.01.2020
562 Clouds -16 1019 71 16093 8.2 280 08:55 19.01.2020
563 Snow -16 1018 65 14484 11.3 270 08:33 19.01.2020
564 Clouds -15 1018 71 16093 10.3 270 07:58 19.01.2020
565 Snow -15 1018 65 14484 11.3 280 07:29 19.01.2020
566 Clouds -15 1018 65 16093 9.3 260 06:55 19.01.2020
567 Snow -15 1017 65 11265 9.8 270 06:23 19.01.2020
568 Snow -13 1016 61 14484 8.7 270 04:18 19.01.2020
569 Snow -11 1014 66 14484 12.9 260 02:34 19.01.2020
570 Snow -10 1015 72 16093 10.8 270 01:43 19.01.2020
571 Snow -10 1013 67 14484 8.7 260 01:21 19.01.2020
572 Snow -9 1014 72 16093 11.8 270 00:45 19.01.2020
573 Clouds -9 1012 79 11265 10.3 260 00:24 19.01.2020
574 Snow -8 1012 79 11265 12.3 260 23:55 18.01.2020
575 Snow -8 1010 85 12874 10.3 260 23:36 18.01.2020
576 Snow -7 1010 85 12874 10.3 260 23:18 18.01.2020
577 Clouds -6 1010 85 11265 10.3 250 22:42 18.01.2020
578 Rain -5 1008 79 12874 10.3 260 22:24 18.01.2020
579 Clouds -5 1008 79 12874 10.3 260 22:24 18.01.2020
580 Rain -4 1008 86 11265 11.8 250 21:58 18.01.2020
581 Clouds -3 1008 84 11265 11.8 260 21:39 18.01.2020
582 Clouds -2 1006 86 16093 9.8 250 21:21 18.01.2020
583 Mist -1 1007 86 8047 12.9 260 20:59 18.01.2020
584 Mist 0 1007 86 8047 12.9 260 20:41 18.01.2020
585 Clouds 1 1006 74 16093 10.3 270 20:19 18.01.2020
586 Clouds 1 1006 74 16093 10.3 270 20:19 18.01.2020
587 Rain 1 1006 80 16093 9.3 270 19:43 18.01.2020
588 Rain 1 1006 80 16093 9.3 270 19:25 18.01.2020
589 Rain 1 1006 100 16093 6.7 260 18:55 18.01.2020
590 Rain 1 1006 100 16093 6.7 260 18:37 18.01.2020
591 Rain 1 1005 87 16093 8.2 270 18:19 18.01.2020
592 Rain 1 1006 100 6437 9.3 260 17:41 18.01.2020
593 Rain 1 1005 93 12874 8.7 250 17:21 18.01.2020
594 Drizzle 1 1005 100 6437 6.2 230 16:57 18.01.2020
595 Drizzle 1 1005 100 6437 6.2 230 16:38 18.01.2020
596 Rain 2 1004 93 6437 5.7 220 16:19 18.01.2020
597 Rain 1 1004 93 6437 5.7 220 16:19 18.01.2020
598 Drizzle 1 1006 100 2414 5.7 210 15:47 18.01.2020
599 Drizzle 1 1005 93 3219 5.1 210 15:26 18.01.2020
600 Drizzle 1 1005 93 3219 5.1 210 15:26 18.01.2020
601 Drizzle 1 1004 100 6437 3.1 180 15:00 18.01.2020
602 Drizzle 1 1004 100 6437 3.1 180 14:41 18.01.2020
603 Drizzle 1 1006 93 3219 4.1 200 14:19 18.01.2020
604 Rain 1 1006 86 2816 3.1 180 13:57 18.01.2020
605 Rain 1 1006 100 4828 6.2 170 13:36 18.01.2020
606 Rain 1 1006 100 4828 6.2 170 13:36 18.01.2020
607 Rain 0 1006 94 4023 3.6 170 13:18 18.01.2020
608 Rain 0 1009 86 4828 3.6 160 12:41 18.01.2020
609 Rain 0 1009 86 4828 3.6 160 12:22 18.01.2020
610 Rain 0 1010 94 6437 11.33 169 11:57 18.01.2020
611 Rain 0 1011 94 8047 2.6 160 11:38 18.01.2020
612 Rain 0 1012 97 11265 11.59 163 11:19 18.01.2020
613 Rain 0 1012 97 6437 11.59 163 10:43 18.01.2020
614 Rain 0 1013 97 8047 4.1 130 10:21 18.01.2020
615 Rain 0 1013 100 6437 4.1 140 09:55 18.01.2020
616 Rain 0 1014 97 4828 3.6 160 09:37 18.01.2020
617 Rain -1 1016 92 6437 5.1 150 08:59 18.01.2020
618 Rain -1 1016 97 11265 6.2 150 08:41 18.01.2020
619 Rain -1 1016 92 6437 5.1 150 08:41 18.01.2020
620 Rain -1 1016 86 8047 9.3 140 08:20 18.01.2020
621 Rain -1 1016 86 8047 9.3 140 08:20 18.01.2020
622 Rain -1 1016 92 11265 6.2 140 07:56 18.01.2020
623 Rain -2 1019 86 8047 7.7 140 07:34 18.01.2020
624 Rain -2 1019 86 9656 7.7 130 06:48 18.01.2020
625 Rain -2 1021 86 8047 6.7 150 06:22 18.01.2020
626 Rain -3 1021 86 16093 5.7 140 05:45 18.01.2020
627 Rain -3 1024 92 2414 7.2 120 04:19 18.01.2020
628 Rain -3 1029 92 1609 7.2 120 02:21 18.01.2020
629 Rain -4 1031 92 1609 11.04 135 01:36 18.01.2020
630 Rain -4 1031 86 1207 4.6 100 00:39 18.01.2020
631 Rain -4 1031 79 805 5.1 100 00:19 18.01.2020
632 Rain -4 1032 85 1609 5.1 100 23:56 17.01.2020
633 Rain -4 1033 79 2816 4.1 100 23:38 17.01.2020
634 Rain -4 1033 79 1207 5.1 100 23:18 17.01.2020
635 Snow -3 1034 58 4828 4.1 170 22:40 17.01.2020
636 Clouds -3 1034 54 16093 5.7 120 22:19 17.01.2020
637 Clouds -3 1034 58 16093 5.1 130 21:43 17.01.2020
638 Clouds -3 1035 50 16093 5.1 140 21:24 17.01.2020
639 Clouds -3 1035 63 16093 3.6 140 20:59 17.01.2020
640 Clouds -3 1035 63 16093 3.6 140 20:41 17.01.2020
641 Clouds -3 1036 53 16093 4.6 130 20:20 17.01.2020
642 Clear -3 1037 58 16093 5.7 130 19:57 17.01.2020
643 Clear -3 1037 58 16093 5.7 130 19:38 17.01.2020
644 Clouds -3 1038 53 16093 4.6 130 19:20 17.01.2020
645 Clear -3 1038 63 16093 4.6 120 18:57 17.01.2020
646 Clouds -3 1039 58 16093 5.7 130 18:38 17.01.2020
647 Clouds -4 1039 58 16093 5.7 130 18:20 17.01.2020
648 Clear -4 1040 62 16093 5.7 120 17:40 17.01.2020
649 Clouds -4 1040 68 16093 5.1 120 17:21 17.01.2020
650 Clouds -4 1039 73 16093 7.2 120 16:57 17.01.2020
651 Clear -5 1041 67 16093 4.1 120 16:38 17.01.2020
652 Clouds -5 1041 68 16093 6.2 140 16:18 17.01.2020
653 Clouds -6 1040 85 16093 8.15 134 15:44 17.01.2020
654 Clouds -7 1041 68 16093 6.2 130 15:26 17.01.2020
655 Clear -8 1042 73 16093 4.6 120 14:44 17.01.2020
656 Clouds -8 1042 73 16093 2.1 190 14:26 17.01.2020
657 Clouds -9 1041 78 16093 3.1 360 13:56 17.01.2020
658 Clouds -9 1042 79 16093 6.16 100 13:37 17.01.2020
659 Clouds -9 1042 67 16093 2.1 350 13:18 17.01.2020
660 Clouds -9 1042 79 16093 3.1 130 12:42 17.01.2020
661 Clouds -10 1042 66 16093 2.1 20 12:21 17.01.2020
662 Clouds -10 1041 72 16093 5.73 97 11:38 17.01.2020
663 Clouds -10 1042 62 16093 3.1 350 11:18 17.01.2020
664 Clouds -10 1042 72 16093 1.5 360 10:43 17.01.2020
665 Clouds -10 1043 61 16093 3.1 350 10:23 17.01.2020
666 Clouds -10 1043 67 16093 3.36 33 09:58 17.01.2020
667 Clouds -10 1043 67 16093 3.36 33 09:39 17.01.2020
668 Clouds -10 1043 67 16093 3.36 33 09:39 17.01.2020
669 Clouds -10 1043 61 16093 3.1 330 09:19 17.01.2020
670 Clouds -10 1043 73 16093 3.36 33 08:43 17.01.2020
671 Clouds -10 1043 61 16093 3.1 360 08:24 17.01.2020
672 Clouds -10 1043 67 16093 4.12 348 07:54 17.01.2020
673 Clouds -10 1043 61 16093 3.1 330 07:31 17.01.2020
674 Clouds -10 1043 67 16093 4.12 348 06:58 17.01.2020
675 Clouds -10 1043 67 16093 4.12 348 06:58 17.01.2020
676 Clouds -10 1043 67 16093 4.12 348 06:40 17.01.2020
677 Clouds -10 1042 67 16093 4.12 348 05:53 17.01.2020
678 Clear -9 1042 56 16093 1.5 350 03:39 17.01.2020
679 Clear -9 1042 51 16093 3.6 310 02:52 17.01.2020
680 Clear -8 1041 57 16093 2.6 320 01:47 17.01.2020
681 Clear -8 1041 57 16093 2.6 320 01:29 17.01.2020
682 Clear -7 1041 55 0 8.78 331 00:49 17.01.2020
683 Clouds -7 1039 38 16093 5.1 330 00:23 17.01.2020
684 Rain -6 1039 38 16093 5.1 330 23:44 16.01.2020
685 Rain -6 1039 38 16093 5.1 330 23:25 16.01.2020
686 Rain -6 1039 45 16093 4.6 330 22:56 16.01.2020
687 Clouds -5 1038 45 16093 4.1 300 22:38 16.01.2020
688 Clouds -5 1038 45 16093 4.1 300 22:19 16.01.2020
689 Clear -5 1038 45 16093 3.1 330 21:54 16.01.2020
690 Clouds -5 1038 45 16093 4.6 310 21:36 16.01.2020
691 Clouds -5 1038 45 16093 4.6 310 21:18 16.01.2020
692 Clear -5 1037 49 16093 3.6 340 20:40 16.01.2020
693 Clouds -6 1038 45 16093 6.2 290 20:21 16.01.2020
694 Clear -6 1037 53 16093 4.1 330 19:58 16.01.2020
695 Clear -6 1037 53 16093 4.1 330 19:40 16.01.2020
696 Clouds -6 1037 53 16093 7.2 340 19:22 16.01.2020
697 Clear -7 1038 57 16093 3.6 290 18:57 16.01.2020
698 Clear -7 1038 57 16093 3.6 290 18:38 16.01.2020
699 Clear -7 1038 57 16093 6.2 310 18:19 16.01.2020
700 Clear -7 1038 62 16093 4.1 320 17:58 16.01.2020
701 Clear -8 1037 62 16093 6.7 300 17:39 16.01.2020
702 Clear -8 1037 62 16093 6.7 300 17:20 16.01.2020
703 Clear -9 1037 67 16093 4.1 300 16:41 16.01.2020
704 Clouds -9 1036 67 16093 6.2 310 16:23 16.01.2020
705 Clouds -10 1036 78 16093 3.6 290 15:58 16.01.2020
706 Clouds -10 1036 78 16093 3.6 290 15:39 16.01.2020
707 Clouds -10 1036 78 16093 3.6 290 15:39 16.01.2020
708 Clouds -10 1035 72 14484 6.7 290 15:20 16.01.2020
709 Clouds -10 1035 79 16093 4.1 290 14:44 16.01.2020
710 Clouds -9 1035 67 16093 8.2 300 14:24 16.01.2020
711 Clouds -9 1035 67 16093 8.2 300 14:24 16.01.2020
712 Clouds -8 1034 79 16093 5.7 280 13:56 16.01.2020
713 Clouds -8 1034 79 16093 5.7 280 13:37 16.01.2020
714 Clouds -8 1033 73 12874 6.7 290 13:19 16.01.2020
715 Clouds -5 1033 73 16093 6.2 280 12:42 16.01.2020
716 Clouds -5 1032 73 12874 6.2 300 12:22 16.01.2020
717 Clouds -4 1031 73 16093 6.7 280 11:43 16.01.2020
718 Clouds -4 1030 68 12874 8.2 310 11:24 16.01.2020
719 Clouds -4 1030 79 16093 3.6 290 10:59 16.01.2020
720 Clouds -4 1030 74 16093 4.6 290 10:38 16.01.2020
721 Clouds -3 1029 68 16093 7.7 300 10:20 16.01.2020
722 Clouds -2 1029 79 16093 4.6 280 09:56 16.01.2020
723 Clouds -2 1028 68 16093 6.7 320 09:37 16.01.2020
724 Clouds -2 1028 68 16093 6.7 320 09:18 16.01.2020
725 Clouds -2 1028 80 16093 6.7 280 08:44 16.01.2020
726 Clouds -2 1027 74 16093 7.7 290 08:23 16.01.2020
727 Clouds -2 1027 74 16093 7.2 310 07:43 16.01.2020
728 Clouds -2 1027 80 16093 7.7 290 07:25 16.01.2020
729 Clouds -2 1026 78 16093 6.7 280 06:56 16.01.2020
730 Clouds -1 1026 80 16093 3.6 300 06:37 16.01.2020
731 Clouds -1 1025 86 16093 5.1 300 05:56 16.01.2020
732 Clouds -1 1025 86 16093 5.1 300 05:56 16.01.2020
733 Clouds 0 1024 80 12874 7.2 310 05:31 16.01.2020
734 Mist 0 1024 100 8047 10.78 303 04:37 16.01.2020
735 Mist 0 1024 100 8047 10.78 303 04:37 16.01.2020
736 Mist 1 1022 93 6437 6.7 290 03:28 16.01.2020
737 Mist 1 1021 93 8047 6.2 300 02:36 16.01.2020
738 Mist 2 1020 100 8047 3.6 300 00:48 16.01.2020
739 Clouds 2 1019 93 11265 5.1 300 00:24 16.01.2020
740 Mist 2 1017 100 4828 3.6 290 23:48 15.01.2020
741 Mist 2 1017 93 2816 3.6 300 23:23 15.01.2020
742 Mist 2 1017 93 3219 3.6 300 22:57 15.01.2020
743 Mist 2 1016 93 2012 4.1 300 22:39 15.01.2020
744 Mist 2 1016 93 2012 4.1 300 22:19 15.01.2020
745 Mist 2 1016 93 4023 2.6 330 21:57 15.01.2020
746 Mist 2 1015 93 1609 2.1 340 21:37 15.01.2020
747 Mist 2 1015 93 1609 2.1 340 21:19 15.01.2020
748 Rain 2 1016 93 3219 2.6 340 20:57 15.01.2020
749 Drizzle 2 1015 93 1609 1.5 320 20:39 15.01.2020
750 Drizzle 2 1015 93 1609 1.5 320 20:39 15.01.2020
751 Drizzle 2 1015 93 1207 1.91 88 20:20 15.01.2020
752 Drizzle 2 1016 100 1207 2.02 108 19:55 15.01.2020
753 Drizzle 2 1016 100 1609 2.02 108 19:37 15.01.2020
754 Drizzle 2 1016 93 1207 1.5 100 19:18 15.01.2020
755 Mist 1 1016 100 1207 1.5 60 18:56 15.01.2020
756 Mist 1 1017 100 3219 2.02 108 18:37 15.01.2020
757 Mist 1 1017 93 4023 3.6 70 18:19 15.01.2020
758 Mist 1 1017 93 4023 3.6 70 18:19 15.01.2020
759 Mist 1 1017 93 4023 3.6 70 18:19 15.01.2020
760 Drizzle 1 1016 100 2816 3.1 70 17:55 15.01.2020
761 Drizzle 1 1017 100 2414 2.02 108 17:37 15.01.2020
762 Rain 1 1017 93 2816 3.6 60 17:18 15.01.2020
763 Mist 1 1017 84 2012 5.45 110 16:40 15.01.2020
764 Mist 1 1018 84 2816 4.6 80 16:21 15.01.2020
765 Mist 1 1018 86 6437 3.1 70 15:57 15.01.2020
766 Fog 0 1018 84 402 5.45 110 15:39 15.01.2020
767 Mist 0 1018 86 2816 4.6 100 15:18 15.01.2020
768 Mist 0 1019 86 4828 5.1 90 14:43 15.01.2020
769 Mist 0 1019 86 4828 5.1 90 14:20 15.01.2020
770 Fog 0 1019 83 805 4.88 114 13:46 15.01.2020
771 Mist -1 1020 86 4828 3.6 90 13:27 15.01.2020
772 Snow -1 1020 83 805 5.06 113 12:59 15.01.2020
773 Snow -1 1020 83 805 5.06 113 12:40 15.01.2020
774 Mist -1 1020 86 8047 3.6 80 12:20 15.01.2020
775 Mist -2 1020 92 8047 5.06 113 11:57 15.01.2020
776 Snow -2 1020 100 805 5.06 113 11:37 15.01.2020
777 Mist -2 1020 92 8047 1.5 150 11:19 15.01.2020
778 Mist -3 1020 86 9656 1.5 110 10:43 15.01.2020
779 Clear -3 1021 86 11265 2.1 140 10:25 15.01.2020
780 Mist -3 1021 100 4828 3.77 65 09:45 15.01.2020
781 Clear -3 1021 92 12874 2.1 150 09:26 15.01.2020
782 Mist -3 1022 100 3219 3.77 65 08:58 15.01.2020
783 Mist -3 1022 100 3219 3.77 65 08:39 15.01.2020
784 Clear -3 1020 92 12874 3.1 30 08:21 15.01.2020
785 Mist -3 1021 100 6437 3.8 352 07:51 15.01.2020
786 Clear -3 1021 86 12874 2.6 40 07:31 15.01.2020
787 Mist -2 1022 100 4828 1.5 360 06:46 15.01.2020
788 Clear -2 1022 92 14484 2.1 330 06:20 15.01.2020
789 Mist -2 1022 100 8047 3 285 04:42 15.01.2020
790 Clouds 0 1022 80 14484 2.6 290 02:38 15.01.2020
791 Clouds 1 1021 86 16093 3.1 270 01:28 15.01.2020
792 Clouds 2 1021 80 16093 3.1 250 00:46 15.01.2020
793 Clouds 2 1021 84 16093 4.1 250 00:27 15.01.2020
794 Clear 3 1021 75 16093 5.51 284 23:56 14.01.2020
795 Clear 3 1021 75 16093 5.51 284 23:38 14.01.2020
796 Clouds 3 1020 83 16093 6.2 260 23:19 14.01.2020
797 Clouds 4 1020 74 16093 6.7 260 22:41 14.01.2020
798 Clouds 4 1019 70 16093 6.2 250 22:19 14.01.2020
799 Clouds 4 1019 75 16093 7.2 240 21:58 14.01.2020
800 Clouds 4 1019 70 16093 6.2 250 21:40 14.01.2020
801 Clouds 4 1019 70 16093 6.2 250 21:21 14.01.2020
802 Clouds 4 1019 80 16093 5.7 240 20:59 14.01.2020
803 Clouds 4 1019 80 16093 5.7 240 20:40 14.01.2020
804 Clouds 4 1019 86 14484 7.7 240 20:20 14.01.2020
805 Clouds 4 1019 86 14484 7.7 240 19:56 14.01.2020
806 Clouds 4 1019 86 14484 7.2 250 19:37 14.01.2020
807 Clouds 4 1019 86 14484 7.2 250 19:18 14.01.2020
808 Clouds 3 1019 86 14484 6.2 240 18:55 14.01.2020
809 Clouds 3 1020 86 16093 6.2 250 18:37 14.01.2020
810 Mist 3 1020 93 8047 5.1 220 18:18 14.01.2020
811 Mist 3 1020 93 8047 5.1 220 17:38 14.01.2020
812 Mist 2 1019 93 8047 4.1 230 17:19 14.01.2020
813 Mist 2 1019 86 6437 4.1 230 16:55 14.01.2020
814 Mist 2 1020 93 6437 7.68 243 16:37 14.01.2020
815 Mist 2 1018 93 4828 4.1 210 16:19 14.01.2020
816 Mist 2 1019 100 4023 7.68 243 15:42 14.01.2020
817 Mist 1 1018 93 4023 3.6 220 15:19 14.01.2020
818 Rain 1 1018 93 4023 3.1 230 14:47 14.01.2020
819 Rain 1 1018 92 8047 3.6 230 14:23 14.01.2020
820 Mist 1 1018 100 8047 5.03 219 13:59 14.01.2020
821 Mist 1 1018 100 8047 5.03 219 13:40 14.01.2020
822 Mist 1 1017 89 8047 3.1 210 13:19 14.01.2020
823 Clouds 1 1018 89 11265 5.49 216 12:42 14.01.2020
824 Mist 1 1017 89 9656 2.6 190 12:23 14.01.2020
825 Rain 1 1018 89 11265 2.1 200 11:57 14.01.2020
826 Rain 1 1018 89 11265 2.1 200 11:39 14.01.2020
827 Clouds 1 1019 87 16093 2.6 150 11:20 14.01.2020
828 Rain 1 1019 87 16093 2.1 160 10:56 14.01.2020
829 Rain 1 1019 87 16093 2.1 160 10:37 14.01.2020
830 Rain 1 1018 80 12874 5.1 150 10:19 14.01.2020
831 Rain 1 1020 87 16093 2.1 140 09:42 14.01.2020
832 Clouds 1 1019 86 12874 5.1 150 09:23 14.01.2020
833 Clouds 1 1020 87 16093 7.04 178 08:58 14.01.2020
834 Clouds 1 1020 87 16093 7.04 178 08:39 14.01.2020
835 Clouds 1 1020 86 14484 3.1 140 08:20 14.01.2020
836 Rain 1 1021 84 16093 7.84 160 07:40 14.01.2020
837 Rain 1 1020 86 16093 3.1 130 07:18 14.01.2020
838 Clouds 1 1021 84 16093 7.84 160 06:42 14.01.2020
839 Clouds 1 1023 86 16093 7.84 160 05:56 14.01.2020
840 Clouds 1 1025 80 14484 2.6 0 04:24 14.01.2020
841 Clouds 0 1025 80 14484 4.1 170 03:45 14.01.2020
842 Clouds 0 1026 74 16093 3.1 0 02:32 14.01.2020
843 Clouds 0 1026 86 16093 4.18 154 01:19 14.01.2020
844 Clouds 0 1027 86 16093 4.18 154 00:47 14.01.2020
845 Clouds 0 1027 74 16093 3.1 200 00:21 14.01.2020
846 Clouds 0 1027 86 16093 4.18 154 23:42 13.01.2020
847 Clouds 0 1026 74 16093 4.1 180 23:18 13.01.2020
848 Clouds 0 1027 73 16093 3.39 203 22:56 13.01.2020
849 Clouds 0 1026 73 16093 2.1 200 22:37 13.01.2020
850 Clouds 0 1027 74 16093 2.1 200 22:19 13.01.2020
851 Clouds 0 1027 73 16093 3.39 203 21:54 13.01.2020
852 Clouds 0 1027 73 16093 3.39 203 21:36 13.01.2020
853 Clouds 0 1026 69 16093 3.1 230 21:18 13.01.2020
854 Clouds 0 1027 73 16093 3.39 203 20:42 13.01.2020
855 Rain 0 1027 75 16093 3.1 210 20:23 13.01.2020
856 Rain 0 1027 79 16093 3.43 229 19:59 13.01.2020
857 Rain 0 1027 79 16093 3.43 229 19:41 13.01.2020
858 Clouds 0 1027 69 16093 2.6 260 19:20 13.01.2020
859 Clouds 0 1028 79 16093 3.43 229 18:58 13.01.2020
860 Clouds 0 1028 79 16093 3.43 229 18:38 13.01.2020
861 Clouds 0 1027 79 16093 3.6 280 18:19 13.01.2020
862 Clouds 0 1028 79 16093 3.43 229 17:57 13.01.2020
863 Clouds 0 1028 79 16093 3.43 229 17:38 13.01.2020
864 Clouds 0 1027 83 16093 4.1 270 17:20 13.01.2020
865 Clouds -1 1027 83 16093 4.6 260 16:41 13.01.2020
866 Clouds -1 1026 80 16093 2.6 270 16:22 13.01.2020
867 Clouds -1 1027 68 0 5.22 264 15:58 13.01.2020
868 Clouds -1 1027 69 0 5.22 264 15:40 13.01.2020
869 Clouds -1 1026 87 0 1.79 271 15:20 13.01.2020
870 Clouds -1 1026 70 0 5.22 264 14:43 13.01.2020
871 Clouds -1 1025 70 0 5.22 264 14:24 13.01.2020
872 Clouds -1 1025 71 0 7.49 249 13:59 13.01.2020
873 Clouds -1 1025 72 0 7.49 249 13:40 13.01.2020
874 Clouds -1 1024 73 0 6.73 237 13:21 13.01.2020
875 Clouds -1 1023 86 16093 6.2 240 12:56 13.01.2020
876 Clouds 0 1023 86 16093 6.2 240 12:38 13.01.2020
877 Clouds 0 1023 86 16093 6.2 240 12:19 13.01.2020
878 Clouds 0 1023 86 16093 6.2 240 12:19 13.01.2020
879 Clouds 0 1023 86 16093 6.2 240 12:19 13.01.2020
880 Clouds 0 1023 86 16093 6.2 240 11:39 13.01.2020
881 Clouds 0 1022 86 12874 4.6 230 11:20 13.01.2020
882 Clouds 0 1022 82 16093 7.8 221 10:57 13.01.2020
883 Clouds 0 1022 82 16093 7.8 221 10:39 13.01.2020
884 Mist 0 1021 92 6437 4.1 220 10:20 13.01.2020
885 Snow 0 1022 82 6437 4.6 220 09:58 13.01.2020
886 Clouds 0 1021 82 8047 3.1 230 09:38 13.01.2020
887 Snow 0 1022 86 3219 3.6 200 09:19 13.01.2020
888 Snow 0 1022 86 3219 2.6 190 08:39 13.01.2020
889 Snow 0 1022 80 4828 2.1 180 08:20 13.01.2020
890 Snow 0 1021 88 6437 2.6 190 07:47 13.01.2020
891 Clouds 0 1021 92 12874 2.6 180 07:27 13.01.2020
892 Clouds 0 1021 92 12874 2.6 180 07:27 13.01.2020
893 Mist -1 1022 88 9656 2.1 180 06:43 13.01.2020
894 Mist -1 1022 92 8047 2.6 170 06:21 13.01.2020
895 Mist -1 1022 95 8047 4.1 160 05:23 13.01.2020
896 Clouds -1 1023 95 14484 5.1 160 03:55 13.01.2020
897 Mist -1 1024 92 8047 3.1 170 03:24 13.01.2020
898 Clouds -1 1024 95 12874 3.1 160 02:45 13.01.2020
899 Clouds -1 1024 95 14484 5.7 140 02:26 13.01.2020
900 Clouds -1 1023 86 14484 4.6 130 01:20 13.01.2020
901 Clouds -1 1024 86 16093 2.6 110 00:41 13.01.2020
902 Clouds -1 1025 80 16093 2.1 150 00:22 13.01.2020
903 Clouds -1 1025 86 11265 2.1 100 23:42 12.01.2020
904 Clouds -1 1025 86 16093 2.1 110 23:24 12.01.2020
905 Clouds -1 1025 80 16093 1.78 96 22:58 12.01.2020
906 Clouds -1 1025 80 16093 1.78 96 22:39 12.01.2020
907 Clouds -1 1025 86 16093 2.6 80 22:21 12.01.2020
908 Clouds -1 1025 80 16093 1.78 96 21:56 12.01.2020
909 -273 0 0 0 0 0 21:38 12.01.2020
910 Clouds -1 1025 80 16093 1.78 96 21:38 12.01.2020
911 Clouds -1 1026 74 16093 1.5 110 21:19 12.01.2020
912 Clouds -1 1026 80 16093 1.78 96 20:56 12.01.2020
913 Clouds -1 1026 80 16093 1.78 96 20:38 12.01.2020
914 Clouds -2 1026 80 12874 2.6 120 20:20 12.01.2020
915 Clouds -2 1026 92 16093 2.01 332 19:56 12.01.2020
916 Clouds -2 1026 92 16093 2.01 332 19:37 12.01.2020
917 Clouds -2 1026 79 16093 2.1 100 19:18 12.01.2020
918 Clouds -2 1026 79 16093 1.5 110 18:57 12.01.2020
919 Clouds -2 1027 80 16093 2.01 332 18:39 12.01.2020
920 Clouds -3 1027 74 16093 2.01 332 18:21 12.01.2020
921 Clouds -3 1027 79 16093 2.01 332 17:43 12.01.2020
922 Clouds -3 1027 79 16093 2.01 332 17:23 12.01.2020
923 Clouds -3 1027 79 16093 4.2 336 17:23 12.01.2020
924 Clouds -3 1027 86 16093 4.2 336 16:59 12.01.2020
925 Clouds -4 1027 86 16093 4.2 336 16:39 12.01.2020
926 Clouds -4 1026 79 16093 4.2 336 16:21 12.01.2020
927 Clouds -4 1026 79 16093 4.2 336 15:58 12.01.2020
928 Clouds -4 1026 73 16093 4.2 336 15:39 12.01.2020
929 Clouds -4 1026 73 16093 2.1 300 15:21 12.01.2020
930 Clouds -4 1026 86 16093 4.2 336 14:43 12.01.2020
931 Clouds -4 1026 86 16093 4.2 336 14:43 12.01.2020
932 Clouds -4 1025 73 16093 2.1 320 14:24 12.01.2020
933 Clouds -4 1025 86 16093 5.98 327 13:57 12.01.2020
934 Clouds -4 1025 86 16093 5.98 327 13:57 12.01.2020
935 Clouds -4 1025 86 16093 5.98 327 13:39 12.01.2020
936 Clouds -4 1024 79 16093 2.6 310 13:20 12.01.2020
937 Clouds -4 1024 79 16093 2.6 310 13:20 12.01.2020
938 Clouds -4 1024 92 16093 5.66 314 12:57 12.01.2020
939 Clouds -4 1023 73 16093 4.1 330 12:37 12.01.2020
940 Clouds -4 1023 73 16093 4.1 330 12:19 12.01.2020
941 Clouds -4 1022 86 16093 5.66 314 11:42 12.01.2020
942 -273 0 0 0 0 0 11:22 12.01.2020
943 Clouds -5 1021 86 16093 2.1 330 10:57 12.01.2020
944 Clouds -5 1021 86 16093 2.1 330 10:39 12.01.2020
945 Clouds -5 1021 86 16093 2.1 330 10:39 12.01.2020
946 Clouds -5 1021 79 16093 5.1 320 10:20 12.01.2020
947 Clouds -5 1019 79 16093 4.1 340 09:42 12.01.2020
948 Clouds -5 1019 79 16093 4.1 340 09:23 12.01.2020
949 Clouds -5 1019 92 16093 4.1 310 08:48 12.01.2020
950 Clouds -4 1018 79 16093 4.6 320 08:24 12.01.2020
951 Snow -4 1017 92 2816 8.07 2 07:56 12.01.2020
952 Snow -4 1016 92 8047 6.2 320 07:37 12.01.2020
953 Snow -4 1016 92 8047 6.2 320 07:19 12.01.2020
954 Snow -4 1016 86 1609 6.2 320 06:40 12.01.2020
955 Rain -4 1015 85 16093 6.2 340 05:58 12.01.2020
956 Snow -3 1015 79 3219 6.2 330 05:18 12.01.2020
957 Rain -2 1012 86 4023 9.3 360 03:44 12.01.2020
958 Rain -2 1011 92 4023 9.3 20 02:52 12.01.2020
959 Rain -2 1011 92 1207 11.8 10 02:27 12.01.2020
960 Rain -2 1012 92 3219 6.2 20 01:35 12.01.2020
961 Rain -1 1013 86 2012 7.2 10 00:49 12.01.2020
962 Rain -1 1011 94 1609 7.2 10 00:22 12.01.2020
963 Rain -1 1011 94 1609 7.2 10 00:22 12.01.2020
964 Rain -1 1013 86 2414 4.6 360 23:59 11.01.2020
965 Rain -1 1013 86 2414 4.6 360 23:41 11.01.2020
966 Rain -1 1009 92 2012 8.7 30 23:18 11.01.2020
967 Rain -1 1010 92 1609 12.9 20 22:56 11.01.2020
968 Rain 0 1008 100 16093 9.8 40 22:38 11.01.2020
969 Rain 0 1009 92 3219 9.8 30 22:19 11.01.2020
970 Rain 0 1009 92 4023 9.3 30 21:44 11.01.2020
971 Rain 0 1010 92 4828 10.8 40 21:19 11.01.2020
972 Rain 0 1010 92 4828 7.7 30 20:57 11.01.2020
973 Rain 0 1010 92 4828 7.7 30 20:39 11.01.2020
974 Rain 0 1010 89 3219 8.7 20 20:19 11.01.2020
975 Rain 0 1011 100 1609 14.4 20 19:57 11.01.2020
976 Rain 0 1010 100 1609 8.7 20 19:38 11.01.2020
977 Rain 0 1010 100 1609 8.7 20 19:38 11.01.2020
978 Rain 0 1009 100 2414 6.7 20 19:20 11.01.2020
979 Rain 0 1011 89 1207 10.8 20 18:55 11.01.2020
980 Rain 0 1009 100 2414 8.7 30 18:37 11.01.2020
981 Rain 0 1012 89 4023 9.3 30 18:18 11.01.2020
982 Rain 0 1012 89 4023 9.3 30 17:57 11.01.2020
983 Rain 0 1012 89 4023 9.3 30 17:39 11.01.2020
984 Rain 0 1013 80 14484 10.3 20 17:18 11.01.2020
985 Rain 0 1012 80 1609 9.8 30 16:44 11.01.2020
986 Rain 0 1011 86 2816 11.3 20 16:25 11.01.2020
987 Rain 0 1011 86 4828 13.9 20 15:56 11.01.2020
988 Rain 0 1011 86 4828 13.9 20 15:38 11.01.2020
989 Rain 0 1011 86 2414 11.8 10 15:20 11.01.2020
990 Rain 0 1011 91 4828 10.8 10 14:46 11.01.2020
991 Rain 0 1011 91 6437 12.9 10 14:25 11.01.2020
992 Rain 1 1012 80 8047 11.3 360 13:57 11.01.2020
993 Drizzle 1 1009 100 8047 6.7 360 13:38 11.01.2020
994 Drizzle 1 1009 90 6437 14.9 10 13:19 11.01.2020
995 Rain 2 1008 100 16093 8.7 10 12:55 11.01.2020
996 Rain 2 1008 93 11265 9.3 20 12:36 11.01.2020
997 Rain 2 1008 93 11265 9.3 20 12:18 11.01.2020
998 Rain 2 1008 100 4828 6.2 10 11:42 11.01.2020
999 Rain 3 1009 93 8047 7.7 10 11:23 11.01.2020
1000 Rain 3 1010 100 4828 8.2 350 10:44 11.01.2020
1001 Rain 3 1010 93 6437 7.7 10 10:24 11.01.2020
1002 Rain 3 1010 93 6437 7.7 10 10:24 11.01.2020
1003 Rain 2 1010 100 4828 8.7 340 09:43 11.01.2020
1004 Rain 2 1011 86 8047 8.2 10 09:21 11.01.2020
1005 Rain 2 1009 100 3219 7.7 340 08:43 11.01.2020
1006 Rain 2 1010 93 4828 8.2 360 08:24 11.01.2020
1007 Rain 2 1010 100 4023 7.7 340 07:59 11.01.2020
1008 Rain 2 1010 100 4023 7.7 340 07:41 11.01.2020
1009 Rain 3 1010 93 4828 6.7 10 07:22 11.01.2020
1010 Rain 3 1010 100 2414 4.6 330 06:42 11.01.2020
1011 Rain 3 1013 93 4023 6.7 10 05:22 11.01.2020
1012 Rain 3 1012 100 2816 3.1 360 04:38 11.01.2020
1013 Rain 3 1013 93 3219 4.6 10 04:20 11.01.2020
1014 Drizzle 3 1014 93 2414 7.2 30 02:46 11.01.2020
1015 Drizzle 3 1016 93 4023 6.2 40 01:45 11.01.2020
1016 Rain 3 1017 93 1207 5.1 40 01:22 11.01.2020
1017 Drizzle 3 1017 100 2414 1.5 20 00:51 11.01.2020
1018 Mist 3 1017 93 1609 4.6 40 00:21 11.01.2020
1019 Rain 3 1017 100 1207 1.5 20 23:56 10.01.2020
1020 Rain 4 1017 100 1207 1.5 20 23:38 10.01.2020
1021 Drizzle 4 1018 86 2414 3.6 30 23:20 10.01.2020
1022 Rain 4 1017 100 402 2.6 30 22:41 10.01.2020
1023 Mist 4 1017 93 8047 3.6 30 22:21 10.01.2020
1024 Rain 4 1017 100 402 5.76 43 21:58 10.01.2020
1025 Rain 4 1017 100 402 5.76 43 21:39 10.01.2020
1026 Mist 4 1017 93 4828 5.1 50 21:20 10.01.2020
1027 Mist 5 1018 100 3219 5.1 30 20:55 10.01.2020
1028 Rain 5 1018 100 805 4.6 10 20:37 10.01.2020
1029 Rain 5 1019 93 1207 5.1 40 20:19 10.01.2020
1030 Drizzle 6 1019 93 2816 5.7 20 19:39 10.01.2020
1031 Rain 7 1020 86 3219 4.1 30 19:20 10.01.2020
1032 Drizzle 7 1019 100 805 4.6 20 18:54 10.01.2020
1033 Clouds 7 1019 100 16093 6.77 18 18:36 10.01.2020
1034 Rain 7 1020 93 805 1.5 10 18:18 10.01.2020
1035 Rain 7 1020 93 805 1.5 10 18:18 10.01.2020
1036 Rain 7 1020 100 16093 6.77 18 17:55 10.01.2020
1037 Rain 7 1020 100 2816 6.77 18 17:37 10.01.2020
1038 Rain 7 1020 100 2816 3.41 3 17:18 10.01.2020
1039 Mist 8 1020 87 3219 2.1 360 16:41 10.01.2020
1040 Mist 8 1020 87 3219 2.1 360 16:21 10.01.2020
1041 Rain 8 1019 93 3219 1.5 190 16:21 10.01.2020
1042 Drizzle 8 1018 93 1207 3.41 3 15:56 10.01.2020
1043 Rain 8 1019 100 11265 3.41 3 15:37 10.01.2020
1044 Rain 8 1019 100 3219 2.6 200 15:19 10.01.2020
1045 Rain 8 1019 100 3219 2.6 200 15:19 10.01.2020
1046 Mist 8 1018 93 4023 3.1 210 14:57 10.01.2020
1047 Rain 8 1019 100 6437 3.41 3 14:38 10.01.2020
1048 Drizzle 8 1018 93 2414 1.5 200 14:19 10.01.2020
1049 Rain 8 1018 100 16093 4.66 197 13:54 10.01.2020
1050 Rain 8 1018 100 16093 4.66 197 13:36 10.01.2020
1051 Rain 8 1018 100 4828 2.6 190 13:18 10.01.2020
1052 Drizzle 9 1017 100 3219 3.1 200 12:54 10.01.2020
1053 Rain 9 1018 100 16093 4.17 203 12:36 10.01.2020
1054 Mist 9 1017 100 9656 3.6 190 12:18 10.01.2020
1055 Clouds 9 1017 93 16093 4.6 200 11:42 10.01.2020
1056 Clouds 9 1017 93 16093 4.6 200 11:42 10.01.2020
1057 Drizzle 9 1016 93 4828 4.1 200 11:21 10.01.2020
1058 Clouds 9 1018 87 16093 4.1 190 10:59 10.01.2020
1059 Clouds 9 1018 87 16093 4.1 190 10:38 10.01.2020
1060 Drizzle 9 1017 93 8047 3.6 200 10:19 10.01.2020
1061 Drizzle 9 1017 87 9656 4.1 210 09:46 10.01.2020
1062 Clouds 9 1016 87 16093 5.7 210 09:26 10.01.2020
1063 Clouds 9 1017 76 16093 3.1 200 08:58 10.01.2020
1064 Clouds 10 1017 76 16093 3.1 200 08:38 10.01.2020
1065 Clouds 10 1016 87 16093 6.7 200 08:20 10.01.2020
1066 Clouds 10 1017 81 16093 4.6 200 07:41 10.01.2020
1067 Clouds 10 1017 81 16093 4.6 200 07:41 10.01.2020
1068 Clouds 10 1015 81 16093 7.2 210 07:22 10.01.2020
1069 Clouds 9 1017 76 16093 5.1 190 06:42 10.01.2020
1070 Clouds 9 1015 76 16093 9.8 210 06:24 10.01.2020
1071 Clouds 9 1015 76 16093 9.3 210 05:33 10.01.2020
1072 Clouds 9 1014 76 16093 10.8 200 03:32 10.01.2020
1073 Clouds 9 1014 76 16093 9.3 200 02:54 10.01.2020
1074 Clouds 9 1013 76 16093 7.2 200 02:33 10.01.2020
1075 Clouds 10 1014 66 16093 9.3 200 01:34 10.01.2020
1076 Clouds 10 1015 70 16093 10.3 200 00:56 10.01.2020
1077 Clouds 10 1015 70 16093 10.3 200 00:38 10.01.2020
1078 Clouds 10 1014 61 16093 10.3 190 23:57 09.01.2020
1079 Clouds 10 1014 61 16093 10.3 190 23:37 09.01.2020
1080 Clouds 10 1012 57 16093 10.3 200 23:19 09.01.2020
1081 Clouds 10 1012 57 16093 10.3 200 23:19 09.01.2020
1082 Clouds 10 1014 57 16093 10.8 190 22:56 09.01.2020
1083 Clouds 9 1012 53 16093 10.3 200 22:37 09.01.2020
1084 Clouds 9 1012 53 16093 10.3 200 22:18 09.01.2020
1085 Clouds 9 1014 57 16093 13.4 200 21:55 09.01.2020
1086 Clouds 9 1013 57 16093 9.3 200 21:37 09.01.2020
1087 Clouds 9 1013 57 16093 9.3 200 21:18 09.01.2020
1088 Rain 8 1014 61 16093 9.3 200 20:55 09.01.2020
1089 Rain 8 1014 61 16093 9.3 200 20:37 09.01.2020
1090 Rain 7 1015 61 16093 8.2 190 20:18 09.01.2020
1091 Rain 7 1014 65 16093 8.7 190 20:18 09.01.2020
1092 Rain 6 1016 72 16093 9.3 190 19:39 09.01.2020
1093 Rain 6 1016 72 16093 9.3 190 19:21 09.01.2020
1094 Rain 6 1015 72 9656 10.3 190 18:57 09.01.2020
1095 Rain 6 1016 49 16093 10.8 180 18:39 09.01.2020
1096 Rain 6 1016 49 16093 10.8 180 18:21 09.01.2020
1097 Rain 5 1018 56 16093 9.3 170 17:42 09.01.2020
1098 Clouds 5 1018 55 16093 6.7 170 17:20 09.01.2020
1099 Clouds 4 1018 55 16093 6.7 170 16:59 09.01.2020
1100 Clouds 4 1018 55 16093 6.7 170 16:59 09.01.2020
1101 Clouds 4 1019 55 16093 6.7 160 16:41 09.01.2020
1102 Clouds 3 1019 55 16093 6.7 160 16:21 09.01.2020
1103 Clouds 2 1018 55 16093 6.7 170 15:43 09.01.2020
1104 Clouds 1 1020 59 16093 6.7 160 15:23 09.01.2020
1105 Clouds 0 1021 63 16093 5.7 150 14:59 09.01.2020
1106 Clear 0 1021 63 16093 5.7 150 14:41 09.01.2020
1107 Clear 0 1021 63 16093 5.7 150 14:19 09.01.2020
1108 Clouds 0 1020 62 16093 6.2 160 13:55 09.01.2020
1109 Clear -1 1021 68 16093 6.7 150 13:37 09.01.2020
1110 Clear -1 1021 68 16093 6.7 150 13:19 09.01.2020
1111 Clouds -2 1021 58 16093 6.2 150 12:56 09.01.2020
1112 Clouds -2 1021 58 16093 6.2 150 12:56 09.01.2020
1113 Clear -2 1022 68 16093 5.1 160 12:38 09.01.2020
1114 Clear -2 1022 68 16093 5.1 160 12:18 09.01.2020
1115 Clouds -3 1023 63 16093 5.7 140 11:42 09.01.2020
1116 Clouds -3 1023 63 16093 5.7 140 11:24 09.01.2020
1117 Clouds -3 1023 63 16093 6.2 140 10:58 09.01.2020
1118 Clear -4 1024 68 16093 5.7 140 10:39 09.01.2020
1119 Clear -4 1024 68 16093 5.7 140 10:21 09.01.2020
1120 Clear -4 1025 68 16093 6.2 130 09:46 09.01.2020
1121 Clear -4 1025 68 16093 6.2 130 09:25 09.01.2020
1122 Clouds -4 1025 58 16093 6.2 120 08:58 09.01.2020
1123 Clear -5 1026 67 16093 5.1 120 08:39 09.01.2020
1124 Clear -5 1026 67 16093 5.1 120 08:20 09.01.2020
1125 Clear -5 1027 62 16093 4.1 120 07:48 09.01.2020
1126 Clear -5 1027 73 16093 4.6 120 07:30 09.01.2020
1127 Clear -5 1028 62 16093 3.6 110 06:40 09.01.2020
1128 Clear -6 1028 73 16093 3.1 120 06:22 09.01.2020
1129 Clear -6 1028 62 16093 3.6 120 05:51 09.01.2020
1130 Clouds -6 1028 62 16093 4.6 110 05:20 09.01.2020
1131 Clear -6 1029 73 16093 4.1 110 04:39 09.01.2020
1132 Clear -6 1030 67 16093 3.6 100 03:27 09.01.2020
1133 Clear -7 1031 67 16093 2.6 100 02:46 09.01.2020
1134 Clear -6 1029 57 16093 4.1 110 01:42 09.01.2020
1135 Clouds -6 1030 57 16093 4.6 100 00:59 09.01.2020
1136 Clear -6 1031 67 16093 2.6 80 00:37 09.01.2020
1137 Clear -6 1031 67 16093 2.6 80 00:19 09.01.2020
1138 Clouds -5 1031 57 16093 3.1 80 23:39 08.01.2020
1139 Clouds -5 1030 53 16093 4.6 80 23:20 08.01.2020
1140 Clouds -5 1030 57 16093 3.1 70 22:41 08.01.2020
1141 Clouds -5 1030 57 16093 3.1 70 22:23 08.01.2020
1142 Clouds -5 1030 45 16093 3.1 100 21:59 08.01.2020
1143 Clear -5 1030 53 16093 2.63 34 21:40 08.01.2020
1144 Clear -5 1030 53 16093 2.63 34 21:22 08.01.2020
1145 Clouds -5 1030 38 16093 2.63 34 20:59 08.01.2020
1146 Clear -5 1030 45 16093 1.5 40 20:41 08.01.2020
1147 Clear -5 1030 45 16093 1.5 40 20:21 08.01.2020
1148 Clouds -6 1030 35 16093 1.5 0 19:58 08.01.2020
1149 Clear -6 1030 41 16093 1.5 60 19:38 08.01.2020
1150 Clear -6 1030 41 16093 1.5 60 19:19 08.01.2020
1151 Clouds -6 1030 41 16093 2.1 340 18:58 08.01.2020
1152 Clear -7 1030 44 16093 2.6 330 18:39 08.01.2020
1153 Clouds -7 1030 44 16093 3.1 340 18:19 08.01.2020
1154 Clouds -7 1030 44 16093 3.1 340 17:57 08.01.2020
1155 Clear -7 1030 44 16093 2.6 330 17:38 08.01.2020
1156 Clear -8 1030 44 16093 2.6 330 17:19 08.01.2020
1157 Clear -8 1030 44 16093 2.6 330 17:19 08.01.2020
1158 Clouds -8 1030 44 16093 5.1 350 16:56 08.01.2020
1159 Clear -8 1030 48 16093 3.1 320 16:38 08.01.2020
1160 Clear -9 1030 48 16093 3.1 320 16:18 08.01.2020
1161 Clear -9 1029 48 16093 3.1 320 15:44 08.01.2020
1162 Clear -9 1029 48 16093 3.1 320 15:44 08.01.2020
1163 Clear -9 1029 52 16093 5.1 330 15:21 08.01.2020
1164 Clouds -9 1028 48 16093 5.1 340 14:58 08.01.2020
1165 Clear -9 1027 52 16093 3.6 330 14:40 08.01.2020
1166 Clear -9 1027 52 16093 3.6 330 14:40 08.01.2020
1167 Clear -9 1027 52 16093 3.6 330 14:21 08.01.2020
1168 Clouds -9 1025 53 16093 5.1 350 13:41 08.01.2020
1169 Clouds -8 1025 53 16093 5.1 350 13:22 08.01.2020
1170 Clouds -8 1024 48 16093 3.1 320 12:55 08.01.2020
1171 Clear -7 1024 53 16093 4.6 310 12:36 08.01.2020
1172 Clear -7 1024 53 16093 4.6 310 12:18 08.01.2020
1173 Clear -7 1023 49 16093 5.1 300 11:47 08.01.2020
1174 Clear -6 1022 45 16093 7.7 300 11:19 08.01.2020
1175 Clouds -6 1022 49 16093 8.7 300 11:19 08.01.2020
1176 Clouds -6 1022 49 16093 8.7 300 10:58 08.01.2020
1177 Clear -5 1021 35 16093 7.7 290 10:40 08.01.2020
1178 Clear -5 1021 49 16093 5.7 280 10:19 08.01.2020
1179 Clear -4 1020 58 16093 6.2 280 09:42 08.01.2020
1180 Clear -4 1019 50 16093 6.2 290 09:20 08.01.2020
1181 Clear -3 1019 50 16093 6.2 290 08:58 08.01.2020
1182 Clear -3 1019 58 16093 6.7 280 08:39 08.01.2020
1183 Clear -3 1019 58 16093 6.7 280 08:20 08.01.2020
1184 Clear -2 1018 58 16093 6.2 280 07:51 08.01.2020
1185 Clear -2 1018 63 16093 4.6 270 07:33 08.01.2020
1186 Clear -2 1018 58 16093 5.7 280 06:58 08.01.2020
1187 Clear -2 1018 63 16093 6.2 270 06:40 08.01.2020
1188 Clear -1 1018 60 16093 5.1 270 05:54 08.01.2020
1189 Clear -1 1018 74 16093 4.1 280 05:25 08.01.2020
1190 Clouds 0 1018 74 16093 5.7 270 04:35 08.01.2020
1191 Clouds 1 1018 59 16093 6.2 260 02:46 08.01.2020
1192 Clouds 1 1017 64 16093 7.2 270 02:28 08.01.2020
1193 Clouds 1 1017 69 16093 6.2 270 01:52 08.01.2020
1194 Clouds 1 1017 69 16093 5.1 260 01:26 08.01.2020
1195 Clouds 2 1017 69 16093 3.6 260 00:42 08.01.2020
1196 Clouds 2 1017 69 16093 3.6 260 00:21 08.01.2020
1197 Clouds 2 1017 55 16093 5.1 270 23:44 07.01.2020
1198 Clouds 3 1017 59 16093 3.6 260 23:20 07.01.2020
1199 Clouds 3 1016 60 16093 7.7 270 22:41 07.01.2020
1200 Clouds 3 1016 60 16093 7.7 270 22:21 07.01.2020
1201 Clouds 4 1016 55 16093 6.7 260 21:58 07.01.2020
1202 Clear 4 1016 56 16093 8.2 280 21:40 07.01.2020
1203 Clouds 4 1015 60 16093 6.7 260 21:21 07.01.2020
1204 Clear 4 1015 80 16093 4.1 270 20:57 07.01.2020
1205 Clear 4 1015 56 16093 8.7 270 20:38 07.01.2020
1206 Clear 4 1015 56 16093 8.7 270 20:20 07.01.2020
1207 Clear 4 1015 56 16093 6.7 260 19:55 07.01.2020
1208 Clear 4 1015 56 16093 6.7 280 19:36 07.01.2020
1209 Clear 4 1015 56 16093 6.7 280 19:18 07.01.2020
1210 Clouds 4 1015 60 16093 7.2 270 19:18 07.01.2020
1211 Clouds 4 1015 60 16093 5.7 260 18:55 07.01.2020
1212 Clouds 4 1016 56 16093 5.7 260 18:36 07.01.2020
1213 Clouds 3 1016 56 16093 5.7 260 18:18 07.01.2020
1214 Clouds 2 1016 64 16093 4.1 260 17:40 07.01.2020
1215 Clouds 2 1016 64 16093 4.1 260 17:22 07.01.2020
1216 Clouds 1 1016 59 16093 3.6 260 16:57 07.01.2020
1217 Clouds 1 1016 58 16093 3.1 280 16:38 07.01.2020
1218 Snow 0 1016 59 16093 4.1 250 16:19 07.01.2020
1219 Snow 0 1016 59 16093 4.1 250 15:58 07.01.2020
1220 Clouds -1 1016 86 16093 1.5 210 15:40 07.01.2020
1221 Clouds -1 1016 86 16093 1.5 210 15:22 07.01.2020
1222 Clouds -1 1016 86 16093 1.5 210 15:22 07.01.2020
1223 Clouds -1 1015 58 16093 4.1 220 14:55 07.01.2020
1224 Clouds -1 1015 86 16093 2.6 230 14:37 07.01.2020
1225 Clouds -1 1015 86 16093 2.6 230 14:18 07.01.2020
1226 Clouds -2 1015 85 16093 1.5 190 13:39 07.01.2020
1227 Clouds -2 1015 85 16093 1.5 190 13:19 07.01.2020
1228 Clouds -2 1015 79 16093 6.46 242 12:41 07.01.2020
1229 Clouds -2 1015 79 16093 6.46 242 12:20 07.01.2020
1230 Clouds -2 1015 63 16093 3.1 220 11:57 07.01.2020
1231 Clear -2 1016 74 16093 6.46 242 11:38 07.01.2020
1232 Clear -3 1016 85 16093 1.5 210 11:20 07.01.2020
1233 Clouds -3 1016 74 16093 4.83 225 10:42 07.01.2020
1234 Clouds -3 1016 79 16093 2.1 210 10:24 07.01.2020
1235 Clouds -3 1016 68 16093 2.1 230 09:58 07.01.2020
1236 Clear -3 1016 68 16093 4.83 225 09:38 07.01.2020
1237 Clouds -2 1016 79 16093 1.5 190 09:20 07.01.2020
1238 Clear -2 1017 52 16093 4.83 225 08:43 07.01.2020
1239 Clear -2 1017 79 16093 1.5 190 08:25 07.01.2020
1240 Clear -2 1017 59 16093 1.5 210 07:54 07.01.2020
1241 Clear -2 1017 74 16093 1.5 190 07:28 07.01.2020
1242 Clear -2 1017 74 16093 1.5 190 07:28 07.01.2020
1243 Clouds -1 1017 59 16093 3.1 230 06:53 07.01.2020
1244 Clear -1 1018 74 16093 5.11 242 06:34 07.01.2020
1245 Clouds -1 1018 59 16093 5.11 242 05:55 07.01.2020
1246 Clear 0 1019 74 16093 2.1 230 04:39 07.01.2020
1247 Clouds 1 1020 59 16093 2.1 240 03:27 07.01.2020
1248 Clouds 1 1020 64 16093 2.1 240 02:22 07.01.2020
1249 Clouds 1 1020 47 16093 3.6 240 01:52 07.01.2020
1250 Clouds 2 1020 64 16093 2.6 230 01:30 07.01.2020
1251 Clouds 2 1021 59 16093 3.1 230 00:37 07.01.2020
1252 Clouds 2 1021 59 16093 3.1 230 00:37 07.01.2020
1253 Clouds 2 1021 59 16093 3.1 230 00:18 07.01.2020
1254 Clouds 3 1020 51 16093 2.1 230 23:40 06.01.2020
1255 Clouds 3 1020 51 16093 2.1 230 23:21 06.01.2020
1256 Clouds 4 1020 44 16093 4.6 210 22:58 06.01.2020
1257 Clear 4 1020 55 16093 3.6 220 22:39 06.01.2020
1258 Clear 4 1020 55 16093 3.6 220 22:21 06.01.2020
1259 Clouds 5 1020 41 16093 5.1 230 21:56 06.01.2020
1260 Clear 5 1020 41 16093 4.6 260 21:38 06.01.2020
1261 Clear 5 1020 41 16093 4.6 260 21:19 06.01.2020
1262 Clouds 5 1020 41 16093 5.7 250 20:56 06.01.2020
1263 Clear 5 1020 44 16093 4.6 240 20:37 06.01.2020
1264 Clear 5 1020 44 16093 4.6 240 20:19 06.01.2020
1265 Clouds 4 1020 41 16093 6.2 250 19:55 06.01.2020
1266 Clear 4 1021 48 16093 5.7 260 19:37 06.01.2020
1267 Clear 4 1021 48 16093 5.7 260 19:18 06.01.2020
1268 Clear 3 1020 55 16093 2.6 250 18:45 06.01.2020
1269 Clear 2 1022 59 16093 4.1 230 18:21 06.01.2020
1270 Clear 1 1023 64 16093 4.6 270 17:40 06.01.2020
1271 Clear 1 1023 64 16093 4.6 270 17:40 06.01.2020
1272 Clear 0 1023 64 16093 4.6 270 17:20 06.01.2020
1273 Clouds -1 1022 68 16093 4.6 240 16:59 06.01.2020
1274 Clear -1 1023 74 16093 3.6 260 16:41 06.01.2020
1275 Clear -1 1023 74 16093 3.6 260 16:23 06.01.2020
1276 Clouds -2 1022 68 16093 4.1 250 15:59 06.01.2020
1277 Clear -3 1022 86 16093 3.1 250 15:37 06.01.2020
1278 Clear -3 1022 86 16093 3.1 250 15:18 06.01.2020
1279 Clouds -3 1021 73 16093 3.1 230 15:18 06.01.2020
1280 Clear -3 1021 85 16093 2.6 250 14:42 06.01.2020
1281 Clear -3 1021 85 16093 2.6 250 14:22 06.01.2020
1282 Clear -3 1021 85 16093 2.6 250 14:22 06.01.2020
1283 Clouds -3 1020 73 16093 2.6 270 13:59 06.01.2020
1284 Clear -3 1021 86 16093 3.1 280 13:39 06.01.2020
1285 Clear -3 1021 86 16093 3.1 280 13:21 06.01.2020
1286 Clear -3 1021 86 16093 2.1 260 12:56 06.01.2020
1287 Clear -3 1021 79 16093 2.1 250 12:37 06.01.2020
1288 Clear -3 1021 79 16093 2.1 250 12:19 06.01.2020
1289 Clear -3 1021 79 16093 2.1 250 12:19 06.01.2020
1290 Clear -2 1020 79 16093 1.5 270 11:43 06.01.2020
1291 Clear -2 1020 79 16093 1.5 270 11:43 06.01.2020
1292 Clear -2 1021 86 16093 3.6 260 11:24 06.01.2020
1293 Clouds -2 1020 74 16093 3.1 270 10:59 06.01.2020
1294 Clear -2 1020 79 16093 3.6 260 10:41 06.01.2020
1295 Clear -2 1020 79 16093 3.6 260 10:21 06.01.2020
1296 Clear -1 1020 70 16093 3.6 270 09:42 06.01.2020
1297 Clear -1 1020 74 16093 3.1 290 09:23 06.01.2020
1298 Clear -1 1019 70 16093 2.6 290 08:55 06.01.2020
1299 Clear -1 1019 70 16093 3.6 290 08:37 06.01.2020
1300 Clear -1 1018 70 16093 5.1 290 07:57 06.01.2020
1301 Clear -1 1018 70 16093 4.1 290 07:38 06.01.2020
1302 Clear 0 1017 64 16093 5.7 280 06:51 06.01.2020
1303 Clear 0 1017 69 16093 3.1 300 06:32 06.01.2020
1304 Clear 0 1016 70 16093 4.1 280 05:48 06.01.2020
1305 Clouds 1 1016 64 16093 5.7 290 04:58 06.01.2020
1306 Clear 1 1016 74 16093 5.7 280 04:22 06.01.2020
1307 Clouds 2 1015 74 16093 6.7 280 03:26 06.01.2020
1308 Clouds 2 1015 69 16093 7.2 280 02:26 06.01.2020
1309 Clouds 3 1013 64 16093 7.2 270 01:49 06.01.2020
1310 Clouds 4 1014 75 16093 10.8 270 01:29 06.01.2020
1311 Clouds 4 1013 75 16093 7.7 280 00:45 06.01.2020
1312 Clouds 5 1013 75 16093 7.7 280 00:26 06.01.2020
1313 Clouds 5 1013 60 16093 8.7 280 23:57 05.01.2020
1314 Clouds 5 1012 75 16093 8.2 270 23:37 05.01.2020
1315 Clouds 5 1012 75 16093 8.2 270 23:19 05.01.2020
1316 Clouds 5 1011 80 16093 7.7 270 22:40 05.01.2020
1317 Clouds 5 1011 80 16093 7.7 270 22:20 05.01.2020
1318 Clouds 5 1010 65 16093 7.2 270 21:57 05.01.2020
1319 Clouds 5 1010 65 16093 9.3 240 21:38 05.01.2020
1320 Clouds 5 1009 60 16093 7.7 260 21:20 05.01.2020
1321 Clouds 5 1009 60 16093 8.7 250 20:56 05.01.2020
1322 Clouds 5 1010 65 16093 11.3 230 20:38 05.01.2020
1323 Clouds 4 1010 65 16093 11.3 230 20:19 05.01.2020
1324 Clouds 4 1010 65 16093 11.3 230 20:19 05.01.2020
1325 Clear 4 1011 65 16093 8.7 230 19:58 05.01.2020
1326 Clouds 4 1011 69 16093 9.3 210 19:38 05.01.2020
1327 Clouds 3 1011 69 16093 9.3 210 19:19 05.01.2020
1328 Clouds 3 1010 60 16093 8.2 220 18:55 05.01.2020
1329 Clouds 3 1013 74 16093 8.7 200 18:37 05.01.2020
1330 Clouds 3 1013 74 16093 8.7 200 18:37 05.01.2020
1331 Clouds 2 1012 64 16093 6.2 200 18:19 05.01.2020
1332 Clouds 2 1012 64 16093 6.2 200 17:57 05.01.2020
1333 Clear 1 1015 70 16093 7.7 180 17:38 05.01.2020
1334 Clear 1 1015 70 16093 7.7 180 17:38 05.01.2020
1335 Clear 1 1015 70 16093 7.7 180 17:19 05.01.2020
1336 Clouds 0 1016 70 16093 6.7 170 16:56 05.01.2020
1337 Clouds -1 1016 86 16093 6.2 160 16:38 05.01.2020
1338 Clouds -1 1016 86 16093 6.2 160 16:19 05.01.2020
1339 Clouds -1 1016 86 16093 6.2 160 16:19 05.01.2020
1340 Clouds -1 1016 86 16093 6.2 160 16:19 05.01.2020
1341 Clouds -2 1016 86 14484 7.2 170 15:38 05.01.2020
1342 Clouds -2 1017 86 16093 5.1 170 15:20 05.01.2020
1343 Clouds -3 1017 86 16093 6.7 170 14:55 05.01.2020
1344 Clouds -3 1018 92 16093 4.6 170 14:37 05.01.2020
1345 Clouds -3 1018 92 16093 4.6 170 14:19 05.01.2020
1346 Clouds -4 1018 86 14484 5.7 190 13:55 05.01.2020
1347 Clouds -4 1020 92 16093 5.1 180 13:37 05.01.2020
1348 Clouds -4 1020 92 16093 5.1 180 13:18 05.01.2020
1349 Clouds -4 1020 92 16093 5.1 180 13:18 05.01.2020
1350 Clouds -4 1020 92 16093 5.1 180 13:18 05.01.2020
1351 Clouds -4 1020 92 16093 5.1 180 13:18 05.01.2020
1352 Clouds -4 1019 79 16093 5.7 200 12:55 05.01.2020
1353 Clouds -4 1020 86 16093 4.1 210 12:36 05.01.2020
1354 Clouds -4 1020 86 16093 4.1 210 12:36 05.01.2020
1355 Clouds -4 1020 86 16093 4.1 210 12:18 05.01.2020
1356 Clouds -4 1021 79 11265 3.6 230 11:43 05.01.2020
1357 Clouds -4 1021 79 11265 3.6 230 11:43 05.01.2020
1358 Clouds -4 1021 79 11265 3.6 230 11:43 05.01.2020
1359 Clouds -4 1021 79 11265 3.6 230 11:43 05.01.2020
1360 Clouds -4 1021 92 16093 4.1 210 11:43 05.01.2020
1361 Clouds -4 1021 92 16093 4.1 210 11:19 05.01.2020
1362 Clouds -4 1020 85 16093 5.7 220 10:57 05.01.2020
1363 Clouds -4 1020 85 16093 5.7 220 10:57 05.01.2020
1364 Clouds -4 1020 85 16093 5.7 220 10:57 05.01.2020
1365 Clouds -4 1021 86 16093 5.38 232 10:39 05.01.2020
1366 Clouds -4 1021 86 16093 5.38 232 10:38 05.01.2020
1367 Clouds -4 1021 86 16093 5.38 232 10:38 05.01.2020
1368 Clouds -4 1021 86 16093 5.38 232 10:38 05.01.2020
1369 Clouds -4 1021 86 16093 5.38 232 10:38 05.01.2020
1370 Clouds -4 1021 86 16093 5.38 232 10:18 05.01.2020
1371 Clouds -4 1020 92 16093 2.6 230 09:41 05.01.2020
1372 Clouds -4 1022 86 16093 5.38 232 09:21 05.01.2020
1373 Clouds -4 1020 85 16093 4.6 220 08:49 05.01.2020
1374 Clouds -4 1021 86 16093 5.38 232 08:30 05.01.2020
1375 Clouds -4 1021 79 16093 4.1 230 07:56 05.01.2020
1376 Clouds -4 1021 79 16093 3.6 250 07:37 05.01.2020
1377 Clouds -3 1021 86 16093 4.93 256 07:18 05.01.2020
1378 Clouds -3 1021 74 16093 4.6 260 05:59 05.01.2020
1379 Clouds -3 1021 79 16093 3.1 270 05:32 05.01.2020
1380 Clouds -2 1020 79 16093 2.6 250 04:43 05.01.2020
1381 Clouds -2 1021 68 16093 3.6 280 04:18 05.01.2020
1382 Clouds -2 1020 68 16093 5.1 280 02:46 05.01.2020
1383 Clouds -2 1020 68 16093 4.6 310 02:24 05.01.2020
1384 Clouds -2 1019 74 16093 2.6 300 01:48 05.01.2020
1385 Clouds -1 1019 74 16093 2.6 300 01:18 05.01.2020
1386 Clouds -1 1019 58 16093 4.1 300 00:41 05.01.2020
1387 Clouds -1 1019 72 16093 4.6 300 00:23 05.01.2020
1388 Clouds -1 1018 68 16093 4.6 300 23:59 04.01.2020
1389 Clouds -1 1018 68 16093 4.6 300 23:59 04.01.2020
1390 Clouds -1 1018 72 16093 3.1 310 23:39 04.01.2020
1391 Clouds -1 1018 72 16093 3.6 290 23:19 04.01.2020
1392 Clouds -1 1017 72 16093 3.6 330 22:40 04.01.2020
1393 Clouds -1 1017 72 16093 3.6 330 22:40 04.01.2020
1394 Clouds -1 1017 72 16093 3.6 330 22:21 04.01.2020
1395 Clouds -1 1016 72 16093 3.6 290 21:57 04.01.2020
1396 Clouds 0 1016 72 16093 3.1 290 21:57 04.01.2020
1397 Clouds 0 1016 72 16093 3.6 300 21:39 04.01.2020
1398 Clouds 0 1016 72 16093 3.6 300 21:20 04.01.2020
1399 Clouds 0 1016 64 16093 5.7 320 20:58 04.01.2020
1400 Clouds 0 1016 72 16093 4.1 310 20:39 04.01.2020
1401 Clouds 0 1016 72 16093 4.1 310 20:39 04.01.2020
1402 Clouds 0 1016 69 16093 4.6 310 20:21 04.01.2020
1403 Clouds 0 1016 74 16093 4.6 310 19:56 04.01.2020
1404 Clouds 0 1016 74 16093 4.1 310 19:37 04.01.2020
1405 Clouds 0 1016 74 16093 4.1 310 19:18 04.01.2020
1406 Rain 0 1015 74 16093 3.6 330 18:54 04.01.2020
1407 Rain 0 1015 73 16093 4.1 340 18:36 04.01.2020
1408 Rain 0 1015 73 16093 4.1 340 18:18 04.01.2020
1409 Clouds 0 1015 73 16093 4.6 340 17:40 04.01.2020
1410 Clouds 0 1016 78 16093 4.1 330 17:22 04.01.2020
1411 Snow 0 1015 78 4023 3.1 340 16:55 04.01.2020
1412 Clouds 0 1015 78 16093 4.1 330 16:36 04.01.2020
1413 Snow 0 1015 92 1609 3.1 330 16:18 04.01.2020
1414 Clouds -1 1014 78 11265 4.6 340 15:42 04.01.2020
1415 Snow -1 1014 100 6437 2.6 310 15:20 04.01.2020
1416 Snow -1 1014 78 11265 4.6 330 14:59 04.01.2020
1417 Snow -1 1014 78 11265 4.6 330 14:59 04.01.2020
1418 Snow -1 1014 78 11265 4.6 330 14:59 04.01.2020
1419 Snow -1 1014 78 11265 4.6 330 14:59 04.01.2020
1420 Snow -1 1014 78 6437 3.6 310 14:40 04.01.2020
1421 Rain -1 1014 100 8047 2.1 310 14:20 04.01.2020
1422 Rain -1 1013 92 4023 2.6 310 13:58 04.01.2020
1423 Snow -1 1013 92 2816 3.1 340 13:37 04.01.2020
1424 Snow -1 1013 92 2816 3.1 340 13:37 04.01.2020
1425 Snow -1 1013 100 4023 2.1 310 13:19 04.01.2020
1426 Snow -1 1013 92 4828 3.6 320 12:56 04.01.2020
1427 Clouds -1 1013 86 12874 3.1 330 12:38 04.01.2020
1428 Rain -1 1013 92 4023 2.6 350 12:18 04.01.2020
1429 Rain -1 1013 84 2816 1.5 300 11:55 04.01.2020
1430 Snow -1 1013 84 2414 7.12 323 11:36 04.01.2020
1431 Snow -1 1012 90 4828 3.1 330 11:18 04.01.2020
1432 Mist -1 1013 86 6437 2.1 340 10:40 04.01.2020
1433 Snow 0 1012 80 8047 2.6 330 10:21 04.01.2020
1434 Clouds 0 1012 92 2414 2.1 330 09:44 04.01.2020
1435 Clouds 0 1012 80 16093 1.5 340 09:25 04.01.2020
1436 Clouds 0 1012 80 16093 1.5 360 08:49 04.01.2020
1437 Clouds 0 1012 80 16093 1.5 350 08:29 04.01.2020
1438 Clouds 1 1012 80 16093 1.5 10 07:56 04.01.2020
1439 Clouds 1 1012 80 16093 2.1 340 07:38 04.01.2020
1440 Clouds 1 1012 74 16093 5.21 333 06:44 04.01.2020
1441 Clouds 1 1012 69 16093 3.6 20 05:59 04.01.2020
1442 Clouds 1 1012 86 16093 1.5 20 04:51 04.01.2020
1443 Clouds 1 1012 86 16093 3.95 21 04:30 04.01.2020
1444 Clouds 1 1012 86 16093 1.5 350 03:29 04.01.2020
1445 Clouds 1 1012 86 16093 2.1 10 02:49 04.01.2020
1446 Clouds 1 1012 86 16093 2.1 360 02:18 04.01.2020
1447 Clouds 1 1011 74 16093 2.1 360 01:41 04.01.2020
1448 Clouds 1 1011 74 16093 2.1 360 01:23 04.01.2020
1449 Clouds 1 1011 75 16093 2.6 30 00:29 04.01.2020
1450 Clouds 1 1010 69 12874 3.6 20 23:57 03.01.2020
1451 Clouds 2 1010 75 16093 1.5 10 23:30 03.01.2020
1452 Clouds 2 1010 80 16093 2.6 340 22:59 03.01.2020
1453 Clouds 2 1010 80 16093 2.1 60 22:40 03.01.2020
1454 Clouds 2 1010 80 16093 2.1 60 22:19 03.01.2020
1455 Clouds 2 1009 64 16093 2.1 290 21:57 03.01.2020
1456 Clouds 2 1009 80 16093 2.6 40 21:38 03.01.2020
1457 Clouds 3 1009 80 16093 2.6 40 21:19 03.01.2020
1458 Clouds 3 1008 80 16093 1.5 10 20:55 03.01.2020
1459 Clouds 3 1009 80 16093 3.63 352 20:36 03.01.2020
1460 Clouds 3 1009 85 16093 4.54 347 20:18 03.01.2020
1461 Clouds 3 1009 85 16093 2.6 40 19:44 03.01.2020
1462 Clouds 3 1009 85 16093 2.6 40 19:23 03.01.2020
1463 Clouds 3 1010 74 16093 1.5 0 18:57 03.01.2020
1464 Clouds 3 1010 85 16093 2.6 10 18:38 03.01.2020
1465 Clouds 3 1010 85 16093 2.6 10 18:20 03.01.2020
1466 Clouds 2 1011 80 16093 4.54 347 17:42 03.01.2020
1467 Clouds 2 1011 86 16093 3.1 30 17:21 03.01.2020
1468 Clouds 2 1010 69 16093 4.1 350 16:58 03.01.2020
1469 Clouds 2 1011 86 16093 3.6 20 16:39 03.01.2020
1470 Clouds 2 1011 86 16093 3.6 20 16:20 03.01.2020
1471 Clouds 2 1010 80 16093 3.1 10 15:41 03.01.2020
1472 Clouds 2 1009 74 16093 3.1 340 15:19 03.01.2020
1473 Clouds 2 1009 100 11265 5 8 14:40 03.01.2020
1474 Clouds 2 1009 100 11265 5 8 14:40 03.01.2020
1475 Clouds 2 1009 100 11265 7.17 335 14:20 03.01.2020
1476 Clouds 2 1009 100 11265 1.5 10 13:59 03.01.2020
1477 Clouds 2 1009 100 11265 1.5 320 13:40 03.01.2020
1478 Clouds 2 1009 100 11265 1.5 320 13:21 03.01.2020
1479 Clouds 2 1008 85 16093 2.6 330 12:41 03.01.2020
1480 Clouds 2 1008 100 16093 1.5 320 12:22 03.01.2020
1481 Clouds 2 1007 86 16093 2.1 320 11:54 03.01.2020
1482 Clouds 2 1007 86 16093 2.1 320 11:35 03.01.2020
1483 Clouds 2 1007 86 16093 2.6 10 10:58 03.01.2020
1484 Clouds 2 1006 93 16093 2.1 330 10:39 03.01.2020
1485 Mist 2 1006 100 6437 2.6 320 10:21 03.01.2020
1486 Mist 2 1006 93 2816 3.7 335 09:55 03.01.2020
1487 Mist 2 1006 100 6437 3.7 335 09:37 03.01.2020
1488 Mist 3 1006 100 6437 3.7 335 09:19 03.01.2020
1489 Mist 3 1005 100 6437 3.7 335 08:45 03.01.2020
1490 Mist 3 1005 100 6437 3.7 335 08:23 03.01.2020
1491 Clear 4 1006 93 11265 3.67 318 07:56 03.01.2020
1492 Mist 4 1005 100 6437 3.67 318 07:37 03.01.2020
1493 Clouds 4 1005 86 16093 2.1 260 07:18 03.01.2020
1494 Clear 4 1006 87 16093 3.67 318 06:42 03.01.2020
1495 Clear 5 1005 100 16093 3.67 318 06:22 03.01.2020
1496 Clear 5 1005 100 16093 2.6 220 04:59 03.01.2020
1497 Clear 6 1005 93 16093 3.1 210 03:42 03.01.2020
1498 Clouds 6 1003 75 16093 2.6 230 02:53 03.01.2020
1499 Clear 6 1004 86 16093 4.83 227 01:51 03.01.2020
1500 Clear 6 1004 93 16093 3.1 190 01:33 03.01.2020
1501 Clear 7 1003 81 16093 3.1 220 00:43 03.01.2020
1502 Clear 7 1003 81 16093 3.1 220 00:24 03.01.2020
1503 Clouds 8 1004 75 16093 3.6 210 23:39 02.01.2020
1504 Clouds 8 1004 75 16093 3.6 210 23:21 02.01.2020
1505 Clouds 8 1002 66 16093 4.6 220 22:59 02.01.2020
1506 Clouds 8 1003 75 16093 5.7 230 22:41 02.01.2020
1507 Clouds 8 1003 75 16093 5.7 230 22:20 02.01.2020
1508 Clouds 8 1002 66 16093 5.1 230 21:57 02.01.2020
1509 Clear 8 1002 70 16093 5.1 230 21:38 02.01.2020
1510 Clear 8 1002 70 16093 5.1 230 21:19 02.01.2020
1511 Clouds 9 1001 61 16093 5.7 220 20:56 02.01.2020
1512 Clouds 9 1001 70 16093 6.7 210 20:37 02.01.2020
1513 Clouds 9 1001 70 16093 6.7 210 20:19 02.01.2020
1514 Clouds 8 1001 61 16093 6.7 240 19:54 02.01.2020
1515 Clouds 8 1001 61 16093 6.7 240 19:54 02.01.2020
1516 Clear 8 1002 66 16093 6.7 230 19:36 02.01.2020
1517 Clear 8 1002 66 16093 6.7 230 19:18 02.01.2020
1518 Clear 8 1001 65 16093 6.2 230 18:43 02.01.2020
1519 Clear 7 1003 65 16093 8.7 230 18:25 02.01.2020
1520 Clouds 7 1002 61 16093 8.7 220 17:58 02.01.2020
1521 Clear 6 1004 70 16093 7.2 220 17:39 02.01.2020
1522 Clear 6 1004 70 16093 7.2 220 17:20 02.01.2020
1523 Clouds 5 1003 78 16093 8.7 230 16:58 02.01.2020
1524 Clouds 5 1003 78 16093 8.7 230 16:58 02.01.2020
1525 Clear 5 1003 78 16093 5.7 210 16:40 02.01.2020
1526 Clear 4 1003 78 16093 5.7 210 16:20 02.01.2020
1527 Clouds 4 1002 69 16093 6.7 210 15:58 02.01.2020
1528 Clouds 4 1002 69 16093 6.7 210 15:58 02.01.2020
1529 Clear 3 1002 80 16093 7.2 210 15:40 02.01.2020
1530 Clear 3 1002 80 16093 7.2 210 15:21 02.01.2020
1531 Clear 2 1002 80 16093 5.7 210 14:57 02.01.2020
1532 Clear 2 1002 80 16093 5.1 210 14:36 02.01.2020
1533 Clear 2 1002 80 16093 5.1 210 14:36 02.01.2020
1534 Clear 2 1000 80 16093 5.1 200 14:18 02.01.2020
1535 Clear 3 1002 80 16093 6.2 210 13:49 02.01.2020
1536 Clear 3 1002 74 16093 6.2 210 13:31 02.01.2020
1537 Clouds 3 1000 69 16093 4.1 200 12:46 02.01.2020
1538 Clear 3 1002 74 16093 5.1 200 12:26 02.01.2020
1539 Clear 3 1002 74 16093 7.2 200 11:59 02.01.2020
1540 Clear 3 1002 74 16093 7.2 200 11:40 02.01.2020
1541 Clear 3 1002 74 16093 7.2 200 11:20 02.01.2020
1542 Clear 3 1002 69 16093 7.7 200 10:44 02.01.2020
1543 Clear 3 1002 69 16093 7.7 200 10:26 02.01.2020
1544 Clear 3 1002 69 16093 8.7 200 09:51 02.01.2020
1545 Clear 3 1002 69 16093 6.7 200 09:33 02.01.2020
1546 Clear 4 1002 52 16093 5.1 190 08:47 02.01.2020
1547 Clear 4 1002 69 16093 7.7 200 08:27 02.01.2020
1548 Clouds 4 1001 60 16093 8.2 200 07:54 02.01.2020
1549 Clear 4 1002 69 16093 7.7 200 07:30 02.01.2020
1550 Clear 4 1003 64 16093 8.2 190 06:55 02.01.2020
1551 Clear 4 1003 64 16093 7.7 200 06:36 02.01.2020
1552 Clear 5 1003 64 16093 8.7 200 05:35 02.01.2020
1553 Clear 5 1003 69 16093 7.7 190 04:33 02.01.2020
1554 Clouds 5 1002 60 16093 5.7 200 02:54 02.01.2020
1555 Clouds 4 1002 69 16093 7.2 190 01:59 02.01.2020
1556 Clear 4 1004 69 16093 8.7 190 01:39 02.01.2020
1557 Clouds 4 1003 65 16093 6.7 190 00:59 02.01.2020
1558 Clear 4 1004 70 16093 7.2 190 00:34 02.01.2020
1559 Clouds 4 1003 65 16093 5.7 190 23:56 01.01.2020
1560 Clear 4 1004 70 16093 6.7 190 23:37 01.01.2020
1561 Clear 5 1004 65 16093 6.7 190 23:18 01.01.2020
1562 Rain 5 1005 65 16093 7.2 190 22:38 01.01.2020
1563 Rain 5 1005 65 16093 7.2 190 22:19 01.01.2020
1564 Rain 5 1004 56 16093 6.2 200 21:56 01.01.2020
1565 Clear 5 1005 69 16093 6.2 180 21:38 01.01.2020
1566 Clouds 5 1005 60 16093 7.2 200 21:19 01.01.2020
1567 Clear 5 1005 69 16093 6.2 180 21:19 01.01.2020
1568 Clouds 4 1005 60 16093 7.2 200 20:55 01.01.2020
1569 Clear 4 1007 74 16093 6.2 210 20:37 01.01.2020
1570 Clear 4 1007 74 16093 6.2 210 20:19 01.01.2020
1571 Clouds 4 1006 59 16093 7.2 210 20:19 01.01.2020
1572 Clouds 3 1006 59 16093 7.2 210 19:55 01.01.2020
1573 Clear 3 1008 69 16093 6.7 210 19:37 01.01.2020
1574 Rain 2 1008 69 16093 6.7 210 19:19 01.01.2020
1575 Rain 2 1007 59 16093 6.2 210 18:55 01.01.2020
1576 Rain 1 1009 74 16093 6.2 210 18:36 01.01.2020
1577 Rain 1 1008 64 16093 4.6 210 18:18 01.01.2020
1578 Rain 0 1008 64 16093 4.6 210 17:56 01.01.2020
1579 Rain 0 1008 64 16093 4.6 210 17:56 01.01.2020
1580 Rain 0 1010 86 16093 5.1 210 17:37 01.01.2020
1581 Clear -1 1010 86 16093 5.1 210 17:18 01.01.2020
1582 Clear -3 1011 92 16093 3.1 200 16:40 01.01.2020
1583 Clear -2 1011 92 16093 3.1 200 16:40 01.01.2020
1584 Clear -4 1010 79 16093 5.7 210 16:21 01.01.2020
1585 Clear -5 1011 92 16093 3.1 210 15:57 01.01.2020
1586 Clear -5 1011 92 11265 2.6 340 15:39 01.01.2020
1587 Clear -6 1011 92 11265 2.6 340 15:20 01.01.2020
1588 Mist -6 1010 100 8047 2.6 190 14:58 01.01.2020
1589 Mist -6 1010 100 8047 2.6 190 14:58 01.01.2020
1590 Clear -6 1010 92 11265 1.5 210 14:40 01.01.2020
1591 Clear -7 1010 92 11265 1.5 210 14:21 01.01.2020
1592 Clear -7 1010 100 11265 2.1 220 13:56 01.01.2020
1593 Clear -7 1010 100 11265 2.6 220 13:37 01.01.2020
1594 Clear -7 1010 100 11265 2.6 220 13:37 01.01.2020
1595 Clear -7 1009 85 16093 3.6 230 13:18 01.01.2020
1596 Clear -6 1010 100 16093 2.1 230 12:55 01.01.2020
1597 Clear -6 1010 100 16093 2.1 240 12:37 01.01.2020
1598 Clear -6 1010 100 16093 2.1 240 12:18 01.01.2020
1599 Clear -6 1009 92 16093 1.5 240 11:43 01.01.2020
1600 Clouds -6 1010 92 16093 2.1 230 11:22 01.01.2020
1601 Clouds -6 1010 79 16093 3.1 250 10:58 01.01.2020
1602 Clouds -6 1011 86 16093 1.5 220 10:40 01.01.2020
1603 Clouds -6 1011 92 16093 3.6 250 10:20 01.01.2020
1604 Clouds -6 1010 79 16093 3.6 250 09:55 01.01.2020
1605 Clouds -5 1011 92 16093 2.6 240 09:36 01.01.2020
1606 Clouds -5 1011 92 16093 2.6 240 09:18 01.01.2020
1607 Clouds -5 1009 79 16093 3.6 270 08:54 01.01.2020
1608 Clouds -5 1010 92 16093 2.6 250 08:36 01.01.2020
1609 Clouds -5 1009 79 14484 4.1 260 08:18 01.01.2020
1610 Clear -4 1009 92 16093 2.1 270 07:45 01.01.2020
1611 Clouds -4 1010 79 16093 3.6 260 07:26 01.01.2020
1612 Clear -4 1009 85 16093 3.1 270 06:44 01.01.2020
1613 Clouds -4 1011 86 16093 3.6 260 06:19 01.01.2020
1614 Clouds -3 1011 74 16093 4.1 270 04:38 01.01.2020
1615 Clouds -3 1009 79 16093 3.1 260 03:41 01.01.2020
1616 Clouds -2 1010 74 16093 5.7 280 03:22 01.01.2020
1617 Clouds -2 1010 74 16093 5.7 270 02:55 01.01.2020
1618 Clouds -2 1010 79 16093 5.7 270 02:32 01.01.2020
1619 Clouds -2 1010 79 16093 5.1 270 01:45 01.01.2020
1620 Clouds -2 1010 79 16093 5.1 280 01:23 01.01.2020
1621 Clouds -3 1009 92 16093 5.1 260 00:54 01.01.2020
1622 Clouds -3 1010 74 16093 6.7 270 00:36 01.01.2020
1623 Clouds -3 1010 74 16093 6.7 270 00:18 01.01.2020
1624 Clouds -3 1009 73 16093 7.2 260 23:38 31.12.2019
1625 Clouds -3 1009 73 16093 7.2 260 23:19 31.12.2019
1626 Clouds -3 1009 68 16093 5.1 260 22:56 31.12.2019
1627 Clouds -3 1009 73 16093 6.2 260 22:37 31.12.2019
1628 Clouds -3 1009 73 16093 6.2 260 22:18 31.12.2019
1629 Clouds -3 1008 73 16093 6.7 260 21:54 31.12.2019
1630 Clouds -3 1008 73 16093 8.2 270 21:36 31.12.2019
1631 Clouds -3 1008 73 16093 8.2 270 21:18 31.12.2019
1632 Clouds -3 1008 73 16093 8.2 270 21:18 31.12.2019
1633 Clouds -3 1008 73 16093 6.2 280 20:40 31.12.2019
1634 Clouds -3 1008 73 16093 6.2 280 20:21 31.12.2019
1635 Clouds -3 1008 68 16093 6.2 280 19:58 31.12.2019
1636 Clouds -3 1008 73 16093 6.7 280 19:40 31.12.2019
1637 Clouds -3 1008 73 16093 6.7 280 19:22 31.12.2019
1638 Clouds -3 1008 68 16093 7.2 270 18:57 31.12.2019
1639 Clouds -3 1008 68 16093 7.2 270 18:57 31.12.2019
1640 Clouds -3 1008 73 16093 6.7 280 18:39 31.12.2019
1641 Clouds -3 1008 68 16093 8.7 270 18:19 31.12.2019
1642 Clouds -4 1008 68 16093 8.7 270 17:56 31.12.2019
1643 Clouds -4 1008 73 16093 6.2 280 17:37 31.12.2019
1644 Clouds -4 1008 73 16093 6.2 280 17:18 31.12.2019
1645 Clouds -4 1007 68 16093 7.7 290 16:56 31.12.2019
1646 Clouds -4 1007 73 16093 7.2 280 16:37 31.12.2019
1647 Clouds -4 1006 68 16093 9.3 280 16:19 31.12.2019
1648 Clouds -4 1006 68 16093 9.3 280 15:56 31.12.2019
1649 Clouds -4 1006 73 16093 6.7 280 15:38 31.12.2019
1650 Snow -4 1005 68 16093 7.2 280 15:20 31.12.2019
1651 Snow -4 1005 68 16093 7.2 280 14:56 31.12.2019
1652 Clouds -4 1005 79 16093 6.7 270 14:37 31.12.2019
1653 Clouds -4 1005 79 16093 6.7 270 14:19 31.12.2019
1654 Rain -4 1004 68 12874 7.7 290 13:56 31.12.2019
1655 Rain -4 1004 79 16093 9.3 270 13:38 31.12.2019
1656 Rain -4 1004 79 16093 9.3 270 13:38 31.12.2019
1657 Rain -4 1003 73 8047 6.2 280 13:20 31.12.2019
1658 Rain -4 1003 73 8047 6.2 280 12:56 31.12.2019
1659 Rain -4 1002 79 6437 6.7 270 12:37 31.12.2019
1660 Rain -4 1002 73 4023 5.7 270 12:19 31.12.2019
1661 Rain -4 1002 79 4023 6.7 280 11:55 31.12.2019
1662 Snow -4 1002 73 6437 6.2 280 11:37 31.12.2019
1663 Rain -4 1001 85 3219 5.1 270 11:19 31.12.2019
1664 Rain -4 1002 79 4023 11.3 270 10:56 31.12.2019
1665 Rain -4 1001 73 2816 7.2 260 10:37 31.12.2019
1666 Rain -4 1002 79 2012 12.9 270 10:19 31.12.2019
1667 Rain -4 1002 79 2012 12.9 270 09:57 31.12.2019
1668 Rain -4 1002 79 2012 12.9 270 09:57 31.12.2019
1669 Rain -3 1000 79 1207 7.7 250 09:38 31.12.2019
1670 Rain -3 1002 86 4023 10.3 260 09:19 31.12.2019
1671 Rain -3 1000 79 1609 13.4 250 08:42 31.12.2019
1672 Rain -3 1001 92 8047 8.7 260 08:23 31.12.2019
1673 Snow -3 1000 79 4828 10.3 260 07:58 31.12.2019
1674 Snow -3 1000 74 4023 7.2 250 07:40 31.12.2019
1675 Clouds -3 1001 92 4828 12.3 250 07:19 31.12.2019
1676 Snow -3 1000 86 3219 9.8 240 06:41 31.12.2019
1677 Snow -2 1000 86 4023 9.8 250 05:28 31.12.2019
1678 Clouds -2 1001 80 16093 14.4 260 04:25 31.12.2019
1679 Clouds -2 1001 86 16093 11.3 270 03:24 31.12.2019
1680 Clouds -1 1002 76 16093 10.8 240 02:36 31.12.2019
1681 Rain -1 1001 80 14484 9.8 240 01:51 31.12.2019
1682 Rain -1 1002 86 11265 10.8 250 01:32 31.12.2019
1683 Rain -1 1001 86 4828 7.2 250 00:56 31.12.2019
1684 Rain -1 1000 92 4023 8.7 230 00:37 31.12.2019
1685 Clouds -1 1002 86 16093 9.3 240 00:18 31.12.2019
1686 Clouds -1 1002 86 16093 7.7 230 23:55 30.12.2019
1687 Clouds -1 1002 86 16093 8.2 240 23:36 30.12.2019
1688 Clouds -1 1002 86 16093 8.2 240 23:36 30.12.2019
1689 Clouds -1 1000 86 16093 5.7 240 23:18 30.12.2019
1690 Clouds -1 1002 86 11265 7.7 250 22:54 30.12.2019
1691 Clouds -1 1002 86 16093 9.3 230 22:36 30.12.2019
1692 Clouds -1 1002 86 16093 9.3 230 22:18 30.12.2019
1693 Snow -1 1001 80 14484 9.8 250 21:55 30.12.2019
1694 Snow -1 1001 80 14484 9.8 250 21:55 30.12.2019
1695 Clouds -1 1001 86 16093 7.2 240 21:37 30.12.2019
1696 Clouds -1 1001 86 16093 7.2 240 21:18 30.12.2019
1697 Clouds -1 1001 71 16093 9.8 240 20:42 30.12.2019
1698 Clouds -1 1001 71 16093 9.8 240 20:21 30.12.2019
1699 Clouds -1 1000 72 16093 8.7 250 19:59 30.12.2019
1700 Clouds -1 1000 72 16093 8.7 250 19:59 30.12.2019
1701 Clouds -1 1000 72 16093 11.3 240 19:40 30.12.2019
1702 Clouds -1 1000 72 16093 11.3 240 19:20 30.12.2019
1703 Clouds -1 1000 72 16093 11.3 240 19:20 30.12.2019
1704 Clouds -1 1000 72 16093 9.8 240 18:59 30.12.2019
1705 Clouds -1 1001 72 16093 8.7 230 18:41 30.12.2019
1706 Clouds 0 1001 72 16093 8.7 230 18:21 30.12.2019
1707 Snow 0 1000 74 16093 8.7 250 17:59 30.12.2019
1708 Clouds 0 999 72 16093 8.2 240 17:40 30.12.2019
1709 Rain 0 1001 73 16093 10.3 240 17:19 30.12.2019
1710 Rain 0 999 74 16093 9.3 250 16:59 30.12.2019
1711 Rain 0 998 80 16093 8.2 230 16:39 30.12.2019
1712 Clouds 0 1000 80 16093 6.2 250 16:20 30.12.2019
1713 Rain 0 999 74 16093 9.8 240 15:56 30.12.2019
1714 Rain 1 997 86 3219 4.1 240 15:38 30.12.2019
1715 Rain 1 999 73 1207 6.2 240 15:19 30.12.2019
1716 Rain 1 997 74 9656 5.1 250 14:43 30.12.2019
1717 Rain 1 997 74 9656 5.1 250 14:43 30.12.2019
1718 Rain 1 999 80 16093 5.1 230 14:21 30.12.2019
1719 Rain 1 998 74 11265 7.7 250 13:59 30.12.2019
1720 Rain 1 997 86 6437 5.1 230 13:40 30.12.2019
1721 Rain 1 999 80 16093 6.2 240 13:22 30.12.2019
1722 Rain 1 999 80 16093 6.2 240 13:22 30.12.2019
1723 Rain 1 998 80 8047 5.7 240 12:57 30.12.2019
1724 Clouds 2 997 89 16093 4.1 260 12:37 30.12.2019
1725 Clouds 2 998 89 16093 6.7 240 12:18 30.12.2019
1726 Rain 2 996 74 16093 5.7 250 11:45 30.12.2019
1727 Rain 2 997 86 16093 4.6 270 11:22 30.12.2019
1728 Rain 2 997 86 16093 8.2 260 10:59 30.12.2019
1729 Rain 2 997 100 16093 6.2 280 10:40 30.12.2019
1730 Rain 3 995 86 16093 5.7 270 10:19 30.12.2019
1731 Rain 3 996 86 16093 5.7 240 09:42 30.12.2019
1732 Rain 4 996 100 16093 6.2 270 09:21 30.12.2019
1733 Rain 4 996 87 16093 6.2 280 08:57 30.12.2019
1734 Rain 4 996 87 12874 7.7 270 08:38 30.12.2019
1735 Rain 5 996 87 6437 9.8 280 08:19 30.12.2019
1736 Rain 6 995 87 16093 3.1 0 07:44 30.12.2019
1737 Rain 7 996 100 16093 3.1 200 07:18 30.12.2019
1738 Rain 9 997 100 16093 2.1 210 06:29 30.12.2019
1739 Rain 10 1000 93 11265 5.7 200 04:29 30.12.2019
1740 Rain 11 998 93 16093 5.1 180 03:43 30.12.2019
1741 Clouds 11 1000 93 16093 4.6 170 02:41 30.12.2019
1742 Clouds 11 1001 100 16093 3.6 190 02:21 30.12.2019
1743 Clouds 11 1002 93 16093 4.1 180 01:27 30.12.2019
1744 Clouds 11 1001 93 16093 4.1 180 00:51 30.12.2019
1745 Clouds 11 1001 93 16093 4.1 180 00:28 30.12.2019
1746 Clouds 12 1003 93 16093 4.1 200 23:40 29.12.2019
1747 Clouds 12 1003 93 16093 4.1 200 23:22 29.12.2019
1748 Clouds 12 1002 82 16093 4.1 190 22:57 29.12.2019
1749 Clouds 12 1002 82 16093 4.6 210 22:38 29.12.2019
1750 Clouds 12 1003 93 16093 3.6 210 22:20 29.12.2019
1751 Clouds 13 1002 87 16093 4.6 200 21:55 29.12.2019
1752 Clouds 13 1002 87 16093 4.6 200 21:36 29.12.2019
1753 Clouds 13 1002 87 16093 4.6 200 21:18 29.12.2019
1754 Clouds 13 1002 82 16093 4.6 220 20:55 29.12.2019
1755 Clouds 13 1002 93 16093 4.1 200 20:36 29.12.2019
1756 Clouds 13 1002 93 16093 4.1 200 20:18 29.12.2019
1757 Clear 13 1003 87 16093 4.6 210 19:40 29.12.2019
1758 Clear 13 1003 87 16093 4.6 210 19:22 29.12.2019
1759 Clouds 13 1003 82 16093 6.2 230 18:59 29.12.2019
1760 Clear 13 1003 87 16093 3.6 210 18:40 29.12.2019
1761 Clouds 13 1003 82 16093 4.6 220 18:21 29.12.2019
1762 Clear 13 1004 93 16093 4.6 200 17:59 29.12.2019
1763 Clear 13 1004 93 16093 4.6 200 17:40 29.12.2019
1764 Clear 13 1004 93 16093 4.6 200 17:20 29.12.2019
1765 Clouds 13 1003 87 16093 5.1 210 16:58 29.12.2019
1766 Clear 13 1004 100 16093 4.6 200 16:40 29.12.2019
1767 Clear 13 1004 100 16093 4.6 200 16:40 29.12.2019
1768 Clouds 13 1003 93 16093 5.1 210 16:21 29.12.2019
1769 Clouds 13 1003 93 16093 5.1 210 15:59 29.12.2019
1770 Clouds 13 1002 100 16093 4.1 190 15:40 29.12.2019
1771 Clouds 13 1003 100 16093 4.1 190 15:20 29.12.2019
1772 Rain 13 1002 100 16093 5.1 190 14:59 29.12.2019
1773 Rain 13 1002 93 16093 1.5 200 14:41 29.12.2019
1774 Rain 13 1002 100 16093 4.6 180 14:19 29.12.2019
1775 Rain 13 1001 93 16093 3.6 180 13:59 29.12.2019
1776 Rain 13 1000 93 12874 7.2 110 13:40 29.12.2019
1777 Rain 13 1000 93 12874 7.2 110 13:22 29.12.2019
1778 Rain 13 1004 100 16093 6.7 160 12:56 29.12.2019
1779 Rain 13 1003 100 16093 6.7 150 12:38 29.12.2019
1780 Rain 13 1003 100 16093 6.7 150 12:20 29.12.2019
1781 Rain 13 1003 100 6437 6.2 150 11:41 29.12.2019
1782 Rain 13 1004 100 16093 7.7 150 11:21 29.12.2019
1783 Rain 12 1004 93 11265 7.7 140 10:56 29.12.2019
1784 Rain 12 1005 93 8047 6.7 140 10:37 29.12.2019
1785 Rain 12 1005 93 11265 8.7 150 10:18 29.12.2019
1786 Rain 12 1006 93 8047 6.7 130 09:44 29.12.2019
1787 Rain 11 1006 100 11265 6.7 140 09:26 29.12.2019
1788 Rain 11 1006 100 6437 6.2 140 08:52 29.12.2019
1789 Rain 11 1007 100 4828 5.7 140 08:29 29.12.2019
1790 Rain 10 1007 100 4023 5.7 150 07:59 29.12.2019
1791 Rain 10 1007 100 4023 4.6 140 07:32 29.12.2019
1792 Rain 10 1009 87 8047 5.1 140 06:59 29.12.2019
1793 Rain 9 1009 100 8047 5.7 140 06:27 29.12.2019
1794 Rain 9 1010 93 8047 4.1 140 05:55 29.12.2019
1795 Thunderstorm 8 1012 87 8047 4.6 140 04:47 29.12.2019
1796 Thunderstorm 8 1012 87 8047 4.6 140 04:28 29.12.2019
1797 Clouds 8 1013 87 11265 5.1 120 03:32 29.12.2019
1798 Clouds 8 1014 87 11265 5.1 130 02:27 29.12.2019
1799 Clouds 7 1015 81 11265 5.7 130 01:47 29.12.2019
1800 Clouds 7 1015 81 11265 5.7 130 01:28 29.12.2019
1801 Clouds 6 1015 75 11265 5.1 110 00:45 29.12.2019
1802 Clouds 6 1016 81 11265 3.6 120 00:24 29.12.2019
1803 Clouds 6 1016 81 11265 4.6 110 23:46 28.12.2019
1804 Haze 6 1016 75 9656 3.6 100 23:19 28.12.2019
1805 Haze 6 1016 75 9656 3.6 100 22:59 28.12.2019
1806 Clouds 5 1017 87 11265 3.1 120 22:37 28.12.2019
1807 Haze 5 1017 75 9656 3.6 100 22:18 28.12.2019
1808 Haze 5 1017 75 9656 3.6 100 21:55 28.12.2019
1809 Mist 5 1017 87 8047 4.1 110 21:37 28.12.2019
1810 Clouds 5 1018 75 11265 3.6 100 21:19 28.12.2019
1811 Mist 4 1019 86 8047 4.1 120 20:42 28.12.2019
1812 Mist 5 1019 86 8047 4.1 120 20:23 28.12.2019
1813 Clouds 4 1019 80 11265 3.6 110 19:59 28.12.2019
1814 Clouds 4 1019 79 11265 5.7 90 19:41 28.12.2019
1815 Mist 4 1020 86 8047 3.1 110 19:23 28.12.2019
1816 Clouds 4 1020 79 11265 4.6 90 18:59 28.12.2019
1817 Clouds 3 1021 79 11265 4.1 80 18:40 28.12.2019
1818 Clouds 3 1021 79 11265 3.6 80 18:20 28.12.2019
1819 Clouds 3 1021 79 11265 3.6 80 17:58 28.12.2019
1820 Mist 3 1023 86 8047 3.1 130 17:39 28.12.2019
1821 Mist 2 1023 86 8047 3.1 130 17:19 28.12.2019
1822 Mist 2 1023 76 8047 3.1 120 16:48 28.12.2019
1823 Mist 2 1023 76 8047 2.6 110 16:26 28.12.2019
1824 Clouds 1 1022 76 11265 5.7 100 15:57 28.12.2019
1825 Mist 1 1022 76 8047 2.6 90 15:39 28.12.2019
1826 Mist 1 1022 76 8047 2.6 90 15:20 28.12.2019
1827 Mist 1 1022 76 8047 2.6 90 14:45 28.12.2019
1828 Mist 1 1023 76 8047 2.6 100 14:24 28.12.2019
1829 Mist 1 1023 79 6437 3.6 110 13:58 28.12.2019
1830 Mist 0 1023 79 6437 2.1 80 13:38 28.12.2019
1831 Mist 0 1023 78 6437 2.1 80 13:19 28.12.2019
1832 Mist 0 1023 86 6437 3.6 100 12:44 28.12.2019
1833 Mist 0 1024 78 6437 1.5 80 12:25 28.12.2019
1834 Mist 0 1023 86 6437 3.1 110 11:59 28.12.2019
1835 Mist -1 1024 78 4828 2.6 100 11:39 28.12.2019
1836 Mist -1 1024 74 6437 1.5 90 11:20 28.12.2019
1837 Mist -1 1025 74 4828 1.5 100 10:46 28.12.2019
1838 Mist -1 1024 74 8047 3.12 115 10:23 28.12.2019
1839 Mist -2 1024 74 9656 2.1 170 09:58 28.12.2019
1840 Mist -2 1025 74 6437 2.6 160 09:40 28.12.2019
1841 Mist -2 1024 100 8047 2.6 90 09:20 28.12.2019
1842 Mist -2 1024 100 8047 2.6 90 09:20 28.12.2019
1843 Mist -2 1024 74 6437 1.5 110 08:45 28.12.2019
1844 Mist -2 1024 100 8047 4.27 116 08:27 28.12.2019
1845 Mist -3 1024 86 9656 1.52 121 07:57 28.12.2019
1846 Mist -3 1025 100 8047 1.5 90 07:39 28.12.2019
1847 Mist -3 1026 92 4828 1.52 121 06:42 28.12.2019
1848 Mist -3 1025 100 4828 1.52 121 05:31 28.12.2019
1849 Mist -2 1026 100 8047 0.63 154 03:47 28.12.2019
1850 Mist -1 1026 100 8047 2.1 190 02:49 28.12.2019
1851 Clouds -1 1025 80 12874 3.1 210 02:19 28.12.2019
1852 Clear -1 1025 92 11265 0.53 250 01:50 28.12.2019
1853 Clear -1 1025 92 11265 2.1 180 01:20 28.12.2019
1854 Clear 0 1025 78 16093 1.5 230 00:41 28.12.2019
1855 Clear 0 1025 78 16093 1.5 230 00:23 28.12.2019
1856 Clear 1 1024 80 16093 0.64 61 23:45 27.12.2019
1857 Clear 2 1025 80 16093 0.64 295 23:20 27.12.2019
1858 Clouds 2 1024 74 14484 2.6 240 22:58 27.12.2019
1859 Clouds 2 1024 80 16093 1.5 290 22:39 27.12.2019
1860 Clouds 3 1024 80 16093 1.5 290 22:20 27.12.2019
1861 Clouds 3 1024 80 16093 1.5 290 22:20 27.12.2019
1862 Clouds 3 1024 69 16093 2.1 230 21:59 27.12.2019
1863 Clouds 3 1024 80 16093 2.6 270 21:40 27.12.2019
1864 Clouds 3 1024 80 16093 2.6 270 21:22 27.12.2019
1865 Clouds 3 1023 80 16093 1.5 280 20:42 27.12.2019
1866 Clouds 2 1024 80 16093 2.6 260 20:23 27.12.2019
1867 Clouds 2 1024 74 12874 3.6 270 19:55 27.12.2019
1868 Clouds 1 1025 80 16093 3.6 280 19:36 27.12.2019
1869 Clouds 1 1025 80 16093 3.6 280 19:18 27.12.2019
1870 Clouds 1 1025 80 16093 3.6 280 19:18 27.12.2019
1871 Clouds 1 1024 86 16093 3.6 250 18:41 27.12.2019
1872 Clouds 1 1025 80 16093 4.1 240 18:23 27.12.2019
1873 Clouds 1 1026 80 16093 4.1 260 17:59 27.12.2019
1874 Clouds 1 1026 80 16093 4.1 250 17:41 27.12.2019
1875 Clouds 1 1026 80 16093 4.1 250 17:19 27.12.2019
1876 Clouds 1 1025 80 16093 4.6 260 16:59 27.12.2019
1877 Clouds 1 1025 81 16093 4.1 270 16:39 27.12.2019
1878 Clouds 1 1025 81 16093 4.1 270 16:20 27.12.2019
1879 Clouds 1 1024 81 16093 4.6 301 15:45 27.12.2019
1880 Clouds 1 1024 81 16093 3.6 270 15:24 27.12.2019
1881 Clouds 1 1024 80 12874 6.2 280 14:59 27.12.2019
1882 Clouds 1 1024 81 16093 6.2 270 14:40 27.12.2019
1883 Clouds 1 1024 83 16093 6.2 270 14:22 27.12.2019
1884 Clouds 1 1023 80 11265 7.2 270 13:58 27.12.2019
1885 Clouds 2 1023 83 16093 5.7 260 13:40 27.12.2019
1886 Clouds 2 1023 81 16093 5.7 260 13:21 27.12.2019
1887 Clouds 2 1022 81 16093 4.1 270 12:44 27.12.2019
1888 Clouds 2 1022 81 16093 6.2 270 12:26 27.12.2019
1889 Clouds 2 1022 81 16093 6.2 270 12:26 27.12.2019
1890 Clouds 2 1021 74 12874 4.1 280 11:55 27.12.2019
1891 Clouds 2 1021 81 16093 5.1 270 11:37 27.12.2019
1892 Clouds 2 1021 74 12874 6.2 280 11:18 27.12.2019
1893 Clouds 2 1021 80 16093 4.6 270 10:41 27.12.2019
1894 Clouds 2 1021 80 16093 4.6 270 10:23 27.12.2019
1895 Clouds 2 1020 80 16093 7.2 270 09:49 27.12.2019
1896 Clouds 2 1020 86 11265 5.7 280 09:22 27.12.2019
1897 Clouds 2 1020 80 11265 6.2 280 08:59 27.12.2019
1898 Clouds 2 1019 86 11265 3.6 270 08:41 27.12.2019
1899 Clouds 3 1019 86 11265 3.6 270 08:22 27.12.2019
1900 Clouds 3 1019 86 16093 2.6 250 07:38 27.12.2019
1901 Clouds 3 1019 86 16093 5.7 270 06:59 27.12.2019
1902 Clouds 3 1019 81 16093 5.1 270 06:23 27.12.2019
1903 Clouds 4 1017 86 12874 3.1 260 04:37 27.12.2019
1904 Clouds 6 1017 81 16093 3.1 290 02:28 27.12.2019
1905 Clouds 9 1016 87 16093 2.6 260 01:44 27.12.2019
1906 Clouds 10 1016 93 16093 5.42 224 01:21 27.12.2019
1907 Clouds 10 1016 82 16093 5.09 222 00:46 27.12.2019
1908 Clouds 11 1016 82 16093 5.09 222 00:25 27.12.2019
1909 Clouds 12 1015 67 16093 3.6 250 23:56 26.12.2019
1910 Clouds 13 1015 82 16093 5.09 222 23:37 26.12.2019
1911 Clouds 14 1015 82 16093 5.53 235 23:19 26.12.2019
1912 Clouds 15 1015 72 16093 5.1 210 22:40 26.12.2019
1913 Clouds 15 1015 72 16093 5.1 210 22:18 26.12.2019
1914 Clouds 16 1014 72 16093 5.1 230 21:40 26.12.2019
1915 Clouds 16 1014 72 16093 5.1 230 21:21 26.12.2019
1916 Clouds 16 1014 67 16093 6.2 220 20:58 26.12.2019
1917 Clouds 16 1014 67 16093 6.2 220 20:38 26.12.2019
1918 Clouds 16 1014 67 16093 6.2 220 20:20 26.12.2019
1919 Clouds 16 1014 72 16093 6.7 210 19:55 26.12.2019
1920 Clear 16 1014 72 16093 7.2 230 19:37 26.12.2019
1921 Clear 16 1014 72 16093 7.2 230 19:19 26.12.2019
1922 Clouds 16 1013 67 16093 6.2 230 19:19 26.12.2019
1923 Clouds 15 1013 67 16093 6.2 230 18:55 26.12.2019
1924 Clear 15 1015 82 16093 6.7 230 18:36 26.12.2019
1925 Clouds 15 1014 72 16093 5.7 230 18:18 26.12.2019
1926 Clear 14 1014 76 16093 4.6 220 17:41 26.12.2019
1927 Clouds 13 1015 87 16093 5.7 220 17:21 26.12.2019
1928 Clouds 13 1016 87 16093 5.7 220 17:21 26.12.2019
1929 Clouds 13 1015 93 16093 6.2 210 16:49 26.12.2019
1930 Clouds 12 1015 93 16093 5.1 210 16:26 26.12.2019
1931 Clouds 11 1014 87 16093 6.2 210 15:57 26.12.2019
1932 Clouds 11 1015 100 16093 4.1 210 15:38 26.12.2019
1933 Clouds 10 1015 100 16093 4.1 210 15:19 26.12.2019
1934 Clouds 10 1014 100 16093 5.1 220 14:41 26.12.2019
1935 Clouds 10 1014 100 16093 5.1 220 14:23 26.12.2019
1936 Clear 10 1014 100 16093 4.1 210 13:55 26.12.2019
1937 Clear 11 1014 93 16093 5.1 210 13:36 26.12.2019
1938 Clear 11 1014 93 16093 5.1 210 13:18 26.12.2019
1939 Clear 11 1012 87 16093 3.6 200 12:44 26.12.2019
1940 Clear 11 1014 93 16093 5.1 210 12:24 26.12.2019
1941 Clouds 11 1013 81 16093 4.6 210 11:59 26.12.2019
1942 Clear 11 1014 93 16093 4.1 210 11:40 26.12.2019
1943 Clear 11 1014 93 16093 4.1 210 11:21 26.12.2019
1944 Clear 11 1014 93 16093 6.2 210 10:50 26.12.2019
1945 Clear 11 1014 93 16093 6.2 210 10:25 26.12.2019
1946 Clouds 11 1013 81 16093 5.1 210 09:55 26.12.2019
1947 Clear 11 1014 87 16093 4.6 210 09:33 26.12.2019
1948 Clouds 12 1012 76 16093 4.6 210 08:59 26.12.2019
1949 Clear 12 1013 81 16093 5.1 210 08:39 26.12.2019
1950 -273 0 0 0 0 0 08:20 26.12.2019
1951 Clouds 12 1013 71 16093 3.6 200 07:38 26.12.2019
1952 Clouds 12 1013 76 16093 6.2 210 07:19 26.12.2019
1953 Clouds 12 1012 76 16093 5.7 210 06:37 26.12.2019
1954 Clouds 12 1012 76 16093 5.7 210 06:19 26.12.2019
1955 Clear 12 1013 67 16093 5.1 200 05:40 26.12.2019
1956 Clear 12 1013 76 16093 4.1 200 04:33 26.12.2019
1957 Clear 12 1012 76 16093 4.6 200 03:31 26.12.2019
1958 Clear 12 1012 81 16093 4.1 190 02:46 26.12.2019
1959 Clear 12 1012 87 16093 4.1 180 02:25 26.12.2019
1960 Clear 12 1012 87 16093 4.1 180 02:25 26.12.2019
1961 Clear 12 1011 81 16093 3.1 180 01:44 26.12.2019
1962 Clear 12 1012 87 16093 5.47 187 01:44 26.12.2019
1963 Clear 12 1012 87 16093 5.35 186 01:24 26.12.2019
1964 Clear 11 1012 76 16093 3.6 190 00:43 26.12.2019
1965 Clear 11 1012 76 16093 3.6 190 00:23 26.12.2019
1966 Clear 13 1012 76 16093 4.1 200 23:57 25.12.2019
1967 Clear 13 1012 71 16093 4.6 200 23:36 25.12.2019
1968 Clear 13 1012 71 16093 4.6 200 23:18 25.12.2019
1969 Clouds 14 1011 62 16093 4.6 210 22:55 25.12.2019
1970 Clear 14 1011 67 16093 5.7 190 22:37 25.12.2019
1971 Clouds 15 1011 55 16093 3.6 200 22:18 25.12.2019
1972 Clear 15 1011 59 16093 5.7 210 21:41 25.12.2019
1973 Clear 15 1011 59 16093 5.7 210 21:23 25.12.2019
1974 Clear 14 1012 62 16093 5.1 210 20:59 25.12.2019
1975 Clear 14 1012 62 16093 5.7 210 20:40 25.12.2019
1976 Clear 14 1012 62 16093 5.7 210 20:20 25.12.2019
1977 Clouds 13 1011 58 16093 6.7 210 19:57 25.12.2019
1978 Clear 13 1013 62 16093 4.6 210 19:39 25.12.2019
1979 Clear 13 1013 62 16093 4.6 210 19:21 25.12.2019
1980 Clear 12 1013 66 16093 6.2 220 18:39 25.12.2019
1981 Clear 12 1013 66 16093 6.2 220 18:20 25.12.2019
1982 Clear 10 1014 66 16093 5.1 220 17:57 25.12.2019
1983 Clear 10 1014 66 16093 4.6 210 17:36 25.12.2019
1984 Clear 9 1014 66 16093 4.6 210 17:18 25.12.2019
1985 Clear 7 1014 75 16093 3.6 200 16:39 25.12.2019
1986 Clouds 6 1013 70 16093 3.6 200 16:19 25.12.2019
1987 Clouds 6 1013 70 16093 3.6 200 15:58 25.12.2019
1988 Clear 5 1014 80 16093 3.1 200 15:39 25.12.2019
1989 Clouds 4 1013 75 16093 3.1 200 15:21 25.12.2019
1990 Clouds 4 1013 75 16093 3.1 200 14:58 25.12.2019
1991 Clear 4 1014 80 16093 4.1 200 14:40 25.12.2019
1992 Clouds 4 1013 75 16093 3.1 180 14:21 25.12.2019
1993 Clear 4 1014 80 16093 4.1 200 14:21 25.12.2019
1994 Clear 4 1014 80 16093 4.1 200 14:21 25.12.2019
1995 Clear 4 1014 80 16093 4.1 200 14:21 25.12.2019
1996 Clear 4 1014 80 16093 4.1 200 14:21 25.12.2019
1997 Clear 4 1014 80 16093 3.1 190 13:57 25.12.2019
1998 Clear 4 1014 86 16093 2.6 180 13:38 25.12.2019
1999 Clear 4 1014 86 16093 2.6 180 13:19 25.12.2019
2000 Clear 3 1014 80 16093 3.6 180 12:40 25.12.2019
2001 Clear 3 1014 80 16093 3.6 180 12:20 25.12.2019
2002 Clouds 4 1013 86 16093 2.1 210 11:56 25.12.2019
2003 Clear 4 1014 86 16093 2.1 190 11:38 25.12.2019
2004 Clear 4 1014 86 16093 2.1 190 11:18 25.12.2019
2005 Clear 4 1014 75 16093 2.1 170 10:38 25.12.2019
2006 Clear 4 1014 93 16093 3.1 200 10:20 25.12.2019
2007 Clear 4 1014 81 16093 2.1 180 09:51 25.12.2019
2008 Clear 5 1014 93 16093 2.1 200 09:32 25.12.2019
2009 Clear 5 1014 75 16093 2.1 180 08:51 25.12.2019
2010 Clear 5 1014 100 16093 1.5 200 08:31 25.12.2019
2011 Clear 6 1014 93 16093 1.5 170 07:50 25.12.2019
2012 Clear 6 1014 93 16093 2.6 190 07:32 25.12.2019
2013 Clear 6 1014 75 16093 3.1 180 06:51 25.12.2019
2014 Clear 6 1014 93 16093 2.6 180 06:23 25.12.2019
2015 Clear 7 1015 86 16093 2.1 180 05:18 25.12.2019
2016 Clear 8 1014 87 16093 3.6 180 04:39 25.12.2019
2017 Clear 8 1014 87 16093 3.6 180 04:20 25.12.2019
2018 Clear 8 1015 87 16093 4.1 180 03:41 25.12.2019
2019 Clear 8 1015 87 16093 5.7 180 02:53 25.12.2019
2020 Clouds 9 1014 76 16093 5.7 190 02:20 25.12.2019
2021 Clear 9 1015 81 16093 5.7 180 01:25 25.12.2019
2022 Clouds 10 1014 71 16093 5.1 170 00:53 25.12.2019
2023 Clear 10 1016 76 16093 4.1 180 00:30 25.12.2019
2024 Clouds 10 1015 71 16093 4.6 180 23:57 24.12.2019
2025 Clear 10 1016 70 16093 3.6 180 23:38 24.12.2019
2026 Clear 11 1016 70 16093 3.6 180 23:20 24.12.2019
2027 Clear 12 1015 54 16093 5.7 180 22:41 24.12.2019
2028 Clear 12 1015 54 16093 5.7 180 22:21 24.12.2019
2029 Clear 12 1014 58 16093 4.1 190 21:44 24.12.2019
2030 Clear 12 1016 54 16093 6.2 180 21:23 24.12.2019
2031 Clouds 12 1015 54 16093 4.6 190 20:57 24.12.2019
2032 Clear 12 1017 66 16093 4.6 170 20:39 24.12.2019
2033 Clear 11 1017 66 16093 4.6 170 20:18 24.12.2019
2034 Clear 10 1015 62 16093 4.1 180 19:44 24.12.2019
2035 Clear 10 1018 66 16093 4.1 190 19:20 24.12.2019
2036 Clear 9 1019 75 16093 3.1 160 18:44 24.12.2019
2037 Clear 8 1019 100 16093 3.1 170 18:24 24.12.2019
2038 Clouds 6 1018 86 16093 4.1 180 17:59 24.12.2019
2039 Haze 5 1019 81 9656 3.1 190 17:38 24.12.2019
2040 Mist 4 1020 100 4023 2.6 200 17:20 24.12.2019
2041 Mist 3 1019 100 3219 2.1 170 16:55 24.12.2019
2042 Mist 2 1019 100 3219 2.1 170 16:37 24.12.2019
2043 Fog 1 1020 85 402 1.5 300 16:19 24.12.2019
2044 Mist 1 1019 85 8047 1.5 220 15:55 24.12.2019
2045 Mist 0 1019 100 1609 4.94 187 15:36 24.12.2019
2046 Fog 0 1019 100 0 4.94 187 15:18 24.12.2019
2047 Fog 0 1019 100 0 4.94 187 14:55 24.12.2019
2048 Fog 0 1019 100 201 1.5 120 14:37 24.12.2019
2049 Fog 0 1019 100 0 4.13 152 14:19 24.12.2019
2050 Fog 0 1019 92 402 4.13 152 13:55 24.12.2019
2051 Fog 1 1019 100 402 4.51 156 13:37 24.12.2019
2052 Fog 1 1019 100 402 4.51 156 13:37 24.12.2019
2053 Fog 1 1019 100 402 4.51 156 13:19 24.12.2019
2054 Fog 1 1019 100 402 4.51 156 12:55 24.12.2019
2055 Snow 1 1019 100 402 2.6 60 12:36 24.12.2019
2056 Fog 1 1019 100 402 4.51 156 12:18 24.12.2019
2057 Fog 1 1019 100 402 4.51 156 11:55 24.12.2019
2058 Fog 1 1019 100 402 4.51 156 11:36 24.12.2019
2059 Mist 1 1019 85 3219 3.02 108 11:18 24.12.2019
2060 Mist 1 1019 85 3219 3.02 108 10:55 24.12.2019
2061 Mist 1 1019 93 2414 3.02 108 10:36 24.12.2019
2062 Fog 1 1019 100 805 2.1 60 10:18 24.12.2019
2063 Mist 1 1019 85 6437 3.02 108 09:54 24.12.2019
2064 Fog 1 1019 100 402 2.1 10 09:36 24.12.2019
2065 Mist 1 1019 93 8047 3.02 108 09:18 24.12.2019
2066 Mist 1 1019 85 4828 1.5 10 08:43 24.12.2019
2067 Clouds 1 1019 93 11265 2.3 92 08:20 24.12.2019
2068 Mist 1 1019 85 1609 2.66 101 07:45 24.12.2019
2069 Mist 1 1020 85 8047 2.66 101 07:25 24.12.2019
2070 Mist 1 1020 85 3219 1.5 30 06:57 24.12.2019
2071 Clear 1 1019 85 11265 2.66 101 06:38 24.12.2019
2072 Clouds 1 1019 93 11265 3.1 10 06:18 24.12.2019
2073 Clouds 2 1019 93 12874 3.6 30 05:20 24.12.2019
2074 Clear 2 1019 85 16093 4.07 64 04:36 24.12.2019
2075 Clear 3 1020 85 16093 1.5 50 03:50 24.12.2019
2076 Clouds 3 1019 75 16093 2.6 50 02:59 24.12.2019
2077 Clear 3 1019 79 16093 1.5 30 02:19 24.12.2019
2078 Clear 4 1019 75 16093 2.29 21 01:42 24.12.2019
2079 Clear 4 1019 75 16093 2.1 0 01:20 24.12.2019
2080 Clear 5 1019 78 16093 1.5 220 00:43 24.12.2019
2081 Clear 5 1019 78 16093 1.5 220 00:23 24.12.2019
2082 Clouds 6 1018 57 16093 2.1 0 23:55 23.12.2019
2083 Clear 7 1019 53 16093 1.5 310 23:37 23.12.2019
2084 Clear 7 1019 53 16093 1.5 310 23:37 23.12.2019
2085 Clear 8 1019 53 16093 1.5 310 23:19 23.12.2019
2086 Clouds 9 1018 50 16093 2.1 260 22:54 23.12.2019
2087 Clear 9 1017 70 16093 2.1 270 22:36 23.12.2019
2088 Clouds 10 1017 46 16093 3.1 270 22:18 23.12.2019
2089 Clouds 10 1017 46 16093 3.1 270 22:18 23.12.2019
2090 Clouds 10 1017 46 16093 3.1 270 21:54 23.12.2019
2091 Clear 10 1017 46 16093 3.6 250 21:36 23.12.2019
2092 Clear 10 1017 46 16093 3.6 250 21:18 23.12.2019
2093 Clear 10 1017 46 16093 3.6 250 21:18 23.12.2019
2094 Clouds 10 1017 46 16093 2.6 270 20:55 23.12.2019
2095 Clear 10 1017 46 16093 3.6 250 20:37 23.12.2019
2096 Clouds 10 1017 53 16093 4.1 260 20:18 23.12.2019
2097 Clouds 10 1017 53 16093 4.1 260 20:18 23.12.2019
2098 Clouds 9 1017 53 16093 4.1 260 19:54 23.12.2019
2099 Clear 9 1018 66 16093 3.6 270 19:36 23.12.2019
2100 Clear 9 1018 66 16093 3.6 270 19:18 23.12.2019
2101 Clouds 9 1018 53 16093 5.7 260 18:54 23.12.2019
2102 Clear 9 1018 61 16093 2.6 260 18:36 23.12.2019
2103 Clear 8 1018 61 16093 2.6 260 18:18 23.12.2019
2104 Clear 8 1020 61 16093 4.1 240 17:55 23.12.2019
2105 Clear 7 1020 61 16093 4.1 250 17:37 23.12.2019
2106 Clouds 6 1019 61 16093 6.7 240 17:18 23.12.2019
2107 Clear 5 1018 70 16093 4.1 240 16:42 23.12.2019
2108 Clouds 4 1019 70 16093 4.1 250 16:19 23.12.2019
2109 Clouds 3 1019 70 16093 4.1 250 15:58 23.12.2019
2110 Mist 3 1019 93 8047 3.1 190 15:37 23.12.2019
2111 Mist 2 1019 93 8047 3.1 190 15:19 23.12.2019
2112 Clouds 2 1018 74 16093 3.6 230 14:57 23.12.2019
2113 Clear 2 1019 77 11265 3.1 210 14:39 23.12.2019
2114 Clouds 1 1019 80 16093 3.6 230 14:20 23.12.2019
2115 Clouds 1 1019 80 16093 3.6 230 13:57 23.12.2019
2116 Clear 1 1019 77 11265 2.1 230 13:39 23.12.2019
2117 Clear 1 1019 79 11265 2.1 230 13:21 23.12.2019
2118 Clouds 1 1019 80 16093 4.1 200 12:55 23.12.2019
2119 Mist 1 1019 79 8047 3.6 220 12:37 23.12.2019
2120 Mist 2 1019 79 8047 3.6 220 12:18 23.12.2019
2121 Clear 1 1019 80 16093 3.1 200 11:43 23.12.2019
2122 Clear 2 1019 76 11265 2.6 210 11:25 23.12.2019
2123 Clouds 2 1018 74 16093 4.1 210 10:56 23.12.2019
2124 Mist 2 1019 76 8047 2.1 210 10:38 23.12.2019
2125 Mist 2 1019 76 8047 2.1 210 10:20 23.12.2019
2126 Clouds 2 1019 69 16093 3.1 220 09:58 23.12.2019
2127 Clear 2 1020 76 11265 2.6 190 09:39 23.12.2019
2128 Clear 2 1020 76 11265 2.6 190 09:20 23.12.2019
2129 Clouds 2 1019 74 16093 3.6 220 08:55 23.12.2019
2130 Clear 2 1019 76 16093 4.6 220 08:37 23.12.2019
2131 Clear 2 1019 77 16093 4.6 220 08:18 23.12.2019
2132 Clear 2 1020 69 16093 3.1 220 07:43 23.12.2019
2133 Clear 3 1020 75 16093 3.1 240 07:19 23.12.2019
2134 Clear 3 1020 80 16093 3.6 220 06:45 23.12.2019
2135 Clear 3 1020 80 16093 3.6 220 06:23 23.12.2019
2136 Clear 3 1021 65 16093 3.1 200 05:47 23.12.2019
2137 Clouds 4 1020 69 16093 3.6 210 05:18 23.12.2019
2138 Clouds 4 1020 75 16093 4.6 200 04:19 23.12.2019
2139 Clear 5 1021 75 16093 4.6 210 02:49 23.12.2019
2140 Clear 5 1021 80 16093 4.6 210 02:23 23.12.2019
2141 Clouds 6 1021 70 16093 4.6 210 01:53 23.12.2019
2142 Clear 6 1021 75 16093 4.1 200 01:32 23.12.2019
2143 Clouds 7 1020 61 16093 4.6 190 00:55 23.12.2019
2144 Clear 7 1021 70 16093 4.6 200 00:35 23.12.2019
2145 Clouds 8 1021 57 16093 4.6 200 23:57 22.12.2019
2146 Clear 9 1021 61 16093 3.6 190 23:39 22.12.2019
2147 Clear 9 1021 61 16093 3.6 190 23:20 22.12.2019
2148 Clouds 10 1021 50 16093 4.1 210 22:57 22.12.2019
2149 Clear 10 1022 53 16093 4.6 210 22:38 22.12.2019
2150 Clear 11 1022 53 16093 4.6 210 22:19 22.12.2019
2151 Clear 11 1022 50 16093 4.6 210 21:56 22.12.2019
2152 Clear 11 1022 50 16093 2.6 220 21:38 22.12.2019
2153 Clear 11 1022 50 16093 2.6 220 21:38 22.12.2019
2154 Clear 11 1022 50 16093 2.6 220 21:20 22.12.2019
2155 Clouds 11 1021 46 16093 5.7 220 20:55 22.12.2019
2156 Clear 11 1023 70 16093 3.6 220 20:37 22.12.2019
2157 Clear 11 1023 70 16093 3.6 220 20:37 22.12.2019
2158 Clear 10 1023 71 16093 3.6 220 20:18 22.12.2019
2159 Clear 10 1024 71 16093 1.5 190 19:40 22.12.2019
2160 Clear 9 1024 71 16093 1.5 190 19:21 22.12.2019
2161 Clouds 9 1023 49 16093 5.1 230 18:58 22.12.2019
2162 Clear 8 1025 71 16093 1.5 340 18:38 22.12.2019
2163 Clouds 7 1024 56 16093 5.1 210 18:19 22.12.2019
2164 Clear 6 1025 71 16093 6.02 212 17:55 22.12.2019
2165 Clear 5 1025 71 16093 6.02 212 17:37 22.12.2019
2166 Clear 5 1025 74 16093 6.95 222 17:18 22.12.2019
2167 Clear 3 1024 69 16093 3.1 230 16:43 22.12.2019
2168 Clear 3 1024 69 16093 3.1 230 16:43 22.12.2019
2169 Clear 3 1025 80 16093 6.95 222 16:23 22.12.2019
2170 Clouds 1 1025 74 16093 3.1 200 15:59 22.12.2019
2171 Clear 1 1025 74 16093 6.95 222 15:39 22.12.2019
2172 Clear 0 1025 74 16093 6.95 222 15:21 22.12.2019
2173 Clear 0 1025 74 16093 6.95 222 15:21 22.12.2019
2174 Clouds 0 1024 74 16093 3.1 200 14:59 22.12.2019
2175 Clear 0 1025 86 16093 6.95 222 14:39 22.12.2019
2176 Clear 0 1025 86 16093 6.57 227 14:19 22.12.2019
2177 Clouds 0 1025 77 16093 3.1 210 13:56 22.12.2019
2178 Clear 0 1025 80 16093 6.57 227 13:38 22.12.2019
2179 Clear 0 1025 80 16093 6.7 232 13:19 22.12.2019
2180 Clouds 0 1025 74 16093 3.1 210 12:57 22.12.2019
2181 Clear 0 1026 80 16093 6.7 232 12:39 22.12.2019
2182 Clear 0 1026 80 16093 6.7 232 12:19 22.12.2019
2183 Clouds 0 1025 74 16093 3.1 210 11:59 22.12.2019
2184 Clear 0 1026 86 16093 6.7 232 11:39 22.12.2019
2185 Clear 0 1026 86 16093 7.46 235 11:20 22.12.2019
2186 Clear 0 1026 59 16093 1.5 190 10:57 22.12.2019
2187 Clear 0 1026 59 16093 1.5 190 10:39 22.12.2019
2188 Clear 0 1026 86 16093 7.46 235 10:19 22.12.2019
2189 Clouds 1 1025 74 16093 3.1 210 09:58 22.12.2019
2190 Clear 1 1026 86 16093 7.46 235 09:39 22.12.2019
2191 Clear 1 1026 86 16093 7.46 235 09:21 22.12.2019
2192 Clear 1 1026 69 16093 2.1 210 08:45 22.12.2019
2193 Clear 1 1026 85 16093 7.86 228 08:23 22.12.2019
2194 Clear 1 1026 64 16093 1.5 200 07:50 22.12.2019
2195 Clear 1 1026 86 16093 8.38 229 07:22 22.12.2019
2196 Clouds 1 1026 74 16093 3.6 210 06:57 22.12.2019
2197 Clear 1 1027 87 16093 8.38 229 06:27 22.12.2019
2198 Clear 2 1027 69 16093 2.6 190 05:43 22.12.2019
2199 Clear 2 1026 85 16093 3.6 190 05:21 22.12.2019
2200 Clear 2 1027 85 16093 2.6 200 04:27 22.12.2019
2201 Clear 2 1027 86 16093 3.6 210 03:28 22.12.2019
2202 Clear 3 1027 85 16093 2.6 200 02:35 22.12.2019
2203 Clear 3 1026 83 16093 3.6 200 01:33 22.12.2019
2204 Clear 3 1026 60 16093 3.1 210 00:59 22.12.2019
2205 Clear 4 1026 86 16093 2.6 200 00:41 22.12.2019
2206 Clear 4 1026 86 16093 2.6 200 00:21 22.12.2019
2207 Clear 7 1026 83 16093 3.1 200 23:42 21.12.2019
2208 Clear 6 1026 77 16093 3.1 200 23:24 21.12.2019
2209 Clear 7 1026 65 16093 3.6 200 22:58 21.12.2019
2210 Clear 7 1026 61 16093 5.1 210 22:39 21.12.2019
2211 Clear 8 1026 61 16093 5.1 210 22:19 21.12.2019
2212 Clouds 8 1025 49 16093 4.6 210 21:56 21.12.2019
2213 Clear 8 1026 77 16093 4.1 200 21:37 21.12.2019
2214 Clear 8 1026 77 16093 4.1 200 21:18 21.12.2019
2215 Clouds 8 1025 49 16093 5.7 210 20:57 21.12.2019
2216 Clouds 8 1025 49 16093 5.7 210 20:57 21.12.2019
2217 Clear 8 1026 77 16093 5.1 200 20:37 21.12.2019
2218 Clear 8 1026 77 16093 5.1 200 20:37 21.12.2019
2219 Clear 7 1026 74 16093 5.1 200 20:19 21.12.2019
2220 Clear 7 1026 52 16093 4.1 210 19:56 21.12.2019
2221 Clear 7 1027 74 16093 3.6 220 19:36 21.12.2019
2222 Clear 6 1027 74 16093 3.6 220 19:18 21.12.2019
2223 Clear 6 1027 60 16093 3.6 220 18:42 21.12.2019
2224 Clear 6 1026 60 16093 2.6 210 18:42 21.12.2019
2225 Clear 6 1027 60 16093 3.6 220 18:23 21.12.2019
2226 Clear 5 1027 56 16093 4.1 220 17:57 21.12.2019
2227 Clear 4 1029 64 16093 4.1 230 17:39 21.12.2019
2228 Clear 3 1029 64 16093 4.1 230 17:20 21.12.2019
2229 Clear 2 1029 69 16093 2.6 230 16:57 21.12.2019
2230 Clear 2 1029 74 16093 2.1 230 16:39 21.12.2019
2231 Clouds 1 1028 74 16093 4.1 210 16:18 21.12.2019
2232 Clouds 1 1028 74 16093 4.1 210 15:56 21.12.2019
2233 Clear 0 1028 86 11265 1.5 190 15:37 21.12.2019
2234 Clear -1 1028 86 11265 1.5 190 15:18 21.12.2019
2235 Clear -1 1027 86 11265 2.1 220 14:43 21.12.2019
2236 Clear -1 1028 92 11265 5.27 232 14:24 21.12.2019
2237 Clouds -1 1028 72 16093 3.6 210 13:58 21.12.2019
2238 Clouds -1 1028 86 16093 2.6 200 13:40 21.12.2019
2239 Clouds -1 1028 86 16093 2.6 200 13:20 21.12.2019
2240 Clouds -1 1028 86 16093 2.6 200 13:20 21.12.2019
2241 Clear 0 1028 74 16093 4.6 210 12:57 21.12.2019
2242 Clouds 0 1028 80 16093 2.1 210 12:39 21.12.2019
2243 Clouds 0 1028 80 16093 2.1 210 12:20 21.12.2019
2244 Clouds 0 1028 69 16093 2.6 210 11:57 21.12.2019
2245 Clouds 0 1028 80 16093 2.1 190 11:39 21.12.2019
2246 Clouds 0 1028 80 16093 2.1 190 11:21 21.12.2019
2247 Clouds 1 1029 75 16093 1.5 220 10:41 21.12.2019
2248 Clouds 1 1029 75 16093 1.5 220 10:23 21.12.2019
2249 Clouds 1 1029 75 16093 1.5 220 10:23 21.12.2019
2250 Clouds 1 1028 69 16093 3.1 210 09:58 21.12.2019
2251 Clouds 1 1029 74 16093 3.1 200 09:40 21.12.2019
2252 Clouds 1 1029 74 16093 3.1 200 09:20 21.12.2019
2253 Clouds 1 1028 80 16093 3.1 180 08:53 21.12.2019
2254 Clouds 1 1028 80 16093 2.6 190 08:27 21.12.2019
2255 Clouds 1 1028 69 16093 3.1 180 07:59 21.12.2019
2256 Clouds 1 1029 74 16093 2.1 200 07:41 21.12.2019
2257 Clouds 1 1029 74 16093 2.1 200 07:21 21.12.2019
2258 Clouds 1 1029 74 16093 2.6 190 06:42 21.12.2019
2259 Clouds 1 1029 74 16093 2.6 190 06:24 21.12.2019
2260 Clouds 1 1028 80 16093 2.1 200 05:43 21.12.2019
2261 Clear 1 1030 88 16093 2.6 160 04:55 21.12.2019
2262 Clouds 1 1029 74 14484 3.1 200 03:56 21.12.2019
2263 Clear 1 1030 88 16093 2.6 170 02:26 21.12.2019
2264 Clouds 1 1029 74 14484 3.1 180 01:53 21.12.2019
2265 Clear 1 1030 86 16093 3.1 170 01:26 21.12.2019
2266 Clear 2 1028 80 16093 2.1 170 00:49 21.12.2019
2267 Clouds 2 1029 69 14484 2.1 190 00:28 21.12.2019
2268 Clear 3 1030 80 16093 2.1 160 23:40 20.12.2019
2269 Clear 3 1030 80 16093 2.1 160 23:40 20.12.2019
2270 Clouds 3 1029 64 14484 3.1 180 23:21 20.12.2019
2271 Clouds 3 1029 64 14484 3.1 180 22:59 20.12.2019
2272 Clear 4 1029 69 16093 4.1 170 22:39 20.12.2019
2273 Clouds 4 1028 60 16093 3.1 180 22:19 20.12.2019
2274 Clouds 4 1028 60 16093 3.1 180 21:56 20.12.2019
2275 Clear 4 1029 69 16093 3.1 170 21:38 20.12.2019
2276 Clear 4 1029 69 16093 3.1 170 21:18 20.12.2019
2277 Clear 4 1030 74 16093 4.1 160 20:39 20.12.2019
2278 Clouds 4 1029 64 11265 3.6 190 20:19 20.12.2019
2279 Clouds 4 1029 64 11265 3.6 190 19:57 20.12.2019
2280 Clear 3 1031 74 16093 4.1 220 19:39 20.12.2019
2281 Clear 3 1031 74 16093 4.1 220 19:19 20.12.2019
2282 Clear 2 1029 74 16093 2.6 190 18:42 20.12.2019
2283 Clear 2 1031 74 16093 2.6 160 18:23 20.12.2019
2284 Clear 1 1031 80 11265 3.6 160 17:58 20.12.2019
2285 Mist 0 1031 80 8047 2.1 160 17:40 20.12.2019
2286 Mist 0 1031 80 8047 2.1 160 17:20 20.12.2019
2287 Clear -1 1031 86 11265 2.1 160 16:57 20.12.2019
2288 Clear -2 1031 86 11265 2.1 160 16:38 20.12.2019
2289 Mist -3 1031 79 8047 2.6 150 16:19 20.12.2019
2290 Mist -3 1031 92 8047 6.13 170 15:55 20.12.2019
2291 Mist -4 1030 79 6437 2.1 0 15:37 20.12.2019
2292 Mist -5 1030 79 6437 2.1 0 15:19 20.12.2019
2293 Mist -6 1030 92 6437 1.5 110 14:43 20.12.2019
2294 Mist -5 1030 79 8047 2.1 150 14:24 20.12.2019
2295 Mist -5 1031 92 8047 4.95 157 13:59 20.12.2019
2296 Mist -5 1031 92 8047 4.95 157 13:59 20.12.2019
2297 Mist -5 1031 92 8047 4.95 157 13:40 20.12.2019
2298 Mist -5 1030 85 8047 1.5 160 13:19 20.12.2019
2299 Mist -5 1030 92 8047 4.08 170 12:57 20.12.2019
2300 Mist -5 1030 79 9656 1.5 170 12:37 20.12.2019
2301 Mist -5 1030 79 9656 1.5 170 12:18 20.12.2019
2302 Mist -5 1030 100 8047 4.08 170 11:57 20.12.2019
2303 Mist -5 1030 100 8047 4.08 170 11:39 20.12.2019
2304 Mist -5 1030 85 9656 2.86 220 11:18 20.12.2019
2305 Mist -5 1030 92 8047 1.5 130 10:56 20.12.2019
2306 Mist -5 1030 92 8047 1.5 130 10:38 20.12.2019
2307 Mist -5 1029 79 9656 2.86 220 10:20 20.12.2019
2308 Mist -5 1030 92 6437 2.86 220 09:43 20.12.2019
2309 Mist -5 1029 79 9656 2.86 220 09:21 20.12.2019
2310 Mist -5 1029 92 4828 2.86 220 08:58 20.12.2019
2311 Mist -5 1029 92 4828 2.86 220 08:40 20.12.2019
2312 Mist -5 1028 92 2414 2.94 232 08:21 20.12.2019
2313 Mist -5 1029 92 4828 2.94 232 07:57 20.12.2019
2314 Mist -5 1029 92 4828 2.94 232 07:38 20.12.2019
2315 Clouds -4 1028 79 11265 2.94 232 07:18 20.12.2019
2316 Clear -4 1028 92 11265 1.5 110 06:48 20.12.2019
2317 Clouds -4 1027 86 11265 1.5 120 06:29 20.12.2019
2318 Mist -4 1028 85 8047 2.94 232 05:49 20.12.2019
2319 Clouds -4 1027 92 12874 1.5 130 05:20 20.12.2019
2320 Clear -3 1027 86 11265 1.5 210 03:50 20.12.2019
2321 Clouds -2 1026 80 11265 2.1 190 03:21 20.12.2019
2322 Clouds -2 1026 80 12874 3.1 200 02:30 20.12.2019
2323 Clear -1 1025 86 16093 4.74 237 01:36 20.12.2019
2324 Clear -1 1024 78 16093 1.5 210 00:58 20.12.2019
2325 Clouds -1 1025 69 14484 2.6 200 00:36 20.12.2019
2326 Clear 0 1025 78 16093 3.6 220 23:58 19.12.2019
2327 Clear 0 1025 78 16093 3.6 220 23:40 19.12.2019
2328 Clouds 1 1024 59 16093 3.6 240 23:21 19.12.2019
2329 Clear 2 1024 69 16093 5.1 230 22:40 19.12.2019
2330 Clouds 2 1024 55 16093 6.7 230 22:22 19.12.2019
2331 Clear 2 1024 64 16093 6.2 220 21:59 19.12.2019
2332 Clear 2 1024 64 16093 6.2 220 21:59 19.12.2019
2333 Clear 2 1024 64 16093 6.2 220 21:41 19.12.2019
2334 Clouds 2 1023 51 16093 4.6 230 21:19 19.12.2019
2335 Clear 2 1024 64 16093 7.2 220 20:58 19.12.2019
2336 Clear 2 1024 64 16093 7.2 220 20:38 19.12.2019
2337 Clouds 2 1023 55 16093 5.1 240 20:20 19.12.2019
2338 Clear 1 1024 59 16093 7.2 230 19:58 19.12.2019
2339 Clear 1 1022 64 16093 3.6 210 19:40 19.12.2019
2340 Clear 1 1024 59 16093 7.2 230 19:40 19.12.2019
2341 Clouds 1 1023 51 16093 6.7 250 19:20 19.12.2019
2342 Clouds 1 1023 51 16093 6.7 250 19:20 19.12.2019
2343 Clouds 1 1023 51 16093 6.7 250 19:20 19.12.2019
2344 Clear 0 1024 73 16093 6.2 220 18:59 19.12.2019
2345 Clear 0 1024 73 16093 6.2 220 18:40 19.12.2019
2346 Clouds -1 1024 73 16093 7.7 230 18:20 19.12.2019
2347 Clear -1 1025 58 16093 7.2 210 17:56 19.12.2019
2348 Clouds -2 1025 58 16093 6.2 220 17:38 19.12.2019
2349 Clouds -2 1025 58 16093 6.2 220 17:18 19.12.2019
2350 Clear -3 1026 58 16093 6.2 210 16:56 19.12.2019
2351 Clear -3 1026 58 16093 6.2 210 16:56 19.12.2019
2352 Clear -4 1026 58 16093 6.2 210 16:38 19.12.2019
2353 Clouds -5 1025 57 16093 6.2 210 16:19 19.12.2019
2354 Clouds -5 1025 57 16093 6.2 210 16:19 19.12.2019
2355 Clear -6 1025 57 16093 5.7 210 15:58 19.12.2019
2356 Clear -6 1025 57 16093 5.7 210 15:38 19.12.2019
2357 Clouds -6 1025 57 16093 6.2 220 15:19 19.12.2019
2358 Clear -7 1025 57 16093 5.7 200 14:57 19.12.2019
2359 Clear -7 1025 57 16093 5.7 200 14:38 19.12.2019
2360 Clouds -7 1024 48 16093 6.7 200 14:18 19.12.2019
2361 Clear -8 1024 48 16093 5.7 200 13:39 19.12.2019
2362 Clear -8 1025 61 16093 4.6 180 13:39 19.12.2019
2363 Clear -8 1024 48 16093 5.7 200 13:20 19.12.2019
2364 Clear -8 1024 48 16093 5.7 200 13:20 19.12.2019
2365 Clear -8 1026 61 16093 4.6 180 12:58 19.12.2019
2366 Clear -8 1026 61 16093 4.6 180 12:40 19.12.2019
2367 Clear -9 1025 48 16093 5.7 180 12:19 19.12.2019
2368 Clear -9 1026 66 16093 4.1 180 11:59 19.12.2019
2369 Clear -9 1026 66 16093 4.1 180 11:41 19.12.2019
2370 Clear -9 1026 56 16093 4.6 200 11:18 19.12.2019
2371 Clear -9 1027 56 16093 3.1 170 10:59 19.12.2019
2372 Clear -9 1027 56 16093 3.1 170 10:38 19.12.2019
2373 Clear -9 1026 52 16093 3.1 190 10:20 19.12.2019
2374 Clear -9 1027 56 16093 3.1 170 09:56 19.12.2019
2375 Clear -9 1027 56 16093 3.1 170 09:37 19.12.2019
2376 Clear -9 1027 52 16093 4.1 190 09:19 19.12.2019
2377 Clear -9 1028 48 16093 3.6 180 08:55 19.12.2019
2378 Clear -9 1028 48 16093 3.6 180 08:37 19.12.2019
2379 Clear -9 1027 48 16093 3.6 190 08:18 19.12.2019
2380 Clear -9 1028 52 16093 2.1 180 07:42 19.12.2019
2381 Clear -9 1028 52 16093 2.1 180 07:42 19.12.2019
2382 Clouds -9 1028 48 16093 3.6 200 07:23 19.12.2019
2383 Clouds -9 1029 48 16093 3.1 190 06:59 19.12.2019
2384 Clouds -9 1029 48 16093 3.1 190 06:41 19.12.2019
2385 Clouds -9 1028 52 16093 3.6 210 06:21 19.12.2019
2386 Clouds -8 1029 41 16093 2.1 190 05:42 19.12.2019
2387 Clouds -8 1028 44 16093 3.1 220 05:19 19.12.2019
2388 Clouds -8 1029 66 16093 1.5 180 03:53 19.12.2019
2389 Clouds -9 1029 34 16093 2.6 250 02:28 19.12.2019
2390 Clouds -9 1028 34 16093 2.1 310 01:25 19.12.2019
2391 Clear -9 1028 47 16093 4.06 305 00:58 19.12.2019
2392 Clouds -9 1028 40 16093 4.06 305 00:39 19.12.2019
2393 Clouds -9 1028 37 16093 4.06 305 00:19 19.12.2019
2394 Clear -8 1028 37 16093 4.06 305 23:45 18.12.2019
2395 Clouds -8 1028 28 16093 2.6 0 23:19 18.12.2019
2396 Clear -8 1028 34 16093 1.5 310 22:58 18.12.2019
2397 Clear -8 1028 34 16093 1.5 310 22:40 18.12.2019
2398 Clear -8 1028 34 16093 1.5 310 22:40 18.12.2019
2399 Clouds -8 1028 31 16093 1.5 310 22:21 18.12.2019
2400 Clear -8 1027 34 16093 3.6 310 21:59 18.12.2019
2401 Clear -8 1027 34 16093 3.6 310 21:40 18.12.2019
2402 Clouds -8 1027 31 16093 3.6 320 21:20 18.12.2019
2403 Clear -8 1027 34 16093 1.5 310 20:57 18.12.2019
2404 Clouds -8 1026 34 16093 3.6 320 20:38 18.12.2019
2405 Clouds -8 1026 34 16093 3.6 320 20:20 18.12.2019
2406 Clear -8 1026 34 16093 2.6 10 19:57 18.12.2019
2407 Clear -9 1026 34 16093 2.6 10 19:39 18.12.2019
2408 Clouds -9 1027 31 16093 4.1 340 19:19 18.12.2019
2409 Clouds -9 1027 34 16093 5.7 310 18:55 18.12.2019
2410 Clouds -9 1027 34 16093 5.7 310 18:37 18.12.2019
2411 Clouds -9 1027 34 16093 5.7 310 18:18 18.12.2019
2412 Clear -10 1026 37 16093 4.6 10 17:55 18.12.2019
2413 Clouds -10 1026 36 16093 6.2 330 17:37 18.12.2019
2414 Clouds -10 1026 36 16093 6.2 330 17:18 18.12.2019
2415 Clear -11 1026 43 16093 4.1 320 16:42 18.12.2019
2416 Clear -11 1026 44 16093 4.6 310 16:23 18.12.2019
2417 Clear -11 1025 40 16093 3.1 340 15:57 18.12.2019
2418 Clear -12 1024 43 16093 4.1 350 15:39 18.12.2019
2419 Clouds -12 1024 47 16093 7.7 320 15:21 18.12.2019
2420 Clear -12 1024 52 16093 3.6 340 14:56 18.12.2019
2421 Clear -11 1023 56 16093 3.1 350 14:38 18.12.2019
2422 Clear -11 1023 56 16093 3.1 350 14:19 18.12.2019
2423 Clouds -10 1024 47 16093 6.2 330 13:55 18.12.2019
2424 Clear -10 1023 78 16093 5.7 340 13:36 18.12.2019
2425 Clouds -10 1022 67 16093 4.1 330 13:18 18.12.2019
2426 Clouds -10 1023 67 16093 7.7 350 13:18 18.12.2019
2427 Clouds -10 1023 67 16093 7.7 350 13:18 18.12.2019
2428 Clear -9 1021 79 16093 2.1 310 12:40 18.12.2019
2429 Clouds -8 1021 67 16093 7.7 340 12:21 18.12.2019
2430 Clouds -8 1021 67 16093 7.7 340 11:57 18.12.2019
2431 Clouds -7 1020 73 16093 6.7 330 11:39 18.12.2019
2432 Clouds -7 1020 73 16093 4.1 310 11:20 18.12.2019
2433 Clouds -6 1020 73 16093 4.1 310 10:58 18.12.2019
2434 Clear -6 1020 85 16093 2.6 280 10:39 18.12.2019
2435 Clear -6 1020 85 16093 2.6 280 10:20 18.12.2019
2436 Clouds -5 1020 73 16093 5.7 300 09:58 18.12.2019
2437 Clear -5 1020 85 16093 4.1 280 09:20 18.12.2019
2438 Clouds -4 1019 85 16093 2.1 300 08:43 18.12.2019
2439 Clouds -4 1019 86 16093 4.1 280 08:25 18.12.2019
2440 Clouds -4 1018 73 16093 5.7 300 07:57 18.12.2019
2441 Clouds -4 1018 79 16093 5.7 280 07:39 18.12.2019
2442 Clouds -3 1019 86 16093 5.7 270 07:20 18.12.2019
2443 Clouds -3 1019 86 11265 5.7 270 06:52 18.12.2019
2444 Clouds -3 1019 86 11265 6.2 270 06:25 18.12.2019
2445 Clouds -3 1019 86 16093 4.6 260 05:37 18.12.2019
2446 Clouds -3 1018 79 16093 5.1 260 04:33 18.12.2019
2447 Clouds -3 1019 85 11265 6.2 270 02:48 18.12.2019
2448 Clouds -3 1018 79 16093 5.1 260 02:29 18.12.2019
2449 Clouds -3 1019 85 11265 6.2 270 01:46 18.12.2019
2450 Clouds -3 1019 85 16093 5.7 270 01:27 18.12.2019
2451 Clouds -4 1019 85 16093 4.6 250 00:55 18.12.2019
2452 Clouds -4 1019 85 16093 6.2 260 00:37 18.12.2019
2453 Clouds -4 1019 85 16093 6.2 260 00:19 18.12.2019
2454 Clouds -4 1018 79 14484 6.7 260 23:43 17.12.2019
2455 Clouds -4 1018 79 14484 6.7 260 23:43 17.12.2019
2456 Clouds -4 1019 85 16093 5.1 240 23:24 17.12.2019
2457 Clouds -3 1018 68 16093 5.1 260 22:57 17.12.2019
2458 Clouds -3 1018 68 16093 5.1 260 22:39 17.12.2019
2459 Clear -3 1019 74 16093 5.1 240 22:20 17.12.2019
2460 Clouds -2 1018 73 16093 7.7 250 21:57 17.12.2019
2461 Clouds -2 1018 63 16093 5.1 250 21:39 17.12.2019
2462 Clouds -2 1018 63 16093 5.1 250 21:20 17.12.2019
2463 Clouds -2 1018 63 16093 6.7 240 20:59 17.12.2019
2464 Clouds -2 1019 63 16093 5.1 240 20:40 17.12.2019
2465 Clouds -2 1019 63 16093 5.1 240 20:19 17.12.2019
2466 Clear -2 1019 63 16093 4.1 250 19:59 17.12.2019
2467 Clear -2 1019 63 16093 4.1 250 19:41 17.12.2019
2468 Clear -3 1019 63 16093 4.1 250 19:20 17.12.2019
2469 Clouds -3 1019 58 16093 6.2 240 18:57 17.12.2019
2470 Clear -2 1020 68 16093 3.6 240 18:38 17.12.2019
2471 Clouds -3 1020 63 16093 5.1 240 18:20 17.12.2019
2472 Clear -3 1020 68 16093 3.6 240 17:55 17.12.2019
2473 Clear -3 1021 73 16093 3.1 260 17:37 17.12.2019
2474 Clear -4 1021 73 16093 3.1 260 17:18 17.12.2019
2475 Clouds -5 1020 73 16093 3.6 260 16:55 17.12.2019
2476 Clear -5 1020 79 16093 2.6 300 16:37 17.12.2019
2477 Clouds -6 1020 73 16093 3.1 300 16:18 17.12.2019
2478 Clouds -7 1020 85 16093 1.5 300 15:38 17.12.2019
2479 Clouds -7 1020 79 16093 3.1 320 15:20 17.12.2019
2480 Clouds -8 1020 85 16093 3.6 310 14:57 17.12.2019
2481 Clouds -8 1020 92 16093 2.1 310 14:39 17.12.2019
2482 Clouds -8 1020 92 16093 2.1 310 14:19 17.12.2019
2483 Clouds -8 1020 85 16093 4.1 330 13:59 17.12.2019
2484 Clouds -7 1020 85 16093 2.6 320 13:41 17.12.2019
2485 Clouds -7 1020 85 16093 2.6 320 13:19 17.12.2019
2486 Clouds -7 1020 79 16093 3.6 330 12:59 17.12.2019
2487 Clouds -7 1020 85 16093 4.1 350 12:38 17.12.2019
2488 Clouds -7 1020 79 16093 3.1 340 12:18 17.12.2019
2489 Clear -6 1019 79 16093 2.1 340 11:57 17.12.2019
2490 Clear -6 1019 79 16093 2.6 340 11:37 17.12.2019
2491 Clear -6 1019 79 16093 2.6 340 11:18 17.12.2019
2492 Clouds -6 1019 73 16093 5.7 340 10:57 17.12.2019
2493 Clear -6 1019 79 16093 2.6 350 10:39 17.12.2019
2494 Clear -6 1019 79 16093 2.6 350 10:39 17.12.2019
2495 Clear -5 1019 79 16093 2.6 350 10:19 17.12.2019
2496 Clouds -5 1020 73 16093 5.7 360 09:56 17.12.2019
2497 Clouds -5 1019 74 16093 3.1 340 09:38 17.12.2019
2498 Clouds -5 1019 74 16093 3.1 340 09:18 17.12.2019
2499 Clouds -4 1020 73 16093 4.6 340 08:54 17.12.2019
2500 Clouds -4 1020 79 16093 3.6 340 08:36 17.12.2019
2501 Clouds -4 1020 79 16093 3.6 340 08:18 17.12.2019
2502 Clouds -4 1020 80 16093 4.1 340 07:42 17.12.2019
2503 Clouds -3 1020 80 16093 4.1 340 07:22 17.12.2019
2504 Clouds -3 1020 79 16093 2.1 350 06:50 17.12.2019
2505 Clouds -3 1020 79 16093 2.1 340 06:32 17.12.2019
2506 Clear -3 1020 79 16093 2.6 350 05:42 17.12.2019
2507 Clouds -3 1020 68 16093 6.2 340 04:58 17.12.2019
2508 Clouds -2 1020 78 16093 2.6 350 03:55 17.12.2019
2509 Clouds -2 1020 78 16093 3.6 350 02:26 17.12.2019
2510 Clouds -1 1020 80 16093 4.1 10 01:22 17.12.2019
2511 Clouds -2 1020 81 16093 3.6 30 00:47 17.12.2019
2512 Clouds -1 1020 81 16093 3.6 20 00:22 17.12.2019
2513 Clouds -1 1020 81 16093 2.6 10 23:57 16.12.2019
2514 Clouds -1 1020 81 16093 3.1 10 23:38 16.12.2019
2515 Clouds -1 1020 85 16093 3.1 10 23:18 16.12.2019
2516 Clouds -1 1021 68 16093 3.1 340 22:54 16.12.2019
2517 Clouds -1 1021 68 16093 3.1 340 22:36 16.12.2019
2518 Clouds -1 1021 85 16093 3.1 10 22:18 16.12.2019
2519 Clouds -1 1021 80 14484 4.6 10 21:54 16.12.2019
2520 Mist -1 1020 85 8047 2.6 360 21:36 16.12.2019
2521 Mist -1 1020 85 8047 2.6 360 21:36 16.12.2019
2522 Mist -1 1020 85 8047 2.6 360 21:18 16.12.2019
2523 Clouds -1 1020 85 11265 5.78 23 20:54 16.12.2019
2524 Mist -2 1020 81 8047 3.88 24 20:36 16.12.2019
2525 Clouds -2 1021 80 12874 3.6 350 20:18 16.12.2019
2526 Clouds -2 1021 80 12874 3.6 350 19:54 16.12.2019
2527 Clouds -2 1022 68 16093 2.6 360 19:36 16.12.2019
2528 Clouds -2 1021 80 12874 3.6 360 19:18 16.12.2019
2529 Mist -2 1021 85 8047 4.5 7 19:18 16.12.2019
2530 Clouds -2 1022 63 16093 2.6 10 18:42 16.12.2019
2531 Mist -2 1022 85 8047 4.5 7 18:42 16.12.2019
2532 Clouds -2 1021 79 16093 2.6 350 18:20 16.12.2019
2533 Mist -2 1022 85 8047 4.5 7 18:20 16.12.2019
2534 Mist -2 1022 86 8047 4.5 7 17:59 16.12.2019
2535 Clouds -2 1022 86 11265 3.1 360 17:41 16.12.2019
2536 Mist -2 1022 86 8047 3.16 356 17:22 16.12.2019
2537 Clouds -3 1022 86 11265 3.1 360 16:58 16.12.2019
2538 Clouds -3 1022 79 12874 3.6 350 16:39 16.12.2019
2539 Clouds -3 1023 79 11265 2.6 350 16:20 16.12.2019
2540 Clouds -3 1023 79 11265 2.6 350 15:59 16.12.2019
2541 Mist -3 1023 92 8047 3.16 356 15:39 16.12.2019
2542 Mist -4 1023 92 8047 3.16 356 15:21 16.12.2019
2543 Clouds -4 1023 79 11265 3.1 330 14:57 16.12.2019
2544 Clouds -4 1024 73 16093 1.5 330 14:38 16.12.2019
2545 Snow -4 1022 79 9656 4.1 340 14:19 16.12.2019
2546 Clouds -4 1022 85 12874 3.1 350 13:57 16.12.2019
2547 Clouds -4 1022 85 12874 3.1 350 13:38 16.12.2019
2548 Clouds -4 1021 92 11265 2.82 29 13:20 16.12.2019
2549 Clouds -4 1021 92 11265 2.82 29 12:58 16.12.2019
2550 Clouds -4 1021 92 11265 3.34 42 12:39 16.12.2019
2551 Snow -4 1021 79 9656 2.1 350 12:19 16.12.2019
2552 Snow -4 1021 79 9656 2.1 350 11:59 16.12.2019
2553 Clouds -4 1021 86 11265 3.34 42 11:40 16.12.2019
2554 Clouds -4 1020 85 16093 1.5 350 11:20 16.12.2019
2555 Snow -4 1021 79 9656 2.6 350 10:58 16.12.2019
2556 Clouds -4 1021 92 16093 2.56 330 10:40 16.12.2019
2557 Clouds -4 1021 92 16093 2.56 330 10:20 16.12.2019
2558 Snow -4 1021 92 6437 3.52 355 09:45 16.12.2019
2559 Snow -4 1021 100 6437 3.52 355 09:27 16.12.2019
2560 Snow -4 1021 79 8047 1.5 340 08:57 16.12.2019
2561 Snow -4 1020 85 4023 2.1 340 08:38 16.12.2019
2562 Snow -4 1020 79 4828 2.1 350 08:18 16.12.2019
2563 Snow -4 1020 92 4023 2.29 256 07:47 16.12.2019
2564 Rain -4 1020 92 3219 2.29 256 07:28 16.12.2019
2565 Snow -4 1020 79 4828 2.1 340 06:45 16.12.2019
2566 Rain -4 1020 92 2816 2.29 256 06:26 16.12.2019
2567 Rain -4 1021 86 1609 2.29 256 05:52 16.12.2019
2568 Snow -4 1020 92 2012 2.29 256 05:33 16.12.2019
2569 Snow -4 1020 79 3219 2.39 190 04:22 16.12.2019
2570 Clouds -4 1020 73 16093 2.39 190 02:36 16.12.2019
2571 Clouds -4 1020 73 16093 2.61 118 01:45 16.12.2019
2572 Clouds -4 1020 63 16093 2.06 150 00:43 16.12.2019
2573 Clouds -4 1020 73 16093 2.06 150 00:25 16.12.2019
2574 Clouds -4 1020 63 16093 2.1 190 23:59 15.12.2019
2575 Clouds -4 1020 63 16093 2.1 190 23:59 15.12.2019
2576 Clouds -4 1020 73 16093 2.06 150 23:39 15.12.2019
2577 Clouds -4 1020 73 16093 0.66 161 23:20 15.12.2019
2578 Clouds -4 1020 63 16093 2.1 180 22:56 15.12.2019
2579 Clouds -4 1020 73 16093 0.66 161 22:56 15.12.2019
2580 Clouds -4 1020 63 16093 2.1 180 22:56 15.12.2019
2581 Clear -4 1020 73 16093 0.66 161 22:37 15.12.2019
2582 Clear -4 1020 73 16093 0.66 161 22:37 15.12.2019
2583 Clear -4 1020 73 16093 0.66 161 22:18 15.12.2019
2584 Clouds -3 1019 63 16093 2.6 160 21:56 15.12.2019
2585 Clear -3 1020 73 16093 0.66 161 21:37 15.12.2019
2586 Clear -3 1020 73 16093 0.66 161 21:19 15.12.2019
2587 Clouds -3 1020 63 16093 3.1 200 20:56 15.12.2019
2588 Clear -3 1020 68 16093 0.66 161 20:37 15.12.2019
2589 Clear -3 1020 68 16093 2.22 296 20:19 15.12.2019
2590 Clouds -3 1020 63 16093 2.6 240 19:57 15.12.2019
2591 Clear -4 1020 68 16093 2.22 296 19:57 15.12.2019
2592 Clear -4 1020 68 16093 2.36 310 19:38 15.12.2019
2593 Clouds -4 1020 68 16093 1.5 210 19:18 15.12.2019
2594 Clouds -4 1020 68 16093 1.5 210 18:56 15.12.2019
2595 Clouds -4 1020 68 16093 1.5 210 18:56 15.12.2019
2596 Clouds -4 1020 68 16093 2.22 296 18:38 15.12.2019
2597 Clear -5 1019 73 16093 1.5 310 18:18 15.12.2019
2598 Clouds -5 1021 73 16093 2.22 296 17:56 15.12.2019
2599 Clouds -5 1020 73 16093 3.1 280 17:37 15.12.2019
2600 Clouds -6 1020 73 16093 3.1 260 17:18 15.12.2019
2601 Clouds -6 1021 73 16093 4.15 297 16:55 15.12.2019
2602 Clouds -6 1021 73 16093 4.15 297 16:55 15.12.2019
2603 Clouds -6 1020 73 16093 4.15 297 16:37 15.12.2019
2604 Clouds -6 1020 73 16093 4.15 297 16:18 15.12.2019
2605 Clouds -7 1020 73 16093 4.1 260 15:54 15.12.2019
2606 Clouds -7 1019 79 16093 4.16 290 15:36 15.12.2019
2607 Clouds -7 1019 73 16093 3.6 270 15:18 15.12.2019
2608 Clouds -7 1019 73 16093 3.6 270 14:54 15.12.2019
2609 Clouds -7 1019 79 16093 2.6 270 14:36 15.12.2019
2610 Clouds -7 1018 73 16093 3.1 290 14:18 15.12.2019
2611 Clouds -7 1018 73 16093 3.1 290 14:18 15.12.2019
2612 Clouds -7 1018 73 16093 3.1 290 13:54 15.12.2019
2613 Clouds -7 1017 73 16093 2.6 280 13:36 15.12.2019
2614 Clouds -7 1017 67 16093 2.6 320 13:18 15.12.2019
2615 Clouds -7 1017 67 16093 2.6 320 12:55 15.12.2019
2616 Clouds -7 1017 67 16093 5.91 312 12:36 15.12.2019
2617 Clouds -6 1017 67 16093 5.1 330 12:18 15.12.2019
2618 Clouds -6 1016 67 16093 5.91 312 11:38 15.12.2019
2619 Clouds -6 1016 67 16093 5.91 312 11:38 15.12.2019
2620 Clouds -6 1016 67 16093 7.43 301 11:19 15.12.2019
2621 Clouds -6 1016 62 16093 3.6 290 10:56 15.12.2019
2622 Clouds -6 1016 68 16093 4.1 320 10:38 15.12.2019
2623 Clouds -6 1016 68 16093 4.1 320 10:38 15.12.2019
2624 Clouds -6 1016 68 16093 4.1 320 10:19 15.12.2019
2625 Clouds -5 1015 62 16093 6.2 300 09:57 15.12.2019
2626 Clouds -5 1015 68 16093 5.1 270 09:37 15.12.2019
2627 Clouds -5 1014 62 16093 6.2 300 09:19 15.12.2019
2628 Clouds -5 1013 68 16093 5.1 280 08:42 15.12.2019
2629 Clouds -5 1013 68 16093 5.1 280 08:42 15.12.2019
2630 Clouds -5 1013 68 16093 5.1 280 08:23 15.12.2019
2631 Clouds -4 1013 68 16093 5.7 290 07:59 15.12.2019
2632 Clouds -4 1013 68 16093 5.7 270 07:38 15.12.2019
2633 Clouds -4 1013 68 16093 5.7 270 07:19 15.12.2019
2634 Clouds -4 1012 68 16093 6.7 290 06:24 15.12.2019
2635 Clouds -4 1012 68 16093 2.6 280 05:42 15.12.2019
2636 Clouds -4 1012 68 16093 6.7 290 05:21 15.12.2019
2637 Clouds -3 1011 68 16093 5.1 300 04:20 15.12.2019
2638 Clouds -3 1010 68 16093 5.1 310 02:50 15.12.2019
2639 Clouds -3 1010 68 14484 6.2 290 02:31 15.12.2019
2640 Clouds -2 1009 73 11265 5.7 300 01:40 15.12.2019
2641 Clouds -2 1009 74 16093 3.1 290 01:18 15.12.2019
2642 Clouds -2 1009 63 16093 5.7 290 00:49 15.12.2019
2643 Clouds -2 1009 68 16093 3.1 320 00:31 15.12.2019
2644 Clouds -2 1008 68 11265 5.7 280 23:41 14.12.2019
2645 Clouds -2 1008 71 11265 5.7 280 23:22 14.12.2019
2646 Clouds -1 1008 71 14484 5.7 300 22:59 14.12.2019
2647 Clouds -1 1007 80 14484 5.7 290 22:41 14.12.2019
2648 Clouds -1 1007 71 11265 5.7 290 22:22 14.12.2019
2649 Clouds -1 1007 71 11265 5.7 290 21:58 14.12.2019
2650 Clouds -1 1006 86 11265 5.7 290 21:39 14.12.2019
2651 Mist -1 1006 86 6437 4.1 290 21:19 14.12.2019
2652 Clouds -1 1006 80 11265 6.2 290 20:59 14.12.2019
2653 Clouds 0 1006 86 11265 6.2 300 20:41 14.12.2019
2654 Haze 0 1006 80 8047 3.6 300 20:20 14.12.2019
2655 Haze 0 1006 80 8047 3.6 290 19:57 14.12.2019
2656 Haze 0 1006 80 8047 2.6 300 19:38 14.12.2019
2657 Clouds 0 1006 74 11265 4.6 290 19:20 14.12.2019
2658 Mist 0 1006 79 8047 3.6 290 18:56 14.12.2019
2659 Mist 0 1006 79 6437 6.2 300 18:38 14.12.2019
2660 Mist 0 1006 80 8047 3.1 290 18:19 14.12.2019
2661 Clouds 0 1006 80 11265 5.1 330 17:44 14.12.2019
2662 Mist 0 1006 90 8047 2.1 300 17:24 14.12.2019
2663 Clouds 0 1006 80 11265 4.1 320 16:58 14.12.2019
2664 Mist 0 1006 86 6437 3.6 320 16:40 14.12.2019
2665 Clouds 0 1006 100 11265 5.19 317 16:19 14.12.2019
2666 Clouds 0 1006 100 11265 5.19 317 16:19 14.12.2019
2667 Fog 0 1006 100 402 5.19 317 15:43 14.12.2019
2668 Fog 0 1006 100 402 5.19 317 15:24 14.12.2019
2669 Clouds -1 1006 86 12874 3.1 290 14:59 14.12.2019
2670 Mist -1 1006 92 6437 3.1 280 14:39 14.12.2019
2671 Fog -1 1006 90 402 6.09 336 14:20 14.12.2019
2672 Mist -2 1005 100 6437 6.09 336 13:57 14.12.2019
2673 Mist -2 1006 86 9656 1.5 290 13:39 14.12.2019
2674 Clouds -2 1006 100 16093 5.52 338 13:19 14.12.2019
2675 Clouds -2 1006 100 16093 5.52 338 13:19 14.12.2019
2676 Clouds -2 1006 100 11265 5.52 338 12:55 14.12.2019
2677 Clear -2 1006 100 16093 5.52 338 12:37 14.12.2019
2678 Clear -2 1006 100 16093 5.52 338 12:18 14.12.2019
2679 Clouds -2 1006 91 16093 5.52 338 11:55 14.12.2019
2680 Clouds -2 1006 86 11265 1.5 320 11:37 14.12.2019
2681 Clouds -2 1006 92 11265 2.1 320 11:18 14.12.2019
2682 Clouds -2 1006 84 11265 3.27 285 10:55 14.12.2019
2683 Clouds -2 1006 92 16093 3.27 285 10:37 14.12.2019
2684 Clouds -2 1006 92 16093 3.27 285 10:18 14.12.2019
2685 Clouds -1 1006 84 16093 3.27 298 09:40 14.12.2019
2686 Clouds -1 1006 84 16093 3.27 298 09:21 14.12.2019
2687 Clouds -1 1007 84 16093 3.27 298 08:45 14.12.2019
2688 Clouds 0 1007 79 16093 1.23 125 08:20 14.12.2019
2689 Clouds 0 1007 74 16093 1.23 125 07:57 14.12.2019
2690 Clouds 0 1008 100 16093 1.23 125 07:38 14.12.2019
2691 Clouds 0 1008 79 11265 1.23 125 07:19 14.12.2019
2692 Clouds 0 1008 79 16093 1.23 125 06:41 14.12.2019
2693 Clouds 0 1008 100 16093 1.23 125 06:22 14.12.2019
2694 Clear 0 1009 92 16093 1.86 291 05:22 14.12.2019
2695 Clear 1 1010 92 16093 1.86 291 02:49 14.12.2019
2696 Clear 1 1011 76 16093 2.59 216 02:22 14.12.2019
2697 Clear 1 1010 80 16093 2.59 216 01:43 14.12.2019
2698 Clear 2 1011 80 16093 1.58 219 00:55 14.12.2019
2699 Clear 3 1011 74 16093 1.58 219 00:37 14.12.2019
2700 Clear 3 1011 80 16093 1.58 219 00:18 14.12.2019
2701 Clear 4 1012 69 16093 1.58 219 23:39 13.12.2019
2702 Clouds 5 1011 56 16093 2.6 210 23:19 13.12.2019
2703 Clear 5 1011 69 16093 3.24 199 23:19 13.12.2019
2704 Clouds 6 1011 56 16093 2.6 210 22:55 13.12.2019
2705 Clear 7 1011 60 16093 3.24 199 22:37 13.12.2019
2706 Clear 7 1011 60 16093 3.24 199 22:18 13.12.2019
2707 Clouds 7 1012 60 16093 3.24 199 21:42 13.12.2019
2708 Clouds 7 1012 60 16093 3.24 199 21:21 13.12.2019
2709 Clouds 7 1011 56 16093 2.1 220 20:57 13.12.2019
2710 Clear 7 1011 74 16093 3.6 160 20:39 13.12.2019
2711 Clouds 6 1012 65 16093 3.48 209 20:19 13.12.2019
2712 Clouds 6 1013 65 16093 3.76 204 19:56 13.12.2019
2713 Clouds 6 1013 65 16093 3.76 204 19:38 13.12.2019
2714 Clouds 6 1013 60 16093 3.6 190 19:18 13.12.2019
2715 Clouds 5 1014 69 16093 3.76 204 18:42 13.12.2019
2716 Clouds 5 1014 64 16093 3.1 210 18:20 13.12.2019
2717 Clouds 4 1014 64 16093 3.1 210 18:20 13.12.2019
2718 Clouds 4 1015 69 16093 3.76 204 17:59 13.12.2019
2719 Clouds 4 1015 69 16093 3.76 204 17:39 13.12.2019
2720 Clouds 3 1014 64 16093 2.6 200 17:18 13.12.2019
2721 Clouds 3 1015 69 16093 3.36 218 16:56 13.12.2019
2722 Clouds 3 1015 69 16093 3.36 218 16:38 13.12.2019
2723 Clouds 2 1014 69 16093 3.1 200 16:19 13.12.2019
2724 Clouds 2 1015 74 16093 1.5 190 15:42 13.12.2019
2725 Clouds 1 1015 69 16093 3.1 190 15:21 13.12.2019
2726 Clouds 1 1015 74 16093 3.36 218 14:57 13.12.2019
2727 Clear 1 1014 80 16093 3.36 218 14:37 13.12.2019
2728 Clouds 1 1015 64 16093 1.5 210 14:18 13.12.2019
2729 Clouds 1 1015 74 16093 5.56 228 13:43 13.12.2019
2730 Clouds 2 1015 64 16093 2.6 200 13:24 13.12.2019
2731 Clouds 2 1015 74 16093 6.36 219 12:55 13.12.2019
2732 Clouds 2 1015 64 16093 2.6 210 12:37 13.12.2019
2733 Clouds 2 1015 64 16093 2.6 210 12:18 13.12.2019
2734 Clouds 2 1016 74 16093 6.36 219 11:43 13.12.2019
2735 Clouds 2 1015 64 16093 2.6 210 11:24 13.12.2019
2736 Clouds 2 1016 60 16093 2.6 180 10:56 13.12.2019
2737 Clouds 2 1015 74 16093 2.6 200 10:38 13.12.2019
2738 Clouds 2 1016 64 16093 2.6 200 10:19 13.12.2019
2739 Clouds 2 1017 69 16093 3.6 210 09:42 13.12.2019
2740 Clouds 2 1016 64 16093 3.1 200 09:21 13.12.2019
2741 Clouds 2 1016 64 16093 2.6 210 08:45 13.12.2019
2742 Clouds 2 1017 69 16093 3.6 210 08:45 13.12.2019
2743 Clouds 3 1016 64 16093 2.6 210 08:26 13.12.2019
2744 Clouds 3 1017 69 16093 4.6 210 07:50 13.12.2019
2745 Clouds 3 1017 60 16093 4.1 200 07:26 13.12.2019
2746 Clouds 3 1018 69 16093 5.1 190 06:57 13.12.2019
2747 Clouds 3 1018 60 16093 5.1 210 06:31 13.12.2019
2748 Clouds 4 1018 52 16093 4.1 180 05:51 13.12.2019
2749 Clouds 4 1018 60 16093 5.7 210 05:31 13.12.2019
2750 Clouds 4 1019 64 16093 6.7 190 04:53 13.12.2019
2751 Clouds 4 1019 60 16093 7.7 190 03:50 13.12.2019
2752 Clouds 5 1019 56 16093 5.7 210 02:35 13.12.2019
2753 Clouds 5 1019 60 16093 5.7 190 01:51 13.12.2019
2754 Clouds 5 1019 52 16093 8.7 210 01:25 13.12.2019
2755 Clouds 5 1018 56 16093 6.7 210 00:46 13.12.2019
2756 Clouds 6 1019 52 16093 6.7 200 00:24 13.12.2019
2757 Clouds 6 1018 60 16093 6.7 200 23:42 12.12.2019
2758 Clouds 6 1019 56 16093 6.7 200 23:24 12.12.2019
2759 Clouds 6 1020 56 16093 9.3 190 22:56 12.12.2019
2760 Clouds 6 1020 56 16093 9.3 190 22:38 12.12.2019
2761 Clouds 7 1018 56 16093 7.2 200 22:38 12.12.2019
2762 Clouds 7 1019 48 16093 9.3 200 22:19 12.12.2019
2763 Clear 7 1020 56 16093 10.8 190 21:55 12.12.2019
2764 Clouds 7 1020 48 16093 6.7 200 21:37 12.12.2019
2765 Clear 6 1021 56 16093 10.8 200 21:19 12.12.2019
2766 Clear 6 1021 56 16093 9.8 190 20:58 12.12.2019
2767 Clear 6 1021 56 16093 9.8 190 20:39 12.12.2019
2768 Clouds 6 1021 52 16093 7.2 200 20:21 12.12.2019
2769 Clear 5 1023 60 16093 9.8 200 19:55 12.12.2019
2770 Clouds 5 1022 52 16093 8.2 200 19:37 12.12.2019
2771 Clouds 5 1022 52 16093 8.2 200 19:18 12.12.2019
2772 Clouds 4 1024 64 16093 8.7 190 18:55 12.12.2019
2773 Clouds 4 1021 60 16093 7.2 200 18:37 12.12.2019
2774 Clouds 3 1024 59 16093 6.2 190 18:18 12.12.2019
2775 Clouds 3 1026 69 16093 6.2 180 17:55 12.12.2019
2776 Clouds 2 1023 74 16093 5.7 190 17:37 12.12.2019
2777 Clouds 1 1026 76 16093 6.7 180 17:19 12.12.2019
2778 Clouds 0 1026 76 16093 8.7 180 16:54 12.12.2019
2779 Clouds 0 1025 76 16093 7.2 180 16:36 12.12.2019
2780 Clouds -1 1027 74 16093 6.7 170 16:18 12.12.2019
2781 Clouds -2 1027 79 16093 5.7 170 15:42 12.12.2019
2782 Clouds -3 1027 79 16093 4.1 160 15:19 12.12.2019
2783 Clouds -3 1027 79 16093 4.1 160 15:19 12.12.2019
2784 Clouds -3 1027 68 14484 4.6 170 15:19 12.12.2019
2785 Clouds -3 1028 85 16093 4.1 160 14:57 12.12.2019
2786 Clouds -3 1028 85 16093 4.1 160 14:57 12.12.2019
2787 Clouds -4 1028 85 16093 4.1 160 14:37 12.12.2019
2788 Clouds -4 1028 73 12874 4.6 170 14:19 12.12.2019
2789 Clear -4 1029 85 16093 4.1 150 13:55 12.12.2019
2790 Clouds -5 1027 79 16093 2.6 150 13:36 12.12.2019
2791 Clouds -5 1028 73 12874 4.1 150 13:18 12.12.2019
2792 Clear -6 1030 85 16093 3.6 150 12:42 12.12.2019
2793 Clouds -6 1029 79 12874 4.1 150 12:23 12.12.2019
2794 Clear -6 1030 85 16093 3.6 140 11:59 12.12.2019
2795 Clear -6 1030 85 16093 3.6 140 11:40 12.12.2019
2796 Clouds -6 1030 79 12874 4.1 130 11:22 12.12.2019
2797 Clear -6 1031 73 16093 3.1 140 10:59 12.12.2019
2798 Clouds -6 1031 79 12874 4.6 150 10:40 12.12.2019
2799 Clouds -6 1031 79 12874 4.6 150 10:22 12.12.2019
2800 Clear -6 1032 73 16093 2.6 140 09:56 12.12.2019
2801 Clear -7 1032 73 16093 2.6 140 09:38 12.12.2019
2802 Clouds -7 1032 79 12874 3.6 160 09:20 12.12.2019
2803 Clear -7 1032 79 16093 2.6 140 08:48 12.12.2019
2804 Clouds -7 1031 73 14484 3.1 130 08:29 12.12.2019
2805 Clear -8 1032 79 16093 2.1 130 07:56 12.12.2019
2806 Clear -8 1032 79 16093 2.1 130 07:56 12.12.2019
2807 Clear -8 1032 79 16093 2.1 130 07:37 12.12.2019
2808 Clouds -8 1032 67 14484 2.1 160 07:19 12.12.2019
2809 Clear -8 1033 79 16093 1.5 140 06:41 12.12.2019
2810 Clouds -9 1033 67 16093 2.6 140 06:22 12.12.2019
2811 Clouds -9 1033 67 16093 6.97 164 05:32 12.12.2019
2812 Clear -9 1033 85 16093 2.17 155 04:48 12.12.2019
2813 Clear -8 1034 85 16093 1.5 170 02:44 12.12.2019
2814 Clear -8 1034 62 16093 2.6 190 02:25 12.12.2019
2815 Clear -8 1034 73 16093 2.06 268 01:59 12.12.2019
2816 Clear -8 1033 72 16093 2.06 268 01:36 12.12.2019
2817 Clear -7 1034 78 16093 2.14 265 00:50 12.12.2019
2818 Clouds -7 1033 57 16093 2.1 290 00:22 12.12.2019
2819 Clear -6 1033 62 16093 1.5 260 23:58 11.12.2019
2820 Clear -6 1032 49 16093 2.1 250 23:38 11.12.2019
2821 Clouds -5 1033 49 16093 2.6 240 23:18 11.12.2019
2822 Clouds -5 1033 57 16093 2.1 240 22:56 11.12.2019
2823 Clouds -5 1032 53 16093 3.1 250 22:38 11.12.2019
2824 Clouds -5 1032 53 16093 3.1 250 22:19 11.12.2019
2825 Clear -4 1032 58 16093 3.1 310 21:54 11.12.2019
2826 Clouds -4 1031 49 16093 2.6 290 21:36 11.12.2019
2827 Clouds -4 1031 49 16093 2.6 290 21:18 11.12.2019
2828 Clear -4 1031 62 16093 3.1 280 20:55 11.12.2019
2829 Clear -5 1030 53 16093 2.1 250 20:36 11.12.2019
2830 Clouds -5 1031 53 16093 5.1 240 20:18 11.12.2019
2831 Clear -5 1030 57 16093 1.5 300 19:42 11.12.2019
2832 Snow -5 1030 67 16093 4.6 280 19:23 11.12.2019
2833 Snow -5 1030 67 16093 4.6 280 19:23 11.12.2019
2834 Clouds -6 1031 73 16093 4.1 270 18:59 11.12.2019
2835 Clouds -6 1031 73 16093 4.1 270 18:40 11.12.2019
2836 Clouds -6 1030 67 16093 5.1 280 18:19 11.12.2019
2837 Clouds -6 1031 57 16093 6.2 290 17:56 11.12.2019
2838 Snow -7 1030 67 16093 4.1 290 17:38 11.12.2019
2839 Snow -7 1030 67 16093 4.1 290 17:18 11.12.2019
2840 Snow -7 1030 79 11265 4.6 270 16:55 11.12.2019
2841 Clouds -8 1029 78 8047 1.5 270 16:37 11.12.2019
2842 Snow -8 1029 73 16093 4.6 270 16:18 11.12.2019
2843 Snow -8 1029 85 8047 2.6 240 15:56 11.12.2019
2844 Snow -9 1029 85 8047 2.6 240 15:37 11.12.2019
2845 Snow -9 1028 72 8047 4.6 250 15:19 11.12.2019
2846 Snow -9 1028 78 4828 4.6 250 14:54 11.12.2019
2847 Clouds -9 1027 78 4023 1.5 260 14:36 11.12.2019
2848 Clouds -9 1027 78 4023 1.5 260 14:36 11.12.2019
2849 Snow -9 1027 78 4828 3.1 240 14:18 11.12.2019
2850 Snow -9 1027 78 3219 4.6 240 13:42 11.12.2019
2851 Snow -9 1027 78 3219 4.6 240 13:42 11.12.2019
2852 Clouds -9 1027 66 16093 5.1 250 13:22 11.12.2019
2853 Clouds -10 1027 72 16093 5.7 240 12:58 11.12.2019
2854 Clouds -10 1027 72 16093 5.7 240 12:39 11.12.2019
2855 Clouds -10 1027 66 16093 6.2 260 12:21 11.12.2019
2856 Clouds -10 1027 66 16093 4.6 260 11:58 11.12.2019
2857 Clouds -10 1027 66 16093 4.6 260 11:39 11.12.2019
2858 Clouds -10 1026 56 16093 6.2 250 11:19 11.12.2019
2859 Clouds -10 1026 56 16093 6.2 250 11:19 11.12.2019
2860 Clouds -10 1025 72 16093 3.1 250 10:59 11.12.2019
2861 Clouds -10 1025 72 16093 3.1 250 10:39 11.12.2019
2862 Clouds -10 1027 56 16093 5.7 260 10:20 11.12.2019
2863 Clouds -10 1027 72 16093 3.1 240 09:55 11.12.2019
2864 Snow -10 1026 67 14484 4.6 250 09:37 11.12.2019
2865 Snow -10 1026 67 14484 4.6 250 09:19 11.12.2019
2866 Clouds -9 1026 66 16093 7.2 250 08:55 11.12.2019
2867 Clouds -9 1027 62 16093 2.6 240 08:36 11.12.2019
2868 Snow -9 1026 67 16093 6.2 250 08:18 11.12.2019
2869 Clouds -9 1027 67 16093 2.6 250 07:42 11.12.2019
2870 Snow -9 1026 67 16093 7.2 260 07:22 11.12.2019
2871 Snow -9 1026 67 16093 5.7 260 06:45 11.12.2019
2872 Snow -9 1025 67 16093 6.7 270 06:24 11.12.2019
2873 Clouds -9 1026 61 16093 3.1 250 05:52 11.12.2019
2874 Clouds -9 1026 67 16093 5.1 270 05:27 11.12.2019
2875 Clear -9 1027 67 16093 5.7 270 04:47 11.12.2019
2876 Clear -8 1026 52 16093 6.7 270 03:18 11.12.2019
2877 Clear -8 1026 61 16093 2.1 260 01:56 11.12.2019
2878 Clear -8 1025 52 16093 7.2 260 01:21 11.12.2019
2879 Clear -7 1025 57 16093 2.1 250 00:37 11.12.2019
2880 Clouds -7 1025 44 16093 6.2 250 00:18 11.12.2019
2881 Clear -7 1024 48 16093 4.1 260 23:43 10.12.2019
2882 Clouds -7 1024 44 16093 5.7 260 23:22 10.12.2019
2883 Clouds -6 1022 49 16093 5.7 260 22:42 10.12.2019
2884 Clouds -6 1022 49 16093 5.7 260 22:24 10.12.2019
2885 Clouds -6 1022 49 16093 5.7 260 22:24 10.12.2019
2886 Clear -5 1023 49 16093 5.1 250 21:58 10.12.2019
2887 Clouds -5 1022 41 16093 6.2 280 21:39 10.12.2019
2888 Clouds -5 1022 41 16093 6.2 280 21:21 10.12.2019
2889 Clear -6 1022 49 16093 6.7 250 20:59 10.12.2019
2890 Clear -6 1022 49 16093 6.7 250 20:59 10.12.2019
2891 Clear -6 1022 49 16093 6.7 250 20:38 10.12.2019
2892 Clear -6 1021 49 16093 3.6 260 20:38 10.12.2019
2893 Clear -6 1021 49 16093 3.6 260 20:38 10.12.2019
2894 Clear -6 1022 49 16093 6.7 250 20:38 10.12.2019
2895 Clear -6 1021 49 16093 3.6 260 20:38 10.12.2019
2896 Clouds -6 1022 53 16093 6.2 280 20:19 10.12.2019
2897 Clouds -6 1022 53 16093 6.2 280 20:19 10.12.2019
2898 Clear -6 1022 49 16093 5.7 260 19:58 10.12.2019
2899 Clear -6 1022 49 16093 5.7 260 19:40 10.12.2019
2900 Clouds -7 1022 57 16093 5.7 270 19:22 10.12.2019
2901 Clear -7 1022 57 16093 5.1 280 18:56 10.12.2019
2902 Clear -7 1022 57 16093 5.1 280 18:38 10.12.2019
2903 Clouds -7 1021 62 16093 6.7 300 18:18 10.12.2019
2904 Clouds -8 1021 66 16093 6.2 290 17:54 10.12.2019
2905 Clouds -8 1021 61 16093 4.6 290 17:36 10.12.2019
2906 Clouds -8 1021 61 16093 4.6 290 17:18 10.12.2019
2907 Clear -9 1021 72 16093 5.7 270 16:41 10.12.2019
2908 Clouds -9 1020 66 16093 6.7 280 16:19 10.12.2019
2909 Clouds -10 1019 72 16093 5.7 280 15:40 10.12.2019
2910 Clouds -10 1019 72 16093 5.7 280 15:19 10.12.2019
2911 Clouds -10 1019 78 16093 6.7 260 14:57 10.12.2019
2912 Snow -9 1018 72 16093 6.7 250 14:38 10.12.2019
2913 Clouds -9 1018 72 16093 6.2 260 14:20 10.12.2019
2914 Clouds -9 1018 78 16093 6.7 260 13:58 10.12.2019
2915 Clouds -9 1018 78 16093 6.7 260 13:40 10.12.2019
2916 Snow -9 1016 67 16093 5.7 270 13:20 10.12.2019
2917 Clouds -8 1017 79 16093 6.2 270 12:49 10.12.2019
2918 Snow -8 1016 73 16093 7.2 280 12:28 10.12.2019
2919 Snow -8 1016 73 16093 8.2 270 11:59 10.12.2019
2920 Snow -7 1016 73 16093 8.2 270 11:40 10.12.2019
2921 Snow -7 1016 73 16093 8.2 270 11:40 10.12.2019
2922 Snow -7 1015 73 8047 7.7 270 11:21 10.12.2019
2923 Clouds -7 1015 67 16093 6.7 250 10:44 10.12.2019
2924 Snow -7 1014 73 16093 7.2 270 10:25 10.12.2019
2925 Clouds -6 1014 79 16093 8.2 270 09:58 10.12.2019
2926 Snow -6 1013 73 16093 7.2 260 09:40 10.12.2019
2927 Snow -6 1013 73 16093 7.2 260 09:22 10.12.2019
2928 Snow -6 1013 73 16093 7.2 260 09:22 10.12.2019
2929 Clouds -6 1013 79 16093 7.2 280 08:59 10.12.2019
2930 Snow -5 1012 68 16093 7.7 280 08:40 10.12.2019
2931 Snow -5 1012 68 16093 7.7 280 08:22 10.12.2019
2932 Clouds -5 1012 68 16093 7.7 280 07:54 10.12.2019
2933 Snow -5 1011 73 16093 6.7 270 07:36 10.12.2019
2934 Snow -5 1011 73 16093 6.7 270 07:18 10.12.2019
2935 Clouds -4 1011 73 16093 7.2 270 06:42 10.12.2019
2936 Snow -4 1010 68 16093 9.8 260 06:19 10.12.2019
2937 Clouds -4 1009 79 16093 6.2 270 05:51 10.12.2019
2938 Clouds -3 1006 80 16093 8.7 270 04:35 10.12.2019
2939 Clouds -2 1005 80 16093 9.3 270 03:31 10.12.2019
2940 Clouds -1 1003 80 14484 10.3 290 02:36 10.12.2019
2941 Clouds 1 1002 86 14484 8.7 280 01:42 10.12.2019
2942 Clouds 1 1002 86 14484 8.7 280 01:19 10.12.2019
2943 Rain 3 1001 87 16093 10.3 270 00:38 10.12.2019
2944 Rain 4 1000 81 16093 11.8 270 00:18 10.12.2019
2945 Clouds 7 999 87 16093 5.7 260 23:40 09.12.2019
2946 Clouds 7 998 87 12874 6.2 280 23:22 09.12.2019
2947 Rain 7 998 93 11265 5.1 250 22:57 09.12.2019
2948 Rain 7 998 93 11265 5.1 250 22:39 09.12.2019
2949 Drizzle 8 998 87 14484 7.2 260 22:18 09.12.2019
2950 Drizzle 8 997 93 6437 5.1 240 21:56 09.12.2019
2951 Rain 8 998 93 6437 5.7 250 21:38 09.12.2019
2952 Mist 8 997 93 6437 6.7 250 21:18 09.12.2019
2953 Mist 8 998 100 8047 5.7 240 20:56 09.12.2019
2954 Mist 8 997 93 9656 6.2 240 20:37 09.12.2019
2955 Mist 8 997 93 9656 6.2 240 20:19 09.12.2019
2956 Mist 8 998 100 4828 4.6 240 19:55 09.12.2019
2957 Drizzle 8 998 93 4828 5.7 230 19:37 09.12.2019
2958 Drizzle 8 998 93 4828 5.7 230 19:19 09.12.2019
2959 Drizzle 8 999 100 4023 5.1 230 18:55 09.12.2019
2960 Drizzle 8 999 100 4023 5.1 230 18:36 09.12.2019
2961 Drizzle 8 999 93 8047 4.1 230 18:18 09.12.2019
2962 Rain 8 1000 100 3219 4.1 230 17:56 09.12.2019
2963 Mist 8 1000 93 6437 4.6 240 17:37 09.12.2019
2964 Mist 8 1000 93 6437 4.6 240 17:19 09.12.2019
2965 Rain 8 1000 100 8047 4.1 240 16:55 09.12.2019
2966 Clouds 8 999 100 3219 2.6 240 16:36 09.12.2019
2967 Drizzle 7 1000 93 6437 4.6 240 16:18 09.12.2019
2968 Rain 7 1001 100 4023 4.6 230 15:55 09.12.2019
2969 Drizzle 7 1000 93 4828 4.6 230 15:36 09.12.2019
2970 Drizzle 7 1000 93 4828 4.6 230 15:18 09.12.2019
2971 Rain 7 1001 100 11265 4.1 230 14:42 09.12.2019
2972 Rain 7 1001 100 11265 4.1 230 14:42 09.12.2019
2973 Drizzle 7 1001 93 8047 4.6 240 14:19 09.12.2019
2974 Rain 7 1001 100 11265 4.6 230 13:57 09.12.2019
2975 Rain 7 1001 100 11265 4.6 230 13:38 09.12.2019
2976 Drizzle 8 1001 93 4828 4.1 220 13:19 09.12.2019
2977 Drizzle 8 1002 100 8047 5.7 220 12:56 09.12.2019
2978 Drizzle 8 1002 100 8047 5.7 220 12:56 09.12.2019
2979 Rain 8 1002 93 6437 4.1 210 12:37 09.12.2019
2980 Rain 8 1002 93 6437 4.1 210 12:19 09.12.2019
2981 Drizzle 8 1003 100 4023 5.1 210 11:56 09.12.2019
2982 Rain 8 1002 87 12874 1.5 160 11:37 09.12.2019
2983 Rain 8 1002 87 12874 1.5 160 11:18 09.12.2019
2984 Drizzle 8 1003 100 4828 4.6 190 10:41 09.12.2019
2985 Drizzle 8 1004 87 4828 2.6 180 10:20 09.12.2019
2986 Rain 8 1004 93 4023 4.1 190 09:59 09.12.2019
2987 Rain 8 1005 87 9656 4.1 180 09:40 09.12.2019
2988 Rain 8 1005 87 9656 4.1 180 09:21 09.12.2019
2989 Rain 8 1006 100 16093 3.6 190 08:44 09.12.2019
2990 Clouds 8 1006 81 12874 2.1 170 08:26 09.12.2019
2991 Clouds 8 1006 81 12874 2.1 170 08:26 09.12.2019
2992 Clouds 7 1007 87 16093 3.1 180 07:57 09.12.2019
2993 Clouds 7 1007 87 16093 3.1 180 07:38 09.12.2019
2994 Clouds 7 1007 81 16093 3.1 190 07:20 09.12.2019
2995 Clouds 7 1008 93 16093 4.1 190 06:43 09.12.2019
2996 Clouds 7 1008 81 16093 2.6 180 06:24 09.12.2019
2997 Clouds 7 1009 81 12874 2.6 150 05:27 09.12.2019
2998 Clouds 7 1009 93 16093 3.1 200 04:46 09.12.2019
2999 Clouds 7 1009 87 12874 2.6 210 03:20 09.12.2019
3000 Clouds 7 1010 87 12874 3.1 200 02:24 09.12.2019
3001 Clouds 8 1010 87 14484 2.1 200 01:42 09.12.2019
3002 Clouds 8 1011 87 16093 3.1 200 00:46 09.12.2019
3003 Clouds 8 1010 81 11265 3.6 200 00:26 09.12.2019
3004 Clouds 8 1011 87 16093 5.1 200 23:41 08.12.2019
3005 Clouds 8 1010 81 11265 4.1 210 23:23 08.12.2019
3006 Clouds 8 1011 81 16093 4.1 220 22:57 08.12.2019
3007 Clouds 8 1011 81 16093 4.1 220 22:57 08.12.2019
3008 Clouds 8 1011 81 16093 4.1 220 22:38 08.12.2019
3009 Clear 8 1011 81 16093 4.6 200 22:19 08.12.2019
3010 Clouds 8 1010 70 11265 5.7 220 21:58 08.12.2019
3011 Clear 8 1011 81 16093 6.2 210 21:40 08.12.2019
3012 Clouds 8 1010 75 12874 5.1 210 21:20 08.12.2019
3013 Clear 8 1011 76 16093 8.2 210 20:57 08.12.2019
3014 Clouds 8 1011 75 12874 6.2 200 20:38 08.12.2019
3015 Clouds 7 1011 75 12874 6.2 200 20:20 08.12.2019
3016 Clouds 7 1013 81 16093 5.7 220 19:58 08.12.2019
3017 Clouds 7 1013 81 16093 5.7 220 19:40 08.12.2019
3018 Clouds 7 1012 75 12874 6.2 210 19:22 08.12.2019
3019 Clouds 6 1013 81 16093 7.2 210 18:55 08.12.2019
3020 Clouds 6 1013 81 16093 7.2 210 18:55 08.12.2019
3021 Clouds 6 1013 75 12874 7.2 210 18:37 08.12.2019
3022 Clouds 6 1013 75 12874 7.2 210 18:19 08.12.2019
3023 Clouds 5 1014 81 16093 8.7 210 17:56 08.12.2019
3024 Clouds 5 1014 81 16093 8.7 210 17:38 08.12.2019
3025 Clouds 5 1014 80 12874 7.7 210 17:19 08.12.2019
3026 Clouds 4 1015 86 16093 6.2 210 16:56 08.12.2019
3027 Clouds 4 1015 86 16093 6.2 210 16:38 08.12.2019
3028 Clouds 3 1014 80 12874 6.2 200 16:20 08.12.2019
3029 Clouds 3 1014 86 12874 7.2 200 15:54 08.12.2019
3030 Clouds 3 1014 89 16093 6.2 200 15:36 08.12.2019
3031 Clouds 3 1014 89 16093 6.2 200 15:18 08.12.2019
3032 Clear 2 1015 93 16093 6.2 200 14:41 08.12.2019
3033 Clouds 2 1014 74 16093 7.2 200 14:22 08.12.2019
3034 Clouds 2 1016 86 16093 6.7 200 13:57 08.12.2019
3035 Clouds 2 1015 74 16093 6.2 200 13:39 08.12.2019
3036 Clouds 2 1015 74 16093 6.2 200 13:21 08.12.2019
3037 Clouds 2 1017 86 16093 6.2 200 12:55 08.12.2019
3038 Clouds 1 1016 69 16093 6.2 200 12:37 08.12.2019
3039 Clouds 1 1016 69 16093 6.2 200 12:18 08.12.2019
3040 Clouds 1 1016 69 0 7.2 200 11:55 08.12.2019
3041 Clouds 1 1017 86 16093 4.6 190 11:37 08.12.2019
3042 Clear 1 1018 59 16093 4.1 180 11:18 08.12.2019
3043 Clear 1 1018 59 16093 4.1 170 10:39 08.12.2019
3044 Clouds 1 1018 64 16093 5.1 190 10:20 08.12.2019
3045 Clear 1 1019 59 16093 4.6 170 09:58 08.12.2019
3046 Clouds 1 1019 59 16093 4.6 200 09:39 08.12.2019
3047 Clouds 1 1019 59 16093 4.6 200 09:20 08.12.2019
3048 Clouds 1 1019 59 16093 4.6 200 09:20 08.12.2019
3049 Clear 1 1020 59 16093 4.1 170 08:58 08.12.2019
3050 Clear 1 1020 59 16093 4.1 170 08:38 08.12.2019
3051 Clouds 1 1020 55 16093 4.1 200 08:19 08.12.2019
3052 Clear 1 1021 55 16093 2.6 170 07:44 08.12.2019
3053 Clouds 1 1020 64 16093 5.1 200 07:20 08.12.2019
3054 Clear 1 1021 55 16093 3.6 170 06:51 08.12.2019
3055 Clouds 1 1021 64 16093 4.6 190 06:22 08.12.2019
3056 Clear 1 1022 55 16093 4.6 160 05:51 08.12.2019
3057 Clouds 1 1021 59 16093 4.6 180 05:18 08.12.2019
3058 Clear 1 1023 61 16093 4.1 180 03:51 08.12.2019
3059 Clouds 1 1023 69 16093 3.6 190 03:26 08.12.2019
3060 Clear 1 1024 61 16093 3.6 170 02:39 08.12.2019
3061 Clear 1 1023 69 16093 4.1 180 01:56 08.12.2019
3062 Clouds 2 1024 59 16093 3.6 180 01:27 08.12.2019
3063 Clouds 2 1024 59 16093 3.6 180 01:27 08.12.2019
3064 Clouds 2 1024 59 16093 4.1 190 00:40 08.12.2019
3065 Clouds 2 1024 59 16093 4.1 190 00:21 08.12.2019
3066 Clear 2 1025 69 16093 3.1 190 23:42 07.12.2019
3067 Clouds 3 1025 55 16093 3.1 180 23:21 07.12.2019
3068 Clouds 3 1026 60 16093 5.1 190 22:58 07.12.2019
3069 Clouds 3 1026 60 16093 5.1 190 22:40 07.12.2019
3070 Clouds 3 1025 51 16093 4.6 180 22:22 07.12.2019
3071 Clouds 3 1026 60 16093 5.1 200 21:56 07.12.2019
3072 Clouds 3 1026 60 16093 5.1 200 21:38 07.12.2019
3073 Clouds 3 1026 59 16093 4.6 180 21:20 07.12.2019
3074 Clouds 3 1027 64 16093 4.6 210 20:59 07.12.2019
3075 Clouds 3 1025 69 16093 4.6 190 20:37 07.12.2019
3076 Clouds 2 1027 59 16093 5.1 210 20:19 07.12.2019
3077 Clouds 2 1028 69 16093 4.6 190 19:56 07.12.2019
3078 Clouds 2 1028 69 16093 4.6 190 19:38 07.12.2019
3079 Clouds 2 1028 64 16093 5.7 200 19:20 07.12.2019
3080 Clouds 1 1029 69 16093 5.1 210 18:44 07.12.2019
3081 Clouds 1 1029 69 16093 5.1 210 18:21 07.12.2019
3082 Clouds 1 1030 58 16093 4.1 180 17:59 07.12.2019
3083 Clouds 0 1030 58 16093 4.1 180 17:41 07.12.2019
3084 Clouds 0 1029 69 16093 4.1 190 17:23 07.12.2019
3085 Clouds 0 1030 86 16093 3.1 190 16:57 07.12.2019
3086 Clouds -1 1030 86 16093 3.1 190 16:38 07.12.2019
3087 Clouds -1 1029 74 16093 4.1 200 16:20 07.12.2019
3088 Clouds -1 1029 86 16093 3.1 170 15:57 07.12.2019
3089 Clouds -2 1029 86 16093 3.1 170 15:38 07.12.2019
3090 Clouds -2 1029 86 16093 3.1 170 15:38 07.12.2019
3091 Clouds -2 1028 79 16093 4.1 180 15:20 07.12.2019
3092 Clouds -3 1028 86 16093 3.1 200 14:42 07.12.2019
3093 Clouds -3 1028 79 16093 2.6 180 14:19 07.12.2019
3094 Clouds -3 1028 86 16093 2.1 200 13:55 07.12.2019
3095 Clouds -3 1028 86 16093 2.1 180 13:37 07.12.2019
3096 Clouds -3 1028 86 16093 2.1 180 13:18 07.12.2019
3097 Clouds -4 1028 92 16093 5.77 207 12:41 07.12.2019
3098 Clouds -4 1029 79 16093 5.77 207 12:22 07.12.2019
3099 Clear -5 1029 100 16093 5.77 207 11:58 07.12.2019
3100 Clear -5 1029 100 16093 5.77 207 11:40 07.12.2019
3101 Clear -5 1029 79 16093 5.43 216 11:21 07.12.2019
3102 Clear -4 1029 92 16093 5.43 216 10:38 07.12.2019
3103 Clouds -4 1029 86 16093 5.43 216 10:20 07.12.2019
3104 Clear -3 1029 86 16093 1.5 200 09:58 07.12.2019
3105 Clear -3 1029 86 16093 1.5 200 09:37 07.12.2019
3106 Clouds -3 1027 79 16093 6.2 200 09:18 07.12.2019
3107 Clear -3 1029 92 16093 5.43 216 08:41 07.12.2019
3108 Clouds -3 1028 79 16093 2.6 200 08:21 07.12.2019
3109 Clear -4 1029 92 16093 0.63 222 07:46 07.12.2019
3110 Clouds -4 1029 86 16093 2.6 210 07:26 07.12.2019
3111 Clear -4 1029 92 16093 0.63 222 06:51 07.12.2019
3112 Clouds -4 1029 79 16093 0.63 222 06:25 07.12.2019
3113 Clear -4 1029 92 16093 0.63 222 05:38 07.12.2019
3114 Clouds -3 1028 74 16093 1.66 352 04:19 07.12.2019
3115 Clear -3 1029 92 16093 1.66 352 03:44 07.12.2019
3116 Clouds -2 1028 61 16093 1.5 110 02:21 07.12.2019
3117 Clouds -1 1028 69 16093 2.6 50 01:35 07.12.2019
3118 Clear 0 1027 61 16093 1.5 40 00:55 07.12.2019
3119 Clouds 0 1027 64 16093 3.1 50 00:20 07.12.2019
3120 Clear 1 1027 74 16093 3.1 40 23:56 06.12.2019
3121 Clouds 1 1027 59 16093 5.1 60 23:38 06.12.2019
3122 Clouds 2 1027 59 16093 5.1 60 23:18 06.12.2019
3123 Clouds 3 1026 55 16093 4.1 60 22:38 06.12.2019
3124 Clouds 3 1026 55 16093 4.1 60 22:20 06.12.2019
3125 Clear 3 1026 64 16093 4.1 10 21:58 06.12.2019
3126 Clear 3 1026 64 16093 4.1 10 21:39 06.12.2019
3127 Clouds 3 1025 55 16093 2.6 60 21:19 06.12.2019
3128 Clouds 3 1026 64 16093 3.1 360 20:42 06.12.2019
3129 Clouds 3 1026 64 16093 3.1 360 20:42 06.12.2019
3130 Clouds 3 1026 64 16093 3.1 360 20:42 06.12.2019
3131 Clouds 3 1026 64 16093 3.1 360 20:42 06.12.2019
3132 Clouds 3 1025 55 16093 5.1 360 20:24 06.12.2019
3133 Clouds 3 1025 69 16093 6.7 350 19:59 06.12.2019
3134 Clouds 3 1025 69 16093 6.7 350 19:40 06.12.2019
3135 Clouds 3 1025 59 16093 6.2 30 19:22 06.12.2019
3136 Clouds 3 1025 59 16093 6.2 30 19:22 06.12.2019
3137 Clouds 3 1025 59 16093 6.2 30 19:22 06.12.2019
3138 Clouds 3 1025 59 16093 6.2 360 18:57 06.12.2019
3139 Clouds 2 1025 59 16093 1.5 360 18:39 06.12.2019
3140 Clouds 2 1025 64 16093 6.2 20 18:19 06.12.2019
3141 Clouds 2 1025 64 16093 6.2 20 18:19 06.12.2019
3142 Clouds 2 1025 69 16093 5.1 10 17:56 06.12.2019
3143 Clouds 2 1025 64 16093 4.1 340 17:37 06.12.2019
3144 Clouds 2 1025 64 16093 7.7 350 17:19 06.12.2019
3145 Clouds 1 1025 64 16093 6.7 340 16:43 06.12.2019
3146 Clouds 1 1025 64 16093 6.7 340 16:25 06.12.2019
3147 Clouds 1 1023 80 16093 6.2 360 15:59 06.12.2019
3148 Clouds 1 1023 80 16093 6.2 360 15:40 06.12.2019
3149 Clouds 1 1022 69 16093 7.7 360 15:19 06.12.2019
3150 Clouds 0 1021 80 16093 8.2 360 14:56 06.12.2019
3151 Clouds 1 1021 80 16093 8.2 360 14:38 06.12.2019
3152 Clouds 1 1021 69 16093 7.2 10 14:18 06.12.2019
3153 Clouds 1 1022 69 16093 4.1 360 13:43 06.12.2019
3154 Clouds 2 1019 69 16093 8.7 350 13:25 06.12.2019
3155 Clouds 2 1020 69 16093 6.7 350 12:43 06.12.2019
3156 Clouds 3 1018 80 14484 8.2 350 12:23 06.12.2019
3157 Clouds 3 1017 75 16093 8.2 350 11:58 06.12.2019
3158 Clouds 3 1017 75 16093 8.2 350 11:39 06.12.2019
3159 Clouds 4 1017 80 16093 7.2 340 11:20 06.12.2019
3160 Clear 4 1016 75 16093 4.1 300 10:43 06.12.2019
3161 Clouds 4 1015 80 16093 3.6 290 10:21 06.12.2019
3162 Clear 4 1015 70 16093 3.6 260 09:58 06.12.2019
3163 Clouds 4 1015 75 16093 4.1 270 09:37 06.12.2019
3164 Clouds 4 1015 75 16093 4.1 270 09:37 06.12.2019
3165 Clouds 4 1015 75 16093 4.1 270 09:37 06.12.2019
3166 Clouds 4 1015 75 16093 4.1 270 09:19 06.12.2019
3167 Clear 4 1014 70 16093 1.5 220 08:45 06.12.2019
3168 Clouds 4 1014 75 16093 4.1 240 08:26 06.12.2019
3169 Clear 4 1014 70 16093 2.6 230 07:44 06.12.2019
3170 Clouds 4 1014 75 16093 3.1 230 07:25 06.12.2019
3171 Clear 3 1014 86 16093 3.1 210 06:59 06.12.2019
3172 Clouds 4 1014 75 16093 3.1 210 06:28 06.12.2019
3173 Clear 4 1014 80 16093 4.1 200 05:53 06.12.2019
3174 Clouds 4 1014 70 16093 2.6 210 05:33 06.12.2019
3175 Clouds 5 1015 65 16093 3.6 180 02:19 06.12.2019
3176 Clouds 5 1015 65 16093 2.6 180 01:29 06.12.2019
3177 Clear 6 1015 75 16093 1.5 160 00:41 06.12.2019
3178 Clouds 6 1015 75 16093 3.1 190 00:20 06.12.2019
3179 Clear 6 1015 75 16093 3.1 190 23:45 05.12.2019
3180 Clouds 7 1015 68 16093 3.6 190 23:19 05.12.2019
3181 Clear 7 1015 65 16093 4.6 190 22:57 05.12.2019
3182 Clear 7 1015 65 16093 4.6 190 22:37 05.12.2019
3183 Clouds 7 1015 56 16093 5.1 190 22:18 05.12.2019
3184 Clouds 7 1015 56 16093 5.1 190 22:18 05.12.2019
3185 Clear 7 1015 61 16093 4.1 200 21:43 05.12.2019
3186 Clouds 7 1015 56 16093 4.1 200 21:25 05.12.2019
3187 Clear 7 1016 68 16093 4.6 190 20:59 05.12.2019
3188 Clear 7 1016 68 16093 4.6 190 20:40 05.12.2019
3189 Clear 6 1016 66 16093 4.1 200 20:20 05.12.2019
3190 Clouds 6 1016 52 16093 3.6 200 20:20 05.12.2019
3191 Clear 6 1016 66 16093 4.1 200 20:20 05.12.2019
3192 Clouds 6 1016 52 16093 3.6 200 19:56 05.12.2019
3193 Clouds 6 1017 66 16093 4.1 200 19:38 05.12.2019
3194 Clouds 6 1017 66 16093 4.1 200 19:19 05.12.2019
3195 Clouds 6 1017 52 16093 4.6 180 18:54 05.12.2019
3196 Clear 5 1018 65 16093 3.6 200 18:36 05.12.2019
3197 Clear 5 1018 65 16093 3.6 200 18:18 05.12.2019
3198 Clear 4 1019 74 16093 2.6 210 17:39 05.12.2019
3199 Clear 4 1019 74 16093 2.6 210 17:39 05.12.2019
3200 Clouds 3 1018 74 16093 2.6 210 17:19 05.12.2019
3201 Clouds 2 1018 74 16093 2.6 210 16:55 05.12.2019
3202 Clear 1 1018 71 16093 2.87 245 16:37 05.12.2019
3203 Clear 1 1018 71 16093 2.87 245 16:19 05.12.2019
3204 Clouds 0 1018 80 16093 2.1 210 15:56 05.12.2019
3205 Clear -1 1018 100 16093 2.87 245 15:37 05.12.2019
3206 Clear -1 1018 100 16093 2.87 245 15:18 05.12.2019
3207 Clouds -3 1017 92 16093 1.5 160 14:55 05.12.2019
3208 Clear -3 1017 100 11265 2.87 245 14:36 05.12.2019
3209 Clouds -3 1017 86 16093 4.31 276 14:18 05.12.2019
3210 Clouds -3 1017 86 16093 4.31 276 13:55 05.12.2019
3211 Mist -3 1017 100 6437 4.31 276 13:37 05.12.2019
3212 Mist -3 1017 100 6437 3.53 278 13:18 05.12.2019
3213 Clear -3 1016 92 16093 3.53 278 12:43 05.12.2019
3214 Clear -3 1016 92 16093 3.53 278 12:43 05.12.2019
3215 Clear -3 1016 100 11265 3.53 278 12:24 05.12.2019
3216 Clear -3 1016 100 11265 3.53 278 12:24 05.12.2019
3217 Clear -3 1015 86 16093 3.53 278 11:56 05.12.2019
3218 Clear -3 1016 100 16093 3.53 278 11:38 05.12.2019
3219 Clear -3 1016 100 16093 6.03 310 11:20 05.12.2019
3220 Clear -2 1016 92 16093 2.1 220 10:56 05.12.2019
3221 Clear -2 1016 92 16093 2.1 220 10:38 05.12.2019
3222 Clear -2 1015 100 16093 6.03 310 10:18 05.12.2019
3223 Clear -2 1015 86 16093 1.5 240 09:45 05.12.2019
3224 Clear -2 1015 100 16093 6.03 310 09:23 05.12.2019
3225 Clear -2 1014 75 16093 2.1 250 08:59 05.12.2019
3226 Clear -2 1014 75 16093 2.1 250 08:38 05.12.2019
3227 Clear -2 1014 100 16093 2.6 270 08:20 05.12.2019
3228 Clear -1 1014 75 16093 1.5 250 07:50 05.12.2019
3229 Clear -1 1014 100 16093 1.5 250 07:32 05.12.2019
3230 Clear -1 1014 74 16093 2.1 290 06:58 05.12.2019
3231 Clear -1 1014 92 16093 2.6 280 06:40 05.12.2019
3232 Clear 0 1013 74 16093 2.1 290 06:19 05.12.2019
3233 Clear 0 1013 74 16093 1.5 290 05:47 05.12.2019
3234 Clear 0 1013 86 16093 9.8 315 05:23 05.12.2019
3235 Clear 1 1012 80 16093 2.6 300 04:20 05.12.2019
3236 Clear 2 1011 74 16093 1.5 300 02:43 05.12.2019
3237 Clear 3 1011 74 16093 4.6 280 02:24 05.12.2019
3238 Clouds 4 1010 64 16093 5.1 290 01:52 05.12.2019
3239 Clouds 4 1010 69 16093 4.1 280 01:27 05.12.2019
3240 Clouds 5 1009 60 16093 5.7 290 00:52 05.12.2019
3241 Clear 5 1009 69 16093 2.6 290 00:32 05.12.2019
3242 Clouds 5 1009 56 16093 5.7 300 23:58 04.12.2019
3243 Clear 5 1008 60 16093 5.7 280 23:39 04.12.2019
3244 Clear 5 1008 60 16093 5.7 280 23:21 04.12.2019
3245 Clear 6 1007 56 16093 5.7 290 22:55 04.12.2019
3246 Clear 6 1007 56 16093 5.1 290 22:36 04.12.2019
3247 Clear 6 1007 56 16093 5.1 290 22:18 04.12.2019
3248 Clear 6 1006 56 16093 5.7 290 21:54 04.12.2019
3249 Clear 6 1006 56 16093 8.2 280 21:36 04.12.2019
3250 Clouds 6 1006 52 16093 8.2 300 21:18 04.12.2019
3251 Clouds 5 1006 52 16093 8.2 300 20:56 04.12.2019
3252 Clouds 6 1006 71 16093 9.3 310 20:37 04.12.2019
3253 Clouds 6 1006 56 16093 6.7 290 20:19 04.12.2019
3254 Clouds 5 1005 60 16093 7.7 290 19:40 04.12.2019
3255 Clouds 5 1005 60 16093 7.7 290 19:21 04.12.2019
3256 Clouds 5 1005 60 16093 7.7 290 19:21 04.12.2019
3257 Clouds 5 1005 56 16093 8.7 300 18:58 04.12.2019
3258 Clear 5 1005 65 16093 5.1 290 18:58 04.12.2019
3259 Clear 5 1005 65 16093 5.7 290 18:40 04.12.2019
3260 Clear 4 1005 65 16093 5.7 290 18:21 04.12.2019
3261 Clouds 4 1005 60 16093 7.2 290 17:55 04.12.2019
3262 Clear 4 1005 69 16093 8.2 270 17:36 04.12.2019
3263 Clear 3 1005 64 16093 6.7 280 17:18 04.12.2019
3264 Clear 2 1005 74 16093 7.2 280 16:40 04.12.2019
3265 Clouds 1 1005 69 16093 5.1 290 16:20 04.12.2019
3266 Clouds 1 1005 69 16093 5.1 290 15:57 04.12.2019
3267 Clear 1 1004 80 16093 6.2 280 15:38 04.12.2019
3268 Clear 1 1004 80 16093 6.2 280 15:19 04.12.2019
3269 Clouds 0 1004 74 16093 4.1 270 14:57 04.12.2019
3270 Clear 0 1004 80 16093 5.1 280 14:39 04.12.2019
3271 Clear 0 1004 80 16093 5.1 280 14:20 04.12.2019
3272 Clear 0 1004 80 16093 5.7 280 13:39 04.12.2019
3273 Clear 0 1004 80 16093 5.7 280 13:20 04.12.2019
3274 Clouds 0 1003 81 16093 4.6 270 12:59 04.12.2019
3275 Clear 0 1003 81 16093 5.7 270 12:41 04.12.2019
3276 Clouds 0 1003 81 16093 5.1 270 12:23 04.12.2019
3277 Clear 0 1003 81 16093 3.6 280 11:43 04.12.2019
3278 Clear 0 1003 81 16093 5.1 270 11:24 04.12.2019
3279 Clouds 0 1002 74 16093 5.7 260 10:57 04.12.2019
3280 Clear 0 1003 73 16093 3.1 280 10:39 04.12.2019
3281 Clear 0 1003 73 16093 3.1 280 10:21 04.12.2019
3282 Clear 0 1003 86 16093 5.7 280 09:42 04.12.2019
3283 Clear 0 1003 86 16093 5.7 280 09:23 04.12.2019
3284 Clear 1 1003 73 16093 5.7 280 08:43 04.12.2019
3285 Clear 1 1003 77 16093 5.7 280 08:25 04.12.2019
3286 Clouds 1 1003 79 16093 5.7 270 07:51 04.12.2019
3287 Clouds 1 1002 79 16093 4.1 270 07:31 04.12.2019
3288 Clouds 1 1002 80 16093 4.6 270 06:57 04.12.2019
3289 Clear 1 1003 79 16093 3.6 260 06:31 04.12.2019
3290 Clear 2 1003 79 16093 3.6 240 05:43 04.12.2019
3291 Clear 2 1003 76 16093 4.1 250 04:34 04.12.2019
3292 Clear 2 1004 76 16093 2.1 250 03:47 04.12.2019
3293 Clouds 3 1005 71 16093 8.07 258 01:34 04.12.2019
3294 Clouds 3 1005 72 16093 8.47 258 00:47 04.12.2019
3295 Rain 3 1004 80 16093 8.47 258 00:21 04.12.2019
3296 Rain 3 1003 72 16093 2.6 240 23:43 03.12.2019
3297 Clear 4 1005 74 16093 4.1 240 23:20 03.12.2019
3298 Clouds 4 1004 64 16093 5.1 230 22:59 03.12.2019
3299 Clear 4 1005 69 16093 6.7 230 22:38 03.12.2019
3300 Clear 4 1005 69 16093 6.7 230 22:18 03.12.2019
3301 Rain 4 1004 64 16093 7.7 250 21:56 03.12.2019
3302 Rain 4 1005 69 16093 7.2 230 21:37 03.12.2019
3303 Rain 4 1005 69 16093 7.2 230 21:18 03.12.2019
3304 Rain 4 1005 74 16093 6.7 230 20:41 03.12.2019
3305 Clouds 3 1004 69 16093 8.2 240 20:20 03.12.2019
3306 Clouds 3 1006 80 16093 6.2 230 19:57 03.12.2019
3307 Clouds 3 1006 80 16093 5.7 220 19:38 03.12.2019
3308 Clouds 2 1006 80 16093 5.7 220 19:20 03.12.2019
3309 Clouds 1 1007 80 16093 6.7 220 18:59 03.12.2019
3310 Clouds 1 1007 86 16093 5.7 220 18:41 03.12.2019
3311 Clouds 1 1007 86 16093 5.7 220 18:21 03.12.2019
3312 Clouds 1 1008 67 16093 5.7 210 17:58 03.12.2019
3313 Clouds 0 1009 67 16093 6.2 210 17:38 03.12.2019
3314 Clouds 0 1009 71 16093 6.2 210 17:18 03.12.2019
3315 -273 0 0 0 0 0 16:58 03.12.2019
3316 Clouds 0 1009 71 16093 5.1 200 16:39 03.12.2019
3317 Clouds -1 1008 71 16093 6.7 200 16:20 03.12.2019
3318 Clouds -1 1008 71 16093 6.7 200 15:56 03.12.2019
3319 Clouds -1 1010 86 16093 6.7 200 15:38 03.12.2019
3320 Clouds -1 1010 86 16093 6.7 200 15:19 03.12.2019
3321 -273 0 0 0 0 0 14:42 03.12.2019
3322 Clouds -2 1011 86 16093 3.6 200 14:20 03.12.2019
3323 Clouds -2 1010 86 12874 5.1 220 13:56 03.12.2019
3324 Clouds -2 1012 92 16093 6.7 230 13:37 03.12.2019
3325 Clouds -2 1012 86 12874 5.7 220 13:19 03.12.2019
3326 Clouds -2 1013 92 16093 5.1 220 12:41 03.12.2019
3327 Clouds -2 1012 86 14484 6.2 220 12:19 03.12.2019
3328 Clouds -2 1012 86 14484 6.2 220 12:19 03.12.2019
3329 Clouds -2 1012 86 14484 6.2 220 12:19 03.12.2019
3330 Clouds -2 1012 86 14484 6.2 220 11:59 03.12.2019
3331 Clouds -2 1013 86 14484 6.2 240 11:39 03.12.2019
3332 Clouds -2 1014 92 16093 5.1 220 11:21 03.12.2019
3333 Clouds -1 1013 86 14484 5.1 230 10:59 03.12.2019
3334 Clouds -1 1014 86 16093 4.1 210 10:41 03.12.2019
3335 Clouds -1 1014 86 16093 4.1 210 10:20 03.12.2019
3336 Clouds -1 1015 76 16093 2.6 220 09:46 03.12.2019
3337 Clouds -1 1015 86 16093 4.6 230 09:26 03.12.2019
3338 Clouds -1 1015 76 16093 3.1 220 08:59 03.12.2019
3339 Clouds -1 1015 76 16093 3.1 220 08:40 03.12.2019
3340 Clouds -1 1016 86 16093 4.1 210 08:22 03.12.2019
3341 Clouds -1 1016 73 16093 2.1 230 07:54 03.12.2019
3342 Clouds -1 1016 86 16093 3.1 220 07:30 03.12.2019
3343 Clouds -1 1016 80 16093 4.1 210 06:59 03.12.2019
3344 Clouds -1 1017 86 16093 2.6 250 06:22 03.12.2019
3345 Rain -1 1017 74 16093 3.1 260 05:57 03.12.2019
3346 Clouds -1 1016 86 16093 1.5 210 04:48 03.12.2019
3347 Rain -1 1018 80 16093 2.6 260 03:38 03.12.2019
3348 Rain -1 1018 77 16093 2.1 280 03:18 03.12.2019
3349 Clouds -1 1018 77 16093 2.6 290 02:45 03.12.2019
3350 Clouds -1 1018 77 16093 2.6 290 02:25 03.12.2019
3351 Clear -1 1018 86 16093 5.03 323 01:42 03.12.2019
3352 Clouds -1 1018 72 16093 2.6 310 01:23 03.12.2019
3353 Clouds 0 1018 80 16093 3.1 280 00:44 03.12.2019
3354 Clouds 0 1018 80 16093 3.1 280 00:44 03.12.2019
3355 Clouds 0 1018 80 16093 3.1 280 00:26 03.12.2019
3356 Clouds 0 1018 74 16093 3.6 310 23:57 02.12.2019
3357 Clouds 0 1018 74 16093 3.1 290 23:39 02.12.2019
3358 Clouds 0 1018 74 16093 3.1 290 23:19 02.12.2019
3359 Clouds 0 1018 78 16093 4.6 330 22:40 02.12.2019
3360 Clouds 0 1017 69 16093 5.7 310 22:22 02.12.2019
3361 Clouds 0 1017 69 16093 3.6 300 21:58 02.12.2019
3362 Clouds 0 1016 69 16093 3.6 280 21:37 02.12.2019
3363 Clouds 0 1016 69 16093 3.6 280 21:37 02.12.2019
3364 Clouds 0 1016 64 16093 3.1 310 21:18 02.12.2019
3365 Clouds 1 1016 64 16093 3.1 310 20:56 02.12.2019
3366 Clouds 1 1016 69 16093 3.1 330 20:38 02.12.2019
3367 Clouds 1 1016 69 16093 3.1 330 20:19 02.12.2019
3368 Clouds 1 1016 69 16093 3.1 330 20:19 02.12.2019
3369 Clouds 1 1016 74 16093 2.1 310 19:42 02.12.2019
3370 Rain 1 1016 69 16093 3.6 340 19:22 02.12.2019
3371 Rain 1 1016 64 16093 3.1 330 18:59 02.12.2019
3372 Rain 1 1016 69 16093 3.6 360 18:59 02.12.2019
3373 Rain 1 1017 64 16093 4.1 330 18:39 02.12.2019
3374 Clouds 1 1017 69 16093 3.6 330 18:19 02.12.2019
3375 Clouds 1 1017 64 16093 4.6 330 17:57 02.12.2019
3376 Clouds 0 1017 83 16093 5.1 10 17:39 02.12.2019
3377 Clouds 0 1017 84 16093 4.1 330 17:19 02.12.2019
3378 -273 0 0 0 0 0 16:40 02.12.2019
3379 Clouds -1 1017 84 16093 4.6 330 16:19 02.12.2019
3380 Clouds -1 1016 84 16093 4.6 330 15:58 02.12.2019
3381 Clouds -1 1016 84 16093 4.6 340 15:40 02.12.2019
3382 Clouds -1 1016 84 16093 4.6 340 15:22 02.12.2019
3383 Rain -1 1016 68 16093 6.2 330 14:59 02.12.2019
3384 Rain -2 1015 84 16093 3.6 320 14:38 02.12.2019
3385 Rain -1 1015 84 16093 3.6 320 14:20 02.12.2019
3386 Clouds -1 1015 80 16093 6.7 330 13:57 02.12.2019
3387 Clouds -1 1014 84 16093 4.6 340 13:39 02.12.2019
3388 Clouds -1 1014 89 16093 4.6 340 13:19 02.12.2019
3389 Clouds -1 1014 89 16093 6.2 330 12:55 02.12.2019
3390 Clouds -1 1014 80 16093 4.6 330 12:37 02.12.2019
3391 Clouds -1 1013 89 16093 6.2 330 12:18 02.12.2019
3392 Clouds -1 1013 89 16093 5.1 320 11:38 02.12.2019
3393 Clouds -1 1012 81 16093 4.1 330 11:20 02.12.2019
3394 Clouds -1 1011 86 16093 8.2 320 10:58 02.12.2019
3395 Clouds -1 1011 86 16093 8.2 320 10:40 02.12.2019
3396 Clouds -1 1011 81 16093 6.7 330 10:22 02.12.2019
3397 Clouds -1 1011 81 16093 8.2 330 09:56 02.12.2019
3398 Clouds -1 1009 81 16093 5.1 320 09:38 02.12.2019
3399 Clouds -1 1010 81 16093 7.7 330 09:18 02.12.2019
3400 Clouds -1 1010 81 16093 7.7 330 09:18 02.12.2019
3401 Clouds -1 1009 81 16093 5.1 320 09:18 02.12.2019
3402 Clouds -1 1010 81 16093 7.7 330 08:55 02.12.2019
3403 Clouds -1 1008 81 16093 5.7 330 08:37 02.12.2019
3404 Rain -1 1008 78 16093 5.7 330 08:18 02.12.2019
3405 Rain -1 1008 78 4828 6.7 310 07:39 02.12.2019
3406 Snow 0 1008 78 16093 4.6 320 07:20 02.12.2019
3407 Clouds 0 1008 86 16093 7.7 340 06:43 02.12.2019
3408 Clouds 0 1007 86 16093 5.7 330 06:20 02.12.2019
3409 Rain 0 1006 86 16093 5.1 340 05:19 02.12.2019
3410 Snow 0 1005 93 11265 4.1 330 04:19 02.12.2019
3411 Rain 0 1003 93 8047 6.7 330 02:51 02.12.2019
3412 Rain 0 1003 93 8047 6.7 330 02:51 02.12.2019
3413 Rain 1 1002 89 4023 4.6 330 01:50 02.12.2019
3414 Rain 1 1001 100 16093 4.1 320 01:21 02.12.2019
3415 Rain 2 1001 90 16093 7.2 330 00:41 02.12.2019
3416 Rain 2 1000 100 11265 3.1 10 00:22 02.12.2019
3417 Rain 3 999 86 16093 4.6 330 23:43 01.12.2019
3418 Rain 3 999 93 16093 2.6 290 23:22 01.12.2019
3419 Rain 3 998 86 16093 5.7 270 22:57 01.12.2019
3420 Rain 3 998 93 8047 6.7 330 22:57 01.12.2019
3421 Rain 3 998 80 16093 3.6 330 22:38 01.12.2019
3422 Rain 3 997 86 16093 6.2 270 22:19 01.12.2019
3423 Rain 3 997 86 14484 4.6 270 21:57 01.12.2019
3424 Rain 3 996 93 11265 2.6 290 21:39 01.12.2019
3425 Rain 3 996 86 16093 5.1 260 21:20 01.12.2019
3426 Rain 3 996 86 14484 4.6 280 20:58 01.12.2019
3427 Rain 3 995 86 11265 2.6 270 20:39 01.12.2019
3428 Rain 4 996 86 16093 6.2 250 20:21 01.12.2019
3429 Rain 4 996 100 16093 5.1 230 19:58 01.12.2019
3430 Rain 4 995 86 16093 6.2 250 19:39 01.12.2019
3431 Rain 4 995 86 16093 6.2 250 19:20 01.12.2019
3432 Rain 4 995 80 16093 6.2 260 18:56 01.12.2019
3433 Rain 4 994 75 16093 7.2 250 18:38 01.12.2019
3434 Thunderstorm 4 995 86 16093 6.7 240 18:19 01.12.2019
3435 Rain 4 995 86 16093 6.7 240 17:56 01.12.2019
3436 Clouds 4 995 80 16093 6.2 250 17:38 01.12.2019
3437 Clouds 4 994 75 16093 8.2 250 17:20 01.12.2019
3438 Clouds 4 995 80 16093 6.2 250 17:20 01.12.2019
3439 Clouds 4 994 75 16093 8.2 250 16:54 01.12.2019
3440 Clouds 4 993 86 16093 4.6 240 16:36 01.12.2019
3441 Clouds 4 994 80 16093 6.7 240 16:18 01.12.2019
3442 Rain 4 994 86 16093 6.2 260 15:44 01.12.2019
3443 Rain 4 994 86 16093 6.2 260 15:26 01.12.2019
3444 Rain 4 994 86 16093 6.2 260 15:26 01.12.2019
3445 Rain 4 994 86 16093 6.2 260 15:26 01.12.2019
3446 Rain 4 994 86 16093 6.2 260 15:26 01.12.2019
3447 Rain 4 994 86 16093 6.2 260 15:26 01.12.2019
3448 Mist 4 993 100 6437 2.1 210 14:39 01.12.2019
3449 Clouds 4 994 93 16093 4.1 250 14:19 01.12.2019
3450 Mist 5 993 100 2012 3.25 219 13:43 01.12.2019
3451 Clouds 5 993 100 16093 3.6 230 13:25 01.12.2019
3452 Clouds 5 993 100 16093 3.6 230 13:25 01.12.2019
3453 Clouds 5 993 100 16093 3.6 230 13:25 01.12.2019
3454 Clouds 5 993 100 16093 3.6 230 13:25 01.12.2019
3455 Mist 5 993 100 9656 2.1 230 12:59 01.12.2019
3456 Mist 5 993 100 9656 2.1 220 12:40 01.12.2019
3457 Mist 5 993 100 9656 2.1 220 12:40 01.12.2019
3458 Rain 5 993 100 4828 2.1 220 11:54 01.12.2019
3459 Rain 5 992 100 1609 4.96 224 11:36 01.12.2019
3460 Mist 5 992 100 1207 2.1 190 11:18 01.12.2019
3461 Mist 5 992 100 1207 2.1 190 11:18 01.12.2019
3462 Mist 5 993 87 6437 1.5 20 10:42 01.12.2019
3463 Rain 5 994 93 9656 1.17 188 10:20 01.12.2019
3464 Rain 5 994 86 8047 2.1 100 09:42 01.12.2019
3465 Clouds 5 994 100 11265 2.1 160 09:23 01.12.2019
3466 Rain 5 995 100 16093 3.6 140 08:57 01.12.2019
3467 Rain 5 994 100 16093 4.1 130 08:37 01.12.2019
3468 Rain 5 994 100 16093 4.1 130 08:18 01.12.2019
3469 Rain 5 994 93 16093 2.1 170 07:47 01.12.2019
3470 Rain 4 996 100 16093 4.1 140 07:28 01.12.2019
3471 Rain 4 996 100 8047 4.6 150 06:52 01.12.2019
3472 Rain 4 997 93 4828 2.6 150 05:58 01.12.2019
3473 Rain 4 997 100 8047 5.1 140 05:34 01.12.2019
3474 Rain 4 998 100 3219 7.2 140 04:29 01.12.2019
3475 Rain 4 1000 100 4023 7.2 130 02:46 01.12.2019
3476 Rain 4 1000 100 4023 7.2 130 02:27 01.12.2019
3477 Drizzle 3 1001 93 3219 7.2 120 01:54 01.12.2019
3478 Mist 3 1001 100 3219 9.8 120 01:31 01.12.2019
3479 Drizzle 3 1001 93 9656 11.3 110 00:50 01.12.2019
3480 Rain 3 1003 100 11265 7.2 110 00:27 01.12.2019
3481 Clouds 4 1004 93 16093 9.3 120 23:57 30.11.2019
3482 Clouds 4 1004 86 11265 7.7 130 23:39 30.11.2019
3483 Clouds 4 1004 86 11265 7.7 130 23:20 30.11.2019
3484 Rain 4 1005 86 16093 6.2 140 22:46 30.11.2019
3485 Rain 4 1005 86 16093 6.2 140 22:28 30.11.2019
3486 Rain 3 1004 93 11265 6.7 100 21:54 30.11.2019
3487 Rain 3 1004 93 16093 8.2 120 21:36 30.11.2019
3488 Rain 3 1004 93 16093 8.2 120 21:18 30.11.2019
3489 Rain 3 1005 86 12874 6.2 120 20:54 30.11.2019
3490 Rain 3 1006 86 8047 6.7 110 20:36 30.11.2019
3491 Rain 3 1007 93 16093 6.7 120 20:18 30.11.2019
3492 Rain 2 1007 93 9656 8.2 110 19:54 30.11.2019
3493 Rain 2 1008 93 9656 6.7 110 19:36 30.11.2019
3494 Rain 2 1009 100 3219 7.2 120 19:18 30.11.2019
3495 Rain 2 1013 93 11265 4.6 130 18:39 30.11.2019
3496 Rain 2 1013 93 11265 4.6 130 18:21 30.11.2019
3497 Rain 2 1012 86 6437 6.2 120 17:59 30.11.2019
3498 Rain 2 1012 93 4828 7.2 100 17:41 30.11.2019
3499 Rain 2 1011 100 3219 6.2 90 17:23 30.11.2019
3500 Drizzle 2 1012 93 2012 6.7 100 16:59 30.11.2019
3501 Mist 2 1011 93 4828 8.2 90 16:40 30.11.2019
3502 Mist 2 1013 100 2816 5.7 90 16:22 30.11.2019
3503 Rain 2 1014 100 3219 4.6 90 15:54 30.11.2019
3504 Drizzle 2 1014 93 2816 6.2 100 15:36 30.11.2019
3505 Rain 2 1014 100 2816 4.6 90 15:18 30.11.2019
3506 Rain 2 1015 100 1609 5.1 100 14:55 30.11.2019
3507 Mist 2 1014 86 3219 8.2 100 14:36 30.11.2019
3508 Clouds 2 1015 100 8047 5.1 90 14:18 30.11.2019
3509 Clouds 3 1014 86 8047 4.6 100 13:42 30.11.2019
3510 Clouds 3 1015 100 11265 4.1 80 13:24 30.11.2019
3511 Clouds 3 1015 100 11265 4.1 80 12:57 30.11.2019
3512 Mist 3 1015 100 8047 3.6 80 12:39 30.11.2019
3513 Drizzle 3 1015 86 8047 4.6 90 12:18 30.11.2019
3514 Rain 3 1017 93 8047 2.6 130 11:41 30.11.2019
3515 Rain 3 1017 86 8047 4.1 140 11:19 30.11.2019
3516 Rain 3 1017 86 8047 4.1 140 10:55 30.11.2019
3517 Rain 3 1016 93 8047 5.7 110 10:37 30.11.2019
3518 Drizzle 3 1016 100 8047 4.6 130 10:18 30.11.2019
3519 Rain 3 1016 93 16093 4.6 100 09:43 30.11.2019
3520 Rain 3 1017 93 8047 3.6 110 09:21 30.11.2019
3521 Rain 3 1018 93 16093 3.1 90 08:43 30.11.2019
3522 Rain 3 1018 93 16093 3.1 90 08:20 30.11.2019
3523 Rain 3 1018 80 12874 3.6 110 07:54 30.11.2019
3524 Clouds 3 1020 80 14484 2.1 160 07:36 30.11.2019
3525 Clouds 3 1019 80 16093 3.1 100 06:49 30.11.2019
3526 Clouds 3 1020 86 16093 3.6 110 06:28 30.11.2019
3527 Clouds 3 1020 86 16093 3.6 110 06:28 30.11.2019
3528 Clouds 3 1020 86 16093 5.1 120 05:33 30.11.2019
3529 Clouds 3 1023 86 16093 2.1 130 03:42 30.11.2019
3530 Clouds 3 1023 93 16093 5.94 120 02:39 30.11.2019
3531 Clouds 3 1023 93 16093 5.78 108 02:20 30.11.2019
3532 Clouds 3 1024 93 16093 2.1 90 01:25 30.11.2019
3533 Clouds 3 1024 86 16093 2.6 80 00:48 30.11.2019
3534 Clouds 3 1024 86 16093 2.6 90 00:30 30.11.2019
3535 Clouds 3 1024 80 16093 3.6 70 23:57 29.11.2019
3536 Clouds 3 1024 80 16093 3.6 80 23:38 29.11.2019
3537 Clouds 3 1024 80 16093 3.1 80 23:18 29.11.2019
3538 Clouds 3 1025 80 16093 2.6 30 22:40 29.11.2019
3539 Clouds 3 1025 80 16093 3.62 79 22:21 29.11.2019
3540 Clouds 4 1025 80 16093 3.62 79 21:43 29.11.2019
3541 Clouds 4 1025 80 16093 3.62 79 21:23 29.11.2019
3542 Clouds 4 1024 80 12874 2.6 110 20:57 29.11.2019
3543 Clouds 4 1024 80 16093 3.1 60 20:38 29.11.2019
3544 Clouds 4 1025 80 11265 1.5 60 20:19 29.11.2019
3545 Clouds 4 1025 80 16093 4.27 99 19:56 29.11.2019
3546 Clouds 4 1026 80 16093 2.1 20 19:38 29.11.2019
3547 Clouds 4 1026 80 16093 4.27 99 19:19 29.11.2019
3548 Clouds 3 1026 80 12874 4.27 99 18:55 29.11.2019
3549 Clouds 3 1027 93 16093 2.1 150 18:37 29.11.2019
3550 Clouds 3 1027 93 16093 2.1 150 18:19 29.11.2019
3551 Clouds 3 1028 93 16093 2.6 20 17:43 29.11.2019
3552 Clouds 3 1028 93 11265 3.3 86 17:23 29.11.2019
3553 Mist 2 1029 100 6437 3.3 86 16:56 29.11.2019
3554 Rain 2 1029 86 6437 2.1 340 16:37 29.11.2019
3555 Clouds 2 1029 93 12874 3.3 86 16:18 29.11.2019
3556 Mist 2 1029 100 6437 3.3 86 15:40 29.11.2019
3557 Mist 2 1029 100 6437 3.3 86 15:21 29.11.2019
3558 Mist 1 1029 100 8047 3.3 86 14:42 29.11.2019
3559 Mist 1 1029 100 8047 2.51 100 14:22 29.11.2019
3560 Mist 1 1029 93 9656 2.1 300 13:59 29.11.2019
3561 Rain 1 1028 93 8047 2.1 330 13:39 29.11.2019
3562 Rain 1 1029 100 8047 3.23 97 13:20 29.11.2019
3563 Rain 1 1028 74 16093 2.6 20 12:45 29.11.2019
3564 Rain 1 1029 93 6437 2.1 10 12:25 29.11.2019
3565 Rain 1 1029 93 6437 2.1 10 11:59 29.11.2019
3566 Rain 1 1029 100 11265 1.5 300 11:41 29.11.2019
3567 Rain 1 1029 100 11265 1.5 300 11:19 29.11.2019
3568 Rain 1 1029 100 11265 1.5 300 11:19 29.11.2019
3569 Drizzle 1 1029 93 8047 2.1 330 10:59 29.11.2019
3570 Drizzle 1 1029 93 8047 2.1 330 10:59 29.11.2019
3571 Rain 1 1030 93 9656 3.1 330 10:39 29.11.2019
3572 Rain 1 1029 100 16093 1.79 85 10:21 29.11.2019
3573 Rain 1 1029 93 9656 3.1 330 09:59 29.11.2019
3574 Clouds 1 1030 80 16093 2.1 350 09:40 29.11.2019
3575 Clouds 1 1030 79 16093 2.6 350 09:22 29.11.2019
3576 Rain 1 1030 93 9656 2.6 340 08:58 29.11.2019
3577 Mist 1 1030 93 9656 3.1 330 08:38 29.11.2019
3578 Clouds 1 1030 100 16093 2.1 260 08:20 29.11.2019
3579 Rain 1 1030 100 16093 3.45 62 07:47 29.11.2019
3580 Drizzle 1 1030 93 4828 3.6 320 07:23 29.11.2019
3581 Rain 2 1030 93 16093 3.45 62 06:58 29.11.2019
3582 Rain 2 1030 86 16093 3.45 62 06:37 29.11.2019
3583 Snow 2 1031 86 4023 2.1 350 05:47 29.11.2019
3584 Rain 2 1030 86 16093 5.15 28 05:23 29.11.2019
3585 Clouds 2 1031 86 14484 2.6 10 03:58 29.11.2019
3586 Clouds 2 1031 93 16093 1.5 330 03:19 29.11.2019
3587 Clouds 2 1031 93 16093 2.1 360 02:28 29.11.2019
3588 Drizzle 2 1032 81 16093 4.1 360 01:51 29.11.2019
3589 Clouds 2 1032 80 16093 2.6 360 01:25 29.11.2019
3590 Clouds 2 1031 74 16093 2.1 360 00:42 29.11.2019
3591 Clouds 2 1032 80 16093 2.6 10 00:20 29.11.2019
3592 Clouds 2 1031 80 16093 2.6 20 23:46 28.11.2019
3593 Clouds 2 1031 80 16093 2.6 20 23:22 28.11.2019
3594 Clouds 2 1031 69 16093 3.1 350 22:59 28.11.2019
3595 Clouds 2 1032 80 16093 2.6 10 22:38 28.11.2019
3596 Clouds 2 1032 80 16093 2.6 10 22:38 28.11.2019
3597 Clouds 2 1032 80 16093 2.6 10 22:20 28.11.2019
3598 Clouds 3 1032 69 16093 2.1 320 21:58 28.11.2019
3599 Clouds 3 1032 80 16093 2.6 340 21:40 28.11.2019
3600 Clouds 3 1032 80 16093 2.6 340 21:19 28.11.2019
3601 Clouds 3 1031 69 16093 2.6 330 20:56 28.11.2019
3602 Clouds 2 1031 74 16093 4.71 327 20:38 28.11.2019
3603 Clouds 2 1031 74 16093 4.67 349 20:18 28.11.2019
3604 Clouds 2 1031 69 16093 3.6 360 19:55 28.11.2019
3605 Clouds 2 1032 80 16093 4.67 349 19:36 28.11.2019
3606 Clouds 2 1032 80 16093 4.67 349 19:18 28.11.2019
3607 Clouds 2 1033 74 16093 4.67 349 18:55 28.11.2019
3608 Clouds 2 1033 74 16093 4.67 349 18:37 28.11.2019
3609 Clouds 2 1033 74 16093 4.67 349 18:18 28.11.2019
3610 Clouds 1 1033 69 16093 4.67 349 17:41 28.11.2019
3611 Clouds 1 1033 69 16093 6.66 356 17:23 28.11.2019
3612 Clouds 1 1033 74 16093 6.66 356 16:58 28.11.2019
3613 Clouds 1 1033 74 16093 6.66 356 16:38 28.11.2019
3614 Clouds 1 1033 74 16093 6.66 356 16:19 28.11.2019
3615 Clouds 1 1033 69 16093 2.6 340 16:19 28.11.2019
3616 Clouds 1 1033 69 16093 6.66 356 15:43 28.11.2019
3617 Clouds 0 1033 69 16093 6.66 356 15:21 28.11.2019
3618 Clouds 0 1033 69 16093 3.6 340 14:59 28.11.2019
3619 Clouds 0 1032 75 16093 4.1 330 14:41 28.11.2019
3620 Clouds 0 1032 75 16093 4.1 330 14:41 28.11.2019
3621 Clouds 0 1032 74 16093 7.67 346 14:22 28.11.2019
3622 Clouds 0 1031 74 16093 7.67 346 13:59 28.11.2019
3623 Clouds 0 1031 74 16093 7.67 346 13:40 28.11.2019
3624 Clouds 0 1031 75 16093 8.78 345 13:21 28.11.2019
3625 Clouds 0 1030 75 16093 3.6 350 12:48 28.11.2019
3626 Clouds 0 1030 75 16093 5.7 340 12:29 28.11.2019
3627 Clouds 0 1030 59 16093 5.1 340 11:59 28.11.2019
3628 Clouds 0 1030 75 16093 4.1 320 11:40 28.11.2019
3629 Clouds 0 1030 75 16093 4.1 320 11:21 28.11.2019
3630 Clouds 0 1030 59 16093 5.7 330 10:57 28.11.2019
3631 Clouds 0 1029 59 16093 5.1 310 10:38 28.11.2019
3632 Clouds 0 1028 75 16093 6.2 330 10:18 28.11.2019
3633 Clouds 0 1027 59 16093 8.2 340 09:41 28.11.2019
3634 Clouds 0 1027 75 16093 4.1 340 09:23 28.11.2019
3635 Clouds 0 1027 64 16093 7.7 330 08:58 28.11.2019
3636 Clouds 0 1027 64 16093 7.7 330 08:58 28.11.2019
3637 Clouds 0 1028 59 16093 5.1 310 08:38 28.11.2019
3638 Clouds 0 1027 69 16093 3.1 330 08:20 28.11.2019
3639 Clouds 0 1026 59 16093 8.2 320 07:42 28.11.2019
3640 Clouds 1 1026 69 16093 6.2 310 07:24 28.11.2019
3641 Clouds 1 1026 69 16093 6.2 310 07:24 28.11.2019
3642 Clouds 1 1026 69 16093 6.2 310 07:23 28.11.2019
3643 Clouds 1 1025 59 16093 7.2 300 06:44 28.11.2019
3644 Clouds 1 1025 74 16093 3.1 300 06:22 28.11.2019
3645 Clouds 1 1024 59 16093 8.2 280 05:46 28.11.2019
3646 Clouds 1 1023 64 16093 8.2 290 05:18 28.11.2019
3647 Clouds 2 1019 64 16093 8.2 310 02:37 28.11.2019
3648 Clouds 2 1017 69 16093 8.2 280 01:40 28.11.2019
3649 Clouds 2 1016 74 16093 5.1 290 00:44 28.11.2019
3650 Rain 2 1015 69 16093 7.7 280 00:22 28.11.2019
3651 Rain 2 1013 64 16093 9.8 290 23:54 27.11.2019
3652 Clouds 3 1013 64 16093 9.8 290 23:36 27.11.2019
3653 Clouds 3 1013 74 16093 6.2 290 23:18 27.11.2019
3654 Rain 3 1011 74 16093 10.3 280 22:38 27.11.2019
3655 Rain 3 1011 74 16093 10.3 280 22:20 27.11.2019
3656 Rain 3 1009 64 16093 14.9 280 21:56 27.11.2019
3657 Rain 3 1007 69 16093 11.3 280 21:37 27.11.2019
3658 Rain 3 1007 69 16093 11.3 280 21:37 27.11.2019
3659 Rain 3 1006 69 16093 13.4 280 21:19 27.11.2019
3660 Rain 3 1006 69 16093 13.4 280 20:58 27.11.2019
3661 Rain 3 1006 69 16093 13.4 280 20:58 27.11.2019
3662 Rain 3 1005 70 16093 12.3 270 20:39 27.11.2019
3663 Rain 4 1005 77 16093 12.3 270 20:20 27.11.2019
3664 Rain 4 1004 69 16093 15.4 270 19:57 27.11.2019
3665 Clouds 4 1003 77 16093 11.3 270 19:39 27.11.2019
3666 Rain 4 1003 77 16093 11.3 270 19:19 27.11.2019
3667 Rain 4 1002 69 16093 13.9 270 18:58 27.11.2019
3668 Rain 4 1002 69 16093 13.9 270 18:58 27.11.2019
3669 Clouds 4 1001 77 16093 15.4 270 18:37 27.11.2019
3670 Rain 4 1000 69 16093 13.9 260 18:19 27.11.2019
3671 Rain 4 1001 77 16093 15.9 260 17:56 27.11.2019
3672 Rain 4 1000 77 16093 13.9 260 17:37 27.11.2019
3673 Clouds 4 1000 76 16093 13.9 260 17:18 27.11.2019
3674 Clouds 4 999 76 16093 10.3 250 16:56 27.11.2019
3675 Clouds 4 998 80 16093 13.9 240 16:36 27.11.2019
3676 Rain 4 998 80 16093 13.9 240 16:18 27.11.2019
3677 Rain 5 997 70 16093 14.9 250 15:56 27.11.2019
3678 Rain 5 997 70 16093 14.9 250 15:56 27.11.2019
3679 Rain 5 996 80 16093 10.8 240 15:38 27.11.2019
3680 Rain 6 997 87 16093 15.4 260 15:20 27.11.2019
3681 Rain 6 995 75 16093 11.8 240 14:56 27.11.2019
3682 Rain 7 995 81 16093 11.8 240 14:38 27.11.2019
3683 Clouds 7 995 81 16093 11.8 240 14:20 27.11.2019
3684 Rain 8 993 75 16093 10.8 240 13:55 27.11.2019
3685 Rain 8 992 70 16093 12.3 230 13:37 27.11.2019
3686 Rain 8 994 76 16093 10.3 240 13:18 27.11.2019
3687 Rain 8 994 76 16093 10.3 240 13:18 27.11.2019
3688 Rain 10 992 87 16093 9.8 210 12:41 27.11.2019
3689 Rain 10 992 87 16093 9.8 210 12:22 27.11.2019
3690 Rain 10 992 81 16093 10.21 214 11:56 27.11.2019
3691 Rain 10 993 87 16093 5.1 210 11:37 27.11.2019
3692 Rain 10 992 81 16093 5.7 200 11:18 27.11.2019
3693 Rain 11 991 87 16093 4.1 210 10:46 27.11.2019
3694 Rain 11 994 93 16093 6.2 210 10:24 27.11.2019
3695 Rain 12 993 93 4828 8.2 190 09:57 27.11.2019
3696 Rain 12 992 93 12874 5.1 180 09:39 27.11.2019
3697 Rain 12 992 87 16093 8.2 220 09:18 27.11.2019
3698 Rain 13 994 93 11265 7.7 170 08:42 27.11.2019
3699 Rain 13 996 93 16093 8.7 180 08:23 27.11.2019
3700 Rain 12 995 93 16093 8.2 180 07:49 27.11.2019
3701 Rain 11 996 93 16093 7.7 170 07:29 27.11.2019
3702 Rain 11 997 87 6437 3.1 130 06:55 27.11.2019
3703 Rain 10 997 100 16093 5.1 160 06:37 27.11.2019
3704 Rain 9 998 93 4828 5.1 150 05:53 27.11.2019
3705 Rain 8 999 100 16093 5.7 150 05:26 27.11.2019
3706 Rain 8 999 93 4023 3.6 90 04:49 27.11.2019
3707 Rain 8 999 93 4023 3.6 90 04:31 27.11.2019
3708 Rain 7 1001 93 4023 4.1 80 03:43 27.11.2019
3709 Drizzle 7 1002 93 2012 5.1 70 03:20 27.11.2019
3710 Drizzle 7 1003 93 2414 4.1 60 02:32 27.11.2019
3711 Rain 6 1004 87 2816 5.7 70 00:50 27.11.2019
3712 Rain 6 1004 87 2816 5.7 70 00:31 27.11.2019
3713 Rain 6 1005 100 16093 3.1 100 23:56 26.11.2019
3714 Rain 6 1005 100 11265 3.1 90 23:38 26.11.2019
3715 Rain 6 1005 81 9656 5.1 80 23:19 26.11.2019
3716 Rain 6 1006 87 11265 2.6 100 22:40 26.11.2019
3717 Rain 6 1006 87 16093 5.7 60 22:40 26.11.2019
3718 Rain 6 1006 87 16093 5.7 60 22:40 26.11.2019
3719 Rain 6 1006 87 11265 2.1 110 22:20 26.11.2019
3720 Rain 7 1007 65 16093 5.1 80 21:59 26.11.2019
3721 Clouds 7 1007 65 16093 5.1 80 21:39 26.11.2019
3722 Clouds 7 1007 70 16093 2.1 60 21:21 26.11.2019
3723 Clouds 8 1007 70 16093 5.1 70 20:57 26.11.2019
3724 Clouds 8 1007 75 16093 3.1 50 20:37 26.11.2019
3725 Clouds 8 1007 75 16093 3.1 50 20:19 26.11.2019
3726 Clouds 8 1009 70 16093 4.1 40 19:55 26.11.2019
3727 Clouds 8 1009 70 16093 4.1 40 19:55 26.11.2019
3728 Clouds 8 1009 70 16093 3.6 30 19:37 26.11.2019
3729 Clouds 8 1009 65 16093 4.1 100 19:19 26.11.2019
3730 Clear 8 1009 66 16093 2.6 30 18:57 26.11.2019
3731 Clear 8 1010 66 16093 3.6 40 18:39 26.11.2019
3732 Clouds 7 1010 65 16093 5.7 70 18:21 26.11.2019
3733 Clear 7 1010 70 16093 3.6 70 17:58 26.11.2019
3734 Clear 7 1011 70 16093 3.1 70 17:39 26.11.2019
3735 Clear 6 1010 70 16093 3.1 80 17:21 26.11.2019
3736 Clear 5 1011 81 16093 3.1 60 16:57 26.11.2019
3737 Clear 5 1011 86 16093 2.1 90 16:37 26.11.2019
3738 Clear 5 1011 86 16093 2.1 90 16:18 26.11.2019
3739 Clouds 4 1011 75 16093 3.1 50 15:58 26.11.2019
3740 Mist 2 1012 100 8047 4.56 48 15:37 26.11.2019
3741 Mist 2 1012 100 8047 4.56 48 15:37 26.11.2019
3742 Mist 2 1012 100 8047 4.56 48 15:19 26.11.2019
3743 Mist 0 1011 100 6437 4.56 48 14:47 26.11.2019
3744 Mist -1 1011 100 6437 4.56 48 14:25 26.11.2019
3745 Mist -1 1011 100 6437 2.22 351 14:25 26.11.2019
3746 Mist -1 1011 100 4828 2.22 351 13:57 26.11.2019
3747 Clear -1 1010 100 11265 2.22 351 13:38 26.11.2019
3748 Clear -1 1010 100 11265 2.22 351 13:19 26.11.2019
3749 Mist 0 1010 100 4023 2.79 352 12:38 26.11.2019
3750 Mist 0 1010 100 4023 2.79 352 12:38 26.11.2019
3751 Mist 0 1010 100 4023 2.79 352 12:20 26.11.2019
3752 Mist 0 1009 100 4828 2.79 352 11:58 26.11.2019
3753 Mist 0 1009 100 4828 2.79 352 11:38 26.11.2019
3754 Mist 0 1009 100 4828 4.09 317 11:20 26.11.2019
3755 Clouds 0 1009 86 16093 4.09 317 10:57 26.11.2019
3756 Fog 0 1008 100 805 4.09 317 10:39 26.11.2019
3757 Fog 0 1008 100 805 4.09 317 10:20 26.11.2019
3758 Clouds 0 1008 80 16093 4.09 317 09:55 26.11.2019
3759 Mist 1 1008 100 1207 4.09 317 09:37 26.11.2019
3760 Mist 1 1008 100 1207 4.09 317 09:18 26.11.2019
3761 Mist 2 1008 93 8047 4.09 317 08:43 26.11.2019
3762 Mist 2 1008 100 6437 1.5 190 08:22 26.11.2019
3763 Clear 2 1008 100 16093 3.73 293 07:44 26.11.2019
3764 Mist 3 1007 82 4828 3.73 293 07:25 26.11.2019
3765 Mist 3 1008 93 8047 3.73 293 06:55 26.11.2019
3766 Clear 4 1007 100 11265 1.5 200 06:30 26.11.2019
3767 Clear 4 1007 81 16093 1.5 250 05:41 26.11.2019
3768 Clouds 6 1006 70 16093 2.6 260 03:59 26.11.2019
3769 Clear 6 1005 81 16093 3.6 260 02:26 26.11.2019
3770 Clear 7 1004 93 16093 2.1 220 01:32 26.11.2019
3771 Clear 8 1003 87 16093 2.1 200 00:50 26.11.2019
3772 Clear 8 1003 87 16093 2.1 200 00:25 26.11.2019
3773 Clear 10 1003 76 16093 2.6 210 23:40 25.11.2019
3774 Clear 10 1002 66 16093 1.5 230 23:21 25.11.2019
3775 Clouds 11 1002 58 16093 3.1 210 22:58 25.11.2019
3776 Clear 11 1003 66 16093 4.1 210 22:38 25.11.2019
3777 Clear 12 1003 66 16093 4.1 210 22:18 25.11.2019
3778 Clear 12 1002 76 16093 4.1 180 21:58 25.11.2019
3779 Clear 12 1002 66 16093 5.7 200 21:39 25.11.2019
3780 Clear 12 1002 66 16093 5.7 200 21:20 25.11.2019
3781 Clear 11 1002 71 16093 4.6 200 20:56 25.11.2019
3782 Clear 11 1002 71 16093 4.6 190 20:38 25.11.2019
3783 Clear 11 1002 71 16093 4.6 190 20:19 25.11.2019
3784 Clear 10 1003 76 16093 5.7 220 19:56 25.11.2019
3785 Clear 10 1003 76 16093 5.7 220 19:56 25.11.2019
3786 Clear 10 1003 71 16093 3.6 190 19:37 25.11.2019
3787 Clear 10 1003 71 16093 3.6 190 19:37 25.11.2019
3788 Clouds 10 1002 61 16093 3.6 180 19:18 25.11.2019
3789 Clouds 9 1002 61 16093 3.6 180 18:56 25.11.2019
3790 Clear 8 1003 81 16093 4.1 200 18:38 25.11.2019
3791 Clouds 8 1002 70 16093 2.6 200 18:19 25.11.2019
3792 Clear 7 1004 87 16093 4.1 210 17:56 25.11.2019
3793 Clear 7 1004 81 16093 4.1 210 17:37 25.11.2019
3794 Clouds 6 1003 81 16093 2.6 210 17:19 25.11.2019
3795 Clouds 5 1004 75 16093 2.6 190 16:55 25.11.2019
3796 Clear 5 1004 93 16093 2.6 200 16:37 25.11.2019
3797 Clear 5 1004 93 16093 2.6 200 16:18 25.11.2019
3798 Clear 4 1003 93 16093 2.6 200 15:41 25.11.2019
3799 Clouds 3 1003 86 16093 3.6 210 15:21 25.11.2019
3800 Clear 2 1003 93 16093 2.6 190 14:57 25.11.2019
3801 Clear 2 1003 93 16093 2.1 190 14:39 25.11.2019
3802 Clouds 2 1003 86 16093 2.6 200 14:20 25.11.2019
3803 Clear 2 1003 87 16093 5.1 214 13:40 25.11.2019
3804 Clear 1 1003 85 16093 5.08 213 13:21 25.11.2019
3805 Clear 1 1004 100 16093 1.5 200 12:59 25.11.2019
3806 Clear 1 1003 100 16093 2.1 220 12:40 25.11.2019
3807 Clear 1 1003 100 16093 2.1 220 12:21 25.11.2019
3808 Clear 2 1003 85 16093 2.6 190 11:57 25.11.2019
3809 Clear 2 1003 85 16093 2.1 200 11:38 25.11.2019
3810 Clear 2 1003 88 16093 2.1 200 11:19 25.11.2019
3811 Clear 2 1003 93 16093 3.1 220 10:45 25.11.2019
3812 Clear 2 1003 93 16093 3.1 220 10:27 25.11.2019
3813 Clouds 3 1003 80 16093 3.1 210 09:58 25.11.2019
3814 Clear 3 1003 93 16093 3.1 220 09:39 25.11.2019
3815 Clear 3 1003 93 16093 3.1 220 09:21 25.11.2019
3816 Clear 4 1003 100 16093 3.6 210 08:41 25.11.2019
3817 Clear 4 1003 100 16093 3.6 210 08:21 25.11.2019
3818 Clear 4 1003 75 16093 2.1 200 07:43 25.11.2019
3819 Clear 4 1003 93 16093 2.6 200 07:24 25.11.2019
3820 Clear 4 1003 93 16093 2.6 200 07:24 25.11.2019
3821 Clear 5 1003 75 16093 2.1 210 06:50 25.11.2019
3822 Clear 5 1003 93 16093 2.6 210 06:21 25.11.2019
3823 Clouds 6 1004 81 16093 3.1 210 05:39 25.11.2019
3824 Clouds 7 1004 81 16093 4.1 220 04:52 25.11.2019
3825 Clouds 8 1004 81 16093 6.2 210 03:24 25.11.2019
3826 Clouds 9 1004 75 16093 6.2 200 02:28 25.11.2019
3827 Clouds 8 1004 75 16093 5.7 200 01:41 25.11.2019
3828 Clouds 8 1004 75 16093 5.7 200 01:22 25.11.2019
3829 Clouds 8 1004 75 16093 3.1 210 00:24 25.11.2019
3830 Clouds 9 1004 70 16093 3.1 230 00:00 25.11.2019
3831 Clouds 9 1004 66 16093 3.6 230 23:41 24.11.2019
3832 Clouds 9 1003 70 16093 2.1 210 23:20 24.11.2019
3833 Clear 9 1004 66 16093 4.1 240 22:56 24.11.2019
3834 Clear 9 1004 66 16093 4.6 230 22:37 24.11.2019
3835 Clear 9 1004 66 16093 4.6 230 22:18 24.11.2019
3836 Clear 9 1004 66 16093 4.6 230 22:18 24.11.2019
3837 Clear 9 1004 70 16093 4.6 220 21:54 24.11.2019
3838 Clear 9 1004 70 16093 6.2 260 21:36 24.11.2019
3839 Clouds 9 1003 57 16093 5.1 230 21:18 24.11.2019
3840 Clear 9 1004 66 16093 5.1 210 20:54 24.11.2019
3841 Clear 9 1004 70 16093 5.1 210 20:36 24.11.2019
3842 Clouds 9 1003 61 16093 4.6 220 20:18 24.11.2019
3843 Clear 9 1005 66 16093 4.6 230 19:54 24.11.2019
3844 Clear 9 1005 66 16093 3.1 230 19:36 24.11.2019
3845 Clouds 8 1004 61 16093 4.6 240 19:18 24.11.2019
3846 Clear 8 1006 70 16093 4.1 240 18:38 24.11.2019
3847 Clouds 8 1005 65 16093 5.7 250 18:20 24.11.2019
3848 Clear 7 1005 65 16093 4.1 230 17:59 24.11.2019
3849 Clear 7 1006 70 16093 5.1 250 17:59 24.11.2019
3850 Clear 7 1007 75 16093 3.1 250 17:41 24.11.2019
3851 Clear 5 1005 70 16093 4.1 250 17:22 24.11.2019
3852 Clear 4 1006 93 16093 5.1 220 16:59 24.11.2019
3853 Clear 4 1007 86 16093 4.1 250 16:40 24.11.2019
3854 Clear 4 1007 86 16093 4.1 250 16:40 24.11.2019
3855 Clear 3 1007 86 16093 4.1 250 16:22 24.11.2019
3856 Clouds 2 1006 79 16093 5.1 250 15:56 24.11.2019
3857 Clear 2 1006 79 16093 7.35 252 15:38 24.11.2019
3858 Clear 2 1006 79 16093 7.35 252 15:38 24.11.2019
3859 Clear 2 1006 79 16093 7.35 252 15:38 24.11.2019
3860 Clear 1 1006 79 16093 7.35 252 15:38 24.11.2019
3861 Clear 1 1006 86 16093 5.7 250 15:19 24.11.2019
3862 Clear 0 1007 79 16093 7.35 252 14:40 24.11.2019
3863 Clouds 0 1006 86 16093 4.1 240 14:19 24.11.2019
3864 Clear 0 1006 80 16093 6.7 254 13:59 24.11.2019
3865 Clear 0 1006 80 16093 6.7 254 13:38 24.11.2019
3866 Clear 0 1006 79 16093 7.16 252 13:19 24.11.2019
3867 Clear 0 1005 79 16093 7.16 252 12:56 24.11.2019
3868 Clear 0 1005 79 16093 7.16 252 12:37 24.11.2019
3869 Clear 0 1004 79 16093 2.6 250 12:18 24.11.2019
3870 Clear 0 1006 86 16093 7.16 252 11:38 24.11.2019
3871 Clouds 1 1004 78 16093 2.6 250 11:19 24.11.2019
3872 Clouds 1 1005 78 16093 2.1 260 10:57 24.11.2019
3873 Clear 1 1006 86 16093 7.74 270 10:38 24.11.2019
3874 Clear 1 1006 86 16093 7.74 270 10:20 24.11.2019
3875 Clear 0 1006 78 16093 7.74 270 09:39 24.11.2019
3876 Clear 0 1006 78 16093 7.74 270 09:20 24.11.2019
3877 Clouds 0 1005 80 16093 4.1 260 08:57 24.11.2019
3878 Clouds 0 1005 80 16093 4.1 260 08:57 24.11.2019
3879 Clear 0 1006 86 16093 7.74 270 08:39 24.11.2019
3880 Clear 0 1006 86 16093 7.96 265 08:20 24.11.2019
3881 Clear 0 1006 80 16093 3.6 250 07:47 24.11.2019
3882 Clear 0 1006 86 16093 4.1 260 07:22 24.11.2019
3883 Clear 0 1006 86 16093 4.6 260 06:52 24.11.2019
3884 Clear 0 1007 80 16093 4.1 250 05:39 24.11.2019
3885 Clear 0 1007 80 16093 4.6 260 04:41 24.11.2019
3886 Clear 1 1006 74 16093 2.1 230 02:42 24.11.2019
3887 Clouds 1 1007 74 16093 4.1 210 01:56 24.11.2019
3888 Clear 1 1007 80 16093 2.6 230 01:34 24.11.2019
3889 Clear 1 1007 80 16093 3.6 290 00:52 24.11.2019
3890 Clear 2 1007 80 16093 2.1 280 00:25 24.11.2019
3891 Clouds 2 1007 69 16093 3.6 280 23:57 23.11.2019
3892 Clouds 3 1007 69 16093 4.1 270 23:38 23.11.2019
3893 Clear 3 1006 69 16093 1.5 230 23:20 23.11.2019
3894 Clouds 4 1006 60 16093 3.6 260 22:55 23.11.2019
3895 Clouds 4 1006 61 16093 4.1 260 22:37 23.11.2019
3896 Clouds 4 1006 61 16093 4.1 260 22:19 23.11.2019
3897 Clouds 4 1006 60 16093 3.6 250 21:55 23.11.2019
3898 Clouds 4 1007 61 16093 3.6 210 21:36 23.11.2019
3899 Clouds 4 1007 61 16093 3.6 210 21:18 23.11.2019
3900 Clouds 3 1008 61 16093 1.5 200 20:38 23.11.2019
3901 Clouds 3 1008 65 16093 1.5 200 20:20 23.11.2019
3902 Clouds 3 1008 64 16093 3.6 250 20:20 23.11.2019
3903 Clouds 3 1008 64 16093 3.6 250 19:56 23.11.2019
3904 Clouds 3 1009 80 16093 1.5 250 19:38 23.11.2019
3905 Clouds 2 1010 74 16093 4.6 270 19:18 23.11.2019
3906 Clouds 2 1010 80 16093 3.54 216 18:55 23.11.2019
3907 Clouds 2 1011 80 16093 3.54 216 18:36 23.11.2019
3908 Clouds 2 1011 80 16093 5.1 210 18:18 23.11.2019
3909 Clouds 1 1012 65 16093 3.54 216 17:42 23.11.2019
3910 Clouds 1 1012 74 16093 3.6 220 17:21 23.11.2019
3911 Clouds 0 1012 69 16093 3 254 16:57 23.11.2019
3912 Clouds 0 1013 92 16093 3 254 16:38 23.11.2019
3913 Clouds 0 1013 92 16093 3 254 16:38 23.11.2019
3914 Clouds -1 1013 92 16093 3 254 16:20 23.11.2019
3915 Clouds -1 1013 92 16093 3 254 15:58 23.11.2019
3916 Clouds -2 1013 100 16093 3 254 15:39 23.11.2019
3917 Clouds -2 1013 86 16093 2.6 250 15:19 23.11.2019
3918 Clouds -2 1013 86 16093 2.6 250 14:56 23.11.2019
3919 Clouds -3 1013 100 16093 3 254 14:38 23.11.2019
3920 Clouds -3 1013 100 16093 3 254 14:38 23.11.2019
3921 Clouds -3 1013 100 16093 1.48 210 14:20 23.11.2019
3922 Clear -4 1014 100 16093 1.48 210 13:43 23.11.2019
3923 Clear -4 1014 100 16093 1.94 199 13:20 23.11.2019
3924 Clear -5 1015 100 16093 1.94 199 12:58 23.11.2019
3925 Clear -5 1015 100 11265 2.1 180 12:40 23.11.2019
3926 Clear -5 1015 100 11265 2.1 180 12:22 23.11.2019
3927 Clear -5 1015 86 16093 1.94 199 11:43 23.11.2019
3928 Clear -4 1014 92 16093 3.85 241 11:21 23.11.2019
3929 Clear -4 1016 100 16093 3.85 241 10:45 23.11.2019
3930 Clear -4 1016 100 16093 3.85 241 10:22 23.11.2019
3931 Clear -4 1017 92 16093 3.85 241 09:43 23.11.2019
3932 Clear -4 1016 100 16093 3.85 241 09:21 23.11.2019
3933 Clouds -4 1016 86 16093 1.5 220 08:55 23.11.2019
3934 Clear -4 1017 92 16093 3.85 241 08:36 23.11.2019
3935 Clear -3 1017 92 16093 5.49 217 08:18 23.11.2019
3936 Clear -3 1018 92 16093 5.49 217 07:39 23.11.2019
3937 Clear -3 1019 92 16093 5.49 217 06:48 23.11.2019
3938 Clear -3 1018 100 16093 1.5 200 06:21 23.11.2019
3939 Clear -3 1019 92 16093 5.49 217 05:53 23.11.2019
3940 Clear -3 1020 100 16093 3.62 185 05:30 23.11.2019
3941 Clear -3 1020 92 16093 3.62 185 04:50 23.11.2019
3942 Clear -3 1020 92 16093 3.62 185 04:29 23.11.2019
3943 Clear -2 1020 69 16093 2.1 180 03:20 23.11.2019
3944 Clear -2 1020 86 16093 2.26 127 02:24 23.11.2019
3945 Clear -1 1021 86 16093 1.5 150 01:38 23.11.2019
3946 Clear 0 1020 64 16093 2.21 138 00:45 23.11.2019
3947 Clear 0 1020 64 16093 2.21 138 00:19 23.11.2019
3948 Clear 1 1021 74 16093 2.1 60 23:42 22.11.2019
3949 Clear 2 1021 74 16093 2.1 60 23:21 22.11.2019
3950 Clear 2 1021 69 16093 2.6 80 22:58 22.11.2019
3951 Clear 3 1021 69 16093 3.1 60 22:39 22.11.2019
3952 Clear 3 1021 69 16093 3.1 60 22:20 22.11.2019
3953 Clouds 3 1021 59 16093 3.6 80 21:59 22.11.2019
3954 Clear 3 1022 69 16093 2.38 51 21:39 22.11.2019
3955 Clouds 3 1021 55 16093 2.38 51 21:20 22.11.2019
3956 Clouds 3 1022 69 16093 1.5 70 20:44 22.11.2019
3957 Clouds 2 1022 69 16093 1.5 70 20:22 22.11.2019
3958 Clouds 2 1022 55 16093 3.52 341 19:58 22.11.2019
3959 Clouds 2 1023 69 16093 1.5 20 19:38 22.11.2019
3960 Clouds 2 1022 59 16093 3.52 341 19:19 22.11.2019
3961 Clear 1 1022 69 16093 2.1 40 18:58 22.11.2019
3962 Clouds 1 1023 69 16093 2.6 360 18:36 22.11.2019
3963 Clouds 1 1023 59 16093 3.6 350 18:18 22.11.2019
3964 Clouds 1 1023 59 16093 3.6 350 18:18 22.11.2019
3965 Clouds 1 1024 59 16093 2.6 0 17:40 22.11.2019
3966 Clouds 0 1023 64 16093 2.6 350 17:22 22.11.2019
3967 Clouds 0 1023 74 16093 4.1 20 16:48 22.11.2019
3968 Clouds 0 1023 69 16093 3.1 320 16:29 22.11.2019
3969 Clouds -1 1022 75 16093 4.6 330 15:47 22.11.2019
3970 Clouds -1 1022 74 16093 3.1 330 15:25 22.11.2019
3971 Clouds -1 1022 75 16093 4.6 330 14:58 22.11.2019
3972 Clouds -1 1022 75 16093 4.1 320 14:39 22.11.2019
3973 Clouds -1 1021 74 16093 2.6 360 14:21 22.11.2019
3974 Clouds -1 1021 80 16093 3.6 20 13:59 22.11.2019
3975 Clouds -1 1020 80 16093 2.6 330 13:37 22.11.2019
3976 Clouds -1 1020 80 16093 2.6 330 13:19 22.11.2019
3977 Clouds 0 1020 74 16093 4.6 10 12:57 22.11.2019
3978 Clouds 0 1020 74 16093 2.1 320 12:39 22.11.2019
3979 Clouds 0 1020 74 16093 2.1 320 12:19 22.11.2019
3980 Clouds 0 1020 74 16093 2.1 320 12:19 22.11.2019
3981 Clouds 0 1019 64 16093 3.1 350 11:56 22.11.2019
3982 Clouds 0 1019 64 16093 3.1 350 11:56 22.11.2019
3983 Clouds 1 1019 74 16093 3.1 310 11:36 22.11.2019
3984 Clouds 1 1019 64 16093 4.6 320 11:18 22.11.2019
3985 Clouds 1 1019 74 16093 4.1 300 10:42 22.11.2019
3986 Clouds 1 1019 74 16093 4.1 300 10:22 22.11.2019
3987 Clouds 2 1018 69 16093 5.1 320 09:59 22.11.2019
3988 Clouds 2 1017 75 16093 3.6 310 09:40 22.11.2019
3989 Clouds 3 1018 69 16093 7.7 310 09:21 22.11.2019
3990 Clouds 3 1018 69 16093 7.7 310 08:57 22.11.2019
3991 Clouds 3 1018 75 16093 4.1 320 08:37 22.11.2019
3992 Clouds 3 1018 76 16093 4.1 320 08:19 22.11.2019
3993 Clouds 3 1017 80 16093 4.1 300 07:40 22.11.2019
3994 Clouds 3 1017 80 16093 4.1 300 07:19 22.11.2019
3995 Clouds 3 1016 75 16093 3.1 310 06:42 22.11.2019
3996 Clouds 4 1016 75 16093 3.1 310 06:18 22.11.2019
3997 Clouds 4 1015 87 16093 5.7 310 04:55 22.11.2019
3998 Clouds 5 1014 93 16093 4.1 280 03:25 22.11.2019
3999 Clouds 6 1013 81 16093 5.1 290 02:39 22.11.2019
4000 Drizzle 6 1013 93 8047 5.1 280 02:19 22.11.2019
4001 Clouds 6 1013 93 16093 2.6 280 01:42 22.11.2019
4002 Clouds 7 1013 87 16093 8.2 270 01:18 22.11.2019
4003 Clouds 7 1011 87 16093 6.7 290 00:26 22.11.2019
4004 Clouds 8 1010 76 16093 7.7 270 23:59 21.11.2019
4005 Clouds 8 1010 81 16093 9.8 270 23:41 21.11.2019
4006 Clouds 8 1010 81 16093 9.8 270 23:23 21.11.2019
4007 Clouds 9 1008 87 16093 6.2 260 22:54 21.11.2019
4008 Clouds 9 1008 87 16093 9.3 260 22:36 21.11.2019
4009 Clouds 10 1008 87 16093 9.3 260 22:18 21.11.2019
4010 Clouds 10 1007 87 16093 8.7 260 21:54 21.11.2019
4011 Clouds 11 1006 81 16093 9.8 260 21:36 21.11.2019
4012 Clouds 11 1005 76 16093 10.8 270 21:18 21.11.2019
4013 Clouds 11 1005 81 16093 5.1 260 20:55 21.11.2019
4014 Rain 11 1005 100 16093 8.2 220 20:36 21.11.2019
4015 Rain 11 1004 87 16093 10.8 240 20:36 21.11.2019
4016 Rain 12 1004 87 16093 11.8 240 20:18 21.11.2019
4017 Rain 12 1003 93 11265 9.8 220 19:41 21.11.2019
4018 Rain 12 1006 100 6437 9.3 220 19:23 21.11.2019
4019 Rain 11 1004 100 6437 5.7 220 18:59 21.11.2019
4020 Rain 11 1004 93 9656 9.3 210 18:40 21.11.2019
4021 Rain 11 1006 87 16093 7.7 200 18:21 21.11.2019
4022 Rain 11 1006 87 16093 7.7 200 17:58 21.11.2019
4023 Rain 10 1007 93 16093 9.8 220 17:39 21.11.2019
4024 Rain 10 1008 100 8047 7.2 200 17:21 21.11.2019
4025 Rain 10 1007 81 16093 7.7 200 16:57 21.11.2019
4026 Rain 9 1009 100 11265 9.3 200 16:39 21.11.2019
4027 Rain 9 1009 100 11265 9.3 200 16:20 21.11.2019
4028 Rain 9 1009 100 11265 8.2 180 15:43 21.11.2019
4029 Rain 8 1009 100 11265 8.2 180 15:21 21.11.2019
4030 Rain 8 1011 93 8047 7.7 180 14:57 21.11.2019
4031 Rain 8 1008 93 16093 8.2 190 14:38 21.11.2019
4032 Rain 8 1010 93 4023 7.7 190 14:19 21.11.2019
4033 Rain 7 1010 93 4023 7.7 190 13:57 21.11.2019
4034 Rain 7 1009 87 4828 8.2 180 13:37 21.11.2019
4035 Rain 7 1012 87 6437 7.7 190 13:18 21.11.2019
4036 Rain 7 1010 87 6437 6.7 180 12:41 21.11.2019
4037 Rain 7 1012 81 16093 6.7 180 12:22 21.11.2019
4038 Rain 7 1013 87 16093 5.1 170 11:56 21.11.2019
4039 Rain 7 1013 87 16093 6.2 170 11:37 21.11.2019
4040 Rain 7 1013 87 16093 6.2 170 11:19 21.11.2019
4041 Rain 6 1015 81 16093 6.7 170 10:42 21.11.2019
4042 Rain 7 1015 81 16093 6.7 170 10:24 21.11.2019
4043 Clouds 7 1016 81 16093 6.7 170 09:59 21.11.2019
4044 Clouds 7 1016 81 16093 6.7 170 09:59 21.11.2019
4045 Clouds 7 1016 87 16093 6.7 180 09:40 21.11.2019
4046 Clouds 6 1016 87 16093 6.7 180 09:22 21.11.2019
4047 Clear 6 1017 75 16093 4.1 170 08:46 21.11.2019
4048 Clouds 6 1017 87 16093 5.1 160 08:24 21.11.2019
4049 Clouds 6 1018 81 16093 4.6 160 07:59 21.11.2019
4050 Clouds 5 1018 93 11265 4.6 170 07:37 21.11.2019
4051 Clouds 5 1017 81 14484 5.1 170 07:18 21.11.2019
4052 Clear 5 1019 93 11265 3.6 170 06:42 21.11.2019
4053 Clear 5 1019 93 11265 3.6 170 06:24 21.11.2019
4054 Clear 6 1020 93 16093 4.6 170 04:34 21.11.2019
4055 Clear 6 1021 87 16093 2.1 170 02:42 21.11.2019
4056 Clear 6 1021 87 16093 2.1 170 02:24 21.11.2019
4057 Clear 6 1021 87 16093 2.1 170 02:24 21.11.2019
4058 Clear 6 1021 81 16093 6.58 147 01:52 21.11.2019
4059 Clear 6 1021 87 16093 6.31 150 01:21 21.11.2019
4060 Clear 7 1021 81 16093 6.31 150 00:41 21.11.2019
4061 Clear 7 1021 81 16093 6.31 150 00:20 21.11.2019
4062 Clear 7 1021 81 16093 6.31 150 23:48 20.11.2019
4063 Clear 8 1021 81 16093 4.84 171 23:22 20.11.2019
4064 Clouds 8 1021 66 16093 4.1 180 22:58 20.11.2019
4065 Clouds 8 1020 75 14484 2.6 150 22:40 20.11.2019
4066 Clouds 9 1021 70 16093 4.84 171 22:20 20.11.2019
4067 Clouds 9 1021 66 16093 3.1 200 21:58 20.11.2019
4068 Clouds 9 1021 70 16093 4.84 171 21:39 20.11.2019
4069 Clouds 9 1021 75 11265 2.1 240 21:20 20.11.2019
4070 Clouds 9 1021 75 11265 2.1 240 20:57 20.11.2019
4071 Mist 9 1021 75 8047 2.6 210 20:39 20.11.2019
4072 Clouds 8 1022 76 16093 4.06 198 20:21 20.11.2019
4073 Clouds 8 1021 75 14484 3.6 210 19:57 20.11.2019
4074 Clouds 8 1021 75 14484 3.6 210 19:37 20.11.2019
4075 Mist 8 1022 81 8047 3.6 180 19:19 20.11.2019
4076 Mist 7 1022 81 8047 3.6 180 18:58 20.11.2019
4077 Clouds 7 1022 70 16093 2.6 240 18:39 20.11.2019
4078 Clouds 7 1023 81 11265 3.92 191 18:21 20.11.2019
4079 Mist 6 1023 87 8047 3.92 191 17:56 20.11.2019
4080 Mist 6 1022 87 8047 2.1 170 17:38 20.11.2019
4081 Mist 6 1022 87 8047 2.1 170 17:38 20.11.2019
4082 Mist 6 1023 100 4023 1.5 200 17:20 20.11.2019
4083 Mist 5 1022 87 9656 3.1 190 16:57 20.11.2019
4084 Mist 5 1022 87 9656 3.1 190 16:38 20.11.2019
4085 Mist 5 1023 100 4828 1.5 200 16:18 20.11.2019
4086 Mist 4 1023 100 4023 1.5 200 15:55 20.11.2019
4087 Mist 4 1022 93 4023 3.1 200 15:36 20.11.2019
4088 Mist 4 1022 100 3219 1.5 180 15:18 20.11.2019
4089 Mist 3 1021 93 2012 2.1 170 14:40 20.11.2019
4090 Mist 3 1022 100 2816 2.84 287 14:22 20.11.2019
4091 Mist 3 1022 100 2816 2.84 287 14:22 20.11.2019
4092 Mist 3 1022 100 2816 2.84 287 14:22 20.11.2019
4093 Mist 3 1022 100 2816 2.84 287 14:22 20.11.2019
4094 Mist 3 1022 100 2816 2.84 287 14:22 20.11.2019
4095 Mist 3 1021 93 4828 1.5 200 13:58 20.11.2019
4096 Mist 3 1020 93 9656 1.5 210 13:39 20.11.2019
4097 Mist 3 1020 93 4828 2.73 286 13:20 20.11.2019
4098 Mist 3 1020 93 8047 2.73 286 12:55 20.11.2019
4099 Mist 3 1020 100 4828 2.73 286 12:37 20.11.2019
4100 Mist 3 1020 100 4828 2.73 286 12:19 20.11.2019
4101 Mist 3 1019 93 4828 2.1 220 11:45 20.11.2019
4102 Mist 3 1020 100 4828 3.9 291 11:22 20.11.2019
4103 Mist 4 1019 93 4828 2.1 240 10:56 20.11.2019
4104 Mist 3 1019 100 6437 3.9 291 10:38 20.11.2019
4105 Mist 4 1019 100 6437 3.9 291 10:19 20.11.2019
4106 Mist 3 1019 93 8047 3.9 291 09:44 20.11.2019
4107 Mist 3 1019 100 4828 1.5 270 09:23 20.11.2019
4108 Mist 3 1018 93 6437 2.1 270 08:59 20.11.2019
4109 Mist 3 1018 100 6437 3.9 291 08:39 20.11.2019
4110 Mist 3 1018 100 6437 2.46 282 08:21 20.11.2019
4111 Mist 3 1017 100 4828 2.99 268 07:48 20.11.2019
4112 Mist 3 1017 100 4828 2.99 268 07:28 20.11.2019
4113 Mist 3 1016 100 4828 2.99 268 06:50 20.11.2019
4114 Mist 3 1016 100 4828 1.5 270 06:22 20.11.2019
4115 Mist 3 1016 100 4828 1.5 270 05:51 20.11.2019
4116 Mist 3 1015 100 3219 1.43 252 03:52 20.11.2019
4117 Mist 3 1015 100 4828 2.07 360 02:22 20.11.2019
4118 Drizzle 4 1014 100 6437 1.79 326 01:33 20.11.2019
4119 Rain 4 1013 93 8047 1.79 326 00:42 20.11.2019
4120 Rain 4 1013 100 4828 1.79 326 23:59 19.11.2019
4121 Rain 4 1013 93 4828 2.6 270 23:36 19.11.2019
4122 Rain 4 1012 93 4828 1.5 270 23:18 19.11.2019
4123 Drizzle 4 1012 100 2816 1.5 360 22:42 19.11.2019
4124 Drizzle 4 1012 100 2816 1.5 360 22:19 19.11.2019
4125 Rain 4 1011 93 3219 1.5 320 21:57 19.11.2019
4126 Rain 4 1011 86 2414 2.1 350 21:38 19.11.2019
4127 Rain 4 1011 86 2816 1.16 36 21:20 19.11.2019
4128 Rain 4 1011 86 2816 1.16 36 20:57 19.11.2019
4129 Rain 4 1010 80 4023 1.16 36 20:39 19.11.2019
4130 Rain 4 1010 80 6437 2.1 20 20:21 19.11.2019
4131 Rain 4 1009 86 11265 1.01 202 19:59 19.11.2019
4132 Rain 4 1009 86 11265 1.01 202 19:41 19.11.2019
4133 Rain 4 1009 86 11265 1.01 202 19:19 19.11.2019
4134 Rain 4 1009 86 11265 1.01 202 19:19 19.11.2019
4135 Rain 5 1009 75 14484 2.1 40 18:56 19.11.2019
4136 Rain 4 1009 86 11265 2.1 120 18:38 19.11.2019
4137 Clouds 4 1009 75 14484 1.01 202 18:18 19.11.2019
4138 Clouds 4 1009 75 14484 1.01 202 17:56 19.11.2019
4139 Rain 4 1009 93 11265 1.5 130 17:37 19.11.2019
4140 Rain 4 1009 93 11265 1.5 130 17:18 19.11.2019
4141 -273 0 0 0 0 0 16:55 19.11.2019
4142 Rain 3 1009 74 9656 2.1 110 16:37 19.11.2019
4143 Rain 3 1009 93 11265 1.5 130 16:18 19.11.2019
4144 Haze 2 1008 80 9656 2.6 70 15:41 19.11.2019
4145 Clouds 2 1009 86 11265 1.96 199 15:23 19.11.2019
4146 Clouds 2 1008 74 14484 2.1 100 14:56 19.11.2019
4147 Clouds 2 1008 80 11265 2.1 60 14:37 19.11.2019
4148 Clouds 2 1008 93 11265 1.5 120 14:19 19.11.2019
4149 Clouds 1 1008 74 16093 2.1 110 13:41 19.11.2019
4150 Clouds 1 1008 74 16093 2.1 110 13:41 19.11.2019
4151 Clouds 1 1008 72 16093 2.1 110 13:20 19.11.2019
4152 Clouds 1 1008 72 16093 2.1 110 13:20 19.11.2019
4153 Clouds 1 1008 72 16093 2.1 110 13:20 19.11.2019
4154 Clouds 1 1008 72 16093 3 209 12:42 19.11.2019
4155 Clouds 1 1008 72 16093 3 209 12:23 19.11.2019
4156 Clouds 1 1008 80 14484 2.1 270 11:59 19.11.2019
4157 Clouds 1 1007 74 16093 2.1 180 11:39 19.11.2019
4158 Clouds 1 1007 71 16093 1.4 205 11:20 19.11.2019
4159 Clouds 1 1007 80 16093 1.4 205 10:48 19.11.2019
4160 Clouds 1 1007 71 16093 1.4 205 10:23 19.11.2019
4161 Clouds 1 1007 71 16093 1.4 205 10:23 19.11.2019
4162 Clouds 2 1008 74 16093 1.4 205 09:59 19.11.2019
4163 Clouds 2 1008 71 16093 1.4 205 09:41 19.11.2019
4164 Clouds 2 1008 71 16093 1.4 205 09:19 19.11.2019
4165 Clouds 2 1008 71 16093 1.4 205 09:19 19.11.2019
4166 Clouds 2 1008 71 16093 2.6 230 08:42 19.11.2019
4167 Clouds 2 1008 71 16093 2.6 230 08:24 19.11.2019
4168 Clouds 2 1008 74 16093 2.1 210 07:59 19.11.2019
4169 Clouds 2 1008 74 16093 2.68 229 07:41 19.11.2019
4170 Clouds 2 1008 73 16093 2.1 230 07:22 19.11.2019
4171 Clouds 2 1008 73 16093 2.68 229 06:52 19.11.2019
4172 Clouds 2 1008 73 16093 2.68 229 06:33 19.11.2019
4173 Clouds 2 1008 73 16093 2.68 229 05:44 19.11.2019
4174 Clouds 2 1008 93 16093 2.1 230 04:26 19.11.2019
4175 Clouds 2 1008 93 16093 1.5 230 03:35 19.11.2019
4176 Clouds 2 1008 73 14484 3.1 240 02:57 19.11.2019
4177 Clouds 2 1008 93 16093 2.1 220 02:33 19.11.2019
4178 Clouds 2 1008 70 16093 1.35 268 01:45 19.11.2019
4179 Clouds 3 1008 86 16093 2.1 230 00:22 19.11.2019
4180 Clouds 3 1008 72 16093 3.6 250 23:59 18.11.2019
4181 Clouds 3 1008 72 16093 3.1 250 23:37 18.11.2019
4182 Clouds 3 1008 79 16093 3.6 230 23:18 18.11.2019
4183 Clouds 3 1007 79 16093 1.5 270 22:45 18.11.2019
4184 Clouds 3 1008 80 16093 3.6 260 22:23 18.11.2019
4185 Clouds 4 1008 79 16093 3.6 260 21:56 18.11.2019
4186 Clouds 4 1007 80 16093 3.1 250 21:38 18.11.2019
4187 Clouds 4 1008 86 11265 1.5 280 21:20 18.11.2019
4188 Clouds 4 1007 75 14484 2.6 250 20:57 18.11.2019
4189 Clouds 4 1008 80 11265 3.87 331 20:38 18.11.2019
4190 Clouds 4 1008 80 11265 3.87 331 20:38 18.11.2019
4191 Clouds 4 1008 80 11265 3.12 334 20:18 18.11.2019
4192 Clouds 4 1008 86 11265 1.5 280 19:56 18.11.2019
4193 Clouds 4 1008 80 11265 1.5 290 19:37 18.11.2019
4194 Mist 4 1008 80 9656 1.5 0 19:19 18.11.2019
4195 Mist 3 1008 80 9656 1.5 0 18:55 18.11.2019
4196 Mist 3 1009 86 8047 2.1 290 18:37 18.11.2019
4197 Mist 3 1009 86 8047 2.1 290 18:18 18.11.2019
4198 Mist 3 1010 86 6437 2.1 300 17:39 18.11.2019
4199 Mist 3 1010 86 6437 2.1 300 17:20 18.11.2019
4200 Mist 2 1009 86 8047 3.6 300 16:58 18.11.2019
4201 Mist 2 1010 86 8047 2.1 290 16:40 18.11.2019
4202 Mist 2 1010 86 8047 2.1 290 16:22 18.11.2019
4203 Mist 2 1009 86 6437 3.1 300 15:56 18.11.2019
4204 Mist 2 1010 93 4023 2.6 300 15:37 18.11.2019
4205 Mist 2 1010 93 4023 2.6 300 15:37 18.11.2019
4206 Mist 2 1009 93 8047 2.1 290 15:19 18.11.2019
4207 Mist 1 1009 93 6437 2.1 310 14:43 18.11.2019
4208 Mist 1 1009 93 6437 2.1 310 14:43 18.11.2019
4209 Mist 1 1009 93 8047 2.6 310 14:24 18.11.2019
4210 Mist 1 1009 100 8047 2.1 310 13:57 18.11.2019
4211 Mist 1 1009 91 4828 2.1 310 13:37 18.11.2019
4212 Mist 1 1009 91 4828 2.1 310 13:37 18.11.2019
4213 Mist 1 1009 91 4828 2.1 310 13:37 18.11.2019
4214 Mist 1 1009 100 6437 2.1 320 13:19 18.11.2019
4215 Mist 1 1009 89 4023 2.6 310 12:39 18.11.2019
4216 Mist 1 1009 93 8047 4.1 300 12:19 18.11.2019
4217 Clouds 1 1009 89 4828 3.23 308 11:46 18.11.2019
4218 Mist 1 1009 100 2414 3.46 234 11:27 18.11.2019
4219 Mist 1 1009 93 4828 3.6 300 10:59 18.11.2019
4220 Mist 1 1009 100 4828 3.46 234 10:40 18.11.2019
4221 Mist 2 1009 100 4828 3.46 234 10:22 18.11.2019
4222 Mist 2 1009 93 6437 2.6 280 09:56 18.11.2019
4223 Mist 2 1009 100 6437 3.46 234 09:56 18.11.2019
4224 Mist 2 1008 93 1207 3.46 234 09:38 18.11.2019
4225 Mist 2 1008 93 1207 3.46 234 09:38 18.11.2019
4226 Mist 2 1009 93 8047 3.46 234 09:18 18.11.2019
4227 Mist 2 1008 93 3219 2.6 290 08:45 18.11.2019
4228 Clouds 2 1008 93 11265 5.05 200 08:22 18.11.2019
4229 Mist 2 1009 93 4023 1.5 210 07:49 18.11.2019
4230 Mist 2 1008 93 3219 1.5 270 07:30 18.11.2019
4231 Drizzle 2 1009 93 6437 1.5 200 06:57 18.11.2019
4232 Rain 2 1011 93 11265 5.05 200 06:39 18.11.2019
4233 Rain 2 1011 93 11265 5.05 200 06:20 18.11.2019
4234 Rain 2 1011 86 8047 2.6 190 05:25 18.11.2019
4235 Rain 3 1011 86 6437 1.5 200 03:28 18.11.2019
4236 Clouds 3 1012 86 11265 3.1 170 01:33 18.11.2019
4237 Clouds 3 1012 86 11265 3.6 140 00:40 18.11.2019
4238 Clouds 4 1012 69 16093 3.6 150 23:57 17.11.2019
4239 Clouds 4 1013 86 16093 2.1 160 23:39 17.11.2019
4240 Clouds 4 1013 86 16093 2.1 160 23:19 17.11.2019
4241 Clouds 4 1013 77 16093 3.6 170 22:54 17.11.2019
4242 Clouds 4 1013 77 16093 3.1 150 22:36 17.11.2019
4243 Clouds 4 1013 77 16093 3.1 150 22:18 17.11.2019
4244 Clouds 4 1013 77 16093 3.1 150 21:42 17.11.2019
4245 Clouds 4 1013 77 16093 3.1 150 21:19 17.11.2019
4246 Clouds 4 1013 65 16093 3.1 180 20:57 17.11.2019
4247 Clouds 4 1014 77 16093 3.6 180 20:39 17.11.2019
4248 Clouds 4 1014 77 16093 3.6 180 20:20 17.11.2019
4249 Clouds 4 1015 77 16093 4.6 160 19:56 17.11.2019
4250 Clouds 4 1016 77 16093 2.6 200 19:38 17.11.2019
4251 Clouds 4 1016 77 16093 2.6 200 19:38 17.11.2019
4252 Clouds 4 1016 77 16093 2.6 200 19:38 17.11.2019
4253 Clouds 3 1016 77 16093 2.6 200 19:20 17.11.2019
4254 Clouds 3 1015 69 16093 2.6 170 18:56 17.11.2019
4255 Clouds 3 1016 77 16093 3.1 180 18:56 17.11.2019
4256 Clouds 2 1017 80 16093 2.1 210 18:38 17.11.2019
4257 Clouds 2 1017 80 16093 2.1 210 18:19 17.11.2019
4258 Clouds 2 1016 74 16093 3.1 200 17:57 17.11.2019
4259 Clear 2 1018 86 16093 2.6 210 17:39 17.11.2019
4260 Clear 1 1018 86 16093 2.6 210 17:20 17.11.2019
4261 Clouds 1 1017 81 16093 3.1 140 16:58 17.11.2019
4262 Clouds 1 1017 81 16093 3.1 130 16:40 17.11.2019
4263 Clouds 0 1017 81 16093 3.1 130 16:21 17.11.2019
4264 Clouds 0 1017 81 14484 4.1 140 15:55 17.11.2019
4265 Clouds 0 1017 81 14484 4.1 140 15:55 17.11.2019
4266 Clear -1 1019 92 16093 2.1 170 15:37 17.11.2019
4267 Clear -1 1019 92 16093 2.1 170 15:18 17.11.2019
4268 Clouds -2 1018 80 16093 2.6 150 14:56 17.11.2019
4269 Clear -2 1019 100 16093 2.1 150 14:37 17.11.2019
4270 Clear -2 1019 100 16093 2.1 150 14:19 17.11.2019
4271 Clear -3 1020 92 16093 1.5 150 13:55 17.11.2019
4272 Clear -3 1020 100 16093 5.47 168 13:37 17.11.2019
4273 Clear -3 1020 100 16093 5.16 170 13:18 17.11.2019
4274 Clear -3 1020 100 16093 5.16 170 13:18 17.11.2019
4275 Clear -3 1020 100 16093 5.16 170 13:18 17.11.2019
4276 Clear -3 1020 92 16093 5.16 170 12:42 17.11.2019
4277 Clear -2 1020 92 16093 2.6 140 12:22 17.11.2019
4278 Clouds -2 1020 86 16093 2.6 150 11:57 17.11.2019
4279 Clouds -2 1020 86 16093 2.6 150 11:57 17.11.2019
4280 Clear -2 1021 92 16093 5.16 170 11:38 17.11.2019
4281 Clear -2 1021 92 16093 5.73 170 11:20 17.11.2019
4282 Clear -2 1021 92 16093 5.73 170 10:44 17.11.2019
4283 Clear -2 1021 92 16093 5.73 170 10:23 17.11.2019
4284 Clouds -2 1021 80 16093 3.1 150 09:57 17.11.2019
4285 Clear -2 1022 92 16093 5.73 170 09:39 17.11.2019
4286 Clear -2 1022 92 16093 5.73 170 09:20 17.11.2019
4287 Clear -2 1023 92 16093 5.73 170 08:40 17.11.2019
4288 Clear -1 1023 92 16093 7.14 160 08:20 17.11.2019
4289 Clear -1 1023 92 16093 7.24 162 07:48 17.11.2019
4290 Clear -1 1023 86 16093 7.24 162 07:24 17.11.2019
4291 Clear -1 1024 78 16093 1.5 130 06:57 17.11.2019
4292 Clear -1 1024 86 16093 7.24 162 06:33 17.11.2019
4293 Clear -1 1023 78 16093 3.6 130 05:54 17.11.2019
4294 Clear 0 1024 80 16093 2.6 110 04:24 17.11.2019
4295 Clear 0 1024 81 16093 3.1 110 03:47 17.11.2019
4296 Clear 0 1024 81 16093 3.1 110 03:29 17.11.2019
4297 Clear 1 1025 81 16093 3.1 100 02:28 17.11.2019
4298 Clear 1 1026 80 16093 7.86 126 01:41 17.11.2019
4299 Clouds 1 1025 69 16093 2.6 110 00:54 17.11.2019
4300 Rain 2 1025 80 16093 2.1 110 00:22 17.11.2019
4301 Rain 3 1026 80 16093 2.6 110 23:47 16.11.2019
4302 Rain 4 1026 80 16093 2.6 110 23:20 16.11.2019
4303 Clouds 4 1026 64 16093 4.6 100 22:59 16.11.2019
4304 Clear 4 1026 65 16093 2.6 110 22:40 16.11.2019
4305 Clouds 5 1026 60 16093 4.1 90 22:19 16.11.2019
4306 Clouds 5 1026 60 16093 4.1 90 21:56 16.11.2019
4307 Clear 5 1026 65 16093 2.1 100 21:37 16.11.2019
4308 Clear 5 1026 65 16093 2.1 100 21:19 16.11.2019
4309 Clear 5 1027 65 16093 5.57 124 20:41 16.11.2019
4310 Clear 4 1027 65 16093 5.99 132 20:21 16.11.2019
4311 Clouds 5 1027 60 16093 3.6 120 19:58 16.11.2019
4312 Clear 4 1028 69 16093 5.76 130 19:39 16.11.2019
4313 Clear 4 1028 69 16093 5.76 130 19:20 16.11.2019
4314 Rain 4 1028 69 16093 2.6 140 18:46 16.11.2019
4315 Clear 4 1030 69 16093 3.1 120 18:28 16.11.2019
4316 Clear 3 1030 74 16093 4.6 120 17:56 16.11.2019
4317 Clear 3 1030 74 16093 3.6 130 17:38 16.11.2019
4318 Clear 3 1030 74 16093 3.6 130 17:19 16.11.2019
4319 Rain 2 1030 86 11265 3.6 120 16:48 16.11.2019
4320 Rain 2 1030 86 8047 3.1 140 16:30 16.11.2019
4321 Rain 1 1030 80 12874 5.1 140 15:58 16.11.2019
4322 Mist 0 1031 92 6437 2.1 90 15:39 16.11.2019
4323 Mist -1 1031 92 6437 2.1 90 15:20 16.11.2019
4324 Mist -2 1031 100 6437 2.6 90 14:57 16.11.2019
4325 Mist -2 1031 100 6437 1.5 100 14:38 16.11.2019
4326 Mist -3 1031 100 6437 1.5 100 14:19 16.11.2019
4327 Clouds -4 1030 86 14484 2.6 110 13:54 16.11.2019
4328 Mist -4 1030 100 8047 1.5 100 13:36 16.11.2019
4329 Mist -4 1030 100 8047 1.5 100 13:18 16.11.2019
4330 Mist -4 1030 100 8047 7.01 122 12:42 16.11.2019
4331 Mist -4 1030 100 8047 7.01 122 12:22 16.11.2019
4332 Clear -4 1030 92 12874 7.01 122 11:55 16.11.2019
4333 Rain -4 1030 100 8047 7.01 122 11:37 16.11.2019
4334 Rain -3 1029 77 14484 1.5 120 11:18 16.11.2019
4335 Mist -4 1029 100 4828 7.64 116 10:42 16.11.2019
4336 Mist -3 1029 100 4828 7.64 116 10:24 16.11.2019
4337 Clear -3 1030 86 16093 1.5 100 09:56 16.11.2019
4338 Mist -3 1030 100 6437 7.64 116 09:38 16.11.2019
4339 Mist -3 1030 100 6437 7.64 116 09:19 16.11.2019
4340 Mist -3 1030 100 8047 7.64 116 08:40 16.11.2019
4341 Mist -3 1030 100 8047 7.66 75 08:20 16.11.2019
4342 Mist -3 1030 100 4828 1.5 120 07:43 16.11.2019
4343 Mist -3 1030 100 4828 1.5 120 07:22 16.11.2019
4344 Clouds -3 1030 80 16093 2.1 40 06:57 16.11.2019
4345 Mist -3 1030 100 4828 7.66 75 06:39 16.11.2019
4346 Mist -3 1030 100 4828 7.66 75 06:19 16.11.2019
4347 Rain -2 1030 100 8047 6.37 46 04:21 16.11.2019
4348 Clear -2 1029 92 11265 6.37 46 03:26 16.11.2019
4349 Clear -2 1029 92 11265 6.37 46 02:36 16.11.2019
4350 Clear -1 1029 69 11265 5.84 9 01:32 16.11.2019
4351 Clouds 0 1029 80 16093 5.84 9 00:47 16.11.2019
4352 Clouds 1 1029 80 16093 5.84 9 00:28 16.11.2019
4353 Clouds 2 1028 74 16093 5.84 9 23:44 15.11.2019
4354 Clouds 2 1028 74 16093 5.46 323 23:23 15.11.2019
4355 Clouds 3 1028 64 14484 5.46 323 22:59 15.11.2019
4356 Clouds 3 1028 64 16093 5.46 323 22:39 15.11.2019
4357 Clouds 3 1028 69 16093 1.5 350 22:19 15.11.2019
4358 Clouds 3 1028 64 14484 5.46 323 21:55 15.11.2019
4359 Clouds 3 1027 69 16093 2.6 330 21:37 15.11.2019
4360 Clouds 3 1028 64 14484 2.1 330 21:19 15.11.2019
4361 Clouds 3 1028 64 14484 2.1 330 20:56 15.11.2019
4362 Clouds 3 1027 69 16093 2.6 320 20:38 15.11.2019
4363 Clouds 2 1028 64 14484 2.1 300 20:19 15.11.2019
4364 Clouds 2 1027 64 16093 2.6 260 19:56 15.11.2019
4365 Clouds 2 1028 69 16093 2.1 260 19:37 15.11.2019
4366 Clouds 1 1028 64 12874 2.6 300 19:19 15.11.2019
4367 Clouds 1 1028 69 16093 4.06 302 18:42 15.11.2019
4368 Clouds 0 1028 69 16093 4.06 302 18:24 15.11.2019
4369 Clouds 0 1028 79 16093 2.1 230 17:58 15.11.2019
4370 Clear -1 1028 79 16093 2.1 250 17:39 15.11.2019
4371 Clear -1 1028 79 16093 2.1 250 17:39 15.11.2019
4372 Clear -1 1028 81 16093 2.1 250 17:20 15.11.2019
4373 Clear -2 1028 74 16093 2.1 260 16:54 15.11.2019
4374 Clear -2 1028 74 16093 2.1 250 16:36 15.11.2019
4375 Clouds -3 1028 73 16093 3.1 270 16:18 15.11.2019
4376 Clear -4 1028 85 11265 3.1 260 15:38 15.11.2019
4377 Clear -5 1028 85 11265 3.1 260 15:19 15.11.2019
4378 Clouds -6 1028 79 16093 2.6 250 14:56 15.11.2019
4379 Mist -6 1028 92 8047 5.09 281 14:37 15.11.2019
4380 Mist -7 1028 92 8047 5.76 270 14:19 15.11.2019
4381 Clear -7 1027 92 11265 5.76 270 13:56 15.11.2019
4382 Clear -7 1027 92 11265 5.76 270 13:38 15.11.2019
4383 Clear -7 1027 92 11265 5.85 267 13:20 15.11.2019
4384 Clear -7 1027 85 14484 2.6 240 12:57 15.11.2019
4385 Clear -7 1027 85 11265 5.85 267 12:37 15.11.2019
4386 Clear -7 1027 85 14484 3.1 250 12:18 15.11.2019
4387 Clear -7 1027 85 14484 3.1 250 11:55 15.11.2019
4388 Clear -6 1027 92 11265 3.1 190 11:37 15.11.2019
4389 Clear -6 1027 92 11265 3.1 190 11:19 15.11.2019
4390 Clear -6 1027 92 11265 2.1 210 10:39 15.11.2019
4391 Clear -6 1027 92 11265 2.1 210 10:21 15.11.2019
4392 Clear -6 1027 79 11265 1.5 160 09:58 15.11.2019
4393 Clear -6 1027 79 11265 1.5 160 09:58 15.11.2019
4394 Clear -6 1027 85 16093 2.1 210 09:39 15.11.2019
4395 Clear -6 1026 73 14484 4.1 250 09:18 15.11.2019
4396 Clear -6 1027 73 16093 2.6 260 08:42 15.11.2019
4397 Clear -6 1027 85 16093 2.1 250 08:21 15.11.2019
4398 Clear -6 1027 85 16093 2.1 250 08:21 15.11.2019
4399 Clear -5 1027 79 16093 7.49 267 07:46 15.11.2019
4400 Clear -5 1027 85 16093 2.1 240 07:26 15.11.2019
4401 Clouds -5 1027 85 16093 1.5 230 06:36 15.11.2019
4402 Clear -5 1026 73 14484 3.6 240 05:57 15.11.2019
4403 Clear -5 1027 79 16093 1.5 250 05:39 15.11.2019
4404 Clouds -4 1026 73 16093 2.6 240 04:58 15.11.2019
4405 Clouds -4 1027 79 16093 4.6 250 03:46 15.11.2019
4406 Clouds -3 1027 79 16093 4.6 270 02:44 15.11.2019
4407 Clouds -3 1027 79 16093 4.6 270 02:18 15.11.2019
4408 Clouds -3 1026 79 16093 2.6 280 01:32 15.11.2019
4409 Clouds -2 1026 74 16093 6.2 270 00:46 15.11.2019
4410 Clouds -2 1026 74 16093 6.2 270 00:27 15.11.2019
4411 Clouds -2 1025 74 16093 3.6 280 23:49 14.11.2019
4412 Clouds -2 1025 74 16093 3.1 300 23:27 14.11.2019
4413 Clouds -2 1025 77 16093 3.6 280 22:57 14.11.2019
4414 Clouds -2 1024 77 16093 3.6 270 22:39 14.11.2019
4415 Clouds -2 1024 77 16093 3.6 270 22:39 14.11.2019
4416 Clouds -2 1024 68 16093 4.6 290 22:19 14.11.2019
4417 Clouds -1 1024 77 16093 3.1 270 21:42 14.11.2019
4418 Clouds -1 1024 77 16093 3.1 270 21:23 14.11.2019
4419 Clouds -1 1024 68 16093 4.6 290 20:57 14.11.2019
4420 Clouds -1 1023 68 16093 4.1 270 20:39 14.11.2019
4421 Clouds -1 1024 76 16093 2.1 260 20:21 14.11.2019
4422 Clouds -1 1024 76 16093 1.5 260 19:58 14.11.2019
4423 Clouds -1 1024 76 16093 1.5 260 19:58 14.11.2019
4424 Clouds -1 1024 76 16093 3.15 294 19:40 14.11.2019
4425 Clouds -1 1024 76 16093 3.15 294 19:18 14.11.2019
4426 Clouds -1 1024 76 11265 4.6 270 18:54 14.11.2019
4427 Clouds -1 1024 76 16093 2.1 310 18:36 14.11.2019
4428 Clouds -1 1024 74 16093 1.5 300 18:18 14.11.2019
4429 Rain -1 1024 80 16093 2.1 290 17:38 14.11.2019
4430 Clouds -1 1024 74 16093 4.58 307 17:20 14.11.2019
4431 Clouds -2 1024 82 11265 2.6 290 16:58 14.11.2019
4432 Clouds -2 1023 74 16093 1.5 330 16:39 14.11.2019
4433 Clouds -2 1023 74 16093 1.5 330 16:20 14.11.2019
4434 Clouds -2 1023 68 16093 2.1 250 15:58 14.11.2019
4435 Clouds -3 1023 68 16093 2.1 250 15:39 14.11.2019
4436 Clouds -3 1023 79 16093 4.58 307 15:20 14.11.2019
4437 Clouds -3 1023 74 14484 4.1 320 14:58 14.11.2019
4438 Clouds -3 1022 86 16093 4.58 307 14:39 14.11.2019
4439 Clouds -3 1022 86 16093 4.58 307 14:39 14.11.2019
4440 Clouds -3 1022 86 16093 4.58 284 14:21 14.11.2019
4441 Clouds -3 1021 86 16093 4.58 284 13:42 14.11.2019
4442 Clouds -3 1021 86 16093 4.58 284 13:42 14.11.2019
4443 Clouds -3 1021 86 16093 4.35 278 13:23 14.11.2019
4444 Clouds -3 1021 74 16093 3.1 290 12:59 14.11.2019
4445 Clouds -3 1021 86 16093 4.35 278 12:40 14.11.2019
4446 Clouds -3 1021 86 16093 4.35 278 12:21 14.11.2019
4447 Clouds -3 1020 74 14484 2.1 240 11:55 14.11.2019
4448 Clouds -3 1020 79 16093 1.5 230 11:37 14.11.2019
4449 Clouds -3 1020 79 16093 2.1 230 11:19 14.11.2019
4450 Clouds -3 1020 79 16093 2.1 230 10:57 14.11.2019
4451 Snow -3 1020 79 14484 2.1 240 10:37 14.11.2019
4452 Snow -3 1020 79 14484 2.1 220 10:19 14.11.2019
4453 Rain -4 1020 86 8047 5.37 251 09:42 14.11.2019
4454 Rain -3 1020 86 8047 5.37 251 09:24 14.11.2019
4455 Rain -3 1019 79 9656 1.5 220 08:58 14.11.2019
4456 Rain -3 1019 79 9656 1.5 220 08:39 14.11.2019
4457 Snow -3 1020 86 16093 6.26 240 08:21 14.11.2019
4458 Rain -3 1020 79 11265 6.6 232 07:42 14.11.2019
4459 Rain -3 1020 86 8047 6.6 232 07:23 14.11.2019
4460 Rain -3 1020 86 8047 6.6 232 07:23 14.11.2019
4461 Rain -3 1020 68 11265 1.5 200 06:46 14.11.2019
4462 Clouds -3 1019 68 16093 3.1 210 06:20 14.11.2019
4463 Clouds -3 1020 73 16093 8.14 234 05:27 14.11.2019
4464 Clouds -3 1020 73 16093 8.14 234 04:35 14.11.2019
4465 Clouds -3 1019 68 16093 5.1 220 02:51 14.11.2019
4466 Clouds -3 1019 68 16093 5.7 200 02:29 14.11.2019
4467 Clouds -3 1019 68 16093 4.1 210 01:40 14.11.2019
4468 Clouds -4 1019 68 16093 4.6 200 00:56 14.11.2019
4469 Clouds -4 1019 68 16093 5.1 210 00:36 14.11.2019
4470 Clouds -4 1019 68 16093 5.1 210 00:18 14.11.2019
4471 Clear -4 1019 62 16093 7.2 200 23:38 13.11.2019
4472 Clear -4 1019 62 16093 7.2 200 23:38 13.11.2019
4473 Clear -4 1019 62 16093 7.2 200 23:19 13.11.2019
4474 Clear -4 1019 62 16093 6.2 190 22:42 13.11.2019
4475 Clear -4 1019 62 16093 6.2 190 22:23 13.11.2019
4476 Clear -4 1019 62 16093 6.2 190 22:23 13.11.2019
4477 Clouds -4 1018 45 16093 8.7 200 21:57 13.11.2019
4478 Clear -4 1019 58 16093 8.2 190 21:39 13.11.2019
4479 Clear -4 1019 58 16093 8.2 190 21:21 13.11.2019
4480 Clouds -5 1019 45 16093 8.2 190 20:58 13.11.2019
4481 Clouds -5 1019 45 16093 8.2 190 20:58 13.11.2019
4482 Clear -5 1020 62 16093 7.7 180 20:38 13.11.2019
4483 Clear -5 1020 62 16093 7.7 180 20:38 13.11.2019
4484 Clear -5 1020 62 16093 7.7 180 20:20 13.11.2019
4485 Clear -5 1021 57 16093 6.7 190 19:59 13.11.2019
4486 Clear -6 1022 62 16093 6.2 180 19:40 13.11.2019
4487 Clouds -6 1021 48 16093 6.7 180 19:18 13.11.2019
4488 Clouds -6 1021 48 16093 6.7 180 18:55 13.11.2019
4489 Clouds -7 1024 62 16093 8.7 180 18:37 13.11.2019
4490 Clouds -7 1024 62 16093 8.7 180 18:18 13.11.2019
4491 Clouds -7 1024 67 16093 7.2 180 17:56 13.11.2019
4492 Clouds -7 1025 67 16093 7.2 200 17:38 13.11.2019
4493 Clouds -8 1025 67 16093 7.2 200 17:19 13.11.2019
4494 Clear -8 1026 61 16093 6.7 200 16:56 13.11.2019
4495 Clear -8 1026 66 16093 5.1 200 16:37 13.11.2019
4496 Clear -9 1026 66 16093 5.1 200 16:19 13.11.2019
4497 Clouds -9 1025 52 16093 7.2 200 15:57 13.11.2019
4498 Clear -9 1025 72 16093 7.7 190 15:37 13.11.2019
4499 Clouds -9 1023 61 16093 4.6 200 15:18 13.11.2019
4500 Clear -10 1025 66 16093 6.2 180 14:41 13.11.2019
4501 Clouds -10 1023 61 16093 5.7 180 14:21 13.11.2019
4502 Clear -10 1026 85 16093 4.1 170 13:39 13.11.2019
4503 Clear -10 1026 85 16093 4.1 170 13:39 13.11.2019
4504 Clear -10 1023 61 16093 5.1 180 13:20 13.11.2019
4505 Clear -10 1026 78 16093 2.1 170 12:59 13.11.2019
4506 Clear -10 1026 72 16093 5.1 180 12:41 13.11.2019
4507 Clear -10 1026 72 16093 5.1 180 12:23 13.11.2019
4508 Clouds -10 1025 61 16093 4.6 190 11:57 13.11.2019
4509 Clear -11 1027 72 16093 4.1 190 11:38 13.11.2019
4510 Clear -11 1027 72 16093 4.1 190 11:38 13.11.2019
4511 Clear -11 1027 72 16093 4.1 190 11:19 13.11.2019
4512 Clear -11 1028 61 16093 2.6 170 10:55 13.11.2019
4513 Clear -11 1028 78 16093 3.1 180 10:37 13.11.2019
4514 Clouds -11 1028 56 16093 3.1 200 10:19 13.11.2019
4515 Clear -11 1029 61 16093 1.5 180 09:43 13.11.2019
4516 Clear -11 1029 72 16093 3.1 210 09:21 13.11.2019
4517 Clear -11 1029 78 16093 3.1 200 08:42 13.11.2019
4518 Clear -11 1029 78 16093 3.1 200 08:23 13.11.2019
4519 Clear -12 1029 61 16093 6.11 218 07:59 13.11.2019
4520 Clear -12 1029 78 16093 1.5 170 07:39 13.11.2019
4521 Clear -12 1029 78 16093 1.5 170 07:18 13.11.2019
4522 Clear -12 1030 72 16093 2.1 150 07:18 13.11.2019
4523 Clear -12 1030 78 16093 6.11 218 06:42 13.11.2019
4524 Clear -13 1030 78 16093 6.11 218 06:19 13.11.2019
4525 Clear -13 1030 61 16093 6.11 218 05:48 13.11.2019
4526 Clear -13 1030 78 16093 1.5 210 05:19 13.11.2019
4527 Clear -12 1030 72 16093 1.5 210 03:56 13.11.2019
4528 Clear -11 1031 66 16093 2.1 260 01:52 13.11.2019
4529 Clear -11 1031 66 16093 2.1 260 01:27 13.11.2019
4530 Clear -10 1031 61 16093 4.1 260 00:43 13.11.2019
4531 Clouds -9 1031 47 16093 4.1 280 23:56 12.11.2019
4532 Clear -9 1031 48 16093 3.1 260 23:38 12.11.2019
4533 Clear -9 1031 48 16093 3.1 260 23:18 12.11.2019
4534 Clear -8 1031 48 16093 4.1 260 22:42 12.11.2019
4535 Clouds -8 1031 44 16093 4.6 290 22:19 12.11.2019
4536 Clear -8 1031 48 16093 3.1 290 21:56 12.11.2019
4537 Clear -8 1031 48 16093 2.1 260 21:38 12.11.2019
4538 Clear -8 1031 48 16093 2.1 260 21:38 12.11.2019
4539 Clouds -8 1031 48 16093 5.1 320 21:19 12.11.2019
4540 Clear -8 1031 44 16093 2.1 270 20:55 12.11.2019
4541 Clear -8 1032 44 16093 2.6 320 20:36 12.11.2019
4542 Clouds -8 1032 48 16093 4.6 320 20:18 12.11.2019
4543 Rain -8 1032 48 16093 4.6 320 19:55 12.11.2019
4544 Rain -8 1032 48 16093 4.1 310 19:55 12.11.2019
4545 Rain -8 1033 48 16093 5.1 290 19:37 12.11.2019
4546 Rain -9 1033 48 16093 5.1 290 19:18 12.11.2019
4547 Rain -9 1033 52 16093 4.1 310 18:55 12.11.2019
4548 Rain -9 1033 52 16093 4.1 310 18:55 12.11.2019
4549 Rain -9 1033 52 16093 4.6 320 18:36 12.11.2019
4550 Rain -9 1033 52 16093 4.6 330 18:18 12.11.2019
4551 Rain -9 1033 56 16093 3.6 330 17:55 12.11.2019
4552 Rain -10 1033 56 16093 3.6 340 17:36 12.11.2019
4553 Rain -10 1033 56 16093 3.6 340 17:36 12.11.2019
4554 Rain -10 1033 56 16093 3.6 340 17:36 12.11.2019
4555 Clouds -10 1033 56 16093 4.6 300 17:18 12.11.2019
4556 Clear -11 1033 66 16093 3.1 320 16:42 12.11.2019
4557 Clear -11 1033 66 16093 3.1 320 16:24 12.11.2019
4558 Clear -12 1033 66 16093 4.1 330 15:55 12.11.2019
4559 Clear -12 1033 72 16093 4.1 310 15:37 12.11.2019
4560 Clouds -12 1033 60 16093 5.1 320 15:18 12.11.2019
4561 Clear -13 1032 66 16093 4.6 320 14:41 12.11.2019
4562 Clear -13 1032 66 16093 4.6 320 14:20 12.11.2019
4563 Clouds -14 1032 65 16093 5.7 310 13:58 12.11.2019
4564 Clear -13 1031 66 16093 3.6 320 13:39 12.11.2019
4565 Clouds -13 1031 60 16093 6.2 320 13:19 12.11.2019
4566 Clear -13 1031 72 16093 3.6 320 12:59 12.11.2019
4567 Clear -13 1031 72 16093 3.6 320 12:39 12.11.2019
4568 Clear -13 1031 72 16093 3.6 320 12:18 12.11.2019
4569 Clear -13 1030 71 16093 4.1 320 11:43 12.11.2019
4570 Clear -12 1030 66 16093 4.6 310 11:24 12.11.2019
4571 Clear -12 1030 61 16093 6.2 300 10:58 12.11.2019
4572 Clear -12 1030 66 16093 4.1 330 10:40 12.11.2019
4573 Clear -12 1030 66 16093 4.1 330 10:21 12.11.2019
4574 Clear -12 1030 61 16093 8.7 320 09:59 12.11.2019
4575 Clear -12 1029 72 16093 4.6 320 09:38 12.11.2019
4576 Clear -12 1029 72 16093 4.6 320 09:18 12.11.2019
4577 Clouds -11 1029 61 16093 6.7 300 08:47 12.11.2019
4578 Clear -11 1029 66 16093 5.7 320 08:28 12.11.2019
4579 Clear -11 1029 57 16093 7.2 300 07:42 12.11.2019
4580 Clear -11 1029 66 16093 4.6 320 07:24 12.11.2019
4581 Clear -10 1029 57 16093 7.2 300 06:51 12.11.2019
4582 Clear -10 1029 61 16093 4.6 310 06:24 12.11.2019
4583 Clear -10 1028 57 16093 7.7 300 05:52 12.11.2019
4584 Clouds -9 1028 67 16093 6.2 330 04:51 12.11.2019
4585 Clouds -9 1028 62 16093 5.1 330 04:20 12.11.2019
4586 Clouds -7 1027 57 16093 8.2 320 01:53 12.11.2019
4587 Snow -7 1026 85 16093 6.2 320 01:26 12.11.2019
4588 Snow -6 1026 85 6437 4.6 330 00:53 12.11.2019
4589 Snow -6 1026 85 6437 4.6 330 00:32 12.11.2019
4590 Snow -6 1026 79 12874 6.2 330 23:55 11.11.2019
4591 Snow -6 1026 79 2816 6.2 330 23:36 11.11.2019
4592 Clouds -6 1025 79 16093 5.7 330 23:18 11.11.2019
4593 Snow -6 1024 85 16093 7.2 340 22:38 11.11.2019
4594 Snow -6 1024 85 16093 7.2 340 22:20 11.11.2019
4595 Snow -5 1023 85 4023 4.6 340 21:58 11.11.2019
4596 Snow -5 1023 85 6437 5.7 340 21:39 11.11.2019
4597 Snow -5 1024 73 14484 9.3 340 21:20 11.11.2019
4598 Snow -5 1023 86 11265 6.7 330 20:55 11.11.2019
4599 Snow -5 1025 67 14484 7.7 340 20:37 11.11.2019
4600 Snow -5 1023 79 12874 8.7 350 20:19 11.11.2019
4601 Snow -5 1025 73 9656 8.7 350 19:42 11.11.2019
4602 Rain -5 1024 79 4828 8.7 330 19:19 11.11.2019
4603 Rain -5 1024 79 4828 8.7 330 18:57 11.11.2019
4604 Rain -5 1024 79 2414 5.7 350 18:39 11.11.2019
4605 Rain -5 1023 92 2414 5.7 340 18:20 11.11.2019
4606 Rain -5 1024 92 2414 9.3 350 17:44 11.11.2019
4607 Rain -5 1023 92 805 6.2 350 17:26 11.11.2019
4608 Rain -5 1024 85 1207 9.8 350 16:55 11.11.2019
4609 Rain -5 1025 79 1207 6.7 340 16:37 11.11.2019
4610 Rain -5 1025 79 1207 6.7 340 16:37 11.11.2019
4611 Rain -5 1025 79 1207 6.7 340 16:37 11.11.2019
4612 Rain -5 1022 100 805 4.6 350 16:19 11.11.2019
4613 Rain -5 1025 85 2012 5.7 340 15:41 11.11.2019
4614 Rain -5 1023 92 1609 6.2 10 15:20 11.11.2019
4615 Rain -4 1023 86 805 8.2 350 14:55 11.11.2019
4616 Rain -4 1023 86 805 8.2 350 14:54 11.11.2019
4617 Rain -4 1024 79 1207 6.2 340 14:36 11.11.2019
4618 Rain -4 1022 86 805 8.2 340 14:18 11.11.2019
4619 Rain -3 1022 85 1609 8.2 350 13:39 11.11.2019
4620 Rain -3 1022 92 4023 7.2 10 13:21 11.11.2019
4621 Rain -3 1021 92 1207 7.7 360 12:58 11.11.2019
4622 Rain -3 1021 92 1207 7.7 360 12:58 11.11.2019
4623 Rain -3 1022 86 1609 8.2 10 12:40 11.11.2019
4624 Rain -2 1020 100 16093 3.6 30 12:22 11.11.2019
4625 Rain -2 1021 86 1207 5.1 10 11:57 11.11.2019
4626 Rain -2 1021 86 1207 5.1 10 11:57 11.11.2019
4627 Rain -1 1023 86 1609 6.2 350 11:38 11.11.2019
4628 Rain -1 1020 93 16093 3.6 40 11:20 11.11.2019
4629 Rain -1 1020 86 16093 4.6 60 10:42 11.11.2019
4630 Rain 0 1020 93 16093 4.6 40 10:18 11.11.2019
4631 Rain 0 1020 93 8047 5.7 20 09:58 11.11.2019
4632 Rain 0 1020 93 14484 6.7 10 09:39 11.11.2019
4633 Drizzle 0 1019 93 16093 4.6 30 09:19 11.11.2019
4634 Rain 1 1020 86 9656 4.6 10 08:41 11.11.2019
4635 Rain 1 1020 86 9656 4.6 10 08:22 11.11.2019
4636 Rain 1 1020 93 9656 3.6 350 07:57 11.11.2019
4637 Rain 1 1020 90 4023 4.6 350 07:37 11.11.2019
4638 Rain 1 1020 86 16093 3.6 10 07:19 11.11.2019
4639 Rain 1 1020 90 6437 5.7 350 06:48 11.11.2019
4640 Drizzle 2 1020 86 16093 3.6 10 06:23 11.11.2019
4641 Rain 2 1020 86 12874 5.1 350 05:51 11.11.2019
4642 Rain 3 1020 80 16093 3.6 360 04:36 11.11.2019
4643 Clouds 4 1020 75 16093 2.6 340 03:23 11.11.2019
4644 Clouds 4 1019 80 16093 2.1 350 02:26 11.11.2019
4645 Clouds 4 1019 65 16093 4.6 20 01:56 11.11.2019
4646 Clouds 4 1018 69 16093 4.1 10 01:34 11.11.2019
4647 Clouds 4 1018 86 16093 2.6 10 00:49 11.11.2019
4648 Clouds 4 1018 86 16093 3.1 10 00:49 11.11.2019
4649 Clouds 4 1018 74 16093 5.1 30 00:21 11.11.2019
4650 Clouds 4 1017 80 16093 4.6 360 23:40 10.11.2019
4651 Clouds 4 1017 80 16093 4.6 360 23:20 10.11.2019
4652 Clouds 4 1017 80 16093 4.6 360 23:20 10.11.2019
4653 Clouds 4 1018 80 16093 4.6 360 22:58 10.11.2019
4654 Clouds 4 1018 69 16093 2.6 50 22:39 10.11.2019
4655 Clouds 4 1017 80 16093 3.1 10 22:20 10.11.2019
4656 Clouds 5 1017 70 16093 3.6 10 21:59 10.11.2019
4657 Clouds 5 1016 86 16093 2.6 30 21:40 10.11.2019
4658 Clouds 5 1016 86 16093 2.6 30 21:21 10.11.2019
4659 Clouds 5 1016 70 16093 4.1 20 20:58 10.11.2019
4660 Clouds 5 1016 86 16093 4.6 30 20:38 10.11.2019
4661 Clouds 5 1016 86 16093 4.6 30 20:20 10.11.2019
4662 Clouds 5 1016 86 16093 4.6 30 20:20 10.11.2019
4663 Clouds 5 1016 75 16093 5.1 30 19:55 10.11.2019
4664 Clouds 5 1016 81 16093 3.6 20 19:37 10.11.2019
4665 Clouds 5 1016 81 16093 3.6 20 19:18 10.11.2019
4666 Clouds 5 1017 75 16093 4.6 20 18:54 10.11.2019
4667 Clouds 5 1017 75 16093 4.6 360 18:36 10.11.2019
4668 Clouds 5 1017 75 16093 5.1 20 18:18 10.11.2019
4669 Clouds 5 1017 75 16093 5.1 20 17:55 10.11.2019
4670 Clouds 5 1017 75 16093 5.1 20 17:55 10.11.2019
4671 Clouds 5 1017 75 12874 3.1 20 17:37 10.11.2019
4672 Clouds 5 1016 70 16093 4.6 30 17:18 10.11.2019
4673 Clouds 5 1016 80 16093 2.1 30 16:43 10.11.2019
4674 Clear 4 1016 81 16093 2.6 20 16:25 10.11.2019
4675 Clouds 4 1016 70 16093 4.6 20 15:56 10.11.2019
4676 Clear 4 1016 75 16093 2.1 360 15:38 10.11.2019
4677 Clear 4 1016 75 16093 2.1 360 15:19 10.11.2019
4678 Clear 3 1015 86 16093 7.32 347 14:58 10.11.2019
4679 Clear 2 1015 86 16093 7.32 347 14:38 10.11.2019
4680 Clear 2 1015 84 16093 5.47 318 14:20 10.11.2019
4681 Clear 2 1015 84 16093 5.47 318 13:55 10.11.2019
4682 Clear 2 1014 84 16093 5.47 318 13:36 10.11.2019
4683 Clear 2 1014 82 16093 4.94 318 13:18 10.11.2019
4684 Clear 2 1014 82 16093 4.94 318 12:41 10.11.2019
4685 Clear 2 1014 82 16093 4.94 318 12:19 10.11.2019
4686 Clouds 2 1014 69 16093 2.1 270 11:56 10.11.2019
4687 Clear 2 1014 82 16093 4.94 318 11:38 10.11.2019
4688 Clouds 3 1013 69 16093 2.1 270 11:19 10.11.2019
4689 Clear 3 1013 78 16093 1.5 210 10:42 10.11.2019
4690 Clear 3 1013 93 16093 2.6 210 10:22 10.11.2019
4691 Clear 3 1013 93 16093 2.6 210 10:22 10.11.2019
4692 Clouds 4 1013 60 16093 1.5 270 09:58 10.11.2019
4693 Clear 4 1013 78 16093 1.5 200 09:39 10.11.2019
4694 Clear 4 1013 86 16093 2.1 220 09:19 10.11.2019
4695 Clear 5 1013 60 16093 4.75 278 08:39 10.11.2019
4696 Clear 5 1014 75 16093 6.1 273 08:20 10.11.2019
4697 Clear 5 1014 75 16093 6.1 273 08:20 10.11.2019
4698 Clear 5 1014 80 16093 2.1 210 07:47 10.11.2019
4699 Clear 5 1013 80 16093 1.5 200 07:27 10.11.2019
4700 Clouds 5 1012 60 16093 2.6 0 06:59 10.11.2019
4701 Clear 5 1013 80 16093 1.5 210 06:21 10.11.2019
4702 Clouds 6 1013 72 16093 2.1 220 03:38 10.11.2019
4703 Clouds 6 1013 72 16093 3.1 230 02:30 10.11.2019
4704 Clouds 6 1013 67 16093 3.1 230 01:37 10.11.2019
4705 Clouds 6 1012 48 16093 3.1 210 01:18 10.11.2019
4706 Clear 6 1013 65 16093 2.6 220 00:25 10.11.2019
4707 Clear 7 1013 56 16093 3.1 220 23:40 09.11.2019
4708 Clear 7 1013 56 16093 3.1 220 23:19 09.11.2019
4709 Clear 7 1013 52 16093 6.7 220 22:42 09.11.2019
4710 Clear 8 1013 52 16093 6.7 220 22:22 09.11.2019
4711 Clouds 8 1012 45 16093 6.2 230 21:58 09.11.2019
4712 Clear 8 1013 52 16093 6.7 210 21:40 09.11.2019
4713 Clear 8 1013 52 16093 6.7 210 21:21 09.11.2019
4714 Clouds 8 1013 45 16093 7.7 210 20:56 09.11.2019
4715 Clear 8 1013 49 16093 6.2 210 20:37 09.11.2019
4716 Clear 7 1013 49 16093 6.2 210 20:18 09.11.2019
4717 Clear 7 1014 48 16093 6.2 220 19:41 09.11.2019
4718 Clear 6 1014 48 16093 6.2 220 19:23 09.11.2019
4719 Clouds 6 1014 48 16093 6.2 240 18:59 09.11.2019
4720 Clear 5 1015 52 16093 5.7 210 18:39 09.11.2019
4721 Clear 5 1015 52 16093 5.7 210 18:19 09.11.2019
4722 Clear 4 1014 51 16093 3.6 230 17:43 09.11.2019
4723 Clouds 3 1016 55 16093 8.7 210 17:23 09.11.2019
4724 Clouds 3 1015 51 16093 6.2 210 16:59 09.11.2019
4725 Clouds 2 1016 59 16093 5.7 200 16:40 09.11.2019
4726 Clouds 1 1016 59 16093 5.7 200 16:20 09.11.2019
4727 Clouds 0 1015 59 16093 5.1 210 15:42 09.11.2019
4728 Clouds 0 1017 62 16093 5.1 190 15:24 09.11.2019
4729 Clouds -1 1017 62 16093 5.7 200 14:57 09.11.2019
4730 Clouds -1 1017 63 16093 3.6 190 14:39 09.11.2019
4731 Clouds -1 1017 63 16093 3.6 190 14:18 09.11.2019
4732 Clouds -1 1017 58 16093 5.7 190 13:55 09.11.2019
4733 Clouds -1 1018 58 16093 5.1 200 13:36 09.11.2019
4734 Clouds -2 1017 54 16093 4.6 190 13:18 09.11.2019
4735 Clouds -2 1019 63 16093 4.6 190 12:41 09.11.2019
4736 Clouds -2 1019 63 16093 4.6 190 12:22 09.11.2019
4737 Clouds -2 1018 54 16093 5.7 200 11:55 09.11.2019
4738 Clouds -2 1020 58 16093 4.6 200 11:37 09.11.2019
4739 Clouds -2 1020 58 16093 4.6 200 11:18 09.11.2019
4740 Clouds -2 1020 42 16093 3.6 180 10:40 09.11.2019
4741 Clouds -2 1021 58 16093 3.6 200 10:19 09.11.2019
4742 Clouds -2 1019 54 16093 4.6 210 09:48 09.11.2019
4743 Clear -2 1022 63 16093 4.1 200 09:28 09.11.2019
4744 Clouds -2 1021 50 16093 4.6 210 08:59 09.11.2019
4745 Clear -3 1022 63 16093 4.6 210 08:40 09.11.2019
4746 Clear -3 1022 63 16093 4.6 210 08:21 09.11.2019
4747 Clear -3 1024 58 16093 3.1 210 07:46 09.11.2019
4748 Clear -3 1024 58 16093 3.1 210 07:23 09.11.2019
4749 Clear -3 1024 58 16093 3.6 220 06:49 09.11.2019
4750 Clear -3 1024 58 16093 4.1 200 06:31 09.11.2019
4751 Clear -3 1023 50 16093 1.5 220 05:45 09.11.2019
4752 Clouds -3 1024 46 16093 3.6 210 04:58 09.11.2019
4753 Clear -3 1025 50 16093 3.1 210 03:52 09.11.2019
4754 Clear -3 1027 58 16093 2.1 210 02:43 09.11.2019
4755 Clouds -3 1027 42 16093 4.1 210 01:55 09.11.2019
4756 Clouds -2 1027 42 16093 4.1 210 00:53 09.11.2019
4757 Clear -2 1028 53 16093 2.6 210 00:31 09.11.2019
4758 Clear -2 1028 53 16093 2.6 210 00:31 09.11.2019
4759 Clear -2 1028 46 16093 2.6 220 23:58 08.11.2019
4760 Clear -2 1028 39 16093 3.6 220 23:39 08.11.2019
4761 Clear -1 1028 39 16093 3.6 220 23:19 08.11.2019
4762 Clear -1 1029 35 16093 4.1 230 22:48 08.11.2019
4763 Clear 0 1029 35 16093 2.6 230 22:22 08.11.2019
4764 Clouds 0 1029 35 16093 4.6 230 21:57 08.11.2019
4765 Clear 0 1029 35 16093 4.6 210 21:39 08.11.2019
4766 Clear 0 1029 35 16093 4.6 210 21:19 08.11.2019
4767 Clear 0 1029 35 16093 1.5 260 20:43 08.11.2019
4768 Clear 0 1030 42 16093 3.1 220 20:22 08.11.2019
4769 Clear 0 1031 42 16093 3.6 220 19:59 08.11.2019
4770 Clear -1 1031 42 16093 3.6 230 19:39 08.11.2019
4771 Clear -1 1031 42 16093 3.6 230 19:19 08.11.2019
4772 Clouds -1 1031 39 16093 4.1 250 18:56 08.11.2019
4773 Clear -1 1032 42 16093 3.1 230 18:38 08.11.2019
4774 Clear -2 1032 42 16093 3.1 230 18:20 08.11.2019
4775 Clouds -2 1033 42 16093 3.1 290 17:56 08.11.2019
4776 Clear -2 1033 46 16093 2.1 280 17:37 08.11.2019
4777 Clear -2 1033 46 16093 2.1 280 17:37 08.11.2019
4778 Clouds -3 1033 49 16093 2.1 280 17:19 08.11.2019
4779 Clear -4 1033 58 16093 3.1 270 16:58 08.11.2019
4780 Clear -4 1033 58 16093 3.1 270 16:58 08.11.2019
4781 Clear -4 1033 62 16093 1.5 280 16:39 08.11.2019
4782 Clear -5 1033 62 16093 1.5 280 16:20 08.11.2019
4783 Clouds -6 1033 57 16093 2.6 290 15:58 08.11.2019
4784 Clear -6 1033 62 16093 2.6 290 15:40 08.11.2019
4785 Clear -7 1033 62 16093 2.6 290 15:21 08.11.2019
4786 Clear -8 1033 73 16093 1.5 300 14:56 08.11.2019
4787 Clear -8 1033 78 16093 1.5 280 14:36 08.11.2019
4788 Clear -9 1033 78 16093 1.5 280 14:18 08.11.2019
4789 Clear -9 1033 78 16093 2.1 270 13:57 08.11.2019
4790 Clear -9 1033 72 16093 1.5 280 13:38 08.11.2019
4791 Clear -9 1033 72 16093 1.5 280 13:19 08.11.2019
4792 Clear -9 1032 72 16093 5.33 329 12:42 08.11.2019
4793 Clear -9 1033 72 16093 5.33 329 12:24 08.11.2019
4794 Clouds -9 1033 67 16093 2.1 300 11:57 08.11.2019
4795 Clear -9 1032 72 16093 2.1 280 11:38 08.11.2019
4796 Clear -9 1032 72 16093 2.1 280 11:38 08.11.2019
4797 Clear -9 1032 72 16093 2.1 280 11:19 08.11.2019
4798 Clouds -8 1032 67 16093 2.6 300 10:56 08.11.2019
4799 Clear -8 1033 67 16093 2.1 310 10:38 08.11.2019
4800 Clear -8 1033 67 16093 2.1 310 10:20 08.11.2019
4801 Clear -7 1032 53 16093 4.1 280 09:41 08.11.2019
4802 Clouds -7 1033 62 16093 4.1 320 09:20 08.11.2019
4803 Clouds -7 1033 62 16093 4.1 320 08:58 08.11.2019
4804 Clear -7 1033 57 16093 2.1 310 08:37 08.11.2019
4805 Clear -7 1033 57 16093 2.1 310 08:18 08.11.2019
4806 Clear -6 1033 49 16093 5.1 290 07:40 08.11.2019
4807 Clear -6 1033 57 16093 3.6 320 07:22 08.11.2019
4808 Clear -6 1032 49 16093 3.6 340 06:41 08.11.2019
4809 Clear -6 1032 49 16093 3.6 340 06:41 08.11.2019
4810 Clear -6 1032 49 16093 3.6 340 06:21 08.11.2019
4811 Clear -6 1033 49 16093 5.7 330 05:55 08.11.2019
4812 Clear -6 1033 53 16093 4.6 330 05:21 08.11.2019
4813 Clear -4 1031 42 16093 7.2 300 03:44 08.11.2019
4814 Clear -4 1031 49 16093 4.1 320 03:21 08.11.2019
4815 Clear -3 1031 53 16093 2.1 330 02:45 08.11.2019
4816 Clear -3 1031 45 16093 3.6 320 01:47 08.11.2019
4817 Clear -3 1031 45 16093 4.1 310 01:24 08.11.2019
4818 Clear -2 1030 42 16093 3.1 310 00:24 08.11.2019
4819 Clear -2 1030 42 16093 4.6 320 23:58 07.11.2019
4820 Clear -2 1030 39 16093 3.6 320 23:40 07.11.2019
4821 Clear -2 1030 39 16093 3.6 320 23:22 07.11.2019
4822 Clear -2 1029 60 16093 4.6 310 22:42 07.11.2019
4823 Clear -1 1029 60 16093 4.6 310 22:22 07.11.2019
4824 Clouds -1 1029 39 16093 5.1 330 21:56 07.11.2019
4825 Clear -1 1029 60 16093 3.6 340 21:37 07.11.2019
4826 Clear -1 1029 60 16093 3.6 340 21:19 07.11.2019
4827 Clouds -1 1029 60 16093 5.1 310 20:57 07.11.2019
4828 Clear -1 1029 60 16093 3.1 350 20:39 07.11.2019
4829 Clear -1 1029 62 16093 3.1 350 20:21 07.11.2019
4830 Clear -1 1030 62 16093 5.1 320 19:55 07.11.2019
4831 Clear -1 1030 46 16093 3.6 350 19:36 07.11.2019
4832 Clear -1 1030 46 16093 3.6 350 19:18 07.11.2019
4833 Clear -2 1031 50 16093 3.1 310 18:55 07.11.2019
4834 Clear -2 1031 50 16093 3.6 300 18:37 07.11.2019
4835 Clear -2 1031 50 16093 3.6 300 18:37 07.11.2019
4836 Clear -2 1031 50 16093 3.6 300 18:19 07.11.2019
4837 Clouds -3 1032 53 16093 6.2 320 17:40 07.11.2019
4838 Clouds -3 1032 53 16093 6.2 320 17:21 07.11.2019
4839 Clear -4 1031 53 16093 4.1 330 16:58 07.11.2019
4840 Clear -4 1031 58 16093 3.6 330 16:40 07.11.2019
4841 Clouds -4 1031 49 16093 6.7 340 16:20 07.11.2019
4842 Clear -5 1031 58 16093 4.6 330 15:57 07.11.2019
4843 Clouds -5 1031 53 16093 6.2 330 15:39 07.11.2019
4844 Clear -5 1031 62 16093 3.1 320 15:19 07.11.2019
4845 Clouds -5 1031 63 16093 5.1 340 14:45 07.11.2019
4846 Clouds -5 1030 58 16093 5.7 330 14:27 07.11.2019
4847 Clouds -5 1030 68 16093 5.1 330 13:57 07.11.2019
4848 Clouds -5 1030 68 16093 8.2 330 13:39 07.11.2019
4849 Clouds -4 1030 68 16093 8.2 330 13:20 07.11.2019
4850 Clouds -4 1029 80 16093 4.1 340 12:58 07.11.2019
4851 Clouds -4 1029 68 16093 7.7 360 12:40 07.11.2019
4852 Clouds -3 1029 68 16093 7.7 360 12:21 07.11.2019
4853 Clouds -3 1028 86 16093 3.6 320 11:58 07.11.2019
4854 Clouds -3 1028 86 16093 3.6 320 11:39 07.11.2019
4855 Clouds -2 1028 68 16093 8.2 350 11:20 07.11.2019
4856 Snow -2 1028 80 16093 6.7 350 10:40 07.11.2019
4857 Snow -2 1028 80 16093 6.7 350 10:19 07.11.2019
4858 Clouds -2 1028 92 16093 5.1 330 09:44 07.11.2019
4859 Snow -2 1029 80 16093 5.1 350 09:23 07.11.2019
4860 Snow -2 1029 80 16093 5.1 350 09:23 07.11.2019
4861 Snow -2 1029 80 16093 5.1 350 09:23 07.11.2019
4862 Clouds -2 1028 69 6437 4.6 340 08:57 07.11.2019
4863 Snow -2 1028 86 8047 6.2 350 08:38 07.11.2019
4864 Snow -2 1028 86 8047 6.2 350 08:20 07.11.2019
4865 Rain -2 1028 92 4828 7.2 340 07:42 07.11.2019
4866 Rain -1 1028 92 4828 7.2 340 07:22 07.11.2019
4867 Rain -2 1028 92 4828 7.2 340 07:22 07.11.2019
4868 Rain -1 1028 86 6437 6.2 360 07:00 07.11.2019
4869 Rain -1 1028 86 6437 3.6 350 06:41 07.11.2019
4870 Rain -1 1027 92 6437 5.7 340 06:22 07.11.2019
4871 Rain -1 1027 94 4828 6.7 350 05:47 07.11.2019
4872 Rain 0 1027 80 3219 6.7 360 05:29 07.11.2019
4873 Rain 0 1028 94 12874 4.6 350 04:50 07.11.2019
4874 Haze 0 1028 94 6437 5.1 350 04:28 07.11.2019
4875 Clouds 3 1026 74 16093 4.1 350 01:18 07.11.2019
4876 Clouds 4 1023 96 16093 6.2 20 00:27 07.11.2019
4877 Clouds 6 1023 65 16093 7.2 10 23:50 06.11.2019
4878 Clouds 8 1022 47 16093 5.1 240 23:23 06.11.2019
4879 Clouds 10 1022 47 16093 7.2 230 22:59 06.11.2019
4880 Clouds 11 1022 70 16093 4.6 360 22:39 06.11.2019
4881 Clouds 11 1021 43 16093 7.2 240 22:20 06.11.2019
4882 Clouds 12 1022 47 16093 6.2 220 21:57 06.11.2019
4883 Clouds 12 1022 65 16093 9.3 240 21:39 06.11.2019
4884 Clouds 12 1022 47 16093 6.2 220 21:39 06.11.2019
4885 Clouds 12 1022 65 16093 9.3 240 21:19 06.11.2019
4886 Clear 13 1022 43 16093 8.7 210 20:56 06.11.2019
4887 Clear 13 1022 43 16093 8.7 210 20:38 06.11.2019
4888 Clouds 12 1022 37 16093 9.8 220 20:19 06.11.2019
4889 Clouds 12 1023 43 16093 9.8 200 19:55 06.11.2019
4890 Clouds 11 1023 43 16093 8.2 210 19:36 06.11.2019
4891 Clouds 11 1022 43 16093 7.2 210 19:18 06.11.2019
4892 Clouds 10 1024 62 16093 7.7 190 18:40 06.11.2019
4893 Clouds 9 1023 45 16093 8.2 200 18:20 06.11.2019
4894 Clouds 8 1025 62 16093 7.7 200 17:59 06.11.2019
4895 Clouds 7 1025 61 16093 6.7 200 17:41 06.11.2019
4896 Clouds 7 1025 61 16093 6.7 200 17:41 06.11.2019
4897 Clouds 7 1025 61 16093 6.7 200 17:23 06.11.2019
4898 Clouds 7 1025 61 16093 6.7 200 17:23 06.11.2019
4899 Clouds 6 1025 52 16093 4.6 200 16:57 06.11.2019
4900 Clouds 5 1026 66 16093 5.1 180 16:38 06.11.2019
4901 Clouds 5 1026 66 16093 5.1 180 16:20 06.11.2019
4902 Clouds 4 1026 56 16093 4.1 180 15:57 06.11.2019
4903 Clouds 3 1027 74 16093 4.1 180 15:37 06.11.2019
4904 Clouds 3 1027 74 16093 4.1 180 15:19 06.11.2019
4905 Clouds 2 1027 69 16093 3.1 170 14:57 06.11.2019
4906 Clouds 2 1027 69 16093 2.6 160 14:38 06.11.2019
4907 Clouds 2 1027 59 16093 4.6 170 14:20 06.11.2019
4908 Clouds 2 1027 69 16093 3.6 160 13:57 06.11.2019
4909 Clouds 1 1028 74 16093 3.6 170 13:37 06.11.2019
4910 Clouds 1 1027 64 16093 4.1 170 13:18 06.11.2019
4911 Clouds 1 1028 80 16093 1.5 180 12:54 06.11.2019
4912 Snow 1 1027 64 12874 2.6 150 12:36 06.11.2019
4913 Drizzle 1 1028 55 16093 3.1 170 12:18 06.11.2019
4914 Drizzle 1 1028 55 16093 3.1 170 11:54 06.11.2019
4915 Clouds 1 1029 95 16093 1.5 170 11:36 06.11.2019
4916 Clouds 1 1028 55 16093 2.1 180 11:18 06.11.2019
4917 Clouds 1 1029 59 16093 1.5 150 10:42 06.11.2019
4918 Clouds 1 1029 48 16093 1.5 150 10:24 06.11.2019
4919 Clouds 0 1028 59 16093 3.63 261 10:24 06.11.2019
4920 Clouds 0 1029 64 16093 3.63 261 09:58 06.11.2019
4921 Clouds 0 1029 48 16093 3.63 261 09:38 06.11.2019
4922 Clouds 0 1028 59 16093 2.1 200 09:20 06.11.2019
4923 Clouds 0 1029 64 16093 3.63 261 08:55 06.11.2019
4924 Clouds 0 1029 86 16093 2.1 180 08:37 06.11.2019
4925 Clouds 0 1029 86 16093 2.1 180 08:37 06.11.2019
4926 Clouds 0 1029 86 16093 2.1 180 08:37 06.11.2019
4927 Clouds 0 1029 86 16093 2.1 180 08:18 06.11.2019
4928 Clouds 0 1029 64 16093 1.5 210 07:43 06.11.2019
4929 Clouds 0 1029 80 16093 4.5 279 07:24 06.11.2019
4930 Clouds -1 1028 43 16093 4.5 279 06:48 06.11.2019
4931 Clear -1 1028 86 16093 1.5 260 06:28 06.11.2019
4932 Clear -2 1028 86 16093 4.5 279 05:32 06.11.2019
4933 Clear -1 1027 42 16093 5.52 292 03:22 06.11.2019
4934 Clear 0 1027 55 16093 2.1 270 01:41 06.11.2019
4935 Clear 1 1026 50 16093 7.03 286 00:46 06.11.2019
4936 Clear 1 1027 51 16093 2.6 270 00:46 06.11.2019
4937 Clouds 2 1026 40 16093 5.1 280 23:59 05.11.2019
4938 Clear 3 1026 44 16093 4.6 280 23:40 05.11.2019
4939 Clear 3 1026 44 16093 4.6 280 23:21 05.11.2019
4940 Clear 4 1026 44 16093 4.6 270 22:55 05.11.2019
4941 Clear 4 1026 44 16093 5.7 270 22:37 05.11.2019
4942 Clear 4 1026 44 16093 5.7 270 22:18 05.11.2019
4943 Clear 4 1025 45 16093 6.7 260 21:42 05.11.2019
4944 Clear 5 1025 45 16093 6.7 260 21:21 05.11.2019
4945 Clouds 5 1025 35 16093 7.2 260 20:59 05.11.2019
4946 Clear 5 1025 45 16093 7.7 280 20:39 05.11.2019
4947 Clouds 5 1025 38 16093 8.2 270 20:21 05.11.2019
4948 Clouds 5 1025 38 16093 8.2 270 19:58 05.11.2019
4949 Clear 5 1025 48 16093 7.7 260 19:58 05.11.2019
4950 Clear 4 1025 48 16093 7.7 270 19:38 05.11.2019
4951 Rain 4 1025 48 16093 7.7 270 19:20 05.11.2019
4952 Rain 4 1025 44 16093 8.2 260 18:58 05.11.2019
4953 Rain 4 1025 52 16093 7.2 250 18:39 05.11.2019
4954 Clouds 4 1025 52 16093 7.2 250 18:20 05.11.2019
4955 Clouds 4 1025 56 16093 5.7 270 17:58 05.11.2019
4956 Clouds 4 1025 60 16093 5.7 270 17:39 05.11.2019
4957 Clouds 4 1025 60 16093 5.7 270 17:19 05.11.2019
4958 Clear 4 1025 65 16093 4.6 260 16:55 05.11.2019
4959 Clear 3 1025 69 16093 3.6 260 16:37 05.11.2019
4960 Clouds 3 1025 60 16093 5.1 280 16:18 05.11.2019
4961 Rain 2 1025 67 16093 2.6 270 15:38 05.11.2019
4962 Rain 2 1025 67 16093 2.6 270 15:19 05.11.2019
4963 Rain 1 1025 69 16093 4.6 290 14:58 05.11.2019
4964 Clear 0 1024 92 16093 2.1 240 14:39 05.11.2019
4965 Clear 0 1024 92 16093 2.1 240 14:21 05.11.2019
4966 Clear -1 1023 86 16093 7.06 290 13:44 05.11.2019
4967 Clear -1 1023 92 16093 2.1 250 13:25 05.11.2019
4968 Clear -1 1023 92 16093 2.1 230 12:59 05.11.2019
4969 Clear -1 1023 92 16093 2.1 250 12:39 05.11.2019
4970 Clear -1 1023 92 16093 2.1 250 12:20 05.11.2019
4971 Clear -1 1023 92 16093 2.1 250 12:20 05.11.2019
4972 Clouds 0 1023 74 16093 3.6 280 11:55 05.11.2019
4973 Clear 0 1022 100 16093 6.77 283 11:37 05.11.2019
4974 Clouds 0 1022 74 16093 3.1 280 11:19 05.11.2019
4975 Clear 0 1022 86 16093 7.1 296 10:42 05.11.2019
4976 Clear 0 1022 86 16093 7.1 296 10:24 05.11.2019
4977 Clear 0 1022 86 16093 7.1 296 10:24 05.11.2019
4978 Clear 1 1022 74 16093 3.6 260 09:58 05.11.2019
4979 Clear 1 1022 80 16093 2.1 280 09:39 05.11.2019
4980 Clouds 1 1021 69 16093 3.6 280 09:19 05.11.2019
4981 Clouds 1 1021 69 16093 3.6 280 08:55 05.11.2019
4982 Clear 2 1021 66 16093 2.6 280 08:36 05.11.2019
4983 Rain 2 1021 58 16093 2.6 280 08:18 05.11.2019
4984 Rain 2 1021 58 16093 2.1 260 07:42 05.11.2019
4985 Rain 2 1021 58 16093 2.1 260 07:23 05.11.2019
4986 Clear 3 1021 58 16093 3.1 260 06:51 05.11.2019
4987 Rain 3 1020 86 16093 2.6 260 05:54 05.11.2019
4988 Rain 3 1020 86 16093 2.6 260 05:54 05.11.2019
4989 Rain 3 1020 86 16093 2.1 280 05:36 05.11.2019
4990 Clear 4 1020 86 16093 2.1 280 05:18 05.11.2019
4991 Clear 4 1020 80 16093 1.5 240 04:20 05.11.2019
4992 Clouds 6 1019 75 16093 3.6 280 03:24 05.11.2019
4993 Rain 6 1018 75 16093 6.2 280 02:41 05.11.2019
4994 Rain 7 1018 65 16093 3.1 280 01:48 05.11.2019
4995 Clouds 8 1016 70 16093 3.1 270 00:41 05.11.2019
4996 Clouds 8 1016 61 16093 5.1 280 00:18 05.11.2019
4997 Rain 9 1016 61 16093 3.6 250 23:41 04.11.2019
4998 Rain 9 1016 61 16093 3.6 250 23:19 04.11.2019
4999 Rain 9 1016 66 16093 5.7 250 22:55 04.11.2019
5000 Clouds 10 1015 61 16093 6.2 260 22:36 04.11.2019
5001 Rain 10 1015 61 16093 6.2 260 22:18 04.11.2019
5002 Clouds 10 1015 62 16093 4.1 260 21:54 04.11.2019
5003 Clouds 10 1015 62 16093 6.2 270 21:36 04.11.2019
5004 Rain 10 1014 57 16093 6.2 270 21:18 04.11.2019
5005 Rain 11 1014 62 16093 5.1 250 20:54 04.11.2019
5006 Rain 11 1014 58 16093 6.2 250 20:36 04.11.2019
5007 Rain 11 1014 58 16093 6.2 250 20:18 04.11.2019
5008 Rain 11 1014 62 16093 5.1 230 19:42 04.11.2019
5009 Clear 11 1014 62 16093 5.1 230 19:23 04.11.2019
5010 Rain 10 1014 57 16093 4.6 280 18:58 04.11.2019
5011 Rain 10 1014 57 16093 6.7 290 18:39 04.11.2019
5012 Rain 10 1015 66 16093 5.1 230 18:21 04.11.2019
5013 Rain 10 1015 66 16093 5.7 250 17:56 04.11.2019
5014 Rain 9 1014 66 16093 5.7 250 17:36 04.11.2019
5015 Rain 9 1014 66 16093 5.7 250 17:18 04.11.2019
5016 Clouds 8 1014 70 16093 5.7 230 16:42 04.11.2019
5017 Rain 8 1014 70 16093 5.7 230 16:24 04.11.2019
5018 Rain 8 1014 61 16093 4.6 260 15:58 04.11.2019
5019 Rain 8 1014 75 16093 5.1 230 15:40 04.11.2019
5020 Clear 7 1014 75 16093 5.1 230 15:21 04.11.2019
5021 Rain 7 1014 81 16093 3.6 210 14:58 04.11.2019
5022 Rain 6 1014 80 16093 3.6 210 14:39 04.11.2019
5023 Rain 6 1014 80 16093 3.6 210 14:20 04.11.2019
5024 Clouds 6 1012 65 16093 3.6 220 13:57 04.11.2019
5025 Clouds 6 1013 75 16093 4.6 220 13:39 04.11.2019
5026 Rain 6 1012 65 16093 4.6 210 13:20 04.11.2019
5027 Rain 7 1013 70 16093 4.6 210 12:49 04.11.2019
5028 Clouds 7 1013 70 16093 4.6 210 12:29 04.11.2019
5029 Rain 8 1013 65 16093 5.7 210 11:59 04.11.2019
5030 Rain 8 1013 65 16093 5.7 210 11:41 04.11.2019
5031 Clouds 8 1013 65 16093 5.7 210 11:22 04.11.2019
5032 Rain 8 1013 65 16093 6.7 210 10:54 04.11.2019
5033 Rain 8 1013 65 16093 7.7 200 10:36 04.11.2019
5034 Rain 8 1013 65 16093 7.7 200 10:18 04.11.2019
5035 Rain 8 1014 65 16093 7.2 210 09:40 04.11.2019
5036 Rain 8 1014 65 16093 7.2 210 09:20 04.11.2019
5037 Clouds 8 1014 65 16093 7.2 200 08:55 04.11.2019
5038 Clouds 8 1014 65 16093 6.7 210 08:37 04.11.2019
5039 Rain 8 1013 61 16093 4.1 210 08:18 04.11.2019
5040 Rain 8 1014 65 16093 6.2 210 07:42 04.11.2019
5041 Rain 8 1014 65 16093 6.2 210 07:20 04.11.2019
5042 Rain 8 1013 70 16093 2.6 210 06:49 04.11.2019
5043 Rain 8 1015 65 16093 5.7 200 06:18 04.11.2019
5044 Rain 8 1016 70 16093 3.6 200 05:32 04.11.2019
5045 Rain 8 1016 70 16093 5.1 210 04:37 04.11.2019
5046 Rain 9 1016 65 16093 5.7 210 03:42 04.11.2019
5047 Rain 9 1016 61 16093 5.1 200 01:38 04.11.2019
5048 Rain 9 1015 57 16093 3.1 210 01:18 04.11.2019
5049 Rain 10 1016 57 16093 5.1 190 00:22 04.11.2019
5050 Clouds 10 1015 65 16093 4.6 200 23:59 03.11.2019
5051 Clear 10 1016 53 16093 5.1 200 23:39 03.11.2019
5052 Rain 10 1015 43 16093 6.7 200 23:19 03.11.2019
5053 Rain 11 1015 43 16093 6.7 200 22:56 03.11.2019
5054 Rain 11 1016 50 16093 7.7 190 22:38 03.11.2019
5055 Rain 11 1015 40 16093 7.2 200 22:19 03.11.2019
5056 Rain 11 1014 46 16093 4.6 220 21:43 03.11.2019
5057 Rain 11 1016 53 16093 5.7 200 21:22 03.11.2019
5058 Clouds 11 1016 43 16093 7.7 210 20:58 03.11.2019
5059 Clouds 11 1016 57 16093 7.7 190 20:38 03.11.2019
5060 Rain 10 1016 46 16093 7.7 170 20:19 03.11.2019
5061 Rain 10 1016 60 16093 6.2 180 19:57 03.11.2019
5062 Rain 10 1016 46 16093 7.7 170 19:57 03.11.2019
5063 Rain 10 1019 53 16093 6.7 190 19:39 03.11.2019
5064 Rain 10 1019 53 16093 6.7 190 19:20 03.11.2019
5065 Clouds 9 1018 46 16093 7.2 200 18:57 03.11.2019
5066 Rain 8 1020 61 16093 5.1 210 18:37 03.11.2019
5067 Rain 7 1020 56 16093 4.6 200 18:18 03.11.2019
5068 Clouds 5 1021 80 16093 3.1 200 17:42 03.11.2019
5069 Clouds 5 1021 80 16093 3.1 200 17:22 03.11.2019
5070 Clouds 4 1021 65 16093 4.6 200 16:59 03.11.2019
5071 Clouds 3 1022 75 16093 3.6 210 16:41 03.11.2019
5072 Clouds 3 1022 75 16093 3.6 210 16:22 03.11.2019
5073 Rain 2 1021 74 16093 3.6 210 15:58 03.11.2019
5074 Rain 2 1021 75 16093 2.6 190 15:40 03.11.2019
5075 Rain 2 1021 75 16093 2.6 190 15:22 03.11.2019
5076 Clouds 1 1021 80 16093 2.6 200 14:54 03.11.2019
5077 Clouds 1 1021 75 16093 1.5 190 14:36 03.11.2019
5078 Clouds 0 1021 75 16093 1.5 190 14:18 03.11.2019
5079 Rain 0 1021 75 16093 5.12 246 13:41 03.11.2019
5080 Clouds 0 1021 73 16093 5.58 238 13:19 03.11.2019
5081 Clouds 0 1021 73 16093 5.58 238 13:19 03.11.2019
5082 Clouds 0 1021 80 16093 1.5 170 12:57 03.11.2019
5083 Clear 0 1021 100 16093 5.58 238 12:36 03.11.2019
5084 Clouds -1 1020 73 16093 1.5 190 12:18 03.11.2019
5085 Clear -1 1022 100 16093 1.5 170 11:42 03.11.2019
5086 Clear -1 1022 100 16093 1.5 170 11:22 03.11.2019
5087 Clouds -1 1021 73 16093 2.1 210 10:55 03.11.2019
5088 Rain -1 1021 92 16093 5.62 248 10:37 03.11.2019
5089 Rain -1 1021 73 16093 2.1 210 10:19 03.11.2019
5090 Clear -2 1022 73 16093 1.5 210 09:43 03.11.2019
5091 Clear -2 1022 73 16093 1.5 210 09:43 03.11.2019
5092 Rain -2 1022 92 16093 5.62 248 09:25 03.11.2019
5093 Rain -2 1021 73 16093 2.6 230 08:56 03.11.2019
5094 Clear -1 1021 92 16093 5.62 248 08:37 03.11.2019
5095 Clear -1 1021 92 16093 6.98 283 08:19 03.11.2019
5096 Rain -1 1022 63 16093 1.5 200 07:45 03.11.2019
5097 Rain -1 1022 86 16093 6.98 283 07:22 03.11.2019
5098 Rain 0 1022 69 16093 2.1 230 06:39 03.11.2019
5099 Rain 0 1022 74 16093 3.1 240 05:55 03.11.2019
5100 Rain 0 1022 63 16093 2.1 240 05:37 03.11.2019
5101 Rain 1 1022 74 16093 2.1 260 04:55 03.11.2019
5102 Rain 2 1022 69 16093 2.6 250 04:26 03.11.2019
5103 Rain 3 1022 55 16093 3.6 290 03:27 03.11.2019
5104 Rain 4 1022 60 16093 5.7 270 02:29 03.11.2019
5105 Rain 4 1021 60 16093 4.1 270 01:57 03.11.2019
5106 Rain 4 1022 64 16093 4.6 270 01:36 03.11.2019
5107 Rain 4 1022 64 16093 4.6 270 01:18 03.11.2019
5108 Rain 4 1021 64 16093 4.6 270 00:40 03.11.2019
5109 Rain 4 1021 64 16093 4.6 270 00:21 03.11.2019
5110 Rain 4 1021 60 16093 4.6 270 23:56 02.11.2019
5111 Rain 4 1021 64 16093 5.1 280 23:36 02.11.2019
5112 Rain 4 1020 64 16093 4.1 270 23:18 02.11.2019
5113 Rain 4 1020 56 16093 6.7 260 22:54 02.11.2019
5114 Rain 4 1021 60 16093 8.2 270 22:36 02.11.2019
5115 Rain 4 1021 60 16093 8.2 270 22:18 02.11.2019
5116 Rain 4 1021 60 16093 8.2 270 22:18 02.11.2019
5117 Rain 4 1020 60 16093 6.7 280 21:55 02.11.2019
5118 Rain 5 1020 60 16093 7.2 280 21:36 02.11.2019
5119 Rain 5 1020 52 16093 7.2 270 21:18 02.11.2019
5120 Rain 5 1020 60 16093 7.2 280 21:18 02.11.2019
5121 Rain 5 1020 52 16093 7.2 270 21:18 02.11.2019
5122 Rain 5 1020 52 16093 7.2 270 21:18 02.11.2019
5123 Rain 5 1020 56 16093 8.7 280 20:55 02.11.2019
5124 Rain 5 1020 56 16093 8.2 290 20:37 02.11.2019
5125 Rain 5 1020 56 16093 8.2 290 20:18 02.11.2019
5126 Rain 5 1019 56 16093 8.7 290 20:18 02.11.2019
5127 Rain 5 1019 70 16093 7.2 270 19:39 02.11.2019
5128 Rain 5 1019 70 16093 7.2 270 19:20 02.11.2019
5129 Rain 5 1020 70 16093 8.7 270 18:55 02.11.2019
5130 Rain 5 1019 56 16093 7.7 290 18:55 02.11.2019
5131 Rain 5 1019 60 16093 8.2 270 18:37 02.11.2019
5132 Rain 5 1020 70 16093 6.7 260 18:18 02.11.2019
5133 Rain 5 1020 60 16093 7.7 270 17:56 02.11.2019
5134 Rain 5 1020 60 16093 7.7 270 17:56 02.11.2019
5135 Rain 5 1019 60 16093 4.6 270 17:37 02.11.2019
5136 Rain 5 1020 75 16093 7.7 250 17:18 02.11.2019
5137 Rain 4 1020 86 16093 4.1 250 16:40 02.11.2019
5138 Rain 4 1020 86 16093 4.1 250 16:40 02.11.2019
5139 Rain 4 1020 86 16093 4.1 250 16:21 02.11.2019
5140 Rain 4 1020 100 6437 3.1 220 15:56 02.11.2019
5141 Rain 3 1019 86 16093 6.2 240 15:37 02.11.2019
5142 Rain 3 1020 100 4023 3.1 220 15:19 02.11.2019
5143 Rain 3 1019 93 8047 2.6 220 14:42 02.11.2019
5144 Rain 3 1020 100 2816 3.1 260 14:22 02.11.2019
5145 Rain 3 1020 100 11265 4.6 270 13:56 02.11.2019
5146 Rain 2 1019 100 6437 3.1 230 13:37 02.11.2019
5147 Rain 2 1020 100 8047 2.6 230 13:18 02.11.2019
5148 Rain 2 1020 93 16093 3.1 240 12:40 02.11.2019
5149 Rain 2 1020 93 16093 3.1 240 12:22 02.11.2019
5150 Clouds 2 1020 93 16093 2.6 240 11:57 02.11.2019
5151 Clouds 2 1020 93 16093 2.6 250 11:38 02.11.2019
5152 Clouds 2 1020 93 16093 2.6 250 11:19 02.11.2019
5153 Clouds 2 1019 93 11265 1.5 260 10:44 02.11.2019
5154 Clouds 2 1020 93 16093 2.1 280 10:25 02.11.2019
5155 Rain 2 1020 86 11265 3.6 260 09:56 02.11.2019
5156 Rain 2 1020 93 16093 3.1 270 09:38 02.11.2019
5157 Rain 2 1020 93 16093 3.1 270 09:18 02.11.2019
5158 Rain 2 1020 93 14484 3.1 260 08:42 02.11.2019
5159 Rain 2 1021 93 16093 2.6 280 08:20 02.11.2019
5160 Rain 2 1020 93 16093 3.1 250 07:47 02.11.2019
5161 Rain 2 1021 93 16093 3.1 250 07:27 02.11.2019
5162 Drizzle 2 1020 86 12874 5.7 260 06:54 02.11.2019
5163 Rain 2 1021 86 16093 4.6 260 06:26 02.11.2019
5164 Rain 2 1021 86 12874 4.1 260 05:55 02.11.2019
5165 Drizzle 2 1021 86 14484 5.7 270 04:53 02.11.2019
5166 Rain 2 1020 93 16093 1.5 270 04:20 02.11.2019
5167 Rain 2 1021 75 16093 2.6 240 03:46 02.11.2019
5168 Rain 3 1021 69 16093 5.1 250 02:38 02.11.2019
5169 Clouds 5 1021 75 16093 4.1 200 01:42 02.11.2019
5170 Clouds 5 1021 75 16093 4.1 200 01:21 02.11.2019
5171 Clouds 5 1021 76 16093 3.6 190 00:43 02.11.2019
5172 Clouds 5 1021 76 16093 3.6 190 00:24 02.11.2019
5173 Clouds 6 1021 76 16093 4.6 210 23:45 01.11.2019
5174 Clouds 5 1021 71 16093 4.6 210 23:20 01.11.2019
5175 Clouds 6 1021 48 16093 6.7 210 22:57 01.11.2019
5176 Clouds 6 1021 71 16093 4.6 190 22:38 01.11.2019
5177 Clouds 6 1021 45 16093 5.7 200 22:20 01.11.2019
5178 Clouds 6 1022 60 16093 5.7 200 21:40 01.11.2019
5179 Clouds 6 1022 60 16093 5.7 200 21:22 01.11.2019
5180 Clouds 6 1021 45 16093 6.2 190 20:56 01.11.2019
5181 Rain 6 1022 60 16093 6.7 210 20:38 01.11.2019
5182 Rain 5 1022 60 16093 6.7 210 20:18 01.11.2019
5183 Rain 4 1023 64 16093 8.2 200 19:41 01.11.2019
5184 Rain 4 1023 64 16093 8.2 200 19:22 01.11.2019
5185 Rain 4 1023 64 16093 5.1 200 18:58 01.11.2019
5186 Rain 4 1024 64 16093 4.1 210 18:39 01.11.2019
5187 Rain 3 1024 64 16093 4.1 210 18:18 01.11.2019
5188 Rain 2 1025 80 16093 4.1 200 17:41 01.11.2019
5189 Rain 1 1025 80 16093 4.1 200 17:23 01.11.2019
5190 Rain 1 1024 69 16093 4.1 220 16:58 01.11.2019
5191 Clear 0 1024 71 16093 3.1 210 16:36 01.11.2019
5192 Clouds -1 1024 80 16093 4.1 210 16:18 01.11.2019
5193 Clear -2 1024 86 16093 4.1 220 15:40 01.11.2019
5194 Clear -2 1024 86 16093 4.1 220 15:22 01.11.2019
5195 Clear -3 1024 92 16093 3.1 220 14:56 01.11.2019
5196 Clouds -3 1024 79 16093 5.1 220 14:56 01.11.2019
5197 Clear -4 1024 92 16093 2.6 200 14:38 01.11.2019
5198 Clear -4 1024 92 16093 2.6 200 14:19 01.11.2019
5199 Clear -5 1024 92 11265 3.1 200 13:55 01.11.2019
5200 Clear -5 1023 100 16093 2.6 200 13:36 01.11.2019
5201 Clear -5 1023 100 16093 2.6 200 13:18 01.11.2019
5202 Clear -5 1023 100 16093 2.6 210 12:42 01.11.2019
5203 Clear -5 1023 100 16093 2.6 210 12:24 01.11.2019
5204 Clear -5 1023 92 16093 2.1 220 11:43 01.11.2019
5205 Clear -5 1023 92 16093 2.1 220 11:24 01.11.2019
5206 Clear -6 1022 85 12874 2.1 210 10:57 01.11.2019
5207 Clear -6 1023 92 16093 1.5 240 10:38 01.11.2019
5208 Clear -6 1023 92 16093 1.5 240 10:20 01.11.2019
5209 Clear -5 1022 92 16093 2.1 250 09:43 01.11.2019
5210 Clear -5 1022 92 16093 2.1 250 09:25 01.11.2019
5211 Clear -5 1022 85 12874 3.6 240 08:57 01.11.2019
5212 Clear -5 1022 92 16093 2.6 240 08:39 01.11.2019
5213 Clear -5 1022 92 16093 2.6 240 08:20 01.11.2019
5214 Clear -5 1022 92 16093 2.6 240 08:20 01.11.2019
5215 Clear -5 1022 79 16093 2.1 240 07:51 01.11.2019
5216 Clear -5 1022 86 16093 2.6 250 07:23 01.11.2019
5217 Clear -4 1022 92 16093 3.1 260 06:56 01.11.2019
5218 Clear -4 1022 92 16093 4.1 260 06:23 01.11.2019
5219 Clear -4 1022 92 16093 4.1 250 05:59 01.11.2019
5220 Clear -4 1021 86 16093 4.1 260 05:38 01.11.2019
5221 Clear -3 1020 86 16093 4.1 260 03:32 01.11.2019
5222 Rain -2 1018 79 16093 5.7 290 01:49 01.11.2019
5223 Rain -1 1018 76 16093 5.7 290 01:22 01.11.2019
5224 Snow -1 1016 76 6437 5.1 300 00:20 01.11.2019
5225 Clouds -1 1015 76 11265 4.1 300 23:45 31.10.2019
5226 Snow -1 1014 91 4828 5.1 300 23:27 31.10.2019
5227 Snow 0 1014 80 2414 8.7 310 22:59 31.10.2019
5228 Snow 0 1013 86 3219 7.2 310 22:59 31.10.2019
5229 Snow 0 1014 80 2414 8.7 310 22:59 31.10.2019
5230 Snow 0 1013 86 3219 7.2 310 22:40 31.10.2019
5231 Snow 0 1012 91 805 5.7 300 22:22 31.10.2019
5232 Rain 0 1012 91 1207 7.7 310 21:56 31.10.2019
5233 Rain 0 1011 92 2012 9.3 310 21:38 31.10.2019
5234 Rain 0 1011 91 402 6.2 310 21:18 31.10.2019
5235 Rain 0 1011 91 402 6.2 310 21:18 31.10.2019
5236 Rain -1 1010 100 805 8.2 310 20:41 31.10.2019
5237 Rain -1 1010 100 805 8.2 310 20:41 31.10.2019
5238 Rain -1 1010 100 805 8.2 310 20:41 31.10.2019
5239 Rain -1 1009 97 402 8.2 320 20:22 31.10.2019
5240 Rain -1 1008 97 3219 7.2 310 19:56 31.10.2019
5241 Rain -1 1010 97 805 11.3 320 19:38 31.10.2019
5242 Rain 0 1008 97 4023 7.2 310 19:18 31.10.2019
5243 Rain 0 1008 86 805 8.7 320 18:43 31.10.2019
5244 Rain 0 1008 86 805 8.7 320 18:25 31.10.2019
5245 Rain 0 1007 100 2414 6.7 310 17:58 31.10.2019
5246 Rain 0 1008 86 1207 7.7 320 17:39 31.10.2019
5247 Rain 0 1007 100 3219 6.7 310 17:19 31.10.2019
5248 Rain 0 1008 91 1609 5.7 320 16:54 31.10.2019
5249 Rain 0 1008 91 1609 5.7 320 16:36 31.10.2019
5250 Rain 0 1007 100 4023 6.2 320 16:18 31.10.2019
5251 Rain 0 1008 86 2012 5.1 340 15:40 31.10.2019
5252 Rain 0 1007 100 6437 5.7 320 15:21 31.10.2019
5253 Rain 0 1007 86 2414 7.7 330 14:58 31.10.2019
5254 Rain 0 1007 86 3219 7.7 340 14:40 31.10.2019
5255 Rain 0 1007 100 2816 5.1 330 14:21 31.10.2019
5256 Rain 0 1007 100 2816 5.1 330 14:21 31.10.2019
5257 Rain 0 1008 86 3219 7.2 330 13:59 31.10.2019
5258 Rain 0 1008 86 3219 7.2 330 13:59 31.10.2019
5259 Rain 0 1009 92 3219 7.7 330 13:38 31.10.2019
5260 Rain 0 1007 100 4023 4.6 330 13:19 31.10.2019
5261 Rain 0 1008 92 4023 7.7 340 12:55 31.10.2019
5262 Rain 0 1009 92 4828 7.7 340 12:37 31.10.2019
5263 Rain 0 1009 92 3219 7.7 350 12:18 31.10.2019
5264 Rain 0 1011 86 6437 6.7 340 11:45 31.10.2019
5265 Rain 0 1009 100 4828 5.7 350 11:20 31.10.2019
5266 Rain 0 1010 93 4023 6.7 350 10:57 31.10.2019
5267 Rain 0 1009 100 6437 5.7 350 10:57 31.10.2019
5268 Rain 0 1011 86 6437 6.2 340 10:39 31.10.2019
5269 Rain 1 1009 100 8047 5.7 360 10:20 31.10.2019
5270 Rain 1 1011 93 6437 7.7 350 09:45 31.10.2019
5271 Drizzle 1 1011 100 3219 6.2 350 09:20 31.10.2019
5272 Drizzle 1 1011 100 3219 6.2 350 08:57 31.10.2019
5273 Rain 1 1012 93 8047 6.2 360 08:39 31.10.2019
5274 Rain 1 1011 93 3219 6.2 340 08:20 31.10.2019
5275 Rain 1 1013 90 11265 3.6 360 07:45 31.10.2019
5276 Rain 1 1012 100 8047 7.7 10 07:24 31.10.2019
5277 Rain 2 1014 90 8047 4.1 10 06:52 31.10.2019
5278 Rain 2 1013 100 8047 6.2 10 06:30 31.10.2019
5279 Drizzle 3 1013 100 8047 3.1 30 05:19 31.10.2019
5280 Rain 4 1016 87 3219 7.2 30 02:47 31.10.2019
5281 Drizzle 4 1016 100 6437 5.1 10 02:22 31.10.2019
5282 Drizzle 4 1016 100 8047 5.1 30 00:51 31.10.2019
5283 Rain 4 1016 100 6437 4.1 30 00:25 31.10.2019
5284 Drizzle 4 1017 100 4828 5.7 30 23:41 30.10.2019
5285 Drizzle 4 1017 100 4828 5.7 30 23:22 30.10.2019
5286 Rain 4 1019 86 3219 5.7 20 22:41 30.10.2019
5287 Drizzle 4 1017 100 4828 3.6 10 22:19 30.10.2019
5288 Drizzle 4 1017 100 3219 2.6 30 21:55 30.10.2019
5289 Rain 4 1019 86 6437 6.2 20 21:37 30.10.2019
5290 Rain 4 1019 93 3219 5.7 20 21:18 30.10.2019
5291 Rain 4 1019 93 3219 5.7 20 20:57 30.10.2019
5292 Rain 4 1019 93 6437 7.7 40 20:37 30.10.2019
5293 Rain 4 1019 100 16093 4.6 30 20:19 30.10.2019
5294 Rain 4 1020 86 16093 5.1 30 19:43 30.10.2019
5295 Drizzle 4 1020 100 16093 5.1 40 19:24 30.10.2019
5296 Rain 4 1021 86 16093 5.1 20 18:59 30.10.2019
5297 Rain 3 1022 86 16093 5.7 50 18:38 30.10.2019
5298 Rain 3 1022 100 11265 3.6 50 18:19 30.10.2019
5299 Rain 3 1022 86 14484 4.6 40 17:56 30.10.2019
5300 Rain 3 1023 86 12874 5.7 50 17:37 30.10.2019
5301 Rain 3 1022 100 11265 4.1 40 17:18 30.10.2019
5302 Rain 2 1023 100 8047 3.6 60 16:54 30.10.2019
5303 Rain 2 1024 93 11265 4.6 50 16:36 30.10.2019
5304 Rain 2 1023 100 8047 2.1 70 16:18 30.10.2019
5305 Rain 2 1024 93 9656 5.1 50 15:40 30.10.2019
5306 Rain 2 1023 100 11265 3.6 60 15:21 30.10.2019
5307 Rain 2 1024 93 9656 3.1 0 14:59 30.10.2019
5308 Rain 2 1024 100 8047 2.1 60 14:41 30.10.2019
5309 Rain 1 1024 100 16093 4.1 80 14:22 30.10.2019
5310 Rain 1 1024 87 4828 3.6 40 13:57 30.10.2019
5311 Rain 1 1025 87 3219 1.5 90 13:39 30.10.2019
5312 Rain 1 1025 100 11265 2.6 30 13:19 30.10.2019
5313 Rain 1 1024 91 1609 3.1 20 12:46 30.10.2019
5314 Rain 1 1025 100 4828 2.6 30 12:28 30.10.2019
5315 Rain 1 1025 100 4828 2.6 30 12:28 30.10.2019
5316 Rain 1 1025 100 8047 2.6 40 11:59 30.10.2019
5317 Rain 1 1025 80 9656 2.6 10 11:41 30.10.2019
5318 Rain 1 1025 100 11265 3.6 30 11:21 30.10.2019
5319 Rain 1 1026 100 3219 2.6 350 10:43 30.10.2019
5320 Rain 1 1025 100 4828 4.98 23 10:23 30.10.2019
5321 Rain 1 1026 81 4828 3.1 360 09:43 30.10.2019
5322 Rain 2 1026 81 4828 3.1 360 09:24 30.10.2019
5323 Rain 2 1027 93 9656 3.6 340 08:58 30.10.2019
5324 Rain 2 1027 80 6437 2.6 340 08:39 30.10.2019
5325 Rain 2 1026 74 9656 3.6 350 08:20 30.10.2019
5326 Rain 2 1026 86 8047 4.84 345 07:46 30.10.2019
5327 Rain 2 1026 86 8047 4.84 345 07:24 30.10.2019
5328 Clouds 3 1025 80 16093 4.84 345 06:42 30.10.2019
5329 Clouds 3 1025 80 16093 4.84 345 06:21 30.10.2019
5330 Clouds 3 1026 74 16093 3.1 350 05:42 30.10.2019
5331 Clouds 2 1026 64 16093 4.6 350 04:55 30.10.2019
5332 Clouds 2 1026 80 16093 1.5 350 03:43 30.10.2019
5333 Clouds 2 1026 69 16093 2.6 310 02:55 30.10.2019
5334 Clouds 1 1026 69 16093 2.1 320 02:19 30.10.2019
5335 Clouds 2 1025 80 16093 4.56 345 01:31 30.10.2019
5336 Clouds 3 1025 80 16093 2.1 300 00:31 30.10.2019
5337 Clouds 4 1025 80 16093 1.5 300 23:46 29.10.2019
5338 Clouds 4 1025 80 16093 1.5 300 23:24 29.10.2019
5339 Clouds 4 1024 69 16093 2.1 290 22:48 29.10.2019
5340 Clouds 4 1024 86 16093 1.5 320 22:20 29.10.2019
5341 Clouds 4 1024 86 16093 2.6 310 21:59 29.10.2019
5342 Clouds 4 1024 69 16093 4.6 320 21:41 29.10.2019
5343 Clouds 4 1024 86 16093 2.1 310 21:20 29.10.2019
5344 Clouds 4 1024 86 16093 1.5 290 20:56 29.10.2019
5345 Clouds 4 1023 70 16093 3.6 290 20:56 29.10.2019
5346 Mist 4 1024 93 8047 1.5 280 20:38 29.10.2019
5347 Mist 4 1024 93 8047 1.5 280 20:38 29.10.2019
5348 Mist 4 1024 93 8047 1.5 280 20:20 29.10.2019
5349 Clouds 4 1023 80 16093 3.6 320 19:56 29.10.2019
5350 Clouds 4 1023 80 16093 3.6 320 19:56 29.10.2019
5351 Clouds 5 1023 93 16093 2.1 320 19:38 29.10.2019
5352 Clouds 4 1023 93 16093 2.1 320 19:19 29.10.2019
5353 Clouds 4 1023 80 16093 2.6 330 18:55 29.10.2019
5354 Clouds 4 1023 80 16093 1.5 0 18:36 29.10.2019
5355 Clouds 4 1023 80 16093 2.6 330 18:36 29.10.2019
5356 Clouds 4 1023 80 16093 3.6 330 18:18 29.10.2019
5357 Clouds 3 1023 86 16093 2.6 310 17:54 29.10.2019
5358 Clouds 3 1023 86 16093 2.6 310 17:36 29.10.2019
5359 Clouds 3 1023 86 16093 2.6 310 17:36 29.10.2019
5360 Mist 3 1023 100 8047 2.6 330 17:18 29.10.2019
5361 Mist 3 1022 93 4828 4.6 330 16:39 29.10.2019
5362 Mist 2 1022 100 8047 3.1 340 16:19 29.10.2019
5363 Mist 2 1022 93 8047 5.1 330 15:55 29.10.2019
5364 Mist 2 1022 93 6437 5.7 350 15:37 29.10.2019
5365 Mist 2 1022 93 6437 5.7 350 15:37 29.10.2019
5366 Clouds 2 1022 93 16093 2.1 340 15:19 29.10.2019
5367 Mist 2 1021 93 4023 5.7 330 14:55 29.10.2019
5368 Clouds 2 1022 86 16093 4.6 320 14:36 29.10.2019
5369 Drizzle 2 1021 100 4023 3.1 340 14:18 29.10.2019
5370 Drizzle 2 1020 100 11265 2.1 10 13:40 29.10.2019
5371 Drizzle 3 1020 100 11265 2.1 10 13:21 29.10.2019
5372 Clouds 3 1019 100 16093 5.1 330 12:45 29.10.2019
5373 Drizzle 3 1019 100 8047 3.6 20 12:26 29.10.2019
5374 Drizzle 3 1018 93 4828 2.6 30 11:59 29.10.2019
5375 Rain 3 1019 86 16093 3.6 350 11:40 29.10.2019
5376 Rain 2 1018 100 8047 5.7 20 11:19 29.10.2019
5377 Drizzle 2 1018 93 4023 5.7 360 10:57 29.10.2019
5378 Rain 2 1018 93 6437 5.1 360 10:38 29.10.2019
5379 Rain 2 1017 100 8047 5.1 350 10:19 29.10.2019
5380 Rain 3 1018 94 4828 7.7 350 09:44 29.10.2019
5381 Rain 3 1016 100 4828 3.6 340 09:23 29.10.2019
5382 Rain 3 1016 100 4828 3.6 340 09:23 29.10.2019
5383 Rain 4 1017 93 8047 6.7 330 08:58 29.10.2019
5384 Rain 5 1017 87 4023 5.7 340 08:39 29.10.2019
5385 Rain 6 1016 100 4828 3.88 40 08:21 29.10.2019
5386 Rain 7 1015 93 6437 3.88 40 07:49 29.10.2019
5387 Rain 7 1015 100 6437 3.88 40 07:22 29.10.2019
5388 Clouds 7 1016 93 11265 3.88 40 06:55 29.10.2019
5389 Clouds 7 1016 87 16093 2.1 0 06:36 29.10.2019
5390 Clouds 7 1016 100 11265 2.6 110 06:18 29.10.2019
5391 Clouds 7 1016 93 16093 1.5 70 05:48 29.10.2019
5392 Clouds 7 1016 100 11265 2.1 90 05:18 29.10.2019
5393 Drizzle 7 1017 93 8047 3.1 90 03:31 29.10.2019
5394 Drizzle 8 1018 87 6437 2.6 70 01:57 29.10.2019
5395 Drizzle 8 1018 87 8047 1.5 80 01:36 29.10.2019
5396 Drizzle 8 1018 81 12874 2.1 120 00:56 29.10.2019
5397 Clouds 8 1018 81 16093 2.1 90 00:26 29.10.2019
5398 Clouds 9 1018 87 16093 2.1 40 23:40 28.10.2019
5399 Clouds 9 1018 87 16093 2.1 40 23:20 28.10.2019
5400 Clouds 9 1017 87 16093 2.6 70 22:57 28.10.2019
5401 Clouds 9 1018 66 16093 1.5 70 22:36 28.10.2019
5402 Clouds 9 1017 70 16093 1.5 290 22:18 28.10.2019
5403 Clouds 9 1018 100 16093 2.1 350 21:54 28.10.2019
5404 Clouds 9 1017 81 16093 5.88 20 21:36 28.10.2019
5405 Clouds 9 1017 62 16093 3.1 330 21:18 28.10.2019
5406 Clouds 9 1017 81 11265 5.88 20 20:41 28.10.2019
5407 Clouds 9 1017 81 11265 4.88 11 20:23 28.10.2019
5408 -273 0 0 0 0 0 19:55 28.10.2019
5409 Clouds 10 1017 70 16093 2.1 280 19:37 28.10.2019
5410 Clouds 10 1018 66 16093 2.1 260 19:18 28.10.2019
5411 Clouds 10 1018 66 16093 2.1 260 18:57 28.10.2019
5412 Clouds 10 1018 81 16093 2.6 310 18:38 28.10.2019
5413 Clouds 10 1018 66 16093 1.5 330 18:20 28.10.2019
5414 Clouds 10 1018 66 16093 1.5 330 18:20 28.10.2019
5415 Clouds 10 1018 71 16093 4.88 11 17:56 28.10.2019
5416 Clear 9 1018 76 16093 4.88 11 17:37 28.10.2019
5417 Clouds 9 1018 71 16093 1.82 324 17:18 28.10.2019
5418 Clouds 9 1018 75 16093 1.82 324 16:55 28.10.2019
5419 Clear 8 1018 81 16093 1.82 324 16:36 28.10.2019
5420 Clear 8 1018 81 16093 1.82 324 16:18 28.10.2019
5421 Clouds 7 1018 76 16093 2.6 330 15:55 28.10.2019
5422 Clouds 7 1018 70 16093 3.1 330 15:37 28.10.2019
5423 Clear 7 1018 93 16093 1.82 324 15:18 28.10.2019
5424 Clear 6 1018 100 11265 1.82 324 14:54 28.10.2019
5425 Clouds 6 1018 81 14484 2.1 300 14:36 28.10.2019
5426 Clouds 5 1018 93 16093 2.1 270 14:18 28.10.2019
5427 Mist 4 1017 100 4828 3.21 349 13:41 28.10.2019
5428 Mist 4 1017 100 4828 3.21 349 13:18 28.10.2019
5429 Mist 4 1017 100 4828 3.21 349 13:18 28.10.2019
5430 Clouds 4 1017 87 16093 1.5 260 12:59 28.10.2019
5431 Mist 4 1017 100 4828 3.21 349 12:40 28.10.2019
5432 Mist 4 1017 100 4828 3.21 349 12:19 28.10.2019
5433 Clouds 5 1017 100 11265 3.21 349 11:38 28.10.2019
5434 Clouds 5 1017 100 11265 4.45 268 11:20 28.10.2019
5435 Mist 5 1017 100 2012 4.45 268 10:42 28.10.2019
5436 Mist 5 1017 100 2012 4.45 268 10:24 28.10.2019
5437 Rain 6 1016 87 16093 1.5 210 09:58 28.10.2019
5438 Mist 6 1017 100 2414 4.45 268 09:39 28.10.2019
5439 Mist 6 1017 100 2414 4.45 268 09:20 28.10.2019
5440 Mist 7 1017 100 3219 4.45 268 08:57 28.10.2019
5441 Clear 7 1017 100 11265 4.45 268 08:39 28.10.2019
5442 Clear 7 1016 93 16093 2.1 250 08:19 28.10.2019
5443 Clear 7 1016 93 16093 2.1 250 07:59 28.10.2019
5444 Clear 7 1016 100 16093 4.53 225 07:40 28.10.2019
5445 Clear 8 1016 100 16093 4.53 225 07:20 28.10.2019
5446 Clear 8 1016 100 16093 4.53 225 06:40 28.10.2019
5447 Clear 8 1016 100 16093 4.53 225 06:19 28.10.2019
5448 Clear 9 1016 87 16093 4.46 206 04:29 28.10.2019
5449 Clear 9 1015 93 16093 4.46 206 03:41 28.10.2019
5450 Rain 9 1014 87 16093 4.46 206 02:45 28.10.2019
5451 Clear 10 1015 81 16093 3.02 230 01:27 28.10.2019
5452 Clear 11 1015 76 16093 3.02 230 00:46 28.10.2019
5453 Clear 12 1015 76 16093 3.02 230 00:22 28.10.2019
5454 Clear 13 1014 62 16093 2.1 190 23:44 27.10.2019
5455 Clear 14 1015 71 16093 2.1 190 23:21 27.10.2019
5456 Clear 14 1014 54 16093 4.6 230 22:56 27.10.2019
5457 Clear 15 1015 58 16093 5.1 210 22:36 27.10.2019
5458 Clear 15 1015 58 16093 5.1 210 22:18 27.10.2019
5459 Clear 15 1014 54 16093 4.6 220 21:40 27.10.2019
5460 Clear 15 1014 54 16093 4.6 220 21:22 27.10.2019
5461 Clear 15 1014 50 16093 5.1 240 20:59 27.10.2019
5462 Clear 14 1014 54 16093 4.97 249 20:40 27.10.2019
5463 Clear 14 1014 54 16093 2.88 247 20:22 27.10.2019
5464 Clear 13 1013 47 16093 4.6 230 19:57 27.10.2019
5465 Clear 13 1014 54 16093 3.6 230 19:37 27.10.2019
5466 Clear 13 1014 54 16093 3.6 230 19:19 27.10.2019
5467 Clear 12 1014 58 16093 3.6 250 18:56 27.10.2019
5468 Clear 12 1014 58 16093 3.1 230 18:38 27.10.2019
5469 Clear 11 1013 57 16093 3.1 230 18:19 27.10.2019
5470 Clear 11 1013 57 16093 3.1 230 18:19 27.10.2019
5471 Clear 11 1014 66 16093 3.1 240 17:54 27.10.2019
5472 Rain 10 1014 71 16093 3.1 260 17:36 27.10.2019
5473 Rain 10 1014 71 16093 3.1 260 17:18 27.10.2019
5474 Clear 9 1013 76 16093 5.1 280 16:41 27.10.2019
5475 Clear 8 1013 76 16093 5.1 280 16:23 27.10.2019
5476 Clouds 7 1013 75 16093 5.7 270 15:58 27.10.2019
5477 Clouds 7 1013 87 16093 6.2 270 15:40 27.10.2019
5478 Clouds 6 1013 87 16093 6.2 270 15:20 27.10.2019
5479 Clouds 5 1012 93 11265 5.1 260 14:59 27.10.2019
5480 Clouds 5 1011 87 12874 5.7 260 14:40 27.10.2019
5481 Clouds 5 1011 93 11265 5.1 260 14:18 27.10.2019
5482 Clouds 5 1009 93 12874 4.1 250 13:54 27.10.2019
5483 Clouds 6 1009 93 12874 4.1 250 13:36 27.10.2019
5484 Rain 6 1009 100 16093 5.1 260 13:18 27.10.2019
5485 Rain 7 1008 93 16093 4.6 270 12:42 27.10.2019
5486 Clouds 7 1008 93 16093 4.6 270 12:23 27.10.2019
5487 Clouds 7 1006 93 11265 3.1 290 11:43 27.10.2019
5488 Clouds 8 1006 93 16093 6.7 280 11:25 27.10.2019
5489 Clouds 8 1006 93 16093 6.7 280 11:25 27.10.2019
5490 Clouds 8 1006 93 16093 6.7 280 11:25 27.10.2019
5491 Rain 8 1004 100 16093 6.2 280 10:57 27.10.2019
5492 Rain 8 1004 93 16093 7.7 280 10:39 27.10.2019
5493 Rain 8 1004 93 16093 7.7 280 10:38 27.10.2019
5494 Rain 8 1004 93 16093 7.7 280 10:20 27.10.2019
5495 Rain 7 1002 100 16093 9.8 280 09:43 27.10.2019
5496 Rain 7 1002 100 16093 9.8 280 09:19 27.10.2019
5497 Rain 7 1000 100 16093 6.7 300 08:57 27.10.2019
5498 Rain 7 999 100 16093 8.2 300 08:37 27.10.2019
5499 Rain 7 999 100 16093 8.2 300 08:19 27.10.2019
5500 Rain 8 997 100 4828 7.2 310 07:47 27.10.2019
5501 Rain 7 997 100 4828 7.2 310 07:27 27.10.2019
5502 Rain 8 996 93 4023 10.3 320 06:55 27.10.2019
5503 Rain 8 996 93 8047 8.7 330 06:29 27.10.2019
5504 Rain 8 995 93 4023 6.2 330 05:57 27.10.2019
5505 Rain 8 995 93 4023 6.2 330 05:57 27.10.2019
5506 Rain 8 995 100 8047 3.1 360 05:35 27.10.2019
5507 Rain 9 995 100 4828 7.7 10 04:25 27.10.2019
5508 Rain 8 1000 100 4828 5.1 20 02:29 27.10.2019
5509 Rain 8 1000 100 4828 6.2 40 01:27 27.10.2019
5510 Rain 8 1002 100 4828 5.1 40 00:55 27.10.2019
5511 Rain 8 1003 100 4023 5.7 50 00:36 27.10.2019
5512 Rain 8 1004 100 4023 5.7 60 23:58 26.10.2019
5513 Rain 8 1005 100 4023 5.1 50 23:40 26.10.2019
5514 Rain 8 1005 100 4023 5.1 50 23:21 26.10.2019
5515 Rain 8 1006 93 4023 8.7 60 22:57 26.10.2019
5516 Rain 8 1007 100 3219 4.6 50 22:38 26.10.2019
5517 Rain 8 1007 100 3219 4.6 50 22:19 26.10.2019
5518 Rain 8 1009 93 4023 6.7 60 21:55 26.10.2019
5519 Rain 8 1010 93 4023 6.2 60 21:37 26.10.2019
5520 Rain 8 1010 100 4023 3.1 30 21:19 26.10.2019
5521 Rain 8 1013 76 16093 4.1 90 20:42 26.10.2019
5522 Rain 8 1012 93 6437 2.6 70 20:19 26.10.2019
5523 Rain 8 1014 87 11265 3.1 90 19:44 26.10.2019
5524 Rain 8 1014 87 11265 3.1 90 19:21 26.10.2019
5525 Rain 8 1014 87 11265 3.1 90 19:21 26.10.2019
5526 Clouds 8 1014 70 16093 6.2 90 18:59 26.10.2019
5527 Clear 8 1014 81 16093 6.2 80 18:40 26.10.2019
5528 Drizzle 8 1015 87 16093 2.6 60 18:20 26.10.2019
5529 Clear 8 1016 81 16093 3.1 80 17:59 26.10.2019
5530 Clear 7 1016 81 16093 2.6 70 17:39 26.10.2019
5531 Clear 7 1016 81 16093 2.6 70 17:20 26.10.2019
5532 Clouds 7 1017 75 16093 6.2 90 16:57 26.10.2019
5533 Clear 7 1018 87 16093 3.6 80 16:38 26.10.2019
5534 Clouds 6 1018 75 16093 6.2 90 16:20 26.10.2019
5535 Clear 5 1018 86 16093 2.6 60 15:40 26.10.2019
5536 Clouds 4 1018 75 16093 4.1 80 15:18 26.10.2019
5537 Clear 3 1019 93 11265 2.1 70 14:40 26.10.2019
5538 Clear 2 1019 93 11265 2.1 70 14:20 26.10.2019
5539 Clouds 8 1020 74 0 6.41 102 13:59 26.10.2019
5540 Clouds 8 1020 74 0 6.41 102 13:39 26.10.2019
5541 Clouds 8 1020 74 0 6.41 102 13:20 26.10.2019
5542 Mist 1 1021 100 8047 6.41 102 12:46 26.10.2019
5543 Clear 2 1021 100 11265 1.5 80 12:22 26.10.2019
5544 Mist 1 1021 100 8047 3.4 104 11:48 26.10.2019
5545 Mist 1 1021 100 8047 3.4 104 11:48 26.10.2019
5546 Mist 1 1021 100 8047 3.4 104 11:28 26.10.2019
5547 Mist 1 1021 100 8047 3.4 104 11:28 26.10.2019
5548 Mist 1 1021 100 8047 3.4 104 11:28 26.10.2019
5549 Mist 1 1021 100 8047 3.4 104 10:47 26.10.2019
5550 Mist 1 1021 100 8047 3.4 104 10:27 26.10.2019
5551 Clouds 2 1021 86 16093 3.4 104 09:59 26.10.2019
5552 Mist 2 1022 100 2414 3.4 104 09:41 26.10.2019
5553 Mist 1 1022 100 2414 2.9 159 09:22 26.10.2019
5554 Mist 2 1023 100 3219 2.9 159 08:43 26.10.2019
5555 Clear 2 1022 100 11265 2.9 159 08:25 26.10.2019
5556 Mist 2 1023 100 4828 2.9 159 07:44 26.10.2019
5557 Mist 2 1023 100 4828 2.9 159 07:44 26.10.2019
5558 Mist 2 1023 100 4828 2.9 159 07:25 26.10.2019
5559 Mist 2 1024 100 8047 2.9 159 06:42 26.10.2019
5560 Mist 2 1024 100 6437 2.09 116 06:23 26.10.2019
5561 Clear 3 1024 100 11265 2.09 116 05:19 26.10.2019
5562 Clear 4 1025 93 16093 2.09 116 04:23 26.10.2019
5563 Clear 4 1025 87 16093 1.5 100 02:45 26.10.2019
5564 Clear 5 1025 87 16093 2.1 100 01:51 26.10.2019
5565 Clear 6 1025 81 16093 1.5 80 01:20 26.10.2019
5566 Clear 8 1025 81 16093 2.95 79 00:23 26.10.2019
5567 Clear 8 1024 75 16093 2.6 60 23:41 25.10.2019
5568 Clouds 9 1025 72 16093 2.95 79 23:20 25.10.2019
5569 Clouds 9 1025 76 16093 2.1 50 22:40 25.10.2019
5570 Clouds 9 1025 76 16093 2.1 50 22:22 25.10.2019
5571 Clouds 9 1025 53 16093 2.6 270 21:57 25.10.2019
5572 Clouds 9 1025 61 16093 3.5 97 21:39 25.10.2019
5573 Clouds 9 1025 61 16093 4.08 13 21:19 25.10.2019
5574 Clouds 9 1026 66 16093 2.1 270 20:45 25.10.2019
5575 Clouds 9 1026 66 16093 2.1 270 20:20 25.10.2019
5576 Clouds 9 1027 57 16093 3.6 300 19:59 25.10.2019
5577 Clouds 9 1027 66 16093 2.6 250 19:59 25.10.2019
5578 Clouds 9 1027 76 16093 1.5 250 19:40 25.10.2019
5579 Clouds 8 1027 76 16093 1.5 250 19:22 25.10.2019
5580 Clouds 8 1027 70 16093 2.1 260 18:43 25.10.2019
5581 Clouds 8 1027 70 16093 2.1 260 18:21 25.10.2019
5582 Clouds 7 1027 70 16093 2.58 335 17:41 25.10.2019
5583 Clouds 7 1027 70 16093 2.58 335 17:21 25.10.2019
5584 Clouds 6 1027 87 16093 2.58 335 16:54 25.10.2019
5585 Clouds 6 1027 81 16093 2.58 335 16:36 25.10.2019
5586 Clouds 6 1028 65 16093 3.1 340 16:18 25.10.2019
5587 Clouds 6 1027 93 16093 2.58 335 15:40 25.10.2019
5588 Clouds 6 1027 93 16093 4.25 328 15:21 25.10.2019
5589 Clouds 5 1027 93 16093 4.25 328 14:57 25.10.2019
5590 Clouds 5 1027 93 16093 6.63 344 14:38 25.10.2019
5591 Clouds 5 1027 93 16093 6.63 344 14:20 25.10.2019
5592 Clouds 6 1027 93 16093 6.63 344 13:41 25.10.2019
5593 Clouds 6 1027 93 16093 6.63 344 13:22 25.10.2019
5594 Clouds 6 1028 100 16093 6.63 344 12:55 25.10.2019
5595 Clouds 6 1027 93 16093 6.63 344 12:37 25.10.2019
5596 Clouds 6 1027 93 16093 1.27 16 12:18 25.10.2019
5597 Clouds 5 1027 93 16093 1.27 16 11:40 25.10.2019
5598 Clouds 5 1027 93 16093 1.27 16 11:22 25.10.2019
5599 Clouds 5 1027 93 16093 1.27 16 11:22 25.10.2019
5600 Clouds 6 1027 87 16093 1.27 16 10:55 25.10.2019
5601 Clouds 6 1027 100 16093 1.27 16 10:36 25.10.2019
5602 Clouds 5 1027 86 16093 1.27 16 10:18 25.10.2019
5603 Clouds 6 1028 93 16093 3.03 340 09:41 25.10.2019
5604 Clouds 6 1028 93 16093 1.27 16 09:41 25.10.2019
5605 Clouds 6 1027 93 16093 1.98 38 09:21 25.10.2019
5606 Clouds 6 1027 93 16093 1.98 38 08:56 25.10.2019
5607 Clouds 6 1027 100 16093 1.98 38 08:38 25.10.2019
5608 Clouds 6 1027 100 16093 1.98 38 08:19 25.10.2019
5609 Clouds 6 1028 87 16093 1.98 38 07:44 25.10.2019
5610 Clouds 6 1027 87 16093 1.98 38 07:26 25.10.2019
5611 Clouds 6 1027 87 16093 1.98 38 06:37 25.10.2019
5612 Clouds 6 1028 93 16093 1.12 93 05:48 25.10.2019
5613 Clouds 5 1028 93 16093 1.12 93 05:28 25.10.2019
5614 Clouds 6 1028 87 16093 1.12 93 04:19 25.10.2019
5615 Clear 6 1027 75 16093 2.54 72 02:34 25.10.2019
5616 Clear 7 1026 81 16093 1.5 100 01:52 25.10.2019
5617 Clear 9 1026 75 16093 2.1 60 00:34 25.10.2019
5618 Clear 9 1026 70 16093 2.1 50 23:43 24.10.2019
5619 Clear 9 1026 70 16093 2.1 50 23:24 24.10.2019
5620 Clear 9 1026 66 16093 2.6 50 22:57 24.10.2019
5621 Clear 10 1026 61 16093 2.1 10 22:38 24.10.2019
5622 Clear 10 1026 61 16093 2.1 10 22:19 24.10.2019
5623 Clear 10 1026 57 16093 3.32 66 21:57 24.10.2019
5624 Clouds 10 1026 57 16093 3.32 66 21:38 24.10.2019
5625 Clouds 10 1026 57 16093 3.61 6 21:20 24.10.2019
5626 Clouds 10 1026 57 16093 3.61 6 20:58 24.10.2019
5627 Clouds 10 1026 62 16093 3.1 250 20:39 24.10.2019
5628 Clouds 10 1026 62 16093 3.1 250 20:21 24.10.2019
5629 Clouds 10 1026 66 16093 1.5 310 19:56 24.10.2019
5630 Clouds 9 1026 70 16093 3.61 6 19:37 24.10.2019
5631 Clouds 9 1026 70 16093 3.61 6 19:18 24.10.2019
5632 Clouds 9 1026 75 16093 3.61 6 18:41 24.10.2019
5633 Clouds 9 1026 75 16093 4.16 350 18:23 24.10.2019
5634 Clouds 8 1026 61 16093 3.1 330 17:59 24.10.2019
5635 Clouds 8 1025 81 16093 2.1 310 17:40 24.10.2019
5636 Clouds 7 1025 70 16093 3.1 360 17:20 24.10.2019
5637 Clear 7 1025 75 16093 2.6 320 16:56 24.10.2019
5638 Clear 7 1025 81 16093 4.16 350 16:38 24.10.2019
5639 Clear 6 1025 81 16093 4.16 350 16:19 24.10.2019
5640 Clouds 6 1025 87 16093 1.5 290 15:57 24.10.2019
5641 Clouds 6 1025 87 16093 1.5 290 15:39 24.10.2019
5642 Clouds 5 1025 87 16093 1.5 290 15:21 24.10.2019
5643 Clouds 5 1024 87 16093 2.1 320 14:55 24.10.2019
5644 Clouds 5 1023 87 16093 1.5 320 14:37 24.10.2019
5645 Clouds 6 1023 87 16093 1.5 320 14:18 24.10.2019
5646 Clouds 6 1022 81 16093 3.1 320 13:40 24.10.2019
5647 Clouds 6 1022 87 16093 3.6 320 13:19 24.10.2019
5648 Clouds 6 1022 87 16093 3.6 320 13:19 24.10.2019
5649 Clouds 6 1022 87 16093 3.6 320 12:57 24.10.2019
5650 Clear 6 1021 93 16093 3.1 330 12:38 24.10.2019
5651 Clouds 6 1021 87 16093 4.1 310 12:19 24.10.2019
5652 Clouds 6 1021 87 16093 4.1 310 11:56 24.10.2019
5653 Clouds 6 1020 81 16093 5.1 330 11:37 24.10.2019
5654 Clouds 6 1020 81 16093 5.1 330 11:37 24.10.2019
5655 Clouds 6 1020 81 16093 5.7 330 11:19 24.10.2019
5656 Clouds 6 1019 87 16093 3.6 330 10:42 24.10.2019
5657 Clouds 7 1019 93 16093 3.1 360 10:23 24.10.2019
5658 Clouds 7 1019 87 16093 3.6 10 09:58 24.10.2019
5659 Clouds 7 1018 93 16093 6.64 348 09:37 24.10.2019
5660 Clouds 7 1018 93 16093 3.1 10 09:18 24.10.2019
5661 Clouds 7 1018 93 16093 3.1 10 09:18 24.10.2019
5662 Rain 7 1017 81 16093 4.1 10 08:42 24.10.2019
5663 Rain 8 1017 87 16093 3.1 30 08:20 24.10.2019
5664 Rain 8 1016 93 16093 5.7 10 07:49 24.10.2019
5665 Rain 8 1016 81 16093 4.1 350 07:24 24.10.2019
5666 Rain 9 1016 81 16093 6.7 10 06:59 24.10.2019
5667 Rain 9 1014 66 16093 4.6 260 06:37 24.10.2019
5668 Rain 10 1014 76 16093 3.6 350 05:56 24.10.2019
5669 Rain 10 1014 81 16093 2.6 360 05:35 24.10.2019
5670 Rain 11 1014 58 16093 2.1 210 04:34 24.10.2019
5671 Rain 11 1014 76 16093 1.5 220 03:36 24.10.2019
5672 Rain 12 1014 66 16093 2.44 209 02:44 24.10.2019
5673 Clouds 12 1013 47 16093 2.1 220 02:20 24.10.2019
5674 Clouds 13 1013 71 16093 2.44 209 01:32 24.10.2019
5675 Clouds 13 1012 44 16093 2.6 190 00:57 24.10.2019
5676 Clouds 14 1013 66 16093 1.5 110 00:30 24.10.2019
5677 Clouds 14 1013 58 16093 5.18 215 23:58 23.10.2019
5678 Clouds 14 1014 51 16093 5.18 215 23:38 23.10.2019
5679 Clouds 14 1013 41 16093 4.1 190 23:20 23.10.2019
5680 Clouds 15 1013 41 16093 4.1 190 22:57 23.10.2019
5681 Clouds 15 1013 51 16093 2.1 190 22:37 23.10.2019
5682 Clouds 14 1013 51 16093 2.1 190 22:18 23.10.2019
5683 Clouds 14 1013 47 16093 4.1 210 21:57 23.10.2019
5684 Clouds 14 1014 54 16093 4.6 200 21:37 23.10.2019
5685 Clouds 13 1014 50 16093 5.1 210 21:19 23.10.2019
5686 Clouds 12 1014 50 16093 5.1 210 20:54 23.10.2019
5687 Clouds 12 1015 50 16093 5.7 210 20:36 23.10.2019
5688 Clouds 11 1014 54 16093 3.1 220 20:18 23.10.2019
5689 Clouds 10 1015 62 16093 2.6 210 19:42 23.10.2019
5690 Clouds 10 1015 62 16093 2.6 210 19:19 23.10.2019
5691 Clouds 10 1015 53 16093 5.1 220 18:58 23.10.2019
5692 Clouds 10 1016 61 16093 6.2 230 18:39 23.10.2019
5693 Clouds 9 1015 57 16093 4.1 230 18:19 23.10.2019
5694 Clouds 9 1015 57 16093 4.1 230 17:55 23.10.2019
5695 Clouds 9 1015 57 16093 4.1 230 17:55 23.10.2019
5696 Clear 9 1015 61 16093 5.1 220 17:36 23.10.2019
5697 Clear 9 1015 61 16093 5.1 220 17:36 23.10.2019
5698 Clouds 8 1014 57 16093 4.6 220 17:18 23.10.2019
5699 Clear 7 1015 65 16093 4.6 220 16:40 23.10.2019
5700 Clear 7 1015 65 16093 4.6 220 16:21 23.10.2019
5701 Clouds 5 1014 70 16093 5.1 210 15:57 23.10.2019
5702 Clear 5 1015 80 16093 7.2 215 15:38 23.10.2019
5703 Clear 4 1015 80 16093 7.99 254 15:20 23.10.2019
5704 Clouds 3 1014 61 16093 4.1 210 14:56 23.10.2019
5705 Clear 3 1014 60 16093 8.24 248 14:37 23.10.2019
5706 Clear 3 1014 60 16093 8.24 248 14:18 23.10.2019
5707 Clear 4 1014 60 16093 3.6 220 13:42 23.10.2019
5708 Clear 4 1014 60 16093 3.6 220 13:24 23.10.2019
5709 Clear 4 1013 60 16093 8.24 248 12:57 23.10.2019
5710 Clear 4 1013 60 16093 8.24 248 12:38 23.10.2019
5711 Clear 4 1011 60 16093 5.1 240 12:19 23.10.2019
5712 Clear 4 1011 60 16093 5.1 240 11:57 23.10.2019
5713 Clear 4 1012 60 16093 3.6 220 11:39 23.10.2019
5714 Clear 5 1012 59 16093 4.6 230 11:20 23.10.2019
5715 Clear 5 1012 60 16093 3.1 210 10:46 23.10.2019
5716 Clear 5 1012 59 16093 9.17 257 10:26 23.10.2019
5717 Clear 5 1010 60 16093 4.6 240 09:58 23.10.2019
5718 Clear 5 1011 58 16093 3.1 240 09:40 23.10.2019
5719 Clear 5 1011 59 16093 3.1 240 09:21 23.10.2019
5720 Clear 6 1011 59 16093 3.6 240 08:43 23.10.2019
5721 Clear 6 1011 59 16093 3.6 240 08:25 23.10.2019
5722 Clear 6 1010 56 16093 6.2 250 07:58 23.10.2019
5723 Rain 7 1011 49 16093 2.6 230 07:39 23.10.2019
5724 Rain 7 1009 52 16093 6.2 240 07:18 23.10.2019
5725 Clear 7 1011 61 16093 4.1 230 06:41 23.10.2019
5726 Clear 8 1011 61 16093 4.1 230 06:18 23.10.2019
5727 Clouds 9 1010 57 16093 5.1 250 05:18 23.10.2019
5728 Clouds 10 1009 66 16093 6.2 250 03:46 23.10.2019
5729 Clouds 9 1009 66 16093 4.6 250 02:43 23.10.2019
5730 Clouds 9 1008 61 16093 6.2 250 01:40 23.10.2019
5731 Clouds 10 1007 57 16093 8.2 250 00:59 23.10.2019
5732 Clouds 10 1007 62 16093 6.7 240 00:33 23.10.2019
5733 Clouds 10 1006 53 16093 6.7 270 23:55 22.10.2019
5734 Clouds 10 1006 62 16093 6.2 260 23:37 22.10.2019
5735 Clouds 10 1005 57 16093 6.2 250 23:18 22.10.2019
5736 Clouds 10 1006 66 16093 9.3 240 22:40 22.10.2019
5737 Clouds 9 1006 66 16093 9.3 240 22:22 22.10.2019
5738 Clouds 9 1005 61 16093 8.2 250 21:57 22.10.2019
5739 Clouds 9 1004 66 16093 5.7 240 21:38 22.10.2019
5740 Clouds 9 1004 66 16093 8.7 250 21:19 22.10.2019
5741 Clouds 9 1004 66 16093 8.7 250 20:58 22.10.2019
5742 Rain 9 1005 76 16093 7.7 240 20:40 22.10.2019
5743 Rain 8 1005 76 16093 7.7 240 20:22 22.10.2019
5744 Rain 8 1004 70 16093 9.3 260 19:57 22.10.2019
5745 Rain 8 1005 87 16093 5.7 250 19:39 22.10.2019
5746 Rain 8 1005 87 16093 5.7 250 19:21 22.10.2019
5747 Rain 8 1004 87 11265 6.7 240 18:55 22.10.2019
5748 Rain 8 1004 76 16093 7.7 250 18:37 22.10.2019
5749 Rain 8 1004 76 16093 7.7 250 18:37 22.10.2019
5750 Rain 8 1004 76 16093 7.7 250 18:19 22.10.2019
5751 Rain 8 1002 76 16093 10.8 240 17:54 22.10.2019
5752 Rain 8 1003 71 16093 10.3 240 17:36 22.10.2019
5753 Rain 8 1002 81 12874 7.2 240 17:18 22.10.2019
5754 Rain 8 1003 81 16093 7.7 240 16:39 22.10.2019
5755 Rain 8 1003 81 16093 7.7 240 16:39 22.10.2019
5756 Rain 8 1003 81 16093 7.7 240 16:20 22.10.2019
5757 Rain 8 1002 81 16093 7.7 230 15:59 22.10.2019
5758 Rain 9 1002 81 16093 9.3 230 15:41 22.10.2019
5759 Rain 9 1002 81 16093 9.3 230 15:19 22.10.2019
5760 Clouds 9 999 76 16093 7.7 240 14:46 22.10.2019
5761 Clouds 9 1001 81 16093 7.7 220 14:22 22.10.2019
5762 Clouds 9 1000 66 16093 9.8 230 13:55 22.10.2019
5763 Clouds 9 1000 66 16093 9.8 230 13:55 22.10.2019
5764 Clouds 9 999 76 16093 10.8 230 13:37 22.10.2019
5765 Rain 9 1001 76 16093 7.7 210 13:18 22.10.2019
5766 Rain 9 1001 76 16093 7.2 210 12:41 22.10.2019
5767 Rain 9 1001 76 16093 7.2 210 12:22 22.10.2019
5768 Clouds 9 999 66 16093 8.2 220 11:59 22.10.2019
5769 Clouds 9 1000 57 16093 4.1 200 11:39 22.10.2019
5770 Clouds 10 1001 76 16093 6.2 210 11:21 22.10.2019
5771 Clouds 10 999 62 16093 7.7 210 10:58 22.10.2019
5772 Clear 10 1001 76 16093 6.7 210 10:37 22.10.2019
5773 Clouds 10 999 62 16093 9.3 210 10:19 22.10.2019
5774 Clouds 10 999 62 16093 9.3 210 10:19 22.10.2019
5775 Clouds 10 999 62 16093 9.3 210 09:55 22.10.2019
5776 Clear 10 1001 71 16093 7.7 200 09:37 22.10.2019
5777 Clear 10 1001 71 16093 7.7 200 09:19 22.10.2019
5778 Clear 10 1002 71 16093 6.7 200 08:42 22.10.2019
5779 Clear 10 1002 71 16093 6.7 200 08:21 22.10.2019
5780 Clear 10 1002 71 16093 5.1 200 07:49 22.10.2019
5781 Clear 10 1002 71 16093 6.7 200 07:27 22.10.2019
5782 Clear 11 1002 71 16093 6.2 200 06:52 22.10.2019
5783 Clear 11 1002 71 16093 5.1 200 06:31 22.10.2019
5784 Clear 11 1003 62 16093 5.7 200 05:58 22.10.2019
5785 Clear 11 1003 62 16093 6.2 220 05:24 22.10.2019
5786 Clear 13 1001 58 16093 6.7 240 02:48 22.10.2019
5787 Clouds 13 1001 54 16093 6.7 250 02:28 22.10.2019
5788 Clouds 16 1000 51 16093 8.2 230 01:29 22.10.2019
5789 Clouds 17 999 48 16093 8.2 250 00:58 22.10.2019
5790 Clouds 17 998 68 16093 6.7 220 00:40 22.10.2019
5791 Clear 17 999 48 16093 6.7 240 00:21 22.10.2019
5792 Clouds 18 998 72 16093 7.7 210 23:55 21.10.2019
5793 Rain 18 998 72 16093 7.7 200 23:37 21.10.2019
5794 Rain 18 998 72 16093 7.7 200 23:18 21.10.2019
5795 Rain 18 998 72 16093 7.7 200 23:18 21.10.2019
5796 Rain 19 997 63 16093 9.3 210 22:56 21.10.2019
5797 Rain 18 996 77 16093 4.6 210 22:37 21.10.2019
5798 Rain 18 998 82 16093 10.8 200 22:19 21.10.2019
5799 Rain 18 997 77 16093 10.3 200 21:54 21.10.2019
5800 Rain 18 997 77 16093 10.3 200 21:54 21.10.2019
5801 Rain 17 996 72 16093 7.7 190 21:36 21.10.2019
5802 Rain 17 996 72 16093 7.7 190 21:36 21.10.2019
5803 Rain 17 998 93 16093 9.3 190 21:18 21.10.2019
5804 Drizzle 16 999 100 11265 8.2 160 20:41 21.10.2019
5805 Drizzle 16 999 100 11265 8.2 160 20:21 21.10.2019
5806 Rain 16 997 82 16093 6.2 170 19:59 21.10.2019
5807 Rain 16 999 93 16093 9.3 160 19:41 21.10.2019
5808 Clouds 16 999 93 16093 9.3 160 19:22 21.10.2019
5809 Clouds 16 999 87 16093 7.7 140 18:56 21.10.2019
5810 Clouds 16 998 82 16093 12.3 170 18:37 21.10.2019
5811 Clouds 16 998 82 16093 12.3 170 18:37 21.10.2019
5812 Clouds 16 999 87 16093 8.7 150 18:19 21.10.2019
5813 Clouds 16 997 82 16093 8.7 160 17:56 21.10.2019
5814 Clouds 16 999 93 16093 10.3 160 17:38 21.10.2019
5815 Rain 15 999 93 16093 10.3 160 17:18 21.10.2019
5816 Rain 15 1003 100 11265 5.1 140 16:56 21.10.2019
5817 Rain 15 999 87 16093 11.8 130 16:38 21.10.2019
5818 Rain 15 999 87 16093 11.8 130 16:38 21.10.2019
5819 Rain 14 999 87 16093 11.8 130 16:19 21.10.2019
5820 Rain 14 1000 82 3219 5.7 120 15:45 21.10.2019
5821 Rain 15 1003 77 16093 8.2 130 15:25 21.10.2019
5822 Clouds 15 1002 72 16093 6.7 130 14:58 21.10.2019
5823 Clouds 14 1005 82 16093 4.1 130 14:38 21.10.2019
5824 Clouds 14 1005 82 16093 4.1 130 14:19 21.10.2019
5825 Clouds 14 1004 72 16093 6.2 130 13:56 21.10.2019
5826 Clouds 14 1005 82 16093 4.1 120 13:37 21.10.2019
5827 Clouds 13 1005 82 16093 4.1 120 13:18 21.10.2019
5828 Clouds 13 1007 76 16093 4.6 120 12:41 21.10.2019
5829 Clouds 13 1007 76 16093 4.6 120 12:22 21.10.2019
5830 Mist 12 1006 87 16093 3.1 120 11:55 21.10.2019
5831 Mist 12 1008 93 9656 1.5 60 11:37 21.10.2019
5832 Mist 12 1008 76 16093 4.6 130 11:19 21.10.2019
5833 Mist 12 1008 93 11265 2.6 100 10:56 21.10.2019
5834 Mist 11 1009 100 4828 3.1 60 10:37 21.10.2019
5835 Mist 11 1009 87 16093 3.78 126.548 10:18 21.10.2019
5836 Mist 11 1011 93 2012 2.1 60 09:44 21.10.2019
5837 -273 0 0 0 0 0 09:25 21.10.2019
5838 Mist 11 1011 100 4023 3.22 100.512 08:44 21.10.2019
5839 Mist 11 1010 100 11265 3.22 100.512 08:24 21.10.2019
5840 Mist 11 1011 93 4828 3.6 60 08:24 21.10.2019
5841 Mist 10 1011 93 4023 4.6 80 07:59 21.10.2019
5842 Rain 10 1012 100 4023 3.22 100.512 07:38 21.10.2019
5843 Rain 10 1012 100 4023 3.22 100.512 07:20 21.10.2019
5844 Rain 10 1012 100 4023 4.1 80 06:54 21.10.2019
5845 Mist 10 1013 100 3219 3.22 100.512 06:36 21.10.2019
5846 Mist 10 1013 100 1207 4.1 90 05:55 21.10.2019
5847 Mist 10 1013 100 1207 4.1 90 05:55 21.10.2019
5848 Fog 10 1013 93 805 4.6 80 04:45 21.10.2019
5849 Mist 10 1014 100 3219 3.58 86.681 03:26 21.10.2019
5850 Mist 11 1014 100 6437 3.58 86.681 02:23 21.10.2019
5851 Mist 11 1013 93 8047 3.58 86.681 01:57 21.10.2019
5852 Mist 12 1014 93 8047 3.17 94.657 01:23 21.10.2019
5853 Mist 13 1014 93 6437 2.1 30 00:46 21.10.2019
5854 Mist 15 1014 87 8047 3.13 82.632 00:25 21.10.2019
5855 Haze 16 1013 87 8047 2.1 40 23:42 20.10.2019
5856 Haze 16 1013 87 8047 2.1 40 23:22 20.10.2019
5857 Clouds 17 1013 76 16093 5.1 80 22:56 20.10.2019
5858 Clouds 17 1013 82 11265 3.13 82.632 22:37 20.10.2019
5859 Clouds 17 1013 82 11265 3.13 82.632 22:18 20.10.2019
5860 Clouds 17 1013 76 16093 3.6 80 21:57 20.10.2019
5861 Clouds 17 1013 76 16093 3.6 80 21:57 20.10.2019
5862 Clouds 17 1014 87 11265 3.13 82.632 21:38 20.10.2019
5863 Clear 17 1013 55 16093 3.1 90 21:20 20.10.2019
5864 Clear 17 1013 59 16093 3.6 100 20:41 20.10.2019
5865 Clear 17 1013 59 16093 3.6 100 20:19 20.10.2019
5866 Clouds 17 1014 67 16093 3.1 70 19:57 20.10.2019
5867 Clouds 17 1014 67 16093 3.1 70 19:57 20.10.2019
5868 Clouds 16 1014 71 16093 3.1 100 19:38 20.10.2019
5869 Clear 16 1014 72 16093 2.1 80 19:20 20.10.2019
5870 Clouds 15 1014 71 16093 3.6 110 18:55 20.10.2019
5871 Clouds 15 1014 82 16093 2.1 80 18:37 20.10.2019
5872 Clouds 14 1014 87 11265 2.01 14.632 18:19 20.10.2019
5873 Clouds 12 1014 87 16093 2.01 14.632 17:43 20.10.2019
5874 Clouds 12 1014 87 16093 2.01 14.632 17:24 20.10.2019
5875 Clouds 11 1013 81 16093 4.1 350 16:59 20.10.2019
5876 Clouds 11 1013 81 16093 4.1 350 16:41 20.10.2019
5877 Clouds 11 1013 87 16093 2.01 14.632 16:22 20.10.2019
5878 Clouds 10 1013 81 16093 2.6 360 15:57 20.10.2019
5879 Clouds 10 1012 100 16093 2.01 14.632 15:38 20.10.2019
5880 Clouds 10 1012 100 16093 2.55 351.848 15:19 20.10.2019
5881 Mist 9 1012 81 16093 2.6 330 14:56 20.10.2019
5882 Clouds 9 1012 81 16093 2.6 330 14:37 20.10.2019
5883 Clouds 9 1011 93 16093 2.55 351.848 14:18 20.10.2019
5884 Clouds 10 1011 81 16093 2.6 350 13:55 20.10.2019
5885 Clouds 10 1011 93 16093 1.5 310 13:36 20.10.2019
5886 Clouds 10 1011 93 16093 1.5 310 13:18 20.10.2019
5887 Clouds 11 1010 87 16093 2.6 300 12:55 20.10.2019
5888 Clouds 11 1010 82 16093 4.6 330 12:36 20.10.2019
5889 Clouds 11 1010 93 16093 2.38 290.716 12:18 20.10.2019
5890 Clouds 12 1009 81 16093 4.1 310 11:41 20.10.2019
5891 Clouds 12 1009 81 16093 4.1 310 11:41 20.10.2019
5892 Clouds 12 1009 87 16093 2.38 290.716 11:23 20.10.2019
5893 Clouds 12 1008 87 16093 2.38 290.716 10:59 20.10.2019
5894 Clouds 12 1008 76 16093 1.5 280 10:39 20.10.2019
5895 Clouds 12 1008 76 16093 1.5 280 10:39 20.10.2019
5896 Clouds 12 1008 82 16093 2.38 290.716 10:21 20.10.2019
5897 Clouds 13 1008 76 16093 2.38 290.716 09:56 20.10.2019
5898 Clouds 13 1008 82 16093 2.38 290.716 09:38 20.10.2019
5899 Clouds 13 1008 82 16093 2.38 268.794 09:19 20.10.2019
5900 Clouds 13 1008 71 16093 2.1 260 08:43 20.10.2019
5901 Clouds 13 1008 93 16093 3.02 255.213 08:22 20.10.2019
5902 Clouds 13 1008 76 16093 1.5 250 07:49 20.10.2019
5903 Rain 13 1008 87 16093 3.02 255.213 07:28 20.10.2019
5904 Rain 14 1008 82 16093 2.6 220 06:31 20.10.2019
5905 Drizzle 14 1007 62 16093 2.6 200 04:41 20.10.2019
5906 Clouds 15 1007 58 16093 3.6 180 03:53 20.10.2019
5907 Clouds 15 1007 58 16093 3.1 180 03:23 20.10.2019
5908 Clouds 15 1007 48 16093 2.6 230 02:55 20.10.2019
5909 Clouds 16 1007 62 16093 2.32 214.992 02:26 20.10.2019
5910 Clouds 16 1007 39 16093 2.6 180 01:53 20.10.2019
5911 Clear 17 1007 58 16093 1.84 212.088 01:22 20.10.2019
5912 Rain 18 1007 59 16093 2.1 230 00:49 20.10.2019
5913 Rain 19 1007 51 16093 2.6 220 00:21 20.10.2019
5914 Rain 19 1007 51 16093 2.6 220 00:21 20.10.2019
5915 Clear 19 1007 42 16093 5.1 190 23:55 19.10.2019
5916 Clear 19 1007 40 16093 5.1 180 23:36 19.10.2019
5917 Clear 20 1007 40 16093 5.1 180 23:18 19.10.2019
5918 Clear 20 1007 45 16093 4.1 180 22:41 19.10.2019
5919 Clear 20 1007 45 16093 4.1 180 22:22 19.10.2019
5920 Clouds 20 1006 37 16093 5.7 170 21:58 19.10.2019
5921 Clear 20 1007 42 16093 6.2 180 21:39 19.10.2019
5922 Clear 19 1007 42 16093 6.2 180 21:20 19.10.2019
5923 Clear 19 1009 48 16093 5.1 180 20:43 19.10.2019
5924 Clear 18 1009 48 16093 5.1 180 20:21 19.10.2019
5925 Clear 18 1008 51 16093 4.1 180 19:45 19.10.2019
5926 Clear 17 1010 51 16093 2.1 200 19:27 19.10.2019
5927 Clouds 16 1010 48 16093 5.7 200 18:59 19.10.2019
5928 Clear 16 1011 58 16093 4.05 191.656 18:41 19.10.2019
5929 Clear 16 1011 58 16093 4.05 191.656 18:41 19.10.2019
5930 Clouds 15 1010 51 16093 4.1 180 18:22 19.10.2019
5931 Clear 14 1012 62 16093 6.2 190 17:41 19.10.2019
5932 Clear 13 1012 62 16093 6.2 190 17:23 19.10.2019
5933 Clouds 13 1011 58 16093 5.1 190 16:59 19.10.2019
5934 Clear 12 1012 71 16093 4.1 170 16:38 19.10.2019
5935 Clear 12 1012 71 16093 4.1 170 16:38 19.10.2019
5936 Clear 11 1012 71 16093 4.1 170 16:19 19.10.2019
5937 Clear 9 1011 71 16093 2.6 170 15:43 19.10.2019
5938 Clear 8 1013 81 16093 4.31 180.612 15:25 19.10.2019
5939 Clear 8 1013 81 16093 4.31 180.612 15:25 19.10.2019
5940 Clear 7 1012 87 16093 3.97 179.928 14:40 19.10.2019
5941 Clear 7 1012 87 16093 3.97 179.928 14:40 19.10.2019
5942 Clear 7 1012 87 16093 3.97 179.928 14:21 19.10.2019
5943 Clouds 7 1012 70 16093 4.1 170 13:59 19.10.2019
5944 Clear 8 1013 81 16093 2.1 150 13:41 19.10.2019
5945 Clear 8 1013 81 16093 2.1 150 13:21 19.10.2019
5946 Clouds 7 1012 75 16093 3.1 160 12:58 19.10.2019
5947 Clear 7 1013 87 16093 3.94 179.738 12:38 19.10.2019
5948 Clear 7 1013 87 16093 3.62 184.215 12:20 19.10.2019
5949 Clear 7 1013 70 16093 2.1 150 11:41 19.10.2019
5950 Clear 7 1013 81 16093 3.62 184.215 11:23 19.10.2019
5951 Clear 7 1013 81 16093 3.62 184.215 11:23 19.10.2019
5952 Clear 7 1013 70 16093 2.1 160 10:58 19.10.2019
5953 Clear 7 1012 87 16093 3.1 160 10:40 19.10.2019
5954 Clear 8 1012 70 16093 2.6 150 10:22 19.10.2019
5955 Clear 8 1012 75 16093 2.6 170 09:55 19.10.2019
5956 Clear 8 1012 81 16093 4.6 170 09:37 19.10.2019
5957 Clear 8 1012 75 16093 2.6 160 09:19 19.10.2019
5958 Clear 8 1012 81 16093 4.1 170 08:40 19.10.2019
5959 Clear 8 1013 70 16093 2.6 140 08:21 19.10.2019
5960 Clear 8 1013 75 16093 2.6 150 07:46 19.10.2019
5961 Clear 8 1014 75 16093 2.1 150 07:26 19.10.2019
5962 Clear 8 1013 81 16093 3.1 160 06:48 19.10.2019
5963 Clear 9 1014 75 16093 3.7 169.316 06:30 19.10.2019
5964 Clear 9 1014 75 16093 3.7 169.316 06:30 19.10.2019
5965 Clear 9 1014 66 16093 2.1 150 05:35 19.10.2019
5966 Clear 10 1013 71 16093 3.1 160 04:26 19.10.2019
5967 Clear 11 1014 71 16093 3.46 160.376 02:56 19.10.2019
5968 Rain 11 1014 54 16093 2.6 140 01:56 19.10.2019
5969 Rain 12 1014 62 16093 3.36 159.61 01:37 19.10.2019
5970 Clear 14 1014 54 16093 3.36 159.61 00:49 19.10.2019
5971 Clear 15 1015 54 16093 3.1 160 00:28 19.10.2019
5972 Clear 15 1015 51 16093 3.6 160 23:56 18.10.2019
5973 Clear 15 1015 51 16093 4.1 160 23:37 18.10.2019
5974 Clouds 15 1015 44 16093 5.1 190 23:19 18.10.2019
5975 Clear 15 1015 51 16093 2.6 180 22:43 18.10.2019
5976 Clear 15 1016 54 16093 4.6 180 22:21 18.10.2019
5977 Clear 15 1016 54 16093 3.6 190 21:59 18.10.2019
5978 Clear 15 1016 54 16093 3.6 190 21:39 18.10.2019
5979 Clear 15 1016 54 16093 3.6 190 21:21 18.10.2019
5980 Clouds 14 1016 47 16093 5.1 170 20:59 18.10.2019
5981 Clear 14 1017 58 16093 3.6 150 20:41 18.10.2019
5982 Clear 14 1017 58 16093 3.6 150 20:22 18.10.2019
5983 Clouds 14 1017 54 16093 4.1 150 19:58 18.10.2019
5984 Clear 13 1018 62 16093 3.6 180 19:40 18.10.2019
5985 Clear 13 1018 62 16093 3.6 180 19:21 18.10.2019
5986 Clouds 12 1018 54 16093 3.6 160 18:58 18.10.2019
5987 Clear 12 1019 66 16093 1.5 150 18:39 18.10.2019
5988 Clear 11 1019 66 16093 1.5 150 18:21 18.10.2019
5989 Clear 10 1019 71 16093 3.1 160 17:40 18.10.2019
5990 Clear 10 1019 71 16093 3.1 160 17:21 18.10.2019
5991 Clouds 9 1019 66 16093 3.6 160 16:59 18.10.2019
5992 Clear 8 1019 81 16093 3.06 162.536 16:38 18.10.2019
5993 Clear 8 1019 81 16093 3.06 162.536 16:38 18.10.2019
5994 Clear 7 1019 81 16093 3.06 162.536 16:19 18.10.2019
5995 Clear 6 1019 93 16093 3.06 162.536 15:55 18.10.2019
5996 Clear 5 1019 100 16093 3.06 162.536 15:36 18.10.2019
5997 Clear 4 1019 100 16093 1.92 171.806 15:18 18.10.2019
5998 Clear 3 1019 100 16093 1.92 171.806 14:56 18.10.2019
5999 Clear 2 1019 73 16093 1.92 171.806 14:38 18.10.2019
6000 Mist 2 1018 86 16093 2.1 190 14:18 18.10.2019
6001 Mist 1 1019 100 16093 1.92 171.806 13:42 18.10.2019
6002 Mist 1 1019 100 16093 1.91 169.8 13:23 18.10.2019
6003 Clear 1 1019 71 16093 1.91 169.8 12:58 18.10.2019
6004 Mist 1 1019 100 16093 1.91 169.8 12:39 18.10.2019
6005 Mist 2 1019 100 16093 1.18 179.321 12:21 18.10.2019
6006 Mist 2 1019 100 16093 1.18 179.321 11:57 18.10.2019
6007 Mist 2 1019 100 16093 1.18 179.321 11:57 18.10.2019
6008 Mist 2 1018 100 2012 1.18 179.321 11:39 18.10.2019
6009 Mist 2 1018 100 2012 1.18 179.321 11:20 18.10.2019
6010 Mist 2 1018 100 8047 1.18 179.321 10:56 18.10.2019
6011 Mist 2 1018 100 6437 1.18 179.321 10:38 18.10.2019
6012 Mist 2 1018 93 14484 1.18 179.321 10:18 18.10.2019
6013 Mist 2 1018 100 8047 1.18 179.321 09:55 18.10.2019
6014 Mist 3 1018 100 16093 1.18 179.321 09:37 18.10.2019
6015 Mist 3 1018 100 16093 1.02 125.531 09:18 18.10.2019
6016 Clear 3 1018 100 11265 1.02 125.531 08:42 18.10.2019
6017 Clear 3 1018 100 16093 1.02 125.531 08:23 18.10.2019
6018 Mist 3 1018 93 11265 1.02 125.531 07:48 18.10.2019
6019 Mist 4 1018 100 8047 1.02 125.531 07:29 18.10.2019
6020 Clear 4 1018 93 16093 1.02 125.531 06:41 18.10.2019
6021 Clear 4 1018 100 16093 1.01 27.756 06:22 18.10.2019
6022 Clear 5 1018 100 11265 1.01 27.756 05:59 18.10.2019
6023 Clear 5 1018 100 16093 1.01 27.756 05:24 18.10.2019
6024 Clear 6 1018 100 11265 1.01 27.756 04:49 18.10.2019
6025 Rain 7 1017 81 16093 1.01 27.756 03:34 18.10.2019
6026 Clear 8 1017 81 16093 2.13 351.315 02:37 18.10.2019
6027 Clear 8 1017 81 16093 2.13 351.315 02:18 18.10.2019
6028 Clear 9 1017 70 16093 1.95 345.551 01:31 18.10.2019
6029 Clouds 10 1017 66 16093 3.1 100 00:54 18.10.2019
6030 Clear 11 1017 66 16093 2.1 60 00:36 18.10.2019
6031 Clear 11 1017 66 16093 2.1 60 00:18 18.10.2019
6032 Clouds 12 1017 61 16093 3.1 60 23:38 17.10.2019
6033 Clouds 12 1017 61 16093 3.1 60 23:19 17.10.2019
6034 Clouds 12 1017 50 16093 1.5 270 22:55 17.10.2019
6035 Clear 12 1017 58 11265 2.66 303.224 22:37 17.10.2019
6036 Clear 12 1017 58 11265 2.66 303.224 22:18 17.10.2019
6037 Clouds 12 1016 50 16093 3.6 330 21:56 17.10.2019
6038 Clouds 12 1017 62 16093 3.1 340 21:37 17.10.2019
6039 Clouds 12 1017 62 16093 3.1 340 21:37 17.10.2019
6040 Clouds 12 1017 54 16093 3.1 20 21:19 17.10.2019
6041 Clouds 12 1017 54 16093 3.1 20 20:56 17.10.2019
6042 Clouds 11 1017 62 16093 1.89 354.997 20:38 17.10.2019
6043 Clouds 11 1017 62 16093 1.89 354.997 20:18 17.10.2019
6044 Clouds 11 1017 53 16093 3.1 350 19:55 17.10.2019
6045 Clouds 11 1018 57 16093 2.1 10 19:37 17.10.2019
6046 Clouds 11 1018 57 16093 2.1 10 19:18 17.10.2019
6047 Clouds 11 1018 57 16093 2.6 350 18:39 17.10.2019
6048 Clouds 10 1018 57 16093 2.6 350 18:21 17.10.2019
6049 Clouds 10 1018 61 16093 4.6 300 17:55 17.10.2019
6050 Clouds 10 1018 61 16093 4.6 300 17:55 17.10.2019
6051 Clouds 9 1018 66 16093 3.1 320 17:37 17.10.2019
6052 Rain 9 1018 66 16093 3.1 320 17:19 17.10.2019
6053 Rain 8 1018 75 16093 5.461 336 16:42 17.10.2019
6054 Rain 8 1018 75 16093 5.461 336 16:42 17.10.2019
6055 Clear 7 1018 75 16093 5.461 336 16:19 17.10.2019
6056 Clouds 6 1018 75 16093 2.6 300 15:59 17.10.2019
6057 Clear 5 1017 86 16093 5.461 336 15:40 17.10.2019
6058 Clear 5 1017 86 16093 5.987 326 15:20 17.10.2019
6059 Clouds 4 1017 81 16093 2.1 290 14:58 17.10.2019
6060 Clouds 4 1016 93 16093 6.617 323 14:39 17.10.2019
6061 Clouds 4 1016 93 16093 6.617 323 14:20 17.10.2019
6062 Clear 4 1016 86 16093 6.617 323 13:41 17.10.2019
6063 Clear 4 1016 86 16093 6.617 323 13:21 17.10.2019
6064 Clouds 4 1016 75 16093 1.5 310 12:58 17.10.2019
6065 Clouds 5 1017 81 16093 4.1 280 12:39 17.10.2019
6066 Clear 5 1016 86 16093 7.258 320 12:20 17.10.2019
6067 Clouds 5 1016 75 16093 2.1 290 11:56 17.10.2019
6068 Clear 5 1016 86 16093 7.258 320 11:38 17.10.2019
6069 Clear 5 1016 86 16093 7.258 320 11:18 17.10.2019
6070 Clear 5 1016 81 16093 2.6 270 10:42 17.10.2019
6071 Clear 5 1016 86 16093 7.258 320 10:20 17.10.2019
6072 Clouds 4 1016 75 16093 2.1 290 09:58 17.10.2019
6073 Clear 4 1016 86 16093 7.513 316 09:39 17.10.2019
6074 Clear 4 1016 86 16093 7.894 317 09:20 17.10.2019
6075 Clouds 5 1016 75 16093 3.6 310 08:57 17.10.2019
6076 Clouds 5 1016 75 16093 3.6 310 08:57 17.10.2019
6077 Clear 5 1016 81 16093 7.894 317 08:38 17.10.2019
6078 Clear 5 1016 81 16093 7.894 317 08:18 17.10.2019
6079 Clear 5 1016 75 16093 3.1 270 07:48 17.10.2019
6080 Clouds 5 1016 86 16093 7.894 317 07:21 17.10.2019
6081 Clouds 5 1016 86 16093 7.894 317 07:21 17.10.2019
6082 Clouds 5 1016 70 16093 3.1 290 06:58 17.10.2019
6083 -273 0 0 0 0 0 06:39 17.10.2019
6084 Clear 5 1016 86 16093 9.04 320 06:19 17.10.2019
6085 Clear 5 1017 75 16093 2.1 260 05:41 17.10.2019
6086 Clear 5 1016 80 16093 9.04 320 05:21 17.10.2019
6087 Clear 5 1017 70 16093 3.6 270 04:50 17.10.2019
6088 Clear 6 1016 70 16093 9.04 320 03:50 17.10.2019
6089 Clouds 8 1016 65 16093 2.6 290 02:35 17.10.2019
6090 Clouds 10 1015 57 16093 2.6 310 00:44 17.10.2019
6091 Clouds 10 1015 57 16093 3.6 300 00:22 17.10.2019
6092 Clouds 11 1015 53 16093 6.7 290 23:59 16.10.2019
6093 Clouds 11 1015 57 16093 6.2 310 23:41 16.10.2019
6094 Clouds 11 1015 57 16093 6.2 310 23:19 16.10.2019
6095 Clouds 11 1015 57 16093 6.2 310 23:19 16.10.2019
6096 Clouds 11 1015 50 16093 7.2 300 22:55 16.10.2019
6097 Clouds 11 1014 57 16093 6.7 310 22:36 16.10.2019
6098 Clouds 11 1014 57 16093 6.7 310 22:36 16.10.2019
6099 Clouds 11 1014 53 16093 7.2 330 22:18 16.10.2019
6100 Clouds 11 1014 61 16093 6.2 310 21:55 16.10.2019
6101 Clouds 11 1014 53 16093 7.2 330 21:54 16.10.2019
6102 Clouds 11 1014 61 16093 6.7 320 21:36 16.10.2019
6103 Clouds 11 1014 61 16093 6.7 320 21:18 16.10.2019
6104 Clouds 11 1014 53 16093 6.7 320 20:55 16.10.2019
6105 Clouds 11 1014 53 16093 6.7 320 20:55 16.10.2019
6106 Clouds 10 1014 57 16093 6.7 300 20:37 16.10.2019
6107 Clouds 10 1014 57 16093 6.7 300 20:19 16.10.2019
6108 Rain 10 1014 61 16093 6.7 320 19:40 16.10.2019
6109 Rain 10 1014 61 16093 6.7 320 19:21 16.10.2019
6110 -273 0 0 0 0 0 18:58 16.10.2019
6111 -273 0 0 0 0 0 18:58 16.10.2019
6112 Clouds 10 1013 66 16093 5.1 330 18:38 16.10.2019
6113 Clouds 9 1013 66 16093 5.1 330 18:18 16.10.2019
6114 Clouds 9 1013 66 16093 5.1 330 18:18 16.10.2019
6115 Clouds 9 1013 66 16093 6.7 320 17:55 16.10.2019
6116 Clouds 9 1012 66 16093 5.7 310 17:37 16.10.2019
6117 -273 0 0 0 0 0 17:37 16.10.2019
6118 Clouds 9 1012 66 16093 5.7 310 17:37 16.10.2019
6119 Clouds 9 1012 66 16093 5.7 310 17:19 16.10.2019
6120 Clouds 8 1012 66 16093 8.2 310 16:56 16.10.2019
6121 Clouds 8 1012 66 16093 8.7 310 16:38 16.10.2019
6122 Clouds 8 1012 70 16093 5.7 320 16:19 16.10.2019
6123 Clouds 8 1012 65 16093 9.3 310 15:40 16.10.2019
6124 Clouds 8 1012 65 16093 9.3 310 15:40 16.10.2019
6125 Clouds 8 1011 75 16093 5.1 310 15:19 16.10.2019
6126 Clouds 7 1011 81 16093 5.7 300 14:59 16.10.2019
6127 Clouds 7 1011 81 16093 5.7 300 14:40 16.10.2019
6128 Clouds 7 1011 75 16093 7.7 320 14:21 16.10.2019
6129 Clouds 7 1010 70 16093 6.7 320 13:58 16.10.2019
6130 Clouds 7 1010 70 16093 4.6 310 13:40 16.10.2019
6131 Clouds 7 1010 70 16093 6.2 300 13:21 16.10.2019
6132 Rain 7 1010 70 16093 7.2 300 12:44 16.10.2019
6133 Rain 7 1010 70 16093 2.6 300 12:20 16.10.2019
6134 Clouds 7 1010 65 16093 8.7 310 11:55 16.10.2019
6135 Clouds 7 1009 70 16093 6.7 280 11:37 16.10.2019
6136 Clouds 7 1009 70 16093 4.6 280 11:18 16.10.2019
6137 Clouds 7 1009 70 16093 4.6 280 11:18 16.10.2019
6138 Clouds 8 1009 65 16093 6.7 320 10:37 16.10.2019
6139 Clouds 8 1009 70 16093 5.1 280 10:18 16.10.2019
6140 Clear 8 1010 65 16093 6.2 280 09:41 16.10.2019
6141 Clear 8 1010 65 16093 5.1 270 09:22 16.10.2019
6142 Clouds 8 1009 65 16093 5.7 290 08:58 16.10.2019
6143 Clear 8 1010 61 16093 4.6 270 08:40 16.10.2019
6144 Clear 8 1010 61 16093 3.6 270 08:20 16.10.2019
6145 Clear 8 1010 61 16093 3.6 270 08:20 16.10.2019
6146 Clouds 8 1009 61 16093 3.6 270 07:43 16.10.2019
6147 Clear 8 1009 70 16093 11.228 300 07:24 16.10.2019
6148 Clouds 8 1009 61 16093 5.7 290 06:55 16.10.2019
6149 Clouds 9 1009 66 16093 5.7 280 06:31 16.10.2019
6150 Clouds 10 1009 76 16093 11.066 302 05:22 16.10.2019
6151 Clouds 13 1007 62 16093 10.3 300 02:53 16.10.2019
6152 Clouds 16 1006 93 16093 6.2 230 01:39 16.10.2019
6153 Clouds 16 1006 88 16093 5.1 230 01:18 16.10.2019
6154 Rain 16 1006 100 11265 5.1 230 00:45 16.10.2019
6155 Rain 17 1006 93 3219 6.2 230 23:59 15.10.2019
6156 Rain 17 1005 87 9656 4.1 210 23:39 15.10.2019
6157 Rain 17 1006 68 16093 5.7 210 23:21 15.10.2019
6158 Clouds 17 1006 72 16093 4.6 220 22:55 15.10.2019
6159 Clouds 17 1006 72 16093 4.6 220 22:55 15.10.2019
6160 Clear 17 1006 68 16093 6.2 200 22:37 15.10.2019
6161 Clouds 17 1005 63 16093 8.2 200 22:19 15.10.2019
6162 Clouds 17 1005 63 16093 8.2 200 21:55 15.10.2019
6163 Clouds 17 1007 72 16093 7.7 190 21:37 15.10.2019
6164 Clouds 17 1007 67 16093 7.7 190 21:19 15.10.2019
6165 Clouds 17 1007 67 16093 7.7 190 21:19 15.10.2019
6166 Clouds 16 1007 67 16093 6.2 190 20:56 15.10.2019
6167 Clouds 16 1008 63 16093 6.2 190 20:37 15.10.2019
6168 Clouds 15 1009 67 16093 7.2 190 20:19 15.10.2019
6169 Rain 14 1008 62 16093 6.2 200 19:56 15.10.2019
6170 Rain 14 1008 62 16093 6.2 200 19:56 15.10.2019
6171 Rain 14 1010 67 16093 7.2 190 19:37 15.10.2019
6172 Rain 14 1010 67 16093 7.2 190 19:37 15.10.2019
6173 Rain 13 1010 71 16093 6.2 200 19:19 15.10.2019
6174 Clouds 13 1010 58 16093 5.7 200 18:44 15.10.2019
6175 Clouds 13 1010 58 16093 5.7 200 18:26 15.10.2019
6176 Rain 12 1010 58 16093 5.7 190 17:55 15.10.2019
6177 Rain 12 1010 58 16093 5.7 190 17:55 15.10.2019
6178 -273 0 0 0 0 0 17:37 15.10.2019
6179 Rain 12 1012 66 16093 5.1 160 17:19 15.10.2019
6180 Rain 12 1012 66 16093 5.1 160 17:19 15.10.2019
6181 Clouds 11 1013 62 16093 5.1 180 16:45 15.10.2019
6182 Clouds 11 1013 58 16093 5.1 170 16:22 15.10.2019
6183 Clouds 10 1012 53 16093 5.7 170 15:58 15.10.2019
6184 Clear 9 1013 70 16093 3.6 160 15:39 15.10.2019
6185 Clouds 8 1013 65 16093 5.7 160 15:20 15.10.2019
6186 -273 0 0 0 0 0 14:56 15.10.2019
6187 Clear 7 1015 81 16093 9.227 159 14:37 15.10.2019
6188 Clear 7 1015 81 16093 9.16 161 14:37 15.10.2019
6189 Clear 6 1015 81 16093 9.227 159 14:19 15.10.2019
6190 Clear 6 1015 80 16093 2.1 150 13:43 15.10.2019
6191 Clear 6 1015 80 16093 2.1 150 13:43 15.10.2019
6192 Clear 5 1016 86 16093 2.1 130 13:21 15.10.2019
6193 Clouds 5 1015 70 16093 3.6 150 12:57 15.10.2019
6194 Clear 5 1016 86 16093 9.227 159 12:38 15.10.2019
6195 Clouds 5 1016 75 16093 3.1 130 12:20 15.10.2019
6196 Clear 4 1016 93 16093 1.5 110 11:43 15.10.2019
6197 Clear 4 1017 86 16093 1.5 140 11:20 15.10.2019
6198 Clouds 4 1017 75 16093 2.1 140 10:56 15.10.2019
6199 Clear 4 1017 86 16093 2.32 140.558 10:38 15.10.2019
6200 Clear 4 1017 75 16093 1.5 130 10:18 15.10.2019
6201 Clouds 4 1017 70 16093 1.5 120 09:55 15.10.2019
6202 Clouds 4 1017 70 16093 1.5 120 09:55 15.10.2019
6203 Clear 4 1017 86 16093 2.32 140.558 09:36 15.10.2019
6204 Clear 4 1017 86 16093 2.32 140.558 09:36 15.10.2019
6205 Clouds 4 1017 70 16093 1.5 110 09:18 15.10.2019
6206 Clear 5 1018 75 16093 2.1 140 08:41 15.10.2019
6207 Clear 5 1018 75 16093 2.1 140 08:21 15.10.2019
6208 Clear 5 1018 81 16093 1.47 143.302 07:48 15.10.2019
6209 Clear 5 1018 81 16093 1.5 130 07:23 15.10.2019
6210 Clouds 5 1018 61 16093 2.1 130 06:58 15.10.2019
6211 Clear 5 1018 86 16093 1.47 143.302 06:40 15.10.2019
6212 Clouds 5 1017 70 16093 2.6 150 06:20 15.10.2019
6213 Clear 5 1018 86 16093 1.39 164.962 05:37 15.10.2019
6214 Clouds 5 1018 100 16093 2.1 150 04:54 15.10.2019
6215 Clear 6 1018 93 16093 1.39 164.962 04:20 15.10.2019
6216 Clear 6 1018 81 16093 1.25 222.527 03:35 15.10.2019
6217 Clear 6 1018 81 16093 1.25 222.527 03:35 15.10.2019
6218 Rain 8 1018 53 16093 1.5 200 02:19 15.10.2019
6219 Clear 10 1018 61 16093 1.25 222.527 01:41 15.10.2019
6220 Clear 10 1018 57 16093 1.73 210.68 01:18 15.10.2019
6221 Clear 12 1018 53 16093 1.5 250 00:26 15.10.2019
6222 Rain 12 1018 46 16093 4.6 240 23:59 14.10.2019
6223 Rain 12 1018 50 16093 2.59 257.01 23:38 14.10.2019
6224 Rain 12 1018 50 16093 2.1 220 23:19 14.10.2019
6225 Rain 12 1018 50 16093 2.1 220 23:19 14.10.2019
6226 Clear 12 1018 50 16093 2.59 257.01 22:40 14.10.2019
6227 Clear 12 1018 50 16093 2.59 257.01 22:40 14.10.2019
6228 Clear 12 1019 46 16093 2.59 257.01 22:21 14.10.2019
6229 Clouds 12 1018 46 16093 5.7 240 21:59 14.10.2019
6230 Clear 12 1019 46 16093 1.5 260 21:40 14.10.2019
6231 Clear 12 1019 46 16093 1.5 260 21:40 14.10.2019
6232 Clear 12 1019 50 16093 2.8 276.286 21:21 14.10.2019
6233 Clouds 11 1019 37 24140 3.1 250 20:58 14.10.2019
6234 Clear 11 1019 50 16093 3.6 300 20:38 14.10.2019
6235 Clear 11 1019 53 16093 4.1 230 20:19 14.10.2019
6236 Clouds 10 1019 45 16093 4.6 270 19:56 14.10.2019
6237 Clear 10 1019 50 16093 2.757 291 19:37 14.10.2019
6238 Clouds 10 1019 49 16093 5.1 260 19:19 14.10.2019
6239 Clear 9 1020 45 16093 2.9 269.427 18:57 14.10.2019
6240 Clear 9 1020 45 16093 2.1 250 18:37 14.10.2019
6241 Clear 9 1020 59 16093 2.1 250 18:18 14.10.2019
6242 Clear 8 1020 61 16093 4.1 260 17:41 14.10.2019
6243 Clear 7 1020 61 16093 4.1 260 17:23 14.10.2019
6244 Clear 6 1020 65 16093 3.1 270 16:56 14.10.2019
6245 Clear 6 1020 65 16093 2.9 282.986 16:38 14.10.2019
6246 Clear 5 1020 65 16093 2.9 282.986 16:19 14.10.2019
6247 Rain 4 1019 80 16093 2.1 280 15:41 14.10.2019
6248 Rain 3 1019 80 16093 2.1 280 15:21 14.10.2019
6249 Clear 2 1018 71 16093 3.1 278.59 14:44 14.10.2019
6250 Clear 2 1018 71 16093 3.1 278.59 14:26 14.10.2019
6251 Clear 2 1017 71 16093 1.5 270 13:59 14.10.2019
6252 Clear 2 1017 71 16093 1.5 280 13:40 14.10.2019
6253 Clear 2 1017 67 16093 1.5 280 13:21 14.10.2019
6254 Clear 2 1017 67 16093 3.13 275.742 12:42 14.10.2019
6255 Clear 3 1017 64 16093 3.18 289.135 12:21 14.10.2019
6256 Clear 3 1016 64 16093 3.18 289.135 11:57 14.10.2019
6257 Clear 3 1016 64 16093 3.18 289.135 11:38 14.10.2019
6258 Clear 3 1016 65 16093 3.1 280 11:20 14.10.2019
6259 Clouds 4 1016 70 16093 3.18 289.135 10:44 14.10.2019
6260 Clear 4 1016 60 16093 2.6 280 10:44 14.10.2019
6261 Clouds 4 1016 70 16093 3.18 289.135 10:21 14.10.2019
6262 Clouds 4 1016 65 16093 3.18 289.135 09:59 14.10.2019
6263 Clouds 4 1016 65 16093 2.6 300 09:40 14.10.2019
6264 Clouds 5 1016 65 16093 2.6 300 09:20 14.10.2019
6265 Clouds 5 1015 52 16093 3.1 280 08:48 14.10.2019
6266 Clouds 6 1015 65 16093 3.37 282.261 08:23 14.10.2019
6267 Clouds 7 1015 61 16093 2.1 260 07:44 14.10.2019
6268 Clouds 7 1015 65 16093 3.37 282.261 07:22 14.10.2019
6269 Clouds 7 1015 61 16093 1.5 270 06:56 14.10.2019
6270 Clouds 7 1015 61 16093 3.37 282.261 06:28 14.10.2019
6271 Clouds 7 1014 58 16093 3.6 300 05:53 14.10.2019
6272 Rain 8 1014 58 16093 3.6 290 04:53 14.10.2019
6273 Clouds 8 1013 65 16093 2.1 320 03:49 14.10.2019
6274 Clouds 8 1014 57 16093 3.1 300 03:22 14.10.2019
6275 Clouds 9 1012 53 16093 4.6 300 01:52 14.10.2019
6276 Clouds 9 1012 53 16093 5.1 310 01:18 14.10.2019
6277 Clouds 10 1011 57 16093 2.1 300 00:40 14.10.2019
6278 Clouds 10 1011 47 16093 5.1 280 00:18 14.10.2019
6279 Clouds 11 1010 47 16093 5.1 260 23:40 13.10.2019
6280 Clouds 11 1010 47 16093 5.1 260 23:19 13.10.2019
6281 Clouds 11 1010 46 16093 6.2 270 22:55 13.10.2019
6282 Clouds 11 1010 47 16093 5.7 250 22:55 13.10.2019
6283 Clouds 11 1010 44 16093 7.7 240 22:37 13.10.2019
6284 Clouds 11 1010 44 16093 7.7 240 22:19 13.10.2019
6285 Clouds 11 1010 44 16093 7.7 240 22:19 13.10.2019
6286 -273 0 0 0 0 0 21:55 13.10.2019
6287 Clear 12 1010 44 16093 5.1 230 21:36 13.10.2019
6288 Clear 11 1010 44 16093 5.1 230 21:18 13.10.2019
6289 Clear 11 1010 44 16093 5.1 230 21:18 13.10.2019
6290 Clear 11 1010 47 16093 7.7 250 20:55 13.10.2019
6291 Clouds 11 1009 46 16093 10.3 250 20:55 13.10.2019
6292 Clear 11 1011 46 16093 7.7 260 20:36 13.10.2019
6293 Clear 11 1011 46 16093 7.7 260 20:18 13.10.2019
6294 Clear 10 1012 46 16093 7.2 270 19:40 13.10.2019
6295 Clear 10 1012 46 16093 7.2 270 19:22 13.10.2019
6296 Clouds 9 1011 47 16093 8.7 260 18:59 13.10.2019
6297 Clear 9 1012 53 16093 8.2 260 18:38 13.10.2019
6298 Clouds 9 1012 49 16093 9.8 260 18:20 13.10.2019
6299 Clear 8 1012 49 16093 8.7 260 17:59 13.10.2019
6300 Clear 8 1012 49 16093 7.7 250 17:40 13.10.2019
6301 Clear 7 1012 49 16093 7.7 250 17:22 13.10.2019
6302 Clear 7 1012 49 16093 7.7 250 17:22 13.10.2019
6303 Clear 6 1012 61 16093 5.7 240 16:43 13.10.2019
6304 Clear 6 1012 61 16093 5.7 240 16:19 13.10.2019
6305 Clear 5 1012 81 16093 4.6 230 15:57 13.10.2019
6306 Clear 5 1012 81 16093 6.28 252.053 15:39 13.10.2019
6307 Clouds 5 1010 52 16093 2.1 240 15:20 13.10.2019
6308 Clear 4 1012 86 16093 5.11 244.303 14:58 13.10.2019
6309 Clear 4 1011 86 16093 3.6 230 14:39 13.10.2019
6310 Clear 4 1011 86 16093 3.6 230 14:20 13.10.2019
6311 Clear 3 1011 80 16093 4.1 220 13:55 13.10.2019
6312 Clear 3 1011 80 16093 4.1 230 13:37 13.10.2019
6313 Clear 3 1011 80 16093 4.1 230 13:37 13.10.2019
6314 Clouds 3 1010 80 16093 2.6 210 13:18 13.10.2019
6315 Clear 3 1011 80 16093 4.1 230 13:18 13.10.2019
6316 Clouds 3 1010 80 16093 3.1 200 12:55 13.10.2019
6317 Clear 3 1011 75 16093 4.1 230 12:55 13.10.2019
6318 Clear 3 1011 75 16093 1.5 220 12:36 13.10.2019
6319 Clear 3 1011 75 16093 1.5 220 12:36 13.10.2019
6320 Clear 3 1011 75 16093 1.5 220 12:18 13.10.2019
6321 Clear 3 1011 75 16093 5.7 200 11:54 13.10.2019
6322 Clear 3 1011 75 16093 5.1 200 11:36 13.10.2019
6323 Clouds 3 1010 80 16093 2.1 280 11:18 13.10.2019
6324 Clear 4 1011 70 16093 4.6 200 10:41 13.10.2019
6325 Clear 4 1011 70 16093 4.6 200 10:22 13.10.2019
6326 Clear 4 1011 70 16093 4.6 200 10:22 13.10.2019
6327 Clear 4 1011 70 16093 4.6 200 10:22 13.10.2019
6328 Clear 4 1011 70 16093 3.41 252.998 09:40 13.10.2019
6329 Clear 4 1011 70 16093 6.77 233.709 09:21 13.10.2019
6330 Clear 4 1011 70 16093 6.77 233.709 09:21 13.10.2019
6331 Clouds 5 1010 61 16093 3.6 240 08:57 13.10.2019
6332 Clouds 5 1011 61 16093 5.1 230 08:37 13.10.2019
6333 Clouds 6 1011 61 16093 5.1 230 08:18 13.10.2019
6334 Clouds 6 1011 61 16093 9.3 210 07:45 13.10.2019
6335 Clouds 6 1011 61 16093 9.3 210 07:45 13.10.2019
6336 Clear 7 1011 46 16093 5.7 190 06:58 13.10.2019
6337 Clear 8 1011 57 16093 6.7 200 06:31 13.10.2019
6338 Clear 10 1011 57 16093 8.2 200 05:34 13.10.2019
6339 Clear 10 1011 57 16093 8.2 200 05:34 13.10.2019
6340 Clouds 10 1010 53 16093 2.6 240 04:46 13.10.2019
6341 Clouds 10 1010 53 16093 6.7 210 03:39 13.10.2019
6342 Clear 11 1011 53 16093 6.7 200 02:35 13.10.2019
6343 Clear 11 1012 40 16093 6.2 200 01:51 13.10.2019
6344 Clear 11 1012 40 16093 5.1 200 01:22 13.10.2019
6345 Rain 12 1012 40 16093 9.8 210 00:44 13.10.2019
6346 Rain 12 1012 36 16093 9.8 210 00:21 13.10.2019
6347 Clear 12 1012 36 16093 8.7 210 23:55 12.10.2019
6348 Clear 12 1012 36 16093 10.8 220 23:36 12.10.2019
6349 Clear 12 1012 36 16093 10.8 220 23:18 12.10.2019
6350 Clear 12 1013 36 16093 7.7 210 22:55 12.10.2019
6351 Clear 12 1013 36 16093 10.3 200 22:36 12.10.2019
6352 Clear 12 1013 36 16093 10.3 200 22:18 12.10.2019
6353 Clear 11 1015 36 16093 8.7 210 21:41 12.10.2019
6354 Clear 11 1015 35 16093 8.7 210 21:23 12.10.2019
6355 Clouds 11 1014 37 16093 7.7 210 20:56 12.10.2019
6356 Clear 10 1016 46 16093 9.3 210 20:38 12.10.2019
6357 Clear 10 1016 46 16093 9.3 210 20:38 12.10.2019
6358 Clear 10 1016 46 16093 9.3 210 20:20 12.10.2019
6359 Clear 9 1017 49 16093 9.3 240 19:37 12.10.2019
6360 Clear 8 1017 49 16093 9.3 240 19:19 12.10.2019
6361 Clear 7 1017 49 16093 7.7 250 18:44 12.10.2019
6362 Clear 7 1017 49 16093 7.7 250 18:26 12.10.2019
6363 Clear 6 1018 52 16093 8.7 230 17:56 12.10.2019
6364 Clear 6 1018 52 16093 8.7 230 17:56 12.10.2019
6365 Clear 6 1018 60 16093 6.7 230 17:37 12.10.2019
6366 Clouds 6 1017 48 16093 10.8 230 17:18 12.10.2019
6367 Clear 5 1018 69 16093 7.2 220 16:41 12.10.2019
6368 Clear 4 1018 69 16093 7.2 220 16:21 12.10.2019
6369 Clouds 3 1017 60 16093 7.2 230 15:58 12.10.2019
6370 Clear 3 1018 80 16093 5.7 220 15:38 12.10.2019
6371 Clear 2 1018 80 16093 5.7 220 15:19 12.10.2019
6372 Clear 2 1018 86 16093 4.6 220 14:41 12.10.2019
6373 Clouds 2 1017 64 16093 5.7 230 14:20 12.10.2019
6374 Clear 2 1018 86 16093 4.1 220 13:52 12.10.2019
6375 Clear 2 1018 86 16093 4.6 220 13:33 12.10.2019
6376 Clear 2 1017 64 16093 5.1 240 12:57 12.10.2019
6377 Clear 2 1017 80 16093 3.6 220 12:38 12.10.2019
6378 Clouds 3 1017 55 16093 6.7 250 12:20 12.10.2019
6379 Clouds 3 1018 60 16093 2.1 210 11:47 12.10.2019
6380 Clouds 3 1017 74 16093 4.1 220 11:24 12.10.2019
6381 Clouds 4 1018 64 16093 3.1 210 10:58 12.10.2019
6382 Clouds 4 1018 64 16093 3.1 210 10:40 12.10.2019
6383 Clouds 4 1017 60 16093 6.2 250 10:21 12.10.2019
6384 Clouds 4 1018 60 16093 1.5 210 09:57 12.10.2019
6385 Clouds 3 1017 74 16093 3.6 230 09:38 12.10.2019
6386 Clouds 4 1017 60 16093 4.1 240 09:20 12.10.2019
6387 Clouds 4 1017 60 16093 4.1 240 09:20 12.10.2019
6388 Clouds 4 1018 60 16093 2.1 240 08:55 12.10.2019
6389 Clear 4 1018 69 16093 6.15 248.755 08:36 12.10.2019
6390 Clouds 4 1017 55 16093 5.1 240 08:18 12.10.2019
6391 Clouds 3 1018 64 16093 2.1 260 07:32 12.10.2019
6392 Clouds 4 1018 64 16093 5.7 280 06:38 12.10.2019
6393 Clouds 4 1018 55 16093 5.88 261.244 05:44 12.10.2019
6394 Clouds 5 1018 55 16093 4.6 270 04:43 12.10.2019
6395 Clouds 5 1018 75 16093 5.1 270 03:56 12.10.2019
6396 -273 0 0 0 0 0 02:54 12.10.2019
6397 Rain 5 1016 87 16093 7.7 270 01:35 12.10.2019
6398 Rain 6 1015 81 16093 6.2 250 00:57 12.10.2019
6399 Rain 6 1015 81 16093 6.2 250 00:38 12.10.2019
6400 Rain 6 1015 93 11265 5.7 270 23:55 11.10.2019
6401 Rain 6 1014 75 16093 5.1 270 23:37 11.10.2019
6402 Rain 6 1014 81 6437 8.2 260 23:18 11.10.2019
6403 Rain 6 1013 81 6437 7.2 280 22:39 11.10.2019
6404 Drizzle 6 1013 81 14484 7.2 270 22:20 11.10.2019
6405 Drizzle 7 1013 100 4023 7.2 260 21:55 11.10.2019
6406 Mist 7 1013 93 6437 7.2 260 21:36 11.10.2019
6407 Mist 7 1013 93 6437 7.2 260 21:18 11.10.2019
6408 Rain 8 1012 100 16093 6.2 270 20:42 11.10.2019
6409 Rain 9 1012 100 16093 6.2 270 20:24 11.10.2019
6410 Rain 9 1012 81 16093 8.2 250 19:56 11.10.2019
6411 Rain 9 1013 87 16093 8.2 270 19:38 11.10.2019
6412 Rain 10 1012 87 16093 6.7 250 19:18 11.10.2019
6413 Rain 10 1011 87 16093 5.7 250 18:56 11.10.2019
6414 Rain 10 1011 87 16093 5.7 250 18:56 11.10.2019
6415 Rain 10 1011 87 16093 5.7 250 18:37 11.10.2019
6416 Rain 11 1012 100 16093 5.7 240 18:18 11.10.2019
6417 Rain 11 1011 93 16093 4.6 270 17:57 11.10.2019
6418 Rain 12 1011 87 4023 6.2 280 17:37 11.10.2019
6419 Rain 12 1010 100 4828 4.6 190 17:18 11.10.2019
6420 Rain 14 1010 100 8047 1.5 210 16:42 11.10.2019
6421 Rain 16 1011 93 11265 6.2 180 16:21 11.10.2019
6422 Rain 18 1011 93 16093 5.7 180 15:59 11.10.2019
6423 Rain 18 1010 88 14484 5.1 170 15:39 11.10.2019
6424 Rain 18 1011 93 16093 4.6 150 15:19 11.10.2019
6425 Rain 18 1011 88 16093 3.6 170 14:47 11.10.2019
6426 Rain 18 1011 88 16093 3.6 170 14:29 11.10.2019
6427 Rain 18 1011 82 16093 4.6 180 13:57 11.10.2019
6428 Rain 18 1011 82 16093 4.1 180 13:38 11.10.2019
6429 Rain 18 1011 88 16093 3.1 180 13:19 11.10.2019
6430 Rain 18 1012 93 16093 2.6 180 12:56 11.10.2019
6431 Rain 18 1012 93 16093 3.6 170 12:38 11.10.2019
6432 Rain 19 1011 93 16093 3.6 190 12:18 11.10.2019
6433 Rain 19 1012 93 16093 4.6 190 11:41 11.10.2019
6434 Rain 19 1012 93 16093 4.6 190 11:22 11.10.2019
6435 Rain 19 1011 88 14484 7.2 170 10:58 11.10.2019
6436 Rain 19 1012 93 16093 5.1 160 10:40 11.10.2019
6437 Rain 19 1012 93 16093 5.1 160 10:22 11.10.2019
6438 Clouds 18 1012 93 16093 3.6 160 09:55 11.10.2019
6439 Clouds 18 1013 93 16093 3.6 160 09:37 11.10.2019
6440 Clouds 18 1013 93 16093 3.6 160 09:19 11.10.2019
6441 Rain 18 1012 88 16093 5.1 160 08:55 11.10.2019
6442 Rain 18 1013 88 16093 3.6 150 08:36 11.10.2019
6443 Rain 18 1012 88 16093 2.6 160 08:18 11.10.2019
6444 Rain 18 1012 88 9656 4.1 150 07:41 11.10.2019
6445 Rain 18 1013 82 16093 3.1 140 07:22 11.10.2019
6446 Rain 18 1013 88 16093 4.6 150 06:47 11.10.2019
6447 Rain 18 1014 88 16093 4.92 156.113 06:22 11.10.2019
6448 Rain 19 1014 77 16093 2.6 150 05:39 11.10.2019
6449 Rain 19 1015 77 16093 4.92 156.113 04:59 11.10.2019
6450 Rain 19 1014 77 16093 4.92 156.113 04:24 11.10.2019
6451 Clouds 19 1015 73 16093 3.6 130 02:32 11.10.2019
6452 Rain 19 1014 88 16093 3.1 110 00:49 11.10.2019
6453 Rain 19 1015 82 16093 3.94 161.97 00:29 11.10.2019
6454 Rain 19 1016 77 16093 4.24 163.778 23:44 10.10.2019
6455 Rain 19 1016 77 16093 4.24 163.778 23:22 10.10.2019
6456 Rain 20 1016 73 16093 4.24 163.778 22:58 10.10.2019
6457 Rain 20 1016 73 16093 3.6 140 22:39 10.10.2019
6458 Clouds 21 1015 64 16093 4.6 130 22:20 10.10.2019
6459 Clear 21 1016 73 16093 4.6 130 21:57 10.10.2019
6460 Clouds 21 1016 73 16093 3.1 120 21:39 10.10.2019
6461 Clouds 21 1016 73 16093 3.1 120 21:20 10.10.2019
6462 Clouds 21 1018 77 16093 2.6 130 20:43 10.10.2019
6463 Clouds 20 1018 77 16093 2.6 130 20:22 10.10.2019
6464 Clouds 20 1018 64 16093 3.6 150 19:59 10.10.2019
6465 Clouds 20 1019 77 16093 2.6 130 19:41 10.10.2019
6466 Clouds 20 1019 77 16093 2.6 130 19:41 10.10.2019
6467 Clouds 20 1019 77 16093 2.6 130 19:41 10.10.2019
6468 Clouds 20 1018 72 16093 2.6 130 19:21 10.10.2019
6469 Clear 19 1018 72 16093 3.6 140 18:59 10.10.2019
6470 Rain 19 1019 77 16093 4.6 160 18:39 10.10.2019
6471 Rain 18 1019 72 16093 3.1 180 18:20 10.10.2019
6472 Clear 18 1019 82 16093 3.1 160 17:55 10.10.2019
6473 Clear 17 1019 82 16093 3.1 140 17:36 10.10.2019
6474 Clouds 17 1020 87 11265 3.6 150 17:18 10.10.2019
6475 Clear 16 1019 82 16093 3.6 130 16:44 10.10.2019
6476 Clear 15 1019 93 16093 3.1 150 16:26 10.10.2019
6477 Clouds 14 1020 87 16093 1.5 150 15:54 10.10.2019
6478 Clouds 14 1018 82 16093 4.6 120 15:36 10.10.2019
6479 Clouds 13 1018 82 16093 4.1 140 15:18 10.10.2019
6480 Clear 12 1018 82 16093 2.6 110 14:54 10.10.2019
6481 Clouds 12 1019 93 16093 2.1 130 14:36 10.10.2019
6482 Clouds 12 1018 76 16093 3.1 110 14:18 10.10.2019
6483 Clear 12 1018 87 16093 2.6 110 13:41 10.10.2019
6484 Clouds 12 1019 76 16093 2.6 140 13:23 10.10.2019
6485 Clear 12 1020 87 16093 2.6 120 12:57 10.10.2019
6486 Clear 13 1020 87 16093 2.6 130 12:39 10.10.2019
6487 Clouds 13 1019 71 16093 2.6 150 12:20 10.10.2019
6488 Clear 13 1019 76 16093 2.1 130 11:55 10.10.2019
6489 Clear 13 1019 76 16093 3.6 140 11:37 10.10.2019
6490 Clouds 13 1019 67 16093 4.1 140 11:18 10.10.2019
6491 Clear 14 1019 76 16093 4.1 130 10:44 10.10.2019
6492 Clear 14 1019 76 16093 4.1 130 10:26 10.10.2019
6493 Clouds 14 1019 62 16093 1.5 140 09:56 10.10.2019
6494 Clear 14 1019 76 16093 2.6 130 09:38 10.10.2019
6495 Clear 14 1019 76 16093 2.6 130 09:19 10.10.2019
6496 Clear 15 1019 67 16093 3.1 130 08:41 10.10.2019
6497 Clear 15 1019 67 16093 3.1 130 08:23 10.10.2019
6498 Clear 15 1019 55 16093 4.6 110 07:59 10.10.2019
6499 Clear 15 1019 55 16093 4.6 110 07:40 10.10.2019
6500 Clear 15 1019 67 16093 3.6 130 07:20 10.10.2019
6501 Clear 15 1019 58 16093 3.6 110 06:45 10.10.2019
6502 Clear 15 1019 67 16093 2.6 110 06:26 10.10.2019
6503 Clear 15 1020 67 16093 3.23 120.967 05:25 10.10.2019
6504 Clear 14 1020 67 16093 3.23 120.967 04:37 10.10.2019
6505 Clear 15 1019 67 16093 3.1 100 03:42 10.10.2019
6506 Clear 17 1019 59 16093 3.03 107.622 01:43 10.10.2019
6507 Clear 17 1019 59 16093 3.03 107.622 01:43 10.10.2019
6508 Clear 17 1019 59 16093 2.57 113.767 01:24 10.10.2019
6509 Clear 18 1019 49 16093 2.1 120 00:53 10.10.2019
6510 Clear 19 1019 49 16093 2.6 110 00:21 10.10.2019
6511 Clear 21 1019 46 16093 3.6 110 23:39 09.10.2019
6512 Clear 21 1019 46 16093 3.6 110 23:20 09.10.2019
6513 Clear 21 1019 43 16093 3.6 90 22:44 09.10.2019
6514 Clear 21 1019 43 16093 3.6 90 22:24 09.10.2019
6515 Clear 21 1020 46 16093 4.1 130 21:59 09.10.2019
6516 Clear 21 1020 49 16093 3.6 120 21:40 09.10.2019
6517 Clear 21 1020 49 16093 3.6 120 21:20 09.10.2019
6518 Clear 21 1021 46 16093 4.1 150 20:56 09.10.2019
6519 Clear 21 1021 46 16093 4.1 150 20:56 09.10.2019
6520 Clear 21 1021 46 16093 4.1 150 20:56 09.10.2019
6521 Clear 21 1021 46 16093 3.1 130 20:37 09.10.2019
6522 Clear 21 1021 46 16093 3.1 130 20:37 09.10.2019
6523 Clear 21 1021 46 16093 3.1 130 20:18 09.10.2019
6524 Clear 21 1022 49 16093 4.6 130 19:46 09.10.2019
6525 Clear 21 1022 49 16093 4.6 130 19:24 09.10.2019
6526 Clear 20 1022 49 16093 3.1 130 18:58 09.10.2019
6527 Clear 20 1022 52 16093 4.1 150 18:38 09.10.2019
6528 Clear 19 1022 49 16093 3.6 190 18:19 09.10.2019
6529 Clear 18 1023 59 16093 4.6 80 17:56 09.10.2019
6530 Clear 18 1023 59 16093 3.1 160 17:37 09.10.2019
6531 Rain 17 1022 51 16093 4.1 170 17:19 09.10.2019
6532 Clear 15 1023 71 16093 2.47 157.712 16:42 09.10.2019
6533 Clear 14 1023 71 16093 2.47 157.712 16:23 09.10.2019
6534 Clear 13 1023 76 16093 2.47 157.712 15:58 09.10.2019
6535 Clear 12 1023 76 16093 2.47 157.712 15:39 09.10.2019
6536 Rain 10 1023 76 16093 1.74 154.764 15:20 09.10.2019
6537 Rain 9 1022 71 16093 2.6 150 14:59 09.10.2019
6538 Clear 8 1022 87 16093 1.74 154.764 14:41 09.10.2019
6539 Clear 8 1022 87 16093 1.74 154.764 14:18 09.10.2019
6540 Clear 9 1022 81 16093 1.74 154.764 13:40 09.10.2019
6541 Clear 9 1022 81 16093 1.9 159.426 13:22 09.10.2019
6542 Clear 9 1022 66 16093 2.1 160 12:59 09.10.2019
6543 Clear 9 1022 66 16093 2.1 160 12:59 09.10.2019
6544 Clear 9 1022 81 16093 1.9 159.426 12:41 09.10.2019
6545 Clear 9 1022 81 16093 2.17 156.798 12:21 09.10.2019
6546 Clear 9 1021 76 16093 2.17 156.798 11:55 09.10.2019
6547 Clear 10 1021 81 16093 2.17 156.798 11:37 09.10.2019
6548 Clear 10 1021 81 16093 2.17 156.798 11:19 09.10.2019
6549 Clear 10 1021 66 16093 2.1 130 10:44 09.10.2019
6550 Clear 10 1021 76 16093 2.17 156.798 10:22 09.10.2019
6551 Clear 11 1021 58 16093 2.6 160 09:59 09.10.2019
6552 Clear 11 1021 81 16093 2.17 156.798 09:40 09.10.2019
6553 Clear 11 1021 81 16093 2.43 146.806 09:19 09.10.2019
6554 Clear 12 1021 76 16093 2.52 155.624 08:41 09.10.2019
6555 Clear 12 1021 76 16093 2.52 155.624 08:23 09.10.2019
6556 Clear 12 1021 62 16093 2.1 140 07:58 09.10.2019
6557 Clear 12 1021 71 16093 2.52 155.624 07:39 09.10.2019
6558 Clear 12 1020 82 16093 2.1 140 07:20 09.10.2019
6559 Clear 12 1021 66 16093 2.1 130 06:51 09.10.2019
6560 Clear 12 1021 66 16093 2.1 130 06:51 09.10.2019
6561 Clear 12 1021 77 16093 2.6 120 05:56 09.10.2019
6562 Clear 12 1021 71 16093 1.8 147.192 05:28 09.10.2019
6563 Clear 13 1021 71 16093 1.8 147.192 04:25 09.10.2019
6564 Clear 14 1021 67 16093 2.6 90 02:52 09.10.2019
6565 Clear 17 1020 59 16093 1.37 179.499 01:43 09.10.2019
6566 Clear 18 1021 48 16093 1.5 110 01:20 09.10.2019
6567 Clear 18 1021 48 16093 1.5 110 01:20 09.10.2019
6568 Clear 19 1021 45 16093 1.25 192.261 00:56 09.10.2019
6569 Clear 20 1021 45 16093 1.5 180 00:38 09.10.2019
6570 Clear 21 1021 40 16093 2.1 170 00:19 09.10.2019
6571 Clear 21 1021 40 16093 2.9 225.406 23:39 08.10.2019
6572 Clear 21 1021 37 16093 2.1 210 23:18 08.10.2019
6573 Clouds 21 1021 30 16093 1.5 220 22:56 08.10.2019
6574 Clear 21 1022 43 16093 2.9 225.406 22:38 08.10.2019
6575 Clear 21 1022 43 16093 2.9 225.406 22:38 08.10.2019
6576 Clear 21 1022 43 16093 2.9 225.406 22:19 08.10.2019
6577 Clear 21 1022 40 16093 3.6 200 21:57 08.10.2019
6578 Clear 21 1022 43 16093 3.1 180 21:38 08.10.2019
6579 Clear 21 1022 43 16093 3.1 180 21:18 08.10.2019
6580 Clear 21 1023 40 16093 2.6 170 20:55 08.10.2019
6581 Clear 21 1023 43 16093 2.6 200 20:37 08.10.2019
6582 Clear 21 1023 43 16093 2.6 200 20:37 08.10.2019
6583 Clear 21 1023 43 16093 2.6 200 20:19 08.10.2019
6584 Clear 21 1023 42 16093 2.1 170 19:56 08.10.2019
6585 Clear 20 1024 42 16093 2.6 210 19:36 08.10.2019
6586 Clear 20 1024 42 16093 2.6 210 19:18 08.10.2019
6587 Clear 19 1024 45 16093 2.1 230 18:45 08.10.2019
6588 Clear 19 1024 52 16093 2.1 187.906 18:25 08.10.2019
6589 Clear 18 1024 55 16093 2.1 187.906 17:58 08.10.2019
6590 Haze 17 1024 59 16093 2.1 160 17:39 08.10.2019
6591 Clear 16 1024 59 16093 2.1 160 17:20 08.10.2019
6592 Clear 15 1025 67 16093 2.1 180 16:56 08.10.2019
6593 Clear 15 1025 67 16093 2.1 180 16:56 08.10.2019
6594 Clear 15 1025 67 16093 2.1 180 16:56 08.10.2019
6595 Clear 14 1025 71 16093 1.5 150 16:37 08.10.2019
6596 Mist 13 1025 71 16093 1.5 150 16:18 08.10.2019
6597 Mist 9 1024 87 16093 2.1 187.906 15:39 08.10.2019
6598 Mist 9 1024 87 16093 2.1 187.906 15:39 08.10.2019
6599 Mist 9 1024 87 16093 1.43 165.778 15:20 08.10.2019
6600 Rain 7 1024 100 16093 1.43 165.778 14:56 08.10.2019
6601 Rain 6 1024 93 16093 1.43 165.778 14:38 08.10.2019
6602 Rain 6 1024 87 16093 1.43 165.778 14:19 08.10.2019
6603 Mist 7 1024 100 16093 1.43 165.778 13:55 08.10.2019
6604 Mist 7 1024 100 16093 1.43 165.778 13:37 08.10.2019
6605 Clear 7 1024 100 16093 1.43 165.778 13:18 08.10.2019
6606 Mist 7 1024 100 16093 0.47 254.918 12:41 08.10.2019
6607 Mist 6 1024 100 16093 0.45 303.083 12:20 08.10.2019
6608 Mist 6 1024 100 16093 0.45 303.083 12:20 08.10.2019
6609 Mist 7 1024 100 16093 0.45 303.083 11:58 08.10.2019
6610 Clear 7 1023 100 16093 0.45 303.083 11:39 08.10.2019
6611 Clear 7 1023 100 16093 0.45 303.083 11:21 08.10.2019
6612 Clear 7 1023 100 16093 0.45 303.083 11:21 08.10.2019
6613 Clear 7 1023 100 16093 0.45 303.083 10:42 08.10.2019
6614 Clear 7 1023 100 16093 0.45 303.083 10:23 08.10.2019
6615 Clouds 7 1023 81 16093 0.45 303.083 09:59 08.10.2019
6616 Mist 8 1023 100 16093 0.45 303.083 09:40 08.10.2019
6617 Mist 7 1023 100 16093 1.13 349.259 09:22 08.10.2019
6618 Clear 8 1023 100 16093 0.93 327.59 08:45 08.10.2019
6619 Clear 8 1023 100 16093 0.93 327.59 08:25 08.10.2019
6620 Mist 8 1023 100 16093 0.93 327.59 07:57 08.10.2019
6621 Clear 8 1023 93 16093 0.93 327.59 07:38 08.10.2019
6622 Clear 9 1023 93 16093 0.93 327.59 07:19 08.10.2019
6623 Clear 9 1023 93 16093 0.93 327.59 06:45 08.10.2019
6624 Clear 9 1023 93 16093 1.08 299.639 06:21 08.10.2019
6625 Clear 10 1023 93 16093 1.08 299.639 05:43 08.10.2019
6626 Clear 10 1023 93 16093 1.08 299.639 05:43 08.10.2019
6627 Clear 10 1023 71 16093 1.08 299.639 05:19 08.10.2019
6628 Clear 12 1022 81 16093 1.08 299.639 03:31 08.10.2019
6629 Clear 14 1022 67 16093 2.18 303.748 02:43 08.10.2019
6630 Clear 15 1022 67 16093 2.18 303.748 02:25 08.10.2019
6631 Clear 18 1022 45 16093 1.5 270 01:41 08.10.2019
6632 Clear 19 1021 34 16093 3.6 290 00:56 08.10.2019
6633 Clear 20 1021 40 16093 3.1 290 00:25 08.10.2019
6634 Clear 20 1021 37 16093 4.1 290 23:56 07.10.2019
6635 Clear 20 1021 37 16093 3.6 300 23:37 07.10.2019
6636 Clear 21 1021 37 16093 3.6 300 23:19 07.10.2019
6637 Clear 21 1021 40 16093 4.6 260 22:54 07.10.2019
6638 Clear 21 1021 40 16093 4.6 260 22:54 07.10.2019
6639 Clear 21 1021 37 16093 5.1 280 22:36 07.10.2019
6640 Clear 21 1021 35 16093 3.6 280 22:18 07.10.2019
6641 Clear 21 1021 37 16093 5.1 260 21:54 07.10.2019
6642 Clear 21 1022 40 16093 5.7 290 21:36 07.10.2019
6643 Clear 21 1022 40 16093 5.7 290 21:18 07.10.2019
6644 Clear 21 1022 40 16093 3.6 270 20:54 07.10.2019
6645 Clear 20 1022 43 16093 4.1 290 20:36 07.10.2019
6646 Clouds 20 1022 37 16093 4.6 280 20:18 07.10.2019
6647 Clear 20 1023 42 16093 5.1 260 19:41 07.10.2019
6648 Clear 19 1023 42 16093 5.1 260 19:20 07.10.2019
6649 Clear 19 1023 48 16093 3.6 270 18:59 07.10.2019
6650 Clear 18 1023 48 16093 4.75 280.718 18:40 07.10.2019
6651 Clear 18 1023 48 16093 4.06 261.672 18:19 07.10.2019
6652 Clear 18 1023 48 16093 4.06 261.672 18:19 07.10.2019
6653 Clear 17 1023 55 16093 2.1 270 17:55 07.10.2019
6654 Clear 16 1023 59 16093 4.06 261.672 17:37 07.10.2019
6655 Clear 15 1023 59 16093 4.06 261.672 17:18 07.10.2019
6656 Clear 14 1023 76 16093 4.06 261.672 16:43 07.10.2019
6657 Clear 13 1023 76 16093 4.06 261.672 16:25 07.10.2019
6658 Clear 10 1022 87 16093 4.06 261.672 15:46 07.10.2019
6659 Mist 9 1022 76 16093 3.1 220 15:27 07.10.2019
6660 Mist 9 1022 100 16093 2.57 260.384 14:59 07.10.2019
6661 Mist 9 1022 100 16093 2.57 260.384 14:59 07.10.2019
6662 Clear 8 1022 93 16093 2.57 260.384 14:40 07.10.2019
6663 Clear 8 1022 93 16093 2.57 260.384 14:22 07.10.2019
6664 Mist 8 1022 87 16093 2.57 260.384 13:44 07.10.2019
6665 Mist 8 1022 87 16093 3.06 259.109 13:21 07.10.2019
6666 Clear 9 1022 93 16093 3.06 259.109 12:57 07.10.2019
6667 Clear 9 1022 87 16093 3.06 259.109 12:39 07.10.2019
6668 Clear 9 1022 87 16093 3.08 252.283 12:20 07.10.2019
6669 Clear 9 1022 87 16093 3.08 252.283 12:20 07.10.2019
6670 Clouds 9 1021 76 16093 2.6 270 11:59 07.10.2019
6671 Clear 10 1022 87 16093 3.08 252.283 11:39 07.10.2019
6672 Clear 10 1022 87 16093 3.08 252.283 11:20 07.10.2019
6673 Clear 10 1021 87 16093 3.08 252.283 10:42 07.10.2019
6674 Clear 10 1021 87 16093 3.08 252.283 10:23 07.10.2019
6675 Clouds 11 1021 76 16093 3.6 260 09:57 07.10.2019
6676 Clear 11 1021 81 16093 3.08 252.283 09:38 07.10.2019
6677 Clear 11 1021 81 16093 3.08 252.283 09:38 07.10.2019
6678 Clear 11 1021 81 16093 3.81 273.496 09:20 07.10.2019
6679 Clear 11 1021 76 16093 3.54 248.655 08:43 07.10.2019
6680 Clear 12 1021 76 16093 3.54 248.655 08:20 07.10.2019
6681 Clear 12 1021 71 16093 3.54 248.655 07:47 07.10.2019
6682 Clear 12 1021 71 16093 3.54 248.655 07:27 07.10.2019
6683 Clear 13 1021 71 16093 2.1 250 06:57 07.10.2019
6684 Clear 13 1021 67 16093 2.6 240 06:38 07.10.2019
6685 Clouds 14 1021 62 16093 4.1 250 05:56 07.10.2019
6686 Clear 14 1021 67 16093 3.89 261.239 05:25 07.10.2019
6687 Clear 14 1021 62 16093 3.89 261.239 04:47 07.10.2019
6688 Clear 15 1020 62 16093 3.89 261.239 03:46 07.10.2019